<?xml version="1.0" encoding="UTF-8" standalone="no" ?>
<gpx xmlns="http://www.topografix.com/GPX/1/1" xmlns:xsi="http://www.w3.org/2001/XMLSchema-instance" xsi:schemaLocation="http://www.topografix.com/GPX/1/1 http://www.topografix.com/GPX/1/1/gpx.xsd" version="1.1" creator="VisuGPX - https://www.visugpx.com">
  <metadata>
    <name>Cadaques J3</name>
    <desc><![CDATA[File with points/tracks from Locus Map/4.25.1]]></desc>
  </metadata>
  <trk>
    <name><![CDATA[2024-09-18 est Go - Rieux ]]></name>
    <extensions>
      <line xmlns="http://www.topografix.com/GPX/gpx_style/0/2">
        <color>0000FF</color>
        <opacity>0.70</opacity>
        <width>6.0</width>
      </line>
    </extensions>
    <trkseg>
      <trkpt lat="43.09427" lon="0.70267">
        <ele>391.59</ele>
        <time>2024-09-18T06:52:05.999Z</time>
      </trkpt>
      <trkpt lat="43.09429" lon="0.70279">
        <ele>390.67</ele>
        <time>2024-09-18T06:54:01.999Z</time>
      </trkpt>
      <trkpt lat="43.09437" lon="0.7027">
        <ele>391.91</ele>
        <time>2024-09-18T06:54:53.999Z</time>
      </trkpt>
      <trkpt lat="43.09445" lon="0.70276">
        <ele>377.63</ele>
        <time>2024-09-18T07:02:59.000Z</time>
      </trkpt>
      <trkpt lat="43.09444" lon="0.70292">
        <ele>377.1</ele>
        <time>2024-09-18T07:03:12.000Z</time>
      </trkpt>
      <trkpt lat="43.09444" lon="0.70313">
        <ele>376.9</ele>
        <time>2024-09-18T07:03:17.000Z</time>
      </trkpt>
      <trkpt lat="43.09446" lon="0.70339">
        <ele>376.8</ele>
        <time>2024-09-18T07:03:22.000Z</time>
      </trkpt>
      <trkpt lat="43.09448" lon="0.70365">
        <ele>376.91</ele>
        <time>2024-09-18T07:03:27.000Z</time>
      </trkpt>
      <trkpt lat="43.0945" lon="0.70393">
        <ele>377.26</ele>
        <time>2024-09-18T07:03:32.000Z</time>
      </trkpt>
      <trkpt lat="43.09453" lon="0.70422">
        <ele>377.57</ele>
        <time>2024-09-18T07:03:37.000Z</time>
      </trkpt>
      <trkpt lat="43.09455" lon="0.70452">
        <ele>377.87</ele>
        <time>2024-09-18T07:03:42.000Z</time>
      </trkpt>
      <trkpt lat="43.09456" lon="0.70486">
        <ele>378.02</ele>
        <time>2024-09-18T07:03:47.000Z</time>
      </trkpt>
      <trkpt lat="43.09455" lon="0.70518">
        <ele>378.15</ele>
        <time>2024-09-18T07:03:52.000Z</time>
      </trkpt>
      <trkpt lat="43.09453" lon="0.7055">
        <ele>378.26</ele>
        <time>2024-09-18T07:03:57.000Z</time>
      </trkpt>
      <trkpt lat="43.0945" lon="0.70581">
        <ele>378.34</ele>
        <time>2024-09-18T07:04:02.000Z</time>
      </trkpt>
      <trkpt lat="43.09445" lon="0.70612">
        <ele>378.35</ele>
        <time>2024-09-18T07:04:07.000Z</time>
      </trkpt>
      <trkpt lat="43.09438" lon="0.70644">
        <ele>378.38</ele>
        <time>2024-09-18T07:04:12.000Z</time>
      </trkpt>
      <trkpt lat="43.09432" lon="0.70676">
        <ele>378.48</ele>
        <time>2024-09-18T07:04:17.000Z</time>
      </trkpt>
      <trkpt lat="43.09426" lon="0.70709">
        <ele>378.43</ele>
        <time>2024-09-18T07:04:22.000Z</time>
      </trkpt>
      <trkpt lat="43.09421" lon="0.70742">
        <ele>378.37</ele>
        <time>2024-09-18T07:04:27.000Z</time>
      </trkpt>
      <trkpt lat="43.09416" lon="0.70773">
        <ele>378.32</ele>
        <time>2024-09-18T07:04:32.000Z</time>
      </trkpt>
      <trkpt lat="43.09412" lon="0.70803">
        <ele>378.26</ele>
        <time>2024-09-18T07:04:37.000Z</time>
      </trkpt>
      <trkpt lat="43.09408" lon="0.70836">
        <ele>378.25</ele>
        <time>2024-09-18T07:04:42.000Z</time>
      </trkpt>
      <trkpt lat="43.09403" lon="0.70869">
        <ele>378.26</ele>
        <time>2024-09-18T07:04:47.000Z</time>
      </trkpt>
      <trkpt lat="43.09399" lon="0.70901">
        <ele>378.23</ele>
        <time>2024-09-18T07:04:52.000Z</time>
      </trkpt>
      <trkpt lat="43.09408" lon="0.70932">
        <ele>378.13</ele>
        <time>2024-09-18T07:04:57.000Z</time>
      </trkpt>
      <trkpt lat="43.09417" lon="0.70958">
        <ele>377.99</ele>
        <time>2024-09-18T07:05:02.000Z</time>
      </trkpt>
      <trkpt lat="43.09413" lon="0.70992">
        <ele>377.85</ele>
        <time>2024-09-18T07:05:07.000Z</time>
      </trkpt>
      <trkpt lat="43.09404" lon="0.71025">
        <ele>377.73</ele>
        <time>2024-09-18T07:05:12.000Z</time>
      </trkpt>
      <trkpt lat="43.09398" lon="0.71058">
        <ele>377.51</ele>
        <time>2024-09-18T07:05:17.000Z</time>
      </trkpt>
      <trkpt lat="43.09394" lon="0.71087">
        <ele>377.23</ele>
        <time>2024-09-18T07:05:22.000Z</time>
      </trkpt>
      <trkpt lat="43.09389" lon="0.71114">
        <ele>376.87</ele>
        <time>2024-09-18T07:05:27.000Z</time>
      </trkpt>
      <trkpt lat="43.09385" lon="0.7114">
        <ele>376.56</ele>
        <time>2024-09-18T07:05:32.000Z</time>
      </trkpt>
      <trkpt lat="43.0938" lon="0.7117">
        <ele>376.32</ele>
        <time>2024-09-18T07:05:37.000Z</time>
      </trkpt>
      <trkpt lat="43.09375" lon="0.71205">
        <ele>376.1</ele>
        <time>2024-09-18T07:05:42.000Z</time>
      </trkpt>
      <trkpt lat="43.0937" lon="0.71239">
        <ele>375.87</ele>
        <time>2024-09-18T07:05:47.000Z</time>
      </trkpt>
      <trkpt lat="43.09364" lon="0.71275">
        <ele>375.65</ele>
        <time>2024-09-18T07:05:52.000Z</time>
      </trkpt>
      <trkpt lat="43.09358" lon="0.71313">
        <ele>375.45</ele>
        <time>2024-09-18T07:05:57.000Z</time>
      </trkpt>
      <trkpt lat="43.09351" lon="0.71351">
        <ele>375.27</ele>
        <time>2024-09-18T07:06:02.000Z</time>
      </trkpt>
      <trkpt lat="43.09342" lon="0.71389">
        <ele>375.09</ele>
        <time>2024-09-18T07:06:07.000Z</time>
      </trkpt>
      <trkpt lat="43.09334" lon="0.71425">
        <ele>374.88</ele>
        <time>2024-09-18T07:06:12.000Z</time>
      </trkpt>
      <trkpt lat="43.09326" lon="0.71462">
        <ele>374.68</ele>
        <time>2024-09-18T07:06:17.000Z</time>
      </trkpt>
      <trkpt lat="43.09317" lon="0.71498">
        <ele>374.49</ele>
        <time>2024-09-18T07:06:22.000Z</time>
      </trkpt>
      <trkpt lat="43.09309" lon="0.71533">
        <ele>374.29</ele>
        <time>2024-09-18T07:06:27.000Z</time>
      </trkpt>
      <trkpt lat="43.09301" lon="0.71568">
        <ele>374.12</ele>
        <time>2024-09-18T07:06:32.000Z</time>
      </trkpt>
      <trkpt lat="43.09294" lon="0.71602">
        <ele>373.99</ele>
        <time>2024-09-18T07:06:37.000Z</time>
      </trkpt>
      <trkpt lat="43.09281" lon="0.71628">
        <ele>373.88</ele>
        <time>2024-09-18T07:06:42.000Z</time>
      </trkpt>
      <trkpt lat="43.09259" lon="0.71639">
        <ele>373.8</ele>
        <time>2024-09-18T07:06:47.000Z</time>
      </trkpt>
      <trkpt lat="43.09237" lon="0.7165">
        <ele>373.75</ele>
        <time>2024-09-18T07:06:52.000Z</time>
      </trkpt>
      <trkpt lat="43.09223" lon="0.71675">
        <ele>373.71</ele>
        <time>2024-09-18T07:06:57.000Z</time>
      </trkpt>
      <trkpt lat="43.09215" lon="0.71704">
        <ele>373.65</ele>
        <time>2024-09-18T07:07:02.000Z</time>
      </trkpt>
      <trkpt lat="43.09209" lon="0.71735">
        <ele>373.61</ele>
        <time>2024-09-18T07:07:07.000Z</time>
      </trkpt>
      <trkpt lat="43.09203" lon="0.7177">
        <ele>373.55</ele>
        <time>2024-09-18T07:07:12.000Z</time>
      </trkpt>
      <trkpt lat="43.092" lon="0.71804">
        <ele>373.51</ele>
        <time>2024-09-18T07:07:17.000Z</time>
      </trkpt>
      <trkpt lat="43.09198" lon="0.71834">
        <ele>373.49</ele>
        <time>2024-09-18T07:07:22.000Z</time>
      </trkpt>
      <trkpt lat="43.09195" lon="0.71864">
        <ele>373.47</ele>
        <time>2024-09-18T07:07:27.000Z</time>
      </trkpt>
      <trkpt lat="43.0919" lon="0.71899">
        <ele>373.46</ele>
        <time>2024-09-18T07:07:32.000Z</time>
      </trkpt>
      <trkpt lat="43.09187" lon="0.71932">
        <ele>373.45</ele>
        <time>2024-09-18T07:07:37.000Z</time>
      </trkpt>
      <trkpt lat="43.09184" lon="0.71978">
        <ele>373.45</ele>
        <time>2024-09-18T07:07:42.999Z</time>
      </trkpt>
      <trkpt lat="43.09183" lon="0.72016">
        <ele>373.46</ele>
        <time>2024-09-18T07:07:47.999Z</time>
      </trkpt>
      <trkpt lat="43.09181" lon="0.72043">
        <ele>373.47</ele>
        <time>2024-09-18T07:07:52.999Z</time>
      </trkpt>
      <trkpt lat="43.09179" lon="0.7207">
        <ele>373.46</ele>
        <time>2024-09-18T07:07:57.999Z</time>
      </trkpt>
      <trkpt lat="43.09177" lon="0.72098">
        <ele>373.45</ele>
        <time>2024-09-18T07:08:02.999Z</time>
      </trkpt>
      <trkpt lat="43.09173" lon="0.72126">
        <ele>373.45</ele>
        <time>2024-09-18T07:08:07.999Z</time>
      </trkpt>
      <trkpt lat="43.0917" lon="0.72157">
        <ele>373.42</ele>
        <time>2024-09-18T07:08:12.999Z</time>
      </trkpt>
      <trkpt lat="43.09166" lon="0.72192">
        <ele>373.39</ele>
        <time>2024-09-18T07:08:17.999Z</time>
      </trkpt>
      <trkpt lat="43.09162" lon="0.72228">
        <ele>373.38</ele>
        <time>2024-09-18T07:08:22.999Z</time>
      </trkpt>
      <trkpt lat="43.0916" lon="0.72262">
        <ele>373.38</ele>
        <time>2024-09-18T07:08:27.999Z</time>
      </trkpt>
      <trkpt lat="43.09157" lon="0.72294">
        <ele>373.32</ele>
        <time>2024-09-18T07:08:32.999Z</time>
      </trkpt>
      <trkpt lat="43.09152" lon="0.72326">
        <ele>373.29</ele>
        <time>2024-09-18T07:08:37.999Z</time>
      </trkpt>
      <trkpt lat="43.09148" lon="0.72354">
        <ele>373.28</ele>
        <time>2024-09-18T07:08:42.999Z</time>
      </trkpt>
      <trkpt lat="43.09141" lon="0.72382">
        <ele>373.28</ele>
        <time>2024-09-18T07:08:47.999Z</time>
      </trkpt>
      <trkpt lat="43.09134" lon="0.72408">
        <ele>373.28</ele>
        <time>2024-09-18T07:08:52.999Z</time>
      </trkpt>
      <trkpt lat="43.09126" lon="0.72433">
        <ele>373.28</ele>
        <time>2024-09-18T07:08:57.999Z</time>
      </trkpt>
      <trkpt lat="43.09116" lon="0.72456">
        <ele>373.15</ele>
        <time>2024-09-18T07:09:02.999Z</time>
      </trkpt>
      <trkpt lat="43.09107" lon="0.72478">
        <ele>372.92</ele>
        <time>2024-09-18T07:09:07.999Z</time>
      </trkpt>
      <trkpt lat="43.09097" lon="0.72502">
        <ele>372.63</ele>
        <time>2024-09-18T07:09:12.999Z</time>
      </trkpt>
      <trkpt lat="43.09091" lon="0.72526">
        <ele>372.3</ele>
        <time>2024-09-18T07:09:17.999Z</time>
      </trkpt>
      <trkpt lat="43.09088" lon="0.72552">
        <ele>371.82</ele>
        <time>2024-09-18T07:09:22.999Z</time>
      </trkpt>
      <trkpt lat="43.09082" lon="0.72575">
        <ele>371.35</ele>
        <time>2024-09-18T07:09:27.999Z</time>
      </trkpt>
      <trkpt lat="43.09076" lon="0.72601">
        <ele>370.42</ele>
        <time>2024-09-18T07:09:32.999Z</time>
      </trkpt>
      <trkpt lat="43.09068" lon="0.7263">
        <ele>369.12</ele>
        <time>2024-09-18T07:09:37.999Z</time>
      </trkpt>
      <trkpt lat="43.09065" lon="0.72668">
        <ele>366.63</ele>
        <time>2024-09-18T07:09:42.999Z</time>
      </trkpt>
      <trkpt lat="43.09063" lon="0.72703">
        <ele>365.15</ele>
        <time>2024-09-18T07:09:47.999Z</time>
      </trkpt>
      <trkpt lat="43.09057" lon="0.72734">
        <ele>364.2</ele>
        <time>2024-09-18T07:09:52.999Z</time>
      </trkpt>
      <trkpt lat="43.0905" lon="0.72761">
        <ele>363.86</ele>
        <time>2024-09-18T07:09:57.999Z</time>
      </trkpt>
      <trkpt lat="43.09043" lon="0.72788">
        <ele>363.74</ele>
        <time>2024-09-18T07:10:02.999Z</time>
      </trkpt>
      <trkpt lat="43.09034" lon="0.72815">
        <ele>363.7</ele>
        <time>2024-09-18T07:10:07.999Z</time>
      </trkpt>
      <trkpt lat="43.09026" lon="0.72838">
        <ele>363.71</ele>
        <time>2024-09-18T07:10:12.999Z</time>
      </trkpt>
      <trkpt lat="43.09017" lon="0.72864">
        <ele>363.68</ele>
        <time>2024-09-18T07:10:17.999Z</time>
      </trkpt>
      <trkpt lat="43.09006" lon="0.72903">
        <ele>361.42</ele>
        <time>2024-09-18T07:10:22.999Z</time>
      </trkpt>
      <trkpt lat="43.08996" lon="0.72934">
        <ele>360.78</ele>
        <time>2024-09-18T07:10:27.999Z</time>
      </trkpt>
      <trkpt lat="43.08986" lon="0.72961">
        <ele>360.62</ele>
        <time>2024-09-18T07:10:32.999Z</time>
      </trkpt>
      <trkpt lat="43.08978" lon="0.72993">
        <ele>359.81</ele>
        <time>2024-09-18T07:10:37.999Z</time>
      </trkpt>
      <trkpt lat="43.08967" lon="0.73031">
        <ele>358.32</ele>
        <time>2024-09-18T07:10:42.999Z</time>
      </trkpt>
      <trkpt lat="43.0896" lon="0.73063">
        <ele>357.65</ele>
        <time>2024-09-18T07:10:47.999Z</time>
      </trkpt>
      <trkpt lat="43.08953" lon="0.73097">
        <ele>356.7</ele>
        <time>2024-09-18T07:10:52.999Z</time>
      </trkpt>
      <trkpt lat="43.08948" lon="0.73131">
        <ele>356.07</ele>
        <time>2024-09-18T07:10:57.999Z</time>
      </trkpt>
      <trkpt lat="43.08944" lon="0.73166">
        <ele>355.93</ele>
        <time>2024-09-18T07:11:02.999Z</time>
      </trkpt>
      <trkpt lat="43.08941" lon="0.73202">
        <ele>354.77</ele>
        <time>2024-09-18T07:11:07.999Z</time>
      </trkpt>
      <trkpt lat="43.08939" lon="0.73239">
        <ele>353.49</ele>
        <time>2024-09-18T07:11:12.999Z</time>
      </trkpt>
      <trkpt lat="43.08944" lon="0.73277">
        <ele>351.66</ele>
        <time>2024-09-18T07:11:17.999Z</time>
      </trkpt>
      <trkpt lat="43.0896" lon="0.73306">
        <ele>350.59</ele>
        <time>2024-09-18T07:11:22.999Z</time>
      </trkpt>
      <trkpt lat="43.08978" lon="0.73337">
        <ele>350.3</ele>
        <time>2024-09-18T07:11:27.999Z</time>
      </trkpt>
      <trkpt lat="43.08998" lon="0.73365">
        <ele>350.79</ele>
        <time>2024-09-18T07:11:32.999Z</time>
      </trkpt>
      <trkpt lat="43.09015" lon="0.7339">
        <ele>351.96</ele>
        <time>2024-09-18T07:11:37.999Z</time>
      </trkpt>
      <trkpt lat="43.09032" lon="0.7342">
        <ele>353.56</ele>
        <time>2024-09-18T07:11:42.999Z</time>
      </trkpt>
      <trkpt lat="43.09046" lon="0.73454">
        <ele>355.01</ele>
        <time>2024-09-18T07:11:47.999Z</time>
      </trkpt>
      <trkpt lat="43.09056" lon="0.73491">
        <ele>356.58</ele>
        <time>2024-09-18T07:11:52.999Z</time>
      </trkpt>
      <trkpt lat="43.09064" lon="0.73531">
        <ele>358.07</ele>
        <time>2024-09-18T07:11:57.999Z</time>
      </trkpt>
      <trkpt lat="43.09068" lon="0.7357">
        <ele>359.11</ele>
        <time>2024-09-18T07:12:02.999Z</time>
      </trkpt>
      <trkpt lat="43.09072" lon="0.73605">
        <ele>359.78</ele>
        <time>2024-09-18T07:12:07.999Z</time>
      </trkpt>
      <trkpt lat="43.09075" lon="0.73641">
        <ele>360.35</ele>
        <time>2024-09-18T07:12:12.999Z</time>
      </trkpt>
      <trkpt lat="43.09082" lon="0.73673">
        <ele>360.89</ele>
        <time>2024-09-18T07:12:17.999Z</time>
      </trkpt>
      <trkpt lat="43.09087" lon="0.73708">
        <ele>361.45</ele>
        <time>2024-09-18T07:12:22.999Z</time>
      </trkpt>
      <trkpt lat="43.0909" lon="0.73744">
        <ele>361.92</ele>
        <time>2024-09-18T07:12:27.999Z</time>
      </trkpt>
      <trkpt lat="43.09098" lon="0.73777">
        <ele>362.29</ele>
        <time>2024-09-18T07:12:32.999Z</time>
      </trkpt>
      <trkpt lat="43.09107" lon="0.73806">
        <ele>362.46</ele>
        <time>2024-09-18T07:12:37.999Z</time>
      </trkpt>
      <trkpt lat="43.09117" lon="0.73838">
        <ele>362.68</ele>
        <time>2024-09-18T07:12:42.999Z</time>
      </trkpt>
      <trkpt lat="43.09124" lon="0.7387">
        <ele>362.9</ele>
        <time>2024-09-18T07:12:47.999Z</time>
      </trkpt>
      <trkpt lat="43.09139" lon="0.73901">
        <ele>362.9</ele>
        <time>2024-09-18T07:12:52.999Z</time>
      </trkpt>
      <trkpt lat="43.09154" lon="0.73926">
        <ele>362.78</ele>
        <time>2024-09-18T07:12:57.999Z</time>
      </trkpt>
      <trkpt lat="43.09164" lon="0.73944">
        <ele>362.79</ele>
        <time>2024-09-18T07:13:02.999Z</time>
      </trkpt>
      <trkpt lat="43.09171" lon="0.73955">
        <ele>362.81</ele>
        <time>2024-09-18T07:13:07.999Z</time>
      </trkpt>
      <trkpt lat="43.09174" lon="0.73967">
        <ele>362.78</ele>
        <time>2024-09-18T07:13:12.999Z</time>
      </trkpt>
      <trkpt lat="43.09176" lon="0.73985">
        <ele>362.77</ele>
        <time>2024-09-18T07:13:17.999Z</time>
      </trkpt>
      <trkpt lat="43.09188" lon="0.74015">
        <ele>362.74</ele>
        <time>2024-09-18T07:13:22.999Z</time>
      </trkpt>
      <trkpt lat="43.09191" lon="0.74044">
        <ele>363.02</ele>
        <time>2024-09-18T07:13:27.999Z</time>
      </trkpt>
      <trkpt lat="43.09202" lon="0.74054">
        <ele>363.07</ele>
        <time>2024-09-18T07:13:32.999Z</time>
      </trkpt>
      <trkpt lat="43.09212" lon="0.74055">
        <ele>363.63</ele>
        <time>2024-09-18T07:14:26.999Z</time>
      </trkpt>
      <trkpt lat="43.09231" lon="0.74087">
        <ele>364.32</ele>
        <time>2024-09-18T07:14:31.999Z</time>
      </trkpt>
      <trkpt lat="43.0925" lon="0.74122">
        <ele>364.45</ele>
        <time>2024-09-18T07:14:36.999Z</time>
      </trkpt>
      <trkpt lat="43.09268" lon="0.74157">
        <ele>364.5</ele>
        <time>2024-09-18T07:14:41.999Z</time>
      </trkpt>
      <trkpt lat="43.0928" lon="0.74189">
        <ele>364.62</ele>
        <time>2024-09-18T07:14:46.999Z</time>
      </trkpt>
      <trkpt lat="43.09285" lon="0.74225">
        <ele>364.87</ele>
        <time>2024-09-18T07:14:51.999Z</time>
      </trkpt>
      <trkpt lat="43.09292" lon="0.74259">
        <ele>365.03</ele>
        <time>2024-09-18T07:14:56.999Z</time>
      </trkpt>
      <trkpt lat="43.093" lon="0.74291">
        <ele>364.83</ele>
        <time>2024-09-18T07:15:01.999Z</time>
      </trkpt>
      <trkpt lat="43.09307" lon="0.74323">
        <ele>364.72</ele>
        <time>2024-09-18T07:15:06.999Z</time>
      </trkpt>
      <trkpt lat="43.0932" lon="0.74351">
        <ele>364.68</ele>
        <time>2024-09-18T07:15:11.999Z</time>
      </trkpt>
      <trkpt lat="43.09334" lon="0.74379">
        <ele>364.66</ele>
        <time>2024-09-18T07:15:16.999Z</time>
      </trkpt>
      <trkpt lat="43.09346" lon="0.74409">
        <ele>364.59</ele>
        <time>2024-09-18T07:15:21.999Z</time>
      </trkpt>
      <trkpt lat="43.09359" lon="0.74441">
        <ele>364.53</ele>
        <time>2024-09-18T07:15:26.999Z</time>
      </trkpt>
      <trkpt lat="43.09371" lon="0.74474">
        <ele>364.48</ele>
        <time>2024-09-18T07:15:31.999Z</time>
      </trkpt>
      <trkpt lat="43.09383" lon="0.74507">
        <ele>364.43</ele>
        <time>2024-09-18T07:15:36.999Z</time>
      </trkpt>
      <trkpt lat="43.09392" lon="0.74542">
        <ele>364.38</ele>
        <time>2024-09-18T07:15:41.999Z</time>
      </trkpt>
      <trkpt lat="43.09405" lon="0.74572">
        <ele>364.32</ele>
        <time>2024-09-18T07:15:46.999Z</time>
      </trkpt>
      <trkpt lat="43.09413" lon="0.74598">
        <ele>364.26</ele>
        <time>2024-09-18T07:15:51.999Z</time>
      </trkpt>
      <trkpt lat="43.09418" lon="0.74618">
        <ele>364.26</ele>
        <time>2024-09-18T07:15:56.999Z</time>
      </trkpt>
      <trkpt lat="43.09418" lon="0.7464">
        <ele>364.25</ele>
        <time>2024-09-18T07:16:01.999Z</time>
      </trkpt>
      <trkpt lat="43.09415" lon="0.74661">
        <ele>364.25</ele>
        <time>2024-09-18T07:16:06.999Z</time>
      </trkpt>
      <trkpt lat="43.09416" lon="0.74686">
        <ele>364.25</ele>
        <time>2024-09-18T07:16:11.999Z</time>
      </trkpt>
      <trkpt lat="43.09433" lon="0.74708">
        <ele>364.23</ele>
        <time>2024-09-18T07:16:16.999Z</time>
      </trkpt>
      <trkpt lat="43.09452" lon="0.74728">
        <ele>364.2</ele>
        <time>2024-09-18T07:16:21.999Z</time>
      </trkpt>
      <trkpt lat="43.09468" lon="0.74753">
        <ele>364.22</ele>
        <time>2024-09-18T07:16:26.999Z</time>
      </trkpt>
      <trkpt lat="43.09483" lon="0.74776">
        <ele>364.33</ele>
        <time>2024-09-18T07:16:31.999Z</time>
      </trkpt>
      <trkpt lat="43.09496" lon="0.748">
        <ele>364.4</ele>
        <time>2024-09-18T07:16:36.999Z</time>
      </trkpt>
      <trkpt lat="43.09508" lon="0.74824">
        <ele>364.44</ele>
        <time>2024-09-18T07:16:41.999Z</time>
      </trkpt>
      <trkpt lat="43.09522" lon="0.74848">
        <ele>364.43</ele>
        <time>2024-09-18T07:16:46.999Z</time>
      </trkpt>
      <trkpt lat="43.09532" lon="0.74874">
        <ele>364.43</ele>
        <time>2024-09-18T07:16:51.999Z</time>
      </trkpt>
      <trkpt lat="43.09543" lon="0.74898">
        <ele>364.43</ele>
        <time>2024-09-18T07:16:56.999Z</time>
      </trkpt>
      <trkpt lat="43.0955" lon="0.74922">
        <ele>364.42</ele>
        <time>2024-09-18T07:17:01.999Z</time>
      </trkpt>
      <trkpt lat="43.09557" lon="0.74932">
        <ele>364.42</ele>
        <time>2024-09-18T07:17:09.999Z</time>
      </trkpt>
      <trkpt lat="43.0956" lon="0.74944">
        <ele>364.36</ele>
        <time>2024-09-18T07:17:33.999Z</time>
      </trkpt>
      <trkpt lat="43.09568" lon="0.74972">
        <ele>364.11</ele>
        <time>2024-09-18T07:17:38.999Z</time>
      </trkpt>
      <trkpt lat="43.09578" lon="0.75006">
        <ele>364</ele>
        <time>2024-09-18T07:17:43.999Z</time>
      </trkpt>
      <trkpt lat="43.09583" lon="0.75038">
        <ele>364</ele>
        <time>2024-09-18T07:17:48.999Z</time>
      </trkpt>
      <trkpt lat="43.09586" lon="0.75072">
        <ele>364</ele>
        <time>2024-09-18T07:17:53.999Z</time>
      </trkpt>
      <trkpt lat="43.09584" lon="0.75107">
        <ele>364.02</ele>
        <time>2024-09-18T07:17:58.999Z</time>
      </trkpt>
      <trkpt lat="43.09575" lon="0.75141">
        <ele>364.05</ele>
        <time>2024-09-18T07:18:03.999Z</time>
      </trkpt>
      <trkpt lat="43.09556" lon="0.75166">
        <ele>364.03</ele>
        <time>2024-09-18T07:18:08.999Z</time>
      </trkpt>
      <trkpt lat="43.09541" lon="0.75186">
        <ele>364.19</ele>
        <time>2024-09-18T07:18:13.999Z</time>
      </trkpt>
      <trkpt lat="43.09519" lon="0.75207">
        <ele>364.52</ele>
        <time>2024-09-18T07:18:18.999Z</time>
      </trkpt>
      <trkpt lat="43.095" lon="0.7523">
        <ele>364.65</ele>
        <time>2024-09-18T07:18:23.999Z</time>
      </trkpt>
      <trkpt lat="43.09481" lon="0.75251">
        <ele>364.73</ele>
        <time>2024-09-18T07:18:28.999Z</time>
      </trkpt>
      <trkpt lat="43.09462" lon="0.75271">
        <ele>364.8</ele>
        <time>2024-09-18T07:18:33.999Z</time>
      </trkpt>
      <trkpt lat="43.09445" lon="0.75289">
        <ele>364.85</ele>
        <time>2024-09-18T07:18:38.999Z</time>
      </trkpt>
      <trkpt lat="43.09426" lon="0.75309">
        <ele>364.89</ele>
        <time>2024-09-18T07:18:43.999Z</time>
      </trkpt>
      <trkpt lat="43.09406" lon="0.75328">
        <ele>364.92</ele>
        <time>2024-09-18T07:18:48.999Z</time>
      </trkpt>
      <trkpt lat="43.09388" lon="0.75347">
        <ele>364.96</ele>
        <time>2024-09-18T07:18:53.999Z</time>
      </trkpt>
      <trkpt lat="43.09376" lon="0.75357">
        <ele>364.97</ele>
        <time>2024-09-18T07:18:58.999Z</time>
      </trkpt>
      <trkpt lat="43.09388" lon="0.75359">
        <ele>365</ele>
        <time>2024-09-18T07:19:21.999Z</time>
      </trkpt>
      <trkpt lat="43.09391" lon="0.7538">
        <ele>365.02</ele>
        <time>2024-09-18T07:19:26.999Z</time>
      </trkpt>
      <trkpt lat="43.09393" lon="0.75404">
        <ele>365.08</ele>
        <time>2024-09-18T07:19:31.999Z</time>
      </trkpt>
      <trkpt lat="43.09396" lon="0.75432">
        <ele>365.28</ele>
        <time>2024-09-18T07:19:36.999Z</time>
      </trkpt>
      <trkpt lat="43.09394" lon="0.7546">
        <ele>365.43</ele>
        <time>2024-09-18T07:19:41.999Z</time>
      </trkpt>
      <trkpt lat="43.09387" lon="0.75486">
        <ele>365.53</ele>
        <time>2024-09-18T07:19:46.999Z</time>
      </trkpt>
      <trkpt lat="43.0938" lon="0.75511">
        <ele>365.58</ele>
        <time>2024-09-18T07:19:51.999Z</time>
      </trkpt>
      <trkpt lat="43.09376" lon="0.75539">
        <ele>365.61</ele>
        <time>2024-09-18T07:19:56.999Z</time>
      </trkpt>
      <trkpt lat="43.09379" lon="0.75567">
        <ele>365.61</ele>
        <time>2024-09-18T07:20:01.999Z</time>
      </trkpt>
      <trkpt lat="43.09384" lon="0.75598">
        <ele>365.6</ele>
        <time>2024-09-18T07:20:06.999Z</time>
      </trkpt>
      <trkpt lat="43.09388" lon="0.7563">
        <ele>365.6</ele>
        <time>2024-09-18T07:20:11.999Z</time>
      </trkpt>
      <trkpt lat="43.09393" lon="0.75664">
        <ele>365.59</ele>
        <time>2024-09-18T07:20:16.999Z</time>
      </trkpt>
      <trkpt lat="43.09395" lon="0.75699">
        <ele>365.59</ele>
        <time>2024-09-18T07:20:21.999Z</time>
      </trkpt>
      <trkpt lat="43.09396" lon="0.75734">
        <ele>365.57</ele>
        <time>2024-09-18T07:20:27.000Z</time>
      </trkpt>
      <trkpt lat="43.094" lon="0.75768">
        <ele>365.55</ele>
        <time>2024-09-18T07:20:32.000Z</time>
      </trkpt>
      <trkpt lat="43.09403" lon="0.75802">
        <ele>365.54</ele>
        <time>2024-09-18T07:20:37.000Z</time>
      </trkpt>
      <trkpt lat="43.09406" lon="0.75836">
        <ele>365.53</ele>
        <time>2024-09-18T07:20:42.000Z</time>
      </trkpt>
      <trkpt lat="43.0941" lon="0.75871">
        <ele>365.53</ele>
        <time>2024-09-18T07:20:47.000Z</time>
      </trkpt>
      <trkpt lat="43.09413" lon="0.75905">
        <ele>365.52</ele>
        <time>2024-09-18T07:20:52.000Z</time>
      </trkpt>
      <trkpt lat="43.09416" lon="0.75939">
        <ele>365.49</ele>
        <time>2024-09-18T07:20:57.000Z</time>
      </trkpt>
      <trkpt lat="43.09417" lon="0.75973">
        <ele>365.46</ele>
        <time>2024-09-18T07:21:02.000Z</time>
      </trkpt>
      <trkpt lat="43.09412" lon="0.76006">
        <ele>365.43</ele>
        <time>2024-09-18T07:21:07.000Z</time>
      </trkpt>
      <trkpt lat="43.09405" lon="0.76041">
        <ele>365.41</ele>
        <time>2024-09-18T07:21:12.000Z</time>
      </trkpt>
      <trkpt lat="43.09402" lon="0.76077">
        <ele>365.43</ele>
        <time>2024-09-18T07:21:17.000Z</time>
      </trkpt>
      <trkpt lat="43.09402" lon="0.76114">
        <ele>365.43</ele>
        <time>2024-09-18T07:21:22.000Z</time>
      </trkpt>
      <trkpt lat="43.09404" lon="0.76153">
        <ele>365.42</ele>
        <time>2024-09-18T07:21:27.000Z</time>
      </trkpt>
      <trkpt lat="43.09406" lon="0.76192">
        <ele>365.38</ele>
        <time>2024-09-18T07:21:32.000Z</time>
      </trkpt>
      <trkpt lat="43.09409" lon="0.76232">
        <ele>365.31</ele>
        <time>2024-09-18T07:21:37.000Z</time>
      </trkpt>
      <trkpt lat="43.09412" lon="0.76271">
        <ele>365.25</ele>
        <time>2024-09-18T07:21:42.000Z</time>
      </trkpt>
      <trkpt lat="43.09412" lon="0.7631">
        <ele>365.19</ele>
        <time>2024-09-18T07:21:47.000Z</time>
      </trkpt>
      <trkpt lat="43.09411" lon="0.76348">
        <ele>365.15</ele>
        <time>2024-09-18T07:21:52.000Z</time>
      </trkpt>
      <trkpt lat="43.0941" lon="0.76386">
        <ele>365.09</ele>
        <time>2024-09-18T07:21:57.000Z</time>
      </trkpt>
      <trkpt lat="43.09409" lon="0.76424">
        <ele>365.05</ele>
        <time>2024-09-18T07:22:02.000Z</time>
      </trkpt>
      <trkpt lat="43.09409" lon="0.76463">
        <ele>365</ele>
        <time>2024-09-18T07:22:07.000Z</time>
      </trkpt>
      <trkpt lat="43.09407" lon="0.76502">
        <ele>364.95</ele>
        <time>2024-09-18T07:22:12.000Z</time>
      </trkpt>
      <trkpt lat="43.09406" lon="0.76542">
        <ele>364.88</ele>
        <time>2024-09-18T07:22:17.000Z</time>
      </trkpt>
      <trkpt lat="43.09407" lon="0.76581">
        <ele>364.82</ele>
        <time>2024-09-18T07:22:22.000Z</time>
      </trkpt>
      <trkpt lat="43.09406" lon="0.76621">
        <ele>364.73</ele>
        <time>2024-09-18T07:22:27.000Z</time>
      </trkpt>
      <trkpt lat="43.09403" lon="0.76661">
        <ele>364.66</ele>
        <time>2024-09-18T07:22:32.000Z</time>
      </trkpt>
      <trkpt lat="43.09397" lon="0.767">
        <ele>364.6</ele>
        <time>2024-09-18T07:22:37.000Z</time>
      </trkpt>
      <trkpt lat="43.09391" lon="0.76739">
        <ele>364.55</ele>
        <time>2024-09-18T07:22:42.000Z</time>
      </trkpt>
      <trkpt lat="43.09382" lon="0.76778">
        <ele>364.5</ele>
        <time>2024-09-18T07:22:47.000Z</time>
      </trkpt>
      <trkpt lat="43.09369" lon="0.76813">
        <ele>364.44</ele>
        <time>2024-09-18T07:22:52.000Z</time>
      </trkpt>
      <trkpt lat="43.09354" lon="0.76848">
        <ele>364.37</ele>
        <time>2024-09-18T07:22:57.000Z</time>
      </trkpt>
      <trkpt lat="43.09343" lon="0.76884">
        <ele>364.33</ele>
        <time>2024-09-18T07:23:02.000Z</time>
      </trkpt>
      <trkpt lat="43.09335" lon="0.76922">
        <ele>364.29</ele>
        <time>2024-09-18T07:23:07.000Z</time>
      </trkpt>
      <trkpt lat="43.09327" lon="0.76959">
        <ele>364.24</ele>
        <time>2024-09-18T07:23:12.000Z</time>
      </trkpt>
      <trkpt lat="43.09317" lon="0.76995">
        <ele>364.19</ele>
        <time>2024-09-18T07:23:17.000Z</time>
      </trkpt>
      <trkpt lat="43.0931" lon="0.77032">
        <ele>364.12</ele>
        <time>2024-09-18T07:23:22.000Z</time>
      </trkpt>
      <trkpt lat="43.09304" lon="0.7707">
        <ele>364.04</ele>
        <time>2024-09-18T07:23:27.000Z</time>
      </trkpt>
      <trkpt lat="43.093" lon="0.77108">
        <ele>363.99</ele>
        <time>2024-09-18T07:23:32.000Z</time>
      </trkpt>
      <trkpt lat="43.09295" lon="0.77146">
        <ele>363.98</ele>
        <time>2024-09-18T07:23:37.000Z</time>
      </trkpt>
      <trkpt lat="43.09291" lon="0.77181">
        <ele>363.96</ele>
        <time>2024-09-18T07:23:42.000Z</time>
      </trkpt>
      <trkpt lat="43.09287" lon="0.77215">
        <ele>363.93</ele>
        <time>2024-09-18T07:23:47.000Z</time>
      </trkpt>
      <trkpt lat="43.09284" lon="0.77248">
        <ele>363.89</ele>
        <time>2024-09-18T07:23:52.000Z</time>
      </trkpt>
      <trkpt lat="43.0928" lon="0.7728">
        <ele>363.85</ele>
        <time>2024-09-18T07:23:57.000Z</time>
      </trkpt>
      <trkpt lat="43.09277" lon="0.77313">
        <ele>363.8</ele>
        <time>2024-09-18T07:24:02.000Z</time>
      </trkpt>
      <trkpt lat="43.09273" lon="0.77346">
        <ele>363.73</ele>
        <time>2024-09-18T07:24:07.000Z</time>
      </trkpt>
      <trkpt lat="43.09269" lon="0.77377">
        <ele>363.68</ele>
        <time>2024-09-18T07:24:12.000Z</time>
      </trkpt>
      <trkpt lat="43.09266" lon="0.77404">
        <ele>363.67</ele>
        <time>2024-09-18T07:24:17.000Z</time>
      </trkpt>
      <trkpt lat="43.09262" lon="0.77431">
        <ele>363.65</ele>
        <time>2024-09-18T07:24:22.000Z</time>
      </trkpt>
      <trkpt lat="43.0926" lon="0.77462">
        <ele>363.59</ele>
        <time>2024-09-18T07:24:27.000Z</time>
      </trkpt>
      <trkpt lat="43.09257" lon="0.77494">
        <ele>363.56</ele>
        <time>2024-09-18T07:24:32.000Z</time>
      </trkpt>
      <trkpt lat="43.09261" lon="0.77524">
        <ele>363.53</ele>
        <time>2024-09-18T07:24:37.000Z</time>
      </trkpt>
      <trkpt lat="43.09268" lon="0.77561">
        <ele>363.44</ele>
        <time>2024-09-18T07:24:42.000Z</time>
      </trkpt>
      <trkpt lat="43.09271" lon="0.77595">
        <ele>363.4</ele>
        <time>2024-09-18T07:24:47.000Z</time>
      </trkpt>
      <trkpt lat="43.09276" lon="0.77626">
        <ele>363.35</ele>
        <time>2024-09-18T07:24:52.000Z</time>
      </trkpt>
      <trkpt lat="43.09284" lon="0.77657">
        <ele>363.33</ele>
        <time>2024-09-18T07:24:57.000Z</time>
      </trkpt>
      <trkpt lat="43.09296" lon="0.77694">
        <ele>363.3</ele>
        <time>2024-09-18T07:25:02.000Z</time>
      </trkpt>
      <trkpt lat="43.09307" lon="0.77729">
        <ele>363.28</ele>
        <time>2024-09-18T07:25:07.000Z</time>
      </trkpt>
      <trkpt lat="43.09316" lon="0.77761">
        <ele>363.25</ele>
        <time>2024-09-18T07:25:12.000Z</time>
      </trkpt>
      <trkpt lat="43.09329" lon="0.77794">
        <ele>363.18</ele>
        <time>2024-09-18T07:25:17.000Z</time>
      </trkpt>
      <trkpt lat="43.0934" lon="0.77827">
        <ele>363.13</ele>
        <time>2024-09-18T07:25:22.000Z</time>
      </trkpt>
      <trkpt lat="43.09346" lon="0.77861">
        <ele>363.06</ele>
        <time>2024-09-18T07:25:27.000Z</time>
      </trkpt>
      <trkpt lat="43.09351" lon="0.77891">
        <ele>362.99</ele>
        <time>2024-09-18T07:25:32.000Z</time>
      </trkpt>
      <trkpt lat="43.09355" lon="0.77922">
        <ele>362.92</ele>
        <time>2024-09-18T07:25:37.000Z</time>
      </trkpt>
      <trkpt lat="43.09359" lon="0.77947">
        <ele>362.9</ele>
        <time>2024-09-18T07:25:42.000Z</time>
      </trkpt>
      <trkpt lat="43.09369" lon="0.77974">
        <ele>362.84</ele>
        <time>2024-09-18T07:25:47.000Z</time>
      </trkpt>
      <trkpt lat="43.09384" lon="0.78005">
        <ele>362.76</ele>
        <time>2024-09-18T07:25:52.000Z</time>
      </trkpt>
      <trkpt lat="43.09399" lon="0.78033">
        <ele>362.7</ele>
        <time>2024-09-18T07:25:57.000Z</time>
      </trkpt>
      <trkpt lat="43.09409" lon="0.78064">
        <ele>362.62</ele>
        <time>2024-09-18T07:26:02.000Z</time>
      </trkpt>
      <trkpt lat="43.09409" lon="0.78094">
        <ele>362.56</ele>
        <time>2024-09-18T07:26:07.000Z</time>
      </trkpt>
      <trkpt lat="43.09413" lon="0.78128">
        <ele>362.5</ele>
        <time>2024-09-18T07:26:12.000Z</time>
      </trkpt>
      <trkpt lat="43.09418" lon="0.78158">
        <ele>362.44</ele>
        <time>2024-09-18T07:26:17.000Z</time>
      </trkpt>
      <trkpt lat="43.09424" lon="0.78189">
        <ele>362.37</ele>
        <time>2024-09-18T07:26:22.000Z</time>
      </trkpt>
      <trkpt lat="43.09431" lon="0.78221">
        <ele>362.29</ele>
        <time>2024-09-18T07:26:27.000Z</time>
      </trkpt>
      <trkpt lat="43.09437" lon="0.7825">
        <ele>362.21</ele>
        <time>2024-09-18T07:26:32.000Z</time>
      </trkpt>
      <trkpt lat="43.09439" lon="0.78277">
        <ele>362.15</ele>
        <time>2024-09-18T07:26:37.000Z</time>
      </trkpt>
      <trkpt lat="43.09441" lon="0.78302">
        <ele>362.11</ele>
        <time>2024-09-18T07:26:42.000Z</time>
      </trkpt>
      <trkpt lat="43.09444" lon="0.78324">
        <ele>362.09</ele>
        <time>2024-09-18T07:26:47.000Z</time>
      </trkpt>
      <trkpt lat="43.09446" lon="0.78336">
        <ele>362.07</ele>
        <time>2024-09-18T07:26:52.000Z</time>
      </trkpt>
      <trkpt lat="43.09449" lon="0.78351">
        <ele>361.86</ele>
        <time>2024-09-18T07:27:32.000Z</time>
      </trkpt>
      <trkpt lat="43.09439" lon="0.7837">
        <ele>361.73</ele>
        <time>2024-09-18T07:27:37.000Z</time>
      </trkpt>
      <trkpt lat="43.0942" lon="0.78375">
        <ele>361.07</ele>
        <time>2024-09-18T07:27:42.000Z</time>
      </trkpt>
      <trkpt lat="43.09398" lon="0.78379">
        <ele>360.64</ele>
        <time>2024-09-18T07:27:47.000Z</time>
      </trkpt>
      <trkpt lat="43.09381" lon="0.78379">
        <ele>360.5</ele>
        <time>2024-09-18T07:27:52.000Z</time>
      </trkpt>
      <trkpt lat="43.09362" lon="0.7838">
        <ele>360.34</ele>
        <time>2024-09-18T07:27:57.000Z</time>
      </trkpt>
      <trkpt lat="43.09342" lon="0.78381">
        <ele>360.27</ele>
        <time>2024-09-18T07:28:02.000Z</time>
      </trkpt>
      <trkpt lat="43.09322" lon="0.78381">
        <ele>360.23</ele>
        <time>2024-09-18T07:28:07.000Z</time>
      </trkpt>
      <trkpt lat="43.09304" lon="0.78375">
        <ele>360.2</ele>
        <time>2024-09-18T07:28:12.000Z</time>
      </trkpt>
      <trkpt lat="43.09283" lon="0.7838">
        <ele>360.13</ele>
        <time>2024-09-18T07:28:17.000Z</time>
      </trkpt>
      <trkpt lat="43.09276" lon="0.78402">
        <ele>360.12</ele>
        <time>2024-09-18T07:28:22.000Z</time>
      </trkpt>
      <trkpt lat="43.09276" lon="0.78436">
        <ele>360.11</ele>
        <time>2024-09-18T07:28:27.000Z</time>
      </trkpt>
      <trkpt lat="43.09279" lon="0.78467">
        <ele>360.04</ele>
        <time>2024-09-18T07:28:32.000Z</time>
      </trkpt>
      <trkpt lat="43.09278" lon="0.78496">
        <ele>359.97</ele>
        <time>2024-09-18T07:28:37.000Z</time>
      </trkpt>
      <trkpt lat="43.09276" lon="0.78526">
        <ele>359.91</ele>
        <time>2024-09-18T07:28:42.000Z</time>
      </trkpt>
      <trkpt lat="43.09274" lon="0.78553">
        <ele>359.84</ele>
        <time>2024-09-18T07:28:47.000Z</time>
      </trkpt>
      <trkpt lat="43.09275" lon="0.78581">
        <ele>359.78</ele>
        <time>2024-09-18T07:28:52.000Z</time>
      </trkpt>
      <trkpt lat="43.09276" lon="0.78606">
        <ele>359.73</ele>
        <time>2024-09-18T07:28:57.000Z</time>
      </trkpt>
      <trkpt lat="43.09278" lon="0.78633">
        <ele>359.65</ele>
        <time>2024-09-18T07:29:02.000Z</time>
      </trkpt>
      <trkpt lat="43.09279" lon="0.78662">
        <ele>359.57</ele>
        <time>2024-09-18T07:29:07.000Z</time>
      </trkpt>
      <trkpt lat="43.09281" lon="0.78692">
        <ele>359.48</ele>
        <time>2024-09-18T07:29:12.000Z</time>
      </trkpt>
      <trkpt lat="43.0928" lon="0.78723">
        <ele>359.38</ele>
        <time>2024-09-18T07:29:17.000Z</time>
      </trkpt>
      <trkpt lat="43.09274" lon="0.78752">
        <ele>359.31</ele>
        <time>2024-09-18T07:29:22.000Z</time>
      </trkpt>
      <trkpt lat="43.09269" lon="0.78777">
        <ele>359.27</ele>
        <time>2024-09-18T07:29:27.000Z</time>
      </trkpt>
      <trkpt lat="43.09264" lon="0.78804">
        <ele>359.28</ele>
        <time>2024-09-18T07:29:32.000Z</time>
      </trkpt>
      <trkpt lat="43.09263" lon="0.78833">
        <ele>359.36</ele>
        <time>2024-09-18T07:29:37.000Z</time>
      </trkpt>
      <trkpt lat="43.09263" lon="0.78864">
        <ele>359.48</ele>
        <time>2024-09-18T07:29:42.000Z</time>
      </trkpt>
      <trkpt lat="43.0926" lon="0.78896">
        <ele>359.53</ele>
        <time>2024-09-18T07:29:47.000Z</time>
      </trkpt>
      <trkpt lat="43.09257" lon="0.78926">
        <ele>359.53</ele>
        <time>2024-09-18T07:29:52.000Z</time>
      </trkpt>
      <trkpt lat="43.09253" lon="0.78956">
        <ele>359.51</ele>
        <time>2024-09-18T07:29:57.000Z</time>
      </trkpt>
      <trkpt lat="43.09245" lon="0.78988">
        <ele>359.49</ele>
        <time>2024-09-18T07:30:02.000Z</time>
      </trkpt>
      <trkpt lat="43.09236" lon="0.79018">
        <ele>359.5</ele>
        <time>2024-09-18T07:30:07.000Z</time>
      </trkpt>
      <trkpt lat="43.09227" lon="0.79044">
        <ele>359.5</ele>
        <time>2024-09-18T07:30:12.000Z</time>
      </trkpt>
      <trkpt lat="43.09217" lon="0.7907">
        <ele>359.48</ele>
        <time>2024-09-18T07:30:17.000Z</time>
      </trkpt>
      <trkpt lat="43.09208" lon="0.79097">
        <ele>359.47</ele>
        <time>2024-09-18T07:30:22.000Z</time>
      </trkpt>
      <trkpt lat="43.09201" lon="0.79124">
        <ele>359.46</ele>
        <time>2024-09-18T07:30:27.000Z</time>
      </trkpt>
      <trkpt lat="43.09195" lon="0.79152">
        <ele>359.45</ele>
        <time>2024-09-18T07:30:32.000Z</time>
      </trkpt>
      <trkpt lat="43.0919" lon="0.79179">
        <ele>359.48</ele>
        <time>2024-09-18T07:30:37.000Z</time>
      </trkpt>
      <trkpt lat="43.09189" lon="0.79207">
        <ele>359.49</ele>
        <time>2024-09-18T07:30:42.000Z</time>
      </trkpt>
      <trkpt lat="43.09188" lon="0.79235">
        <ele>359.5</ele>
        <time>2024-09-18T07:30:47.000Z</time>
      </trkpt>
      <trkpt lat="43.09187" lon="0.79249">
        <ele>359.49</ele>
        <time>2024-09-18T07:30:57.000Z</time>
      </trkpt>
      <trkpt lat="43.09185" lon="0.79268">
        <ele>359.49</ele>
        <time>2024-09-18T07:31:02.000Z</time>
      </trkpt>
      <trkpt lat="43.09183" lon="0.79284">
        <ele>359.48</ele>
        <time>2024-09-18T07:31:07.000Z</time>
      </trkpt>
      <trkpt lat="43.09182" lon="0.79296">
        <ele>359.47</ele>
        <time>2024-09-18T07:31:18.000Z</time>
      </trkpt>
      <trkpt lat="43.09179" lon="0.79319">
        <ele>359.44</ele>
        <time>2024-09-18T07:31:23.000Z</time>
      </trkpt>
      <trkpt lat="43.09176" lon="0.79347">
        <ele>359.36</ele>
        <time>2024-09-18T07:31:28.000Z</time>
      </trkpt>
      <trkpt lat="43.09175" lon="0.79376">
        <ele>359.3</ele>
        <time>2024-09-18T07:31:33.000Z</time>
      </trkpt>
      <trkpt lat="43.09177" lon="0.79409">
        <ele>359.22</ele>
        <time>2024-09-18T07:31:38.000Z</time>
      </trkpt>
      <trkpt lat="43.09178" lon="0.79444">
        <ele>359.16</ele>
        <time>2024-09-18T07:31:43.000Z</time>
      </trkpt>
      <trkpt lat="43.09179" lon="0.7948">
        <ele>359.08</ele>
        <time>2024-09-18T07:31:48.000Z</time>
      </trkpt>
      <trkpt lat="43.09178" lon="0.79517">
        <ele>359.01</ele>
        <time>2024-09-18T07:31:53.000Z</time>
      </trkpt>
      <trkpt lat="43.09177" lon="0.79552">
        <ele>358.94</ele>
        <time>2024-09-18T07:31:58.000Z</time>
      </trkpt>
      <trkpt lat="43.09176" lon="0.79588">
        <ele>358.86</ele>
        <time>2024-09-18T07:32:03.000Z</time>
      </trkpt>
      <trkpt lat="43.09176" lon="0.79624">
        <ele>358.76</ele>
        <time>2024-09-18T07:32:08.000Z</time>
      </trkpt>
      <trkpt lat="43.09177" lon="0.79659">
        <ele>358.68</ele>
        <time>2024-09-18T07:32:13.000Z</time>
      </trkpt>
      <trkpt lat="43.09177" lon="0.79691">
        <ele>358.6</ele>
        <time>2024-09-18T07:32:18.000Z</time>
      </trkpt>
      <trkpt lat="43.09176" lon="0.79724">
        <ele>358.51</ele>
        <time>2024-09-18T07:32:23.000Z</time>
      </trkpt>
      <trkpt lat="43.09172" lon="0.79758">
        <ele>358.44</ele>
        <time>2024-09-18T07:32:28.000Z</time>
      </trkpt>
      <trkpt lat="43.0917" lon="0.79793">
        <ele>358.35</ele>
        <time>2024-09-18T07:32:33.000Z</time>
      </trkpt>
      <trkpt lat="43.09164" lon="0.79829">
        <ele>358.24</ele>
        <time>2024-09-18T07:32:38.000Z</time>
      </trkpt>
      <trkpt lat="43.09159" lon="0.79866">
        <ele>358.14</ele>
        <time>2024-09-18T07:32:43.000Z</time>
      </trkpt>
      <trkpt lat="43.09154" lon="0.799">
        <ele>358.05</ele>
        <time>2024-09-18T07:32:48.000Z</time>
      </trkpt>
      <trkpt lat="43.0915" lon="0.7993">
        <ele>357.96</ele>
        <time>2024-09-18T07:32:53.000Z</time>
      </trkpt>
      <trkpt lat="43.09148" lon="0.79944">
        <ele>357.95</ele>
        <time>2024-09-18T07:32:58.000Z</time>
      </trkpt>
      <trkpt lat="43.09145" lon="0.79956">
        <ele>357.88</ele>
        <time>2024-09-18T07:33:24.999Z</time>
      </trkpt>
      <trkpt lat="43.09132" lon="0.79974">
        <ele>357.75</ele>
        <time>2024-09-18T07:33:29.999Z</time>
      </trkpt>
      <trkpt lat="43.09116" lon="0.79998">
        <ele>357.41</ele>
        <time>2024-09-18T07:33:34.999Z</time>
      </trkpt>
      <trkpt lat="43.09099" lon="0.80023">
        <ele>357.22</ele>
        <time>2024-09-18T07:33:39.999Z</time>
      </trkpt>
      <trkpt lat="43.09083" lon="0.80051">
        <ele>357.1</ele>
        <time>2024-09-18T07:33:44.999Z</time>
      </trkpt>
      <trkpt lat="43.09065" lon="0.80079">
        <ele>357</ele>
        <time>2024-09-18T07:33:49.999Z</time>
      </trkpt>
      <trkpt lat="43.09049" lon="0.80109">
        <ele>356.94</ele>
        <time>2024-09-18T07:33:54.999Z</time>
      </trkpt>
      <trkpt lat="43.09036" lon="0.80143">
        <ele>356.93</ele>
        <time>2024-09-18T07:33:59.999Z</time>
      </trkpt>
      <trkpt lat="43.09022" lon="0.80175">
        <ele>356.89</ele>
        <time>2024-09-18T07:34:04.999Z</time>
      </trkpt>
      <trkpt lat="43.09009" lon="0.80207">
        <ele>356.82</ele>
        <time>2024-09-18T07:34:09.999Z</time>
      </trkpt>
      <trkpt lat="43.08994" lon="0.80241">
        <ele>356.77</ele>
        <time>2024-09-18T07:34:14.999Z</time>
      </trkpt>
      <trkpt lat="43.08981" lon="0.80276">
        <ele>356.72</ele>
        <time>2024-09-18T07:34:19.999Z</time>
      </trkpt>
      <trkpt lat="43.08967" lon="0.80309">
        <ele>356.68</ele>
        <time>2024-09-18T07:34:24.999Z</time>
      </trkpt>
      <trkpt lat="43.08952" lon="0.80342">
        <ele>356.66</ele>
        <time>2024-09-18T07:34:29.999Z</time>
      </trkpt>
      <trkpt lat="43.08938" lon="0.80377">
        <ele>356.65</ele>
        <time>2024-09-18T07:34:34.999Z</time>
      </trkpt>
      <trkpt lat="43.08925" lon="0.80412">
        <ele>356.6</ele>
        <time>2024-09-18T07:34:39.999Z</time>
      </trkpt>
      <trkpt lat="43.0891" lon="0.80445">
        <ele>356.51</ele>
        <time>2024-09-18T07:34:44.999Z</time>
      </trkpt>
      <trkpt lat="43.08895" lon="0.80478">
        <ele>356.42</ele>
        <time>2024-09-18T07:34:49.999Z</time>
      </trkpt>
      <trkpt lat="43.0888" lon="0.80512">
        <ele>356.33</ele>
        <time>2024-09-18T07:34:54.999Z</time>
      </trkpt>
      <trkpt lat="43.08866" lon="0.80546">
        <ele>356.24</ele>
        <time>2024-09-18T07:34:59.999Z</time>
      </trkpt>
      <trkpt lat="43.08853" lon="0.8058">
        <ele>356.09</ele>
        <time>2024-09-18T07:35:04.999Z</time>
      </trkpt>
      <trkpt lat="43.08842" lon="0.80615">
        <ele>355.97</ele>
        <time>2024-09-18T07:35:09.999Z</time>
      </trkpt>
      <trkpt lat="43.08827" lon="0.80646">
        <ele>355.85</ele>
        <time>2024-09-18T07:35:14.999Z</time>
      </trkpt>
      <trkpt lat="43.08814" lon="0.80677">
        <ele>355.69</ele>
        <time>2024-09-18T07:35:19.999Z</time>
      </trkpt>
      <trkpt lat="43.08801" lon="0.80711">
        <ele>355.61</ele>
        <time>2024-09-18T07:35:24.999Z</time>
      </trkpt>
      <trkpt lat="43.0879" lon="0.80742">
        <ele>355.51</ele>
        <time>2024-09-18T07:35:29.999Z</time>
      </trkpt>
      <trkpt lat="43.08778" lon="0.80772">
        <ele>355.39</ele>
        <time>2024-09-18T07:35:34.999Z</time>
      </trkpt>
      <trkpt lat="43.08767" lon="0.80802">
        <ele>355.26</ele>
        <time>2024-09-18T07:35:39.999Z</time>
      </trkpt>
      <trkpt lat="43.08755" lon="0.80835">
        <ele>355.11</ele>
        <time>2024-09-18T07:35:44.999Z</time>
      </trkpt>
      <trkpt lat="43.08746" lon="0.80867">
        <ele>354.97</ele>
        <time>2024-09-18T07:35:49.999Z</time>
      </trkpt>
      <trkpt lat="43.08741" lon="0.809">
        <ele>354.8</ele>
        <time>2024-09-18T07:35:54.999Z</time>
      </trkpt>
      <trkpt lat="43.08738" lon="0.80936">
        <ele>354.65</ele>
        <time>2024-09-18T07:35:59.999Z</time>
      </trkpt>
      <trkpt lat="43.08733" lon="0.80973">
        <ele>354.46</ele>
        <time>2024-09-18T07:36:04.999Z</time>
      </trkpt>
      <trkpt lat="43.08728" lon="0.8101">
        <ele>354.26</ele>
        <time>2024-09-18T07:36:09.999Z</time>
      </trkpt>
      <trkpt lat="43.08717" lon="0.81043">
        <ele>354.09</ele>
        <time>2024-09-18T07:36:14.999Z</time>
      </trkpt>
      <trkpt lat="43.08704" lon="0.81074">
        <ele>353.93</ele>
        <time>2024-09-18T07:36:19.999Z</time>
      </trkpt>
      <trkpt lat="43.0869" lon="0.81106">
        <ele>353.8</ele>
        <time>2024-09-18T07:36:24.999Z</time>
      </trkpt>
      <trkpt lat="43.08674" lon="0.81138">
        <ele>353.68</ele>
        <time>2024-09-18T07:36:29.999Z</time>
      </trkpt>
      <trkpt lat="43.08657" lon="0.8117">
        <ele>353.57</ele>
        <time>2024-09-18T07:36:34.999Z</time>
      </trkpt>
      <trkpt lat="43.08639" lon="0.81198">
        <ele>353.47</ele>
        <time>2024-09-18T07:36:39.999Z</time>
      </trkpt>
      <trkpt lat="43.08615" lon="0.81222">
        <ele>353.38</ele>
        <time>2024-09-18T07:36:44.999Z</time>
      </trkpt>
      <trkpt lat="43.08594" lon="0.81241">
        <ele>353.29</ele>
        <time>2024-09-18T07:36:49.999Z</time>
      </trkpt>
      <trkpt lat="43.08563" lon="0.81245">
        <ele>353.18</ele>
        <time>2024-09-18T07:36:54.999Z</time>
      </trkpt>
      <trkpt lat="43.08544" lon="0.81279">
        <ele>352.95</ele>
        <time>2024-09-18T07:36:59.999Z</time>
      </trkpt>
      <trkpt lat="43.08534" lon="0.81319">
        <ele>352.66</ele>
        <time>2024-09-18T07:37:04.999Z</time>
      </trkpt>
      <trkpt lat="43.08524" lon="0.81354">
        <ele>352.24</ele>
        <time>2024-09-18T07:37:09.999Z</time>
      </trkpt>
      <trkpt lat="43.08521" lon="0.81367">
        <ele>352.2</ele>
        <time>2024-09-18T07:37:14.999Z</time>
      </trkpt>
      <trkpt lat="43.08515" lon="0.8138">
        <ele>352.27</ele>
        <time>2024-09-18T07:37:42.999Z</time>
      </trkpt>
      <trkpt lat="43.08507" lon="0.81403">
        <ele>352.31</ele>
        <time>2024-09-18T07:37:47.999Z</time>
      </trkpt>
      <trkpt lat="43.08498" lon="0.81433">
        <ele>352.21</ele>
        <time>2024-09-18T07:37:52.999Z</time>
      </trkpt>
      <trkpt lat="43.08487" lon="0.81457">
        <ele>352.14</ele>
        <time>2024-09-18T07:37:57.999Z</time>
      </trkpt>
      <trkpt lat="43.08472" lon="0.81469">
        <ele>352.12</ele>
        <time>2024-09-18T07:38:02.999Z</time>
      </trkpt>
      <trkpt lat="43.08455" lon="0.81479">
        <ele>351.91</ele>
        <time>2024-09-18T07:38:07.999Z</time>
      </trkpt>
      <trkpt lat="43.08446" lon="0.81506">
        <ele>351.44</ele>
        <time>2024-09-18T07:38:12.999Z</time>
      </trkpt>
      <trkpt lat="43.08456" lon="0.81539">
        <ele>350.74</ele>
        <time>2024-09-18T07:38:17.999Z</time>
      </trkpt>
      <trkpt lat="43.08465" lon="0.81576">
        <ele>349.61</ele>
        <time>2024-09-18T07:38:22.999Z</time>
      </trkpt>
      <trkpt lat="43.08477" lon="0.81617">
        <ele>348.26</ele>
        <time>2024-09-18T07:38:27.999Z</time>
      </trkpt>
      <trkpt lat="43.08494" lon="0.81649">
        <ele>347.17</ele>
        <time>2024-09-18T07:38:32.999Z</time>
      </trkpt>
      <trkpt lat="43.08507" lon="0.81681">
        <ele>346.33</ele>
        <time>2024-09-18T07:38:37.999Z</time>
      </trkpt>
      <trkpt lat="43.08519" lon="0.81712">
        <ele>345.78</ele>
        <time>2024-09-18T07:38:42.999Z</time>
      </trkpt>
      <trkpt lat="43.08534" lon="0.81751">
        <ele>345.33</ele>
        <time>2024-09-18T07:38:47.999Z</time>
      </trkpt>
      <trkpt lat="43.08547" lon="0.81787">
        <ele>344.87</ele>
        <time>2024-09-18T07:38:52.999Z</time>
      </trkpt>
      <trkpt lat="43.08557" lon="0.81819">
        <ele>344.43</ele>
        <time>2024-09-18T07:38:57.999Z</time>
      </trkpt>
      <trkpt lat="43.08567" lon="0.81847">
        <ele>344.04</ele>
        <time>2024-09-18T07:39:02.999Z</time>
      </trkpt>
      <trkpt lat="43.08578" lon="0.81875">
        <ele>343.84</ele>
        <time>2024-09-18T07:39:07.999Z</time>
      </trkpt>
      <trkpt lat="43.08587" lon="0.81899">
        <ele>343.83</ele>
        <time>2024-09-18T07:39:12.999Z</time>
      </trkpt>
      <trkpt lat="43.08595" lon="0.81922">
        <ele>343.89</ele>
        <time>2024-09-18T07:39:17.999Z</time>
      </trkpt>
      <trkpt lat="43.08601" lon="0.81943">
        <ele>343.92</ele>
        <time>2024-09-18T07:39:22.999Z</time>
      </trkpt>
      <trkpt lat="43.08612" lon="0.81966">
        <ele>343.86</ele>
        <time>2024-09-18T07:39:27.999Z</time>
      </trkpt>
      <trkpt lat="43.08623" lon="0.81994">
        <ele>343.57</ele>
        <time>2024-09-18T07:39:32.999Z</time>
      </trkpt>
      <trkpt lat="43.08636" lon="0.82023">
        <ele>343.35</ele>
        <time>2024-09-18T07:39:37.999Z</time>
      </trkpt>
      <trkpt lat="43.08647" lon="0.82048">
        <ele>343.17</ele>
        <time>2024-09-18T07:39:42.999Z</time>
      </trkpt>
      <trkpt lat="43.0866" lon="0.82075">
        <ele>342.34</ele>
        <time>2024-09-18T07:39:47.999Z</time>
      </trkpt>
      <trkpt lat="43.08684" lon="0.82109">
        <ele>341.85</ele>
        <time>2024-09-18T07:39:52.999Z</time>
      </trkpt>
      <trkpt lat="43.08704" lon="0.82142">
        <ele>341.64</ele>
        <time>2024-09-18T07:39:57.999Z</time>
      </trkpt>
      <trkpt lat="43.08726" lon="0.82176">
        <ele>341.52</ele>
        <time>2024-09-18T07:40:02.999Z</time>
      </trkpt>
      <trkpt lat="43.08748" lon="0.8221">
        <ele>341.65</ele>
        <time>2024-09-18T07:40:07.999Z</time>
      </trkpt>
      <trkpt lat="43.08768" lon="0.82244">
        <ele>342.21</ele>
        <time>2024-09-18T07:40:12.999Z</time>
      </trkpt>
      <trkpt lat="43.08787" lon="0.82276">
        <ele>342.88</ele>
        <time>2024-09-18T07:40:17.999Z</time>
      </trkpt>
      <trkpt lat="43.08807" lon="0.82309">
        <ele>343.51</ele>
        <time>2024-09-18T07:40:22.999Z</time>
      </trkpt>
      <trkpt lat="43.08825" lon="0.82341">
        <ele>344</ele>
        <time>2024-09-18T07:40:27.999Z</time>
      </trkpt>
      <trkpt lat="43.08842" lon="0.82372">
        <ele>344.45</ele>
        <time>2024-09-18T07:40:32.999Z</time>
      </trkpt>
      <trkpt lat="43.08859" lon="0.82407">
        <ele>344.61</ele>
        <time>2024-09-18T07:40:37.999Z</time>
      </trkpt>
      <trkpt lat="43.08875" lon="0.82444">
        <ele>344.69</ele>
        <time>2024-09-18T07:40:42.999Z</time>
      </trkpt>
      <trkpt lat="43.08889" lon="0.82481">
        <ele>344.69</ele>
        <time>2024-09-18T07:40:47.999Z</time>
      </trkpt>
      <trkpt lat="43.08901" lon="0.82516">
        <ele>344.12</ele>
        <time>2024-09-18T07:40:52.999Z</time>
      </trkpt>
      <trkpt lat="43.08913" lon="0.82551">
        <ele>344.08</ele>
        <time>2024-09-18T07:40:57.999Z</time>
      </trkpt>
      <trkpt lat="43.08927" lon="0.82588">
        <ele>344.1</ele>
        <time>2024-09-18T07:41:02.999Z</time>
      </trkpt>
      <trkpt lat="43.08941" lon="0.82625">
        <ele>344.3</ele>
        <time>2024-09-18T07:41:07.999Z</time>
      </trkpt>
      <trkpt lat="43.08955" lon="0.82662">
        <ele>344.43</ele>
        <time>2024-09-18T07:41:12.999Z</time>
      </trkpt>
      <trkpt lat="43.08968" lon="0.82699">
        <ele>344.4</ele>
        <time>2024-09-18T07:41:17.999Z</time>
      </trkpt>
      <trkpt lat="43.08981" lon="0.82735">
        <ele>344.53</ele>
        <time>2024-09-18T07:41:22.999Z</time>
      </trkpt>
      <trkpt lat="43.08993" lon="0.8277">
        <ele>344.69</ele>
        <time>2024-09-18T07:41:27.999Z</time>
      </trkpt>
      <trkpt lat="43.09006" lon="0.82805">
        <ele>344.66</ele>
        <time>2024-09-18T07:41:32.999Z</time>
      </trkpt>
      <trkpt lat="43.09017" lon="0.82841">
        <ele>344.85</ele>
        <time>2024-09-18T07:41:37.999Z</time>
      </trkpt>
      <trkpt lat="43.09024" lon="0.82876">
        <ele>345.02</ele>
        <time>2024-09-18T07:41:42.999Z</time>
      </trkpt>
      <trkpt lat="43.0903" lon="0.82911">
        <ele>345.04</ele>
        <time>2024-09-18T07:41:47.999Z</time>
      </trkpt>
      <trkpt lat="43.09037" lon="0.82949">
        <ele>345</ele>
        <time>2024-09-18T07:41:52.999Z</time>
      </trkpt>
      <trkpt lat="43.09042" lon="0.82985">
        <ele>344.98</ele>
        <time>2024-09-18T07:41:57.999Z</time>
      </trkpt>
      <trkpt lat="43.09048" lon="0.83022">
        <ele>344.98</ele>
        <time>2024-09-18T07:42:02.999Z</time>
      </trkpt>
      <trkpt lat="43.09055" lon="0.83059">
        <ele>344.95</ele>
        <time>2024-09-18T07:42:07.999Z</time>
      </trkpt>
      <trkpt lat="43.09063" lon="0.83095">
        <ele>344.89</ele>
        <time>2024-09-18T07:42:12.999Z</time>
      </trkpt>
      <trkpt lat="43.0907" lon="0.83131">
        <ele>344.77</ele>
        <time>2024-09-18T07:42:17.999Z</time>
      </trkpt>
      <trkpt lat="43.09077" lon="0.83169">
        <ele>344.58</ele>
        <time>2024-09-18T07:42:22.999Z</time>
      </trkpt>
      <trkpt lat="43.09084" lon="0.83206">
        <ele>344.39</ele>
        <time>2024-09-18T07:42:27.999Z</time>
      </trkpt>
      <trkpt lat="43.09091" lon="0.83244">
        <ele>344.2</ele>
        <time>2024-09-18T07:42:32.999Z</time>
      </trkpt>
      <trkpt lat="43.09099" lon="0.83284">
        <ele>344.01</ele>
        <time>2024-09-18T07:42:37.999Z</time>
      </trkpt>
      <trkpt lat="43.09107" lon="0.83324">
        <ele>343.9</ele>
        <time>2024-09-18T07:42:42.999Z</time>
      </trkpt>
      <trkpt lat="43.09114" lon="0.83366">
        <ele>343.73</ele>
        <time>2024-09-18T07:42:47.999Z</time>
      </trkpt>
      <trkpt lat="43.09123" lon="0.83409">
        <ele>343.49</ele>
        <time>2024-09-18T07:42:52.999Z</time>
      </trkpt>
      <trkpt lat="43.09132" lon="0.83453">
        <ele>343.22</ele>
        <time>2024-09-18T07:42:57.999Z</time>
      </trkpt>
      <trkpt lat="43.09141" lon="0.83499">
        <ele>343.02</ele>
        <time>2024-09-18T07:43:02.999Z</time>
      </trkpt>
      <trkpt lat="43.0915" lon="0.83543">
        <ele>342.77</ele>
        <time>2024-09-18T07:43:07.999Z</time>
      </trkpt>
      <trkpt lat="43.09158" lon="0.83584">
        <ele>342.49</ele>
        <time>2024-09-18T07:43:12.999Z</time>
      </trkpt>
      <trkpt lat="43.09167" lon="0.83622">
        <ele>342.22</ele>
        <time>2024-09-18T07:43:17.999Z</time>
      </trkpt>
      <trkpt lat="43.09175" lon="0.83661">
        <ele>341.85</ele>
        <time>2024-09-18T07:43:22.999Z</time>
      </trkpt>
      <trkpt lat="43.09183" lon="0.83699">
        <ele>341.68</ele>
        <time>2024-09-18T07:43:27.999Z</time>
      </trkpt>
      <trkpt lat="43.09191" lon="0.83737">
        <ele>341.52</ele>
        <time>2024-09-18T07:43:32.999Z</time>
      </trkpt>
      <trkpt lat="43.09197" lon="0.83776">
        <ele>341.38</ele>
        <time>2024-09-18T07:43:37.999Z</time>
      </trkpt>
      <trkpt lat="43.09203" lon="0.83814">
        <ele>341.14</ele>
        <time>2024-09-18T07:43:42.999Z</time>
      </trkpt>
      <trkpt lat="43.0921" lon="0.83853">
        <ele>340.98</ele>
        <time>2024-09-18T07:43:47.999Z</time>
      </trkpt>
      <trkpt lat="43.09217" lon="0.83891">
        <ele>340.94</ele>
        <time>2024-09-18T07:43:52.999Z</time>
      </trkpt>
      <trkpt lat="43.09223" lon="0.83929">
        <ele>340.87</ele>
        <time>2024-09-18T07:43:57.999Z</time>
      </trkpt>
      <trkpt lat="43.09229" lon="0.83969">
        <ele>340.76</ele>
        <time>2024-09-18T07:44:02.999Z</time>
      </trkpt>
      <trkpt lat="43.09236" lon="0.84009">
        <ele>340.64</ele>
        <time>2024-09-18T07:44:07.999Z</time>
      </trkpt>
      <trkpt lat="43.09242" lon="0.84049">
        <ele>340.52</ele>
        <time>2024-09-18T07:44:12.999Z</time>
      </trkpt>
      <trkpt lat="43.09249" lon="0.84088">
        <ele>340.38</ele>
        <time>2024-09-18T07:44:17.999Z</time>
      </trkpt>
      <trkpt lat="43.09256" lon="0.84125">
        <ele>340.24</ele>
        <time>2024-09-18T07:44:22.999Z</time>
      </trkpt>
      <trkpt lat="43.0926" lon="0.84161">
        <ele>340.09</ele>
        <time>2024-09-18T07:44:27.999Z</time>
      </trkpt>
      <trkpt lat="43.09263" lon="0.84199">
        <ele>339.96</ele>
        <time>2024-09-18T07:44:32.999Z</time>
      </trkpt>
      <trkpt lat="43.09264" lon="0.8424">
        <ele>339.84</ele>
        <time>2024-09-18T07:44:37.999Z</time>
      </trkpt>
      <trkpt lat="43.09264" lon="0.8428">
        <ele>339.71</ele>
        <time>2024-09-18T07:44:42.999Z</time>
      </trkpt>
      <trkpt lat="43.09265" lon="0.8432">
        <ele>339.57</ele>
        <time>2024-09-18T07:44:47.999Z</time>
      </trkpt>
      <trkpt lat="43.09268" lon="0.84358">
        <ele>339.43</ele>
        <time>2024-09-18T07:44:52.999Z</time>
      </trkpt>
      <trkpt lat="43.09275" lon="0.84395">
        <ele>339.31</ele>
        <time>2024-09-18T07:44:57.999Z</time>
      </trkpt>
      <trkpt lat="43.09285" lon="0.84432">
        <ele>339.2</ele>
        <time>2024-09-18T07:45:02.999Z</time>
      </trkpt>
      <trkpt lat="43.09295" lon="0.84473">
        <ele>339.13</ele>
        <time>2024-09-18T07:45:07.999Z</time>
      </trkpt>
      <trkpt lat="43.09303" lon="0.84511">
        <ele>339.25</ele>
        <time>2024-09-18T07:45:12.999Z</time>
      </trkpt>
      <trkpt lat="43.09313" lon="0.84548">
        <ele>339.26</ele>
        <time>2024-09-18T07:45:17.999Z</time>
      </trkpt>
      <trkpt lat="43.09321" lon="0.84586">
        <ele>339.29</ele>
        <time>2024-09-18T07:45:22.999Z</time>
      </trkpt>
      <trkpt lat="43.09332" lon="0.84626">
        <ele>339.14</ele>
        <time>2024-09-18T07:45:27.999Z</time>
      </trkpt>
      <trkpt lat="43.09342" lon="0.84665">
        <ele>338.95</ele>
        <time>2024-09-18T07:45:33.000Z</time>
      </trkpt>
      <trkpt lat="43.09352" lon="0.84701">
        <ele>338.76</ele>
        <time>2024-09-18T07:45:38.000Z</time>
      </trkpt>
      <trkpt lat="43.09361" lon="0.84736">
        <ele>338.5</ele>
        <time>2024-09-18T07:45:43.000Z</time>
      </trkpt>
      <trkpt lat="43.09369" lon="0.8477">
        <ele>338.36</ele>
        <time>2024-09-18T07:45:48.000Z</time>
      </trkpt>
      <trkpt lat="43.09377" lon="0.84805">
        <ele>338.29</ele>
        <time>2024-09-18T07:45:53.000Z</time>
      </trkpt>
      <trkpt lat="43.09383" lon="0.84841">
        <ele>338.23</ele>
        <time>2024-09-18T07:45:58.000Z</time>
      </trkpt>
      <trkpt lat="43.09384" lon="0.84876">
        <ele>338.18</ele>
        <time>2024-09-18T07:46:03.000Z</time>
      </trkpt>
      <trkpt lat="43.0939" lon="0.84895">
        <ele>338.16</ele>
        <time>2024-09-18T07:46:08.000Z</time>
      </trkpt>
      <trkpt lat="43.09398" lon="0.84902">
        <ele>336.26</ele>
        <time>2024-09-18T07:50:46.000Z</time>
      </trkpt>
      <trkpt lat="43.09405" lon="0.84921">
        <ele>336.04</ele>
        <time>2024-09-18T07:50:51.000Z</time>
      </trkpt>
      <trkpt lat="43.0941" lon="0.84938">
        <ele>335.85</ele>
        <time>2024-09-18T07:50:56.000Z</time>
      </trkpt>
      <trkpt lat="43.09414" lon="0.84958">
        <ele>335.67</ele>
        <time>2024-09-18T07:51:01.000Z</time>
      </trkpt>
      <trkpt lat="43.09418" lon="0.84979">
        <ele>335.3</ele>
        <time>2024-09-18T07:51:06.000Z</time>
      </trkpt>
      <trkpt lat="43.09422" lon="0.85009">
        <ele>334.42</ele>
        <time>2024-09-18T07:51:11.000Z</time>
      </trkpt>
      <trkpt lat="43.09429" lon="0.85042">
        <ele>334.16</ele>
        <time>2024-09-18T07:51:16.000Z</time>
      </trkpt>
      <trkpt lat="43.09435" lon="0.85073">
        <ele>334.09</ele>
        <time>2024-09-18T07:51:21.000Z</time>
      </trkpt>
      <trkpt lat="43.09442" lon="0.85106">
        <ele>334.06</ele>
        <time>2024-09-18T07:51:26.000Z</time>
      </trkpt>
      <trkpt lat="43.09446" lon="0.85135">
        <ele>334.04</ele>
        <time>2024-09-18T07:51:31.000Z</time>
      </trkpt>
      <trkpt lat="43.09447" lon="0.85164">
        <ele>334.05</ele>
        <time>2024-09-18T07:51:36.000Z</time>
      </trkpt>
      <trkpt lat="43.09445" lon="0.85195">
        <ele>334.05</ele>
        <time>2024-09-18T07:51:41.000Z</time>
      </trkpt>
      <trkpt lat="43.09443" lon="0.85228">
        <ele>334.02</ele>
        <time>2024-09-18T07:51:46.000Z</time>
      </trkpt>
      <trkpt lat="43.09446" lon="0.85267">
        <ele>333.98</ele>
        <time>2024-09-18T07:51:51.000Z</time>
      </trkpt>
      <trkpt lat="43.09449" lon="0.85304">
        <ele>333.89</ele>
        <time>2024-09-18T07:51:56.000Z</time>
      </trkpt>
      <trkpt lat="43.09449" lon="0.85342">
        <ele>333.77</ele>
        <time>2024-09-18T07:52:01.000Z</time>
      </trkpt>
      <trkpt lat="43.09452" lon="0.85379">
        <ele>333.7</ele>
        <time>2024-09-18T07:52:06.000Z</time>
      </trkpt>
      <trkpt lat="43.09453" lon="0.85414">
        <ele>333.67</ele>
        <time>2024-09-18T07:52:11.000Z</time>
      </trkpt>
      <trkpt lat="43.09454" lon="0.85449">
        <ele>333.65</ele>
        <time>2024-09-18T07:52:16.000Z</time>
      </trkpt>
      <trkpt lat="43.09453" lon="0.85484">
        <ele>333.64</ele>
        <time>2024-09-18T07:52:21.000Z</time>
      </trkpt>
      <trkpt lat="43.0945" lon="0.8552">
        <ele>333.62</ele>
        <time>2024-09-18T07:52:26.000Z</time>
      </trkpt>
      <trkpt lat="43.09441" lon="0.85554">
        <ele>333.6</ele>
        <time>2024-09-18T07:52:31.000Z</time>
      </trkpt>
      <trkpt lat="43.09428" lon="0.85582">
        <ele>333.63</ele>
        <time>2024-09-18T07:52:36.000Z</time>
      </trkpt>
      <trkpt lat="43.09415" lon="0.85604">
        <ele>333.68</ele>
        <time>2024-09-18T07:52:41.000Z</time>
      </trkpt>
      <trkpt lat="43.09404" lon="0.85621">
        <ele>333.7</ele>
        <time>2024-09-18T07:52:46.000Z</time>
      </trkpt>
      <trkpt lat="43.09396" lon="0.85641">
        <ele>333.72</ele>
        <time>2024-09-18T07:52:51.000Z</time>
      </trkpt>
      <trkpt lat="43.09391" lon="0.85659">
        <ele>333.74</ele>
        <time>2024-09-18T07:52:56.000Z</time>
      </trkpt>
      <trkpt lat="43.09389" lon="0.85676">
        <ele>333.78</ele>
        <time>2024-09-18T07:53:01.000Z</time>
      </trkpt>
      <trkpt lat="43.09389" lon="0.85692">
        <ele>333.82</ele>
        <time>2024-09-18T07:53:06.000Z</time>
      </trkpt>
      <trkpt lat="43.0939" lon="0.85705">
        <ele>333.87</ele>
        <time>2024-09-18T07:53:11.000Z</time>
      </trkpt>
      <trkpt lat="43.09393" lon="0.85719">
        <ele>333.94</ele>
        <time>2024-09-18T07:53:18.000Z</time>
      </trkpt>
      <trkpt lat="43.09394" lon="0.85733">
        <ele>334.02</ele>
        <time>2024-09-18T07:53:24.000Z</time>
      </trkpt>
      <trkpt lat="43.09396" lon="0.85746">
        <ele>334.1</ele>
        <time>2024-09-18T07:53:30.000Z</time>
      </trkpt>
      <trkpt lat="43.09398" lon="0.85758">
        <ele>334.19</ele>
        <time>2024-09-18T07:53:36.000Z</time>
      </trkpt>
      <trkpt lat="43.09399" lon="0.85772">
        <ele>334.3</ele>
        <time>2024-09-18T07:53:43.000Z</time>
      </trkpt>
      <trkpt lat="43.09398" lon="0.85785">
        <ele>334.39</ele>
        <time>2024-09-18T07:53:49.000Z</time>
      </trkpt>
      <trkpt lat="43.09399" lon="0.85798">
        <ele>334.52</ele>
        <time>2024-09-18T07:53:56.000Z</time>
      </trkpt>
      <trkpt lat="43.09401" lon="0.85811">
        <ele>334.64</ele>
        <time>2024-09-18T07:54:02.000Z</time>
      </trkpt>
      <trkpt lat="43.09402" lon="0.85824">
        <ele>334.8</ele>
        <time>2024-09-18T07:54:09.000Z</time>
      </trkpt>
      <trkpt lat="43.09404" lon="0.85838">
        <ele>334.98</ele>
        <time>2024-09-18T07:54:16.000Z</time>
      </trkpt>
      <trkpt lat="43.09409" lon="0.85849">
        <ele>335.11</ele>
        <time>2024-09-18T07:54:21.000Z</time>
      </trkpt>
      <trkpt lat="43.09411" lon="0.85861">
        <ele>335.28</ele>
        <time>2024-09-18T07:54:27.000Z</time>
      </trkpt>
      <trkpt lat="43.0941" lon="0.85874">
        <ele>335.51</ele>
        <time>2024-09-18T07:54:35.000Z</time>
      </trkpt>
      <trkpt lat="43.09411" lon="0.85887">
        <ele>335.74</ele>
        <time>2024-09-18T07:54:43.000Z</time>
      </trkpt>
      <trkpt lat="43.09413" lon="0.859">
        <ele>335.94</ele>
        <time>2024-09-18T07:54:50.000Z</time>
      </trkpt>
      <trkpt lat="43.09414" lon="0.85913">
        <ele>336.13</ele>
        <time>2024-09-18T07:54:57.000Z</time>
      </trkpt>
      <trkpt lat="43.09412" lon="0.85927">
        <ele>336.29</ele>
        <time>2024-09-18T07:55:03.000Z</time>
      </trkpt>
      <trkpt lat="43.09411" lon="0.8594">
        <ele>336.44</ele>
        <time>2024-09-18T07:55:09.000Z</time>
      </trkpt>
      <trkpt lat="43.0941" lon="0.85952">
        <ele>336.6</ele>
        <time>2024-09-18T07:55:16.000Z</time>
      </trkpt>
      <trkpt lat="43.09409" lon="0.85967">
        <ele>336.78</ele>
        <time>2024-09-18T07:55:24.000Z</time>
      </trkpt>
      <trkpt lat="43.09405" lon="0.85979">
        <ele>336.9</ele>
        <time>2024-09-18T07:55:30.000Z</time>
      </trkpt>
      <trkpt lat="43.094" lon="0.8599">
        <ele>337.02</ele>
        <time>2024-09-18T07:55:36.000Z</time>
      </trkpt>
      <trkpt lat="43.09393" lon="0.86001">
        <ele>337.15</ele>
        <time>2024-09-18T07:55:43.000Z</time>
      </trkpt>
      <trkpt lat="43.09386" lon="0.86009">
        <ele>337.27</ele>
        <time>2024-09-18T07:55:50.000Z</time>
      </trkpt>
      <trkpt lat="43.09378" lon="0.86016">
        <ele>337.42</ele>
        <time>2024-09-18T07:55:58.000Z</time>
      </trkpt>
      <trkpt lat="43.09369" lon="0.86023">
        <ele>337.58</ele>
        <time>2024-09-18T07:56:06.000Z</time>
      </trkpt>
      <trkpt lat="43.09361" lon="0.86031">
        <ele>337.72</ele>
        <time>2024-09-18T07:56:13.000Z</time>
      </trkpt>
      <trkpt lat="43.09353" lon="0.86038">
        <ele>337.84</ele>
        <time>2024-09-18T07:56:19.000Z</time>
      </trkpt>
      <trkpt lat="43.09346" lon="0.86048">
        <ele>337.98</ele>
        <time>2024-09-18T07:56:25.000Z</time>
      </trkpt>
      <trkpt lat="43.0934" lon="0.86061">
        <ele>338.12</ele>
        <time>2024-09-18T07:56:30.000Z</time>
      </trkpt>
      <trkpt lat="43.09335" lon="0.86076">
        <ele>338.29</ele>
        <time>2024-09-18T07:56:35.000Z</time>
      </trkpt>
      <trkpt lat="43.09331" lon="0.86091">
        <ele>338.5</ele>
        <time>2024-09-18T07:56:40.000Z</time>
      </trkpt>
      <trkpt lat="43.09328" lon="0.86107">
        <ele>338.76</ele>
        <time>2024-09-18T07:56:45.000Z</time>
      </trkpt>
      <trkpt lat="43.09323" lon="0.86122">
        <ele>339.06</ele>
        <time>2024-09-18T07:56:50.000Z</time>
      </trkpt>
      <trkpt lat="43.09315" lon="0.86133">
        <ele>339.39</ele>
        <time>2024-09-18T07:56:55.000Z</time>
      </trkpt>
      <trkpt lat="43.09303" lon="0.86141">
        <ele>339.74</ele>
        <time>2024-09-18T07:57:00.000Z</time>
      </trkpt>
      <trkpt lat="43.09294" lon="0.86146">
        <ele>340.09</ele>
        <time>2024-09-18T07:57:05.000Z</time>
      </trkpt>
      <trkpt lat="43.09285" lon="0.86152">
        <ele>340.47</ele>
        <time>2024-09-18T07:57:10.000Z</time>
      </trkpt>
      <trkpt lat="43.09274" lon="0.86157">
        <ele>340.85</ele>
        <time>2024-09-18T07:57:15.000Z</time>
      </trkpt>
      <trkpt lat="43.09265" lon="0.8616">
        <ele>343.24</ele>
        <time>2024-09-18T07:59:00.999Z</time>
      </trkpt>
      <trkpt lat="43.09259" lon="0.86171">
        <ele>344.72</ele>
        <time>2024-09-18T07:59:13.999Z</time>
      </trkpt>
      <trkpt lat="43.09264" lon="0.8619">
        <ele>345.63</ele>
        <time>2024-09-18T07:59:18.999Z</time>
      </trkpt>
      <trkpt lat="43.09266" lon="0.86216">
        <ele>351.79</ele>
        <time>2024-09-18T07:59:23.999Z</time>
      </trkpt>
      <trkpt lat="43.09268" lon="0.86243">
        <ele>356.28</ele>
        <time>2024-09-18T07:59:28.999Z</time>
      </trkpt>
      <trkpt lat="43.0927" lon="0.86273">
        <ele>358.91</ele>
        <time>2024-09-18T07:59:33.999Z</time>
      </trkpt>
      <trkpt lat="43.09271" lon="0.86308">
        <ele>360.61</ele>
        <time>2024-09-18T07:59:38.999Z</time>
      </trkpt>
      <trkpt lat="43.09272" lon="0.86346">
        <ele>361.94</ele>
        <time>2024-09-18T07:59:43.999Z</time>
      </trkpt>
      <trkpt lat="43.09273" lon="0.86382">
        <ele>363.02</ele>
        <time>2024-09-18T07:59:48.999Z</time>
      </trkpt>
      <trkpt lat="43.09274" lon="0.8642">
        <ele>363.86</ele>
        <time>2024-09-18T07:59:53.999Z</time>
      </trkpt>
      <trkpt lat="43.09274" lon="0.86458">
        <ele>364.5</ele>
        <time>2024-09-18T07:59:58.999Z</time>
      </trkpt>
      <trkpt lat="43.09275" lon="0.86493">
        <ele>364.91</ele>
        <time>2024-09-18T08:00:03.999Z</time>
      </trkpt>
      <trkpt lat="43.09273" lon="0.86524">
        <ele>365.27</ele>
        <time>2024-09-18T08:00:08.999Z</time>
      </trkpt>
      <trkpt lat="43.09273" lon="0.86558">
        <ele>365.71</ele>
        <time>2024-09-18T08:00:13.999Z</time>
      </trkpt>
      <trkpt lat="43.09277" lon="0.86596">
        <ele>366.02</ele>
        <time>2024-09-18T08:00:18.999Z</time>
      </trkpt>
      <trkpt lat="43.09279" lon="0.86631">
        <ele>366.3</ele>
        <time>2024-09-18T08:00:23.999Z</time>
      </trkpt>
      <trkpt lat="43.09281" lon="0.86664">
        <ele>366.61</ele>
        <time>2024-09-18T08:00:28.999Z</time>
      </trkpt>
      <trkpt lat="43.09285" lon="0.86699">
        <ele>366.86</ele>
        <time>2024-09-18T08:00:33.999Z</time>
      </trkpt>
      <trkpt lat="43.09288" lon="0.86735">
        <ele>367.14</ele>
        <time>2024-09-18T08:00:38.999Z</time>
      </trkpt>
      <trkpt lat="43.09291" lon="0.86772">
        <ele>367.39</ele>
        <time>2024-09-18T08:00:43.999Z</time>
      </trkpt>
      <trkpt lat="43.09295" lon="0.8681">
        <ele>367.58</ele>
        <time>2024-09-18T08:00:48.999Z</time>
      </trkpt>
      <trkpt lat="43.09298" lon="0.86848">
        <ele>367.7</ele>
        <time>2024-09-18T08:00:53.999Z</time>
      </trkpt>
      <trkpt lat="43.09302" lon="0.86887">
        <ele>367.76</ele>
        <time>2024-09-18T08:00:58.999Z</time>
      </trkpt>
      <trkpt lat="43.09305" lon="0.86925">
        <ele>367.86</ele>
        <time>2024-09-18T08:01:03.999Z</time>
      </trkpt>
      <trkpt lat="43.09309" lon="0.86964">
        <ele>367.9</ele>
        <time>2024-09-18T08:01:08.999Z</time>
      </trkpt>
      <trkpt lat="43.09311" lon="0.87002">
        <ele>367.88</ele>
        <time>2024-09-18T08:01:13.999Z</time>
      </trkpt>
      <trkpt lat="43.09315" lon="0.87042">
        <ele>367.96</ele>
        <time>2024-09-18T08:01:18.999Z</time>
      </trkpt>
      <trkpt lat="43.09317" lon="0.87083">
        <ele>368.09</ele>
        <time>2024-09-18T08:01:23.999Z</time>
      </trkpt>
      <trkpt lat="43.0932" lon="0.87124">
        <ele>368.19</ele>
        <time>2024-09-18T08:01:28.999Z</time>
      </trkpt>
      <trkpt lat="43.0932" lon="0.87165">
        <ele>368.3</ele>
        <time>2024-09-18T08:01:33.999Z</time>
      </trkpt>
      <trkpt lat="43.09318" lon="0.87204">
        <ele>368.41</ele>
        <time>2024-09-18T08:01:38.999Z</time>
      </trkpt>
      <trkpt lat="43.09315" lon="0.87245">
        <ele>368.48</ele>
        <time>2024-09-18T08:01:43.999Z</time>
      </trkpt>
      <trkpt lat="43.0931" lon="0.87285">
        <ele>368.37</ele>
        <time>2024-09-18T08:01:48.999Z</time>
      </trkpt>
      <trkpt lat="43.09303" lon="0.87328">
        <ele>368.16</ele>
        <time>2024-09-18T08:01:53.999Z</time>
      </trkpt>
      <trkpt lat="43.09296" lon="0.87373">
        <ele>367.93</ele>
        <time>2024-09-18T08:01:58.999Z</time>
      </trkpt>
      <trkpt lat="43.09287" lon="0.87419">
        <ele>367.65</ele>
        <time>2024-09-18T08:02:03.999Z</time>
      </trkpt>
      <trkpt lat="43.09279" lon="0.87468">
        <ele>367.21</ele>
        <time>2024-09-18T08:02:08.999Z</time>
      </trkpt>
      <trkpt lat="43.0927" lon="0.8752">
        <ele>366.74</ele>
        <time>2024-09-18T08:02:13.999Z</time>
      </trkpt>
      <trkpt lat="43.09262" lon="0.87572">
        <ele>366.27</ele>
        <time>2024-09-18T08:02:18.999Z</time>
      </trkpt>
      <trkpt lat="43.09254" lon="0.87624">
        <ele>365.81</ele>
        <time>2024-09-18T08:02:23.999Z</time>
      </trkpt>
      <trkpt lat="43.09245" lon="0.87672">
        <ele>365.44</ele>
        <time>2024-09-18T08:02:28.999Z</time>
      </trkpt>
      <trkpt lat="43.09238" lon="0.87718">
        <ele>365.15</ele>
        <time>2024-09-18T08:02:33.999Z</time>
      </trkpt>
      <trkpt lat="43.0923" lon="0.87761">
        <ele>364.89</ele>
        <time>2024-09-18T08:02:38.999Z</time>
      </trkpt>
      <trkpt lat="43.09224" lon="0.878">
        <ele>364.59</ele>
        <time>2024-09-18T08:02:43.999Z</time>
      </trkpt>
      <trkpt lat="43.09218" lon="0.87836">
        <ele>364.37</ele>
        <time>2024-09-18T08:02:48.999Z</time>
      </trkpt>
      <trkpt lat="43.09213" lon="0.87871">
        <ele>364.14</ele>
        <time>2024-09-18T08:02:53.999Z</time>
      </trkpt>
      <trkpt lat="43.09208" lon="0.87905">
        <ele>364.02</ele>
        <time>2024-09-18T08:02:58.999Z</time>
      </trkpt>
      <trkpt lat="43.09201" lon="0.87937">
        <ele>363.86</ele>
        <time>2024-09-18T08:03:03.999Z</time>
      </trkpt>
      <trkpt lat="43.09195" lon="0.87966">
        <ele>363.81</ele>
        <time>2024-09-18T08:03:08.999Z</time>
      </trkpt>
      <trkpt lat="43.09188" lon="0.87996">
        <ele>363.68</ele>
        <time>2024-09-18T08:03:13.999Z</time>
      </trkpt>
      <trkpt lat="43.0918" lon="0.88026">
        <ele>363.63</ele>
        <time>2024-09-18T08:03:18.999Z</time>
      </trkpt>
      <trkpt lat="43.09172" lon="0.88056">
        <ele>363.58</ele>
        <time>2024-09-18T08:03:23.999Z</time>
      </trkpt>
      <trkpt lat="43.09164" lon="0.88085">
        <ele>363.57</ele>
        <time>2024-09-18T08:03:28.999Z</time>
      </trkpt>
      <trkpt lat="43.09156" lon="0.88113">
        <ele>363.58</ele>
        <time>2024-09-18T08:03:33.999Z</time>
      </trkpt>
      <trkpt lat="43.09148" lon="0.88143">
        <ele>363.61</ele>
        <time>2024-09-18T08:03:38.999Z</time>
      </trkpt>
      <trkpt lat="43.0914" lon="0.88172">
        <ele>363.68</ele>
        <time>2024-09-18T08:03:43.999Z</time>
      </trkpt>
      <trkpt lat="43.09132" lon="0.88201">
        <ele>363.8</ele>
        <time>2024-09-18T08:03:48.999Z</time>
      </trkpt>
      <trkpt lat="43.09124" lon="0.8823">
        <ele>363.94</ele>
        <time>2024-09-18T08:03:53.999Z</time>
      </trkpt>
      <trkpt lat="43.09116" lon="0.88259">
        <ele>364.1</ele>
        <time>2024-09-18T08:03:58.999Z</time>
      </trkpt>
      <trkpt lat="43.09107" lon="0.88288">
        <ele>364.27</ele>
        <time>2024-09-18T08:04:03.999Z</time>
      </trkpt>
      <trkpt lat="43.091" lon="0.88319">
        <ele>364.42</ele>
        <time>2024-09-18T08:04:08.999Z</time>
      </trkpt>
      <trkpt lat="43.09091" lon="0.8835">
        <ele>364.49</ele>
        <time>2024-09-18T08:04:13.999Z</time>
      </trkpt>
      <trkpt lat="43.09082" lon="0.88382">
        <ele>364.51</ele>
        <time>2024-09-18T08:04:18.999Z</time>
      </trkpt>
      <trkpt lat="43.09073" lon="0.88414">
        <ele>364.55</ele>
        <time>2024-09-18T08:04:23.999Z</time>
      </trkpt>
      <trkpt lat="43.09064" lon="0.88448">
        <ele>364.59</ele>
        <time>2024-09-18T08:04:28.999Z</time>
      </trkpt>
      <trkpt lat="43.09055" lon="0.88481">
        <ele>364.62</ele>
        <time>2024-09-18T08:04:33.999Z</time>
      </trkpt>
      <trkpt lat="43.09045" lon="0.88514">
        <ele>364.65</ele>
        <time>2024-09-18T08:04:38.999Z</time>
      </trkpt>
      <trkpt lat="43.09036" lon="0.88547">
        <ele>364.68</ele>
        <time>2024-09-18T08:04:43.999Z</time>
      </trkpt>
      <trkpt lat="43.09027" lon="0.88577">
        <ele>364.67</ele>
        <time>2024-09-18T08:04:48.999Z</time>
      </trkpt>
      <trkpt lat="43.09018" lon="0.88607">
        <ele>364.68</ele>
        <time>2024-09-18T08:04:53.999Z</time>
      </trkpt>
      <trkpt lat="43.09011" lon="0.88633">
        <ele>364.7</ele>
        <time>2024-09-18T08:04:58.999Z</time>
      </trkpt>
      <trkpt lat="43.09003" lon="0.88659">
        <ele>364.61</ele>
        <time>2024-09-18T08:05:03.999Z</time>
      </trkpt>
      <trkpt lat="43.08994" lon="0.88683">
        <ele>364.54</ele>
        <time>2024-09-18T08:05:08.999Z</time>
      </trkpt>
      <trkpt lat="43.08981" lon="0.88705">
        <ele>364.38</ele>
        <time>2024-09-18T08:05:13.999Z</time>
      </trkpt>
      <trkpt lat="43.08965" lon="0.88725">
        <ele>364.37</ele>
        <time>2024-09-18T08:05:18.999Z</time>
      </trkpt>
      <trkpt lat="43.08949" lon="0.88745">
        <ele>364.46</ele>
        <time>2024-09-18T08:05:23.999Z</time>
      </trkpt>
      <trkpt lat="43.08933" lon="0.88763">
        <ele>364.62</ele>
        <time>2024-09-18T08:05:28.999Z</time>
      </trkpt>
      <trkpt lat="43.0892" lon="0.88781">
        <ele>364.97</ele>
        <time>2024-09-18T08:05:33.999Z</time>
      </trkpt>
      <trkpt lat="43.08903" lon="0.88801">
        <ele>365.57</ele>
        <time>2024-09-18T08:05:38.999Z</time>
      </trkpt>
      <trkpt lat="43.08891" lon="0.88818">
        <ele>365.73</ele>
        <time>2024-09-18T08:05:43.999Z</time>
      </trkpt>
      <trkpt lat="43.08876" lon="0.88836">
        <ele>366.73</ele>
        <time>2024-09-18T08:05:48.999Z</time>
      </trkpt>
      <trkpt lat="43.08862" lon="0.88855">
        <ele>367.28</ele>
        <time>2024-09-18T08:05:53.999Z</time>
      </trkpt>
      <trkpt lat="43.08846" lon="0.88877">
        <ele>368.13</ele>
        <time>2024-09-18T08:05:58.999Z</time>
      </trkpt>
      <trkpt lat="43.08831" lon="0.88896">
        <ele>368.52</ele>
        <time>2024-09-18T08:06:03.999Z</time>
      </trkpt>
      <trkpt lat="43.08816" lon="0.88915">
        <ele>368.85</ele>
        <time>2024-09-18T08:06:08.999Z</time>
      </trkpt>
      <trkpt lat="43.08799" lon="0.88934">
        <ele>369.32</ele>
        <time>2024-09-18T08:06:13.999Z</time>
      </trkpt>
      <trkpt lat="43.08783" lon="0.88953">
        <ele>369.63</ele>
        <time>2024-09-18T08:06:18.999Z</time>
      </trkpt>
      <trkpt lat="43.08767" lon="0.88972">
        <ele>369.87</ele>
        <time>2024-09-18T08:06:23.999Z</time>
      </trkpt>
      <trkpt lat="43.08753" lon="0.88989">
        <ele>370.05</ele>
        <time>2024-09-18T08:06:28.999Z</time>
      </trkpt>
      <trkpt lat="43.08738" lon="0.89008">
        <ele>370.37</ele>
        <time>2024-09-18T08:06:33.999Z</time>
      </trkpt>
      <trkpt lat="43.08723" lon="0.89025">
        <ele>370.59</ele>
        <time>2024-09-18T08:06:38.999Z</time>
      </trkpt>
      <trkpt lat="43.0871" lon="0.89041">
        <ele>370.63</ele>
        <time>2024-09-18T08:06:43.999Z</time>
      </trkpt>
      <trkpt lat="43.08696" lon="0.89058">
        <ele>370.68</ele>
        <time>2024-09-18T08:06:48.999Z</time>
      </trkpt>
      <trkpt lat="43.08684" lon="0.89075">
        <ele>370.75</ele>
        <time>2024-09-18T08:06:53.999Z</time>
      </trkpt>
      <trkpt lat="43.0867" lon="0.89089">
        <ele>370.84</ele>
        <time>2024-09-18T08:06:58.999Z</time>
      </trkpt>
      <trkpt lat="43.08655" lon="0.89102">
        <ele>370.93</ele>
        <time>2024-09-18T08:07:03.999Z</time>
      </trkpt>
      <trkpt lat="43.0864" lon="0.89112">
        <ele>371.03</ele>
        <time>2024-09-18T08:07:08.999Z</time>
      </trkpt>
      <trkpt lat="43.08624" lon="0.89121">
        <ele>371.15</ele>
        <time>2024-09-18T08:07:13.999Z</time>
      </trkpt>
      <trkpt lat="43.08606" lon="0.89127">
        <ele>371.26</ele>
        <time>2024-09-18T08:07:18.999Z</time>
      </trkpt>
      <trkpt lat="43.0859" lon="0.89132">
        <ele>371.39</ele>
        <time>2024-09-18T08:07:23.999Z</time>
      </trkpt>
      <trkpt lat="43.08573" lon="0.89137">
        <ele>371.51</ele>
        <time>2024-09-18T08:07:28.999Z</time>
      </trkpt>
      <trkpt lat="43.08555" lon="0.89142">
        <ele>371.65</ele>
        <time>2024-09-18T08:07:33.999Z</time>
      </trkpt>
      <trkpt lat="43.08537" lon="0.89147">
        <ele>372.05</ele>
        <time>2024-09-18T08:07:38.999Z</time>
      </trkpt>
      <trkpt lat="43.0852" lon="0.89153">
        <ele>372.41</ele>
        <time>2024-09-18T08:07:43.999Z</time>
      </trkpt>
      <trkpt lat="43.08503" lon="0.89159">
        <ele>372.55</ele>
        <time>2024-09-18T08:07:48.999Z</time>
      </trkpt>
      <trkpt lat="43.08488" lon="0.89164">
        <ele>372.69</ele>
        <time>2024-09-18T08:07:53.999Z</time>
      </trkpt>
      <trkpt lat="43.08475" lon="0.89169">
        <ele>372.84</ele>
        <time>2024-09-18T08:07:58.999Z</time>
      </trkpt>
      <trkpt lat="43.08463" lon="0.89174">
        <ele>373.01</ele>
        <time>2024-09-18T08:08:03.999Z</time>
      </trkpt>
      <trkpt lat="43.08454" lon="0.89177">
        <ele>373.21</ele>
        <time>2024-09-18T08:08:08.999Z</time>
      </trkpt>
      <trkpt lat="43.08445" lon="0.89181">
        <ele>373.42</ele>
        <time>2024-09-18T08:08:13.999Z</time>
      </trkpt>
      <trkpt lat="43.08434" lon="0.89184">
        <ele>373.64</ele>
        <time>2024-09-18T08:08:18.999Z</time>
      </trkpt>
      <trkpt lat="43.08424" lon="0.89188">
        <ele>373.87</ele>
        <time>2024-09-18T08:08:23.999Z</time>
      </trkpt>
      <trkpt lat="43.08415" lon="0.89192">
        <ele>374.12</ele>
        <time>2024-09-18T08:08:28.999Z</time>
      </trkpt>
      <trkpt lat="43.08407" lon="0.89195">
        <ele>374.39</ele>
        <time>2024-09-18T08:08:33.999Z</time>
      </trkpt>
      <trkpt lat="43.08396" lon="0.89201">
        <ele>374.72</ele>
        <time>2024-09-18T08:08:39.999Z</time>
      </trkpt>
      <trkpt lat="43.08387" lon="0.89208">
        <ele>375.05</ele>
        <time>2024-09-18T08:08:45.999Z</time>
      </trkpt>
      <trkpt lat="43.0838" lon="0.89217">
        <ele>375.39</ele>
        <time>2024-09-18T08:08:51.999Z</time>
      </trkpt>
      <trkpt lat="43.08374" lon="0.89227">
        <ele>375.68</ele>
        <time>2024-09-18T08:08:56.999Z</time>
      </trkpt>
      <trkpt lat="43.08371" lon="0.89239">
        <ele>376.04</ele>
        <time>2024-09-18T08:09:02.999Z</time>
      </trkpt>
      <trkpt lat="43.08367" lon="0.89252">
        <ele>376.41</ele>
        <time>2024-09-18T08:09:08.999Z</time>
      </trkpt>
      <trkpt lat="43.08366" lon="0.89266">
        <ele>376.82</ele>
        <time>2024-09-18T08:09:14.999Z</time>
      </trkpt>
      <trkpt lat="43.08368" lon="0.89279">
        <ele>377.28</ele>
        <time>2024-09-18T08:09:20.999Z</time>
      </trkpt>
      <trkpt lat="43.08372" lon="0.8929">
        <ele>377.7</ele>
        <time>2024-09-18T08:09:25.999Z</time>
      </trkpt>
      <trkpt lat="43.08378" lon="0.89301">
        <ele>378.14</ele>
        <time>2024-09-18T08:09:30.999Z</time>
      </trkpt>
      <trkpt lat="43.08384" lon="0.89313">
        <ele>378.7</ele>
        <time>2024-09-18T08:09:36.999Z</time>
      </trkpt>
      <trkpt lat="43.0839" lon="0.89325">
        <ele>379.19</ele>
        <time>2024-09-18T08:09:41.999Z</time>
      </trkpt>
      <trkpt lat="43.08395" lon="0.89337">
        <ele>379.68</ele>
        <time>2024-09-18T08:09:46.999Z</time>
      </trkpt>
      <trkpt lat="43.084" lon="0.89349">
        <ele>380.26</ele>
        <time>2024-09-18T08:09:52.999Z</time>
      </trkpt>
      <trkpt lat="43.08406" lon="0.8936">
        <ele>380.71</ele>
        <time>2024-09-18T08:09:57.999Z</time>
      </trkpt>
      <trkpt lat="43.08411" lon="0.89372">
        <ele>381.24</ele>
        <time>2024-09-18T08:10:04.000Z</time>
      </trkpt>
      <trkpt lat="43.08416" lon="0.89383">
        <ele>381.68</ele>
        <time>2024-09-18T08:10:09.000Z</time>
      </trkpt>
      <trkpt lat="43.08421" lon="0.89394">
        <ele>382.11</ele>
        <time>2024-09-18T08:10:14.000Z</time>
      </trkpt>
      <trkpt lat="43.08425" lon="0.89406">
        <ele>382.63</ele>
        <time>2024-09-18T08:10:20.000Z</time>
      </trkpt>
      <trkpt lat="43.08428" lon="0.8942">
        <ele>383.15</ele>
        <time>2024-09-18T08:10:26.000Z</time>
      </trkpt>
      <trkpt lat="43.08431" lon="0.89432">
        <ele>383.58</ele>
        <time>2024-09-18T08:10:31.000Z</time>
      </trkpt>
      <trkpt lat="43.08433" lon="0.89446">
        <ele>384.01</ele>
        <time>2024-09-18T08:10:36.000Z</time>
      </trkpt>
      <trkpt lat="43.08435" lon="0.8946">
        <ele>384.45</ele>
        <time>2024-09-18T08:10:41.000Z</time>
      </trkpt>
      <trkpt lat="43.08437" lon="0.89474">
        <ele>384.89</ele>
        <time>2024-09-18T08:10:46.000Z</time>
      </trkpt>
      <trkpt lat="43.08438" lon="0.89488">
        <ele>385.31</ele>
        <time>2024-09-18T08:10:51.000Z</time>
      </trkpt>
      <trkpt lat="43.08438" lon="0.89501">
        <ele>385.71</ele>
        <time>2024-09-18T08:10:56.000Z</time>
      </trkpt>
      <trkpt lat="43.08439" lon="0.89516">
        <ele>386.1</ele>
        <time>2024-09-18T08:11:01.000Z</time>
      </trkpt>
      <trkpt lat="43.08439" lon="0.8953">
        <ele>386.47</ele>
        <time>2024-09-18T08:11:06.000Z</time>
      </trkpt>
      <trkpt lat="43.08439" lon="0.89544">
        <ele>386.84</ele>
        <time>2024-09-18T08:11:11.000Z</time>
      </trkpt>
      <trkpt lat="43.08438" lon="0.89559">
        <ele>387.2</ele>
        <time>2024-09-18T08:11:16.000Z</time>
      </trkpt>
      <trkpt lat="43.08437" lon="0.89575">
        <ele>387.55</ele>
        <time>2024-09-18T08:11:21.000Z</time>
      </trkpt>
      <trkpt lat="43.08435" lon="0.89588">
        <ele>387.9</ele>
        <time>2024-09-18T08:11:26.000Z</time>
      </trkpt>
      <trkpt lat="43.08432" lon="0.89605">
        <ele>388.25</ele>
        <time>2024-09-18T08:11:31.000Z</time>
      </trkpt>
      <trkpt lat="43.08429" lon="0.89625">
        <ele>388.61</ele>
        <time>2024-09-18T08:11:36.000Z</time>
      </trkpt>
      <trkpt lat="43.08427" lon="0.89643">
        <ele>388.96</ele>
        <time>2024-09-18T08:11:41.000Z</time>
      </trkpt>
      <trkpt lat="43.08423" lon="0.89662">
        <ele>389.32</ele>
        <time>2024-09-18T08:11:46.000Z</time>
      </trkpt>
      <trkpt lat="43.0842" lon="0.89681">
        <ele>389.68</ele>
        <time>2024-09-18T08:11:51.000Z</time>
      </trkpt>
      <trkpt lat="43.08421" lon="0.89701">
        <ele>390.04</ele>
        <time>2024-09-18T08:11:56.000Z</time>
      </trkpt>
      <trkpt lat="43.08429" lon="0.8972">
        <ele>390.4</ele>
        <time>2024-09-18T08:12:01.000Z</time>
      </trkpt>
      <trkpt lat="43.08439" lon="0.89744">
        <ele>392.85</ele>
        <time>2024-09-18T08:12:06.000Z</time>
      </trkpt>
      <trkpt lat="43.08448" lon="0.89769">
        <ele>393.98</ele>
        <time>2024-09-18T08:12:11.000Z</time>
      </trkpt>
      <trkpt lat="43.08455" lon="0.89795">
        <ele>394.57</ele>
        <time>2024-09-18T08:12:16.000Z</time>
      </trkpt>
      <trkpt lat="43.08463" lon="0.89822">
        <ele>394.99</ele>
        <time>2024-09-18T08:12:21.000Z</time>
      </trkpt>
      <trkpt lat="43.08474" lon="0.89851">
        <ele>395.29</ele>
        <time>2024-09-18T08:12:26.000Z</time>
      </trkpt>
      <trkpt lat="43.08484" lon="0.8988">
        <ele>395.51</ele>
        <time>2024-09-18T08:12:31.000Z</time>
      </trkpt>
      <trkpt lat="43.08493" lon="0.89911">
        <ele>395.68</ele>
        <time>2024-09-18T08:12:36.000Z</time>
      </trkpt>
      <trkpt lat="43.08501" lon="0.89941">
        <ele>395.88</ele>
        <time>2024-09-18T08:12:41.000Z</time>
      </trkpt>
      <trkpt lat="43.08506" lon="0.8997">
        <ele>396.14</ele>
        <time>2024-09-18T08:12:46.000Z</time>
      </trkpt>
      <trkpt lat="43.08511" lon="0.90002">
        <ele>396.43</ele>
        <time>2024-09-18T08:12:51.000Z</time>
      </trkpt>
      <trkpt lat="43.08518" lon="0.90036">
        <ele>396.72</ele>
        <time>2024-09-18T08:12:56.000Z</time>
      </trkpt>
      <trkpt lat="43.08528" lon="0.9007">
        <ele>396.97</ele>
        <time>2024-09-18T08:13:01.000Z</time>
      </trkpt>
      <trkpt lat="43.08539" lon="0.90106">
        <ele>397.16</ele>
        <time>2024-09-18T08:13:06.000Z</time>
      </trkpt>
      <trkpt lat="43.08552" lon="0.90141">
        <ele>397.32</ele>
        <time>2024-09-18T08:13:11.000Z</time>
      </trkpt>
      <trkpt lat="43.08563" lon="0.90176">
        <ele>397.5</ele>
        <time>2024-09-18T08:13:16.000Z</time>
      </trkpt>
      <trkpt lat="43.08576" lon="0.90213">
        <ele>397.72</ele>
        <time>2024-09-18T08:13:21.000Z</time>
      </trkpt>
      <trkpt lat="43.08589" lon="0.9025">
        <ele>397.9</ele>
        <time>2024-09-18T08:13:26.000Z</time>
      </trkpt>
      <trkpt lat="43.08598" lon="0.90281">
        <ele>398.08</ele>
        <time>2024-09-18T08:13:31.000Z</time>
      </trkpt>
      <trkpt lat="43.08604" lon="0.90308">
        <ele>398.26</ele>
        <time>2024-09-18T08:13:36.000Z</time>
      </trkpt>
      <trkpt lat="43.08606" lon="0.90331">
        <ele>398.3</ele>
        <time>2024-09-18T08:13:41.000Z</time>
      </trkpt>
      <trkpt lat="43.08605" lon="0.90346">
        <ele>401.94</ele>
        <time>2024-09-18T08:18:47.000Z</time>
      </trkpt>
      <trkpt lat="43.08603" lon="0.90366">
        <ele>402.37</ele>
        <time>2024-09-18T08:18:52.000Z</time>
      </trkpt>
      <trkpt lat="43.08601" lon="0.90389">
        <ele>402.77</ele>
        <time>2024-09-18T08:18:57.000Z</time>
      </trkpt>
      <trkpt lat="43.08603" lon="0.90415">
        <ele>405.07</ele>
        <time>2024-09-18T08:19:02.000Z</time>
      </trkpt>
      <trkpt lat="43.08608" lon="0.90439">
        <ele>405.26</ele>
        <time>2024-09-18T08:19:07.000Z</time>
      </trkpt>
      <trkpt lat="43.08612" lon="0.90459">
        <ele>405.42</ele>
        <time>2024-09-18T08:19:12.000Z</time>
      </trkpt>
      <trkpt lat="43.08614" lon="0.90474">
        <ele>405.57</ele>
        <time>2024-09-18T08:19:17.000Z</time>
      </trkpt>
      <trkpt lat="43.08616" lon="0.90488">
        <ele>405.72</ele>
        <time>2024-09-18T08:19:22.000Z</time>
      </trkpt>
      <trkpt lat="43.08618" lon="0.90504">
        <ele>405.86</ele>
        <time>2024-09-18T08:19:27.000Z</time>
      </trkpt>
      <trkpt lat="43.0862" lon="0.90522">
        <ele>406</ele>
        <time>2024-09-18T08:19:32.000Z</time>
      </trkpt>
      <trkpt lat="43.08622" lon="0.9054">
        <ele>406.14</ele>
        <time>2024-09-18T08:19:37.000Z</time>
      </trkpt>
      <trkpt lat="43.08623" lon="0.90558">
        <ele>406.28</ele>
        <time>2024-09-18T08:19:42.000Z</time>
      </trkpt>
      <trkpt lat="43.08624" lon="0.90574">
        <ele>406.41</ele>
        <time>2024-09-18T08:19:47.000Z</time>
      </trkpt>
      <trkpt lat="43.08626" lon="0.90591">
        <ele>406.55</ele>
        <time>2024-09-18T08:19:52.000Z</time>
      </trkpt>
      <trkpt lat="43.08628" lon="0.90609">
        <ele>406.69</ele>
        <time>2024-09-18T08:19:57.000Z</time>
      </trkpt>
      <trkpt lat="43.08628" lon="0.90624">
        <ele>406.83</ele>
        <time>2024-09-18T08:20:02.000Z</time>
      </trkpt>
      <trkpt lat="43.0863" lon="0.90642">
        <ele>406.97</ele>
        <time>2024-09-18T08:20:07.000Z</time>
      </trkpt>
      <trkpt lat="43.08631" lon="0.9066">
        <ele>407.11</ele>
        <time>2024-09-18T08:20:12.000Z</time>
      </trkpt>
      <trkpt lat="43.08633" lon="0.90678">
        <ele>407.26</ele>
        <time>2024-09-18T08:20:17.000Z</time>
      </trkpt>
      <trkpt lat="43.08634" lon="0.90695">
        <ele>407.41</ele>
        <time>2024-09-18T08:20:22.000Z</time>
      </trkpt>
      <trkpt lat="43.08636" lon="0.90712">
        <ele>407.56</ele>
        <time>2024-09-18T08:20:27.000Z</time>
      </trkpt>
      <trkpt lat="43.08639" lon="0.90728">
        <ele>407.71</ele>
        <time>2024-09-18T08:20:32.000Z</time>
      </trkpt>
      <trkpt lat="43.08642" lon="0.90743">
        <ele>407.86</ele>
        <time>2024-09-18T08:20:37.000Z</time>
      </trkpt>
      <trkpt lat="43.08647" lon="0.90759">
        <ele>408.01</ele>
        <time>2024-09-18T08:20:42.000Z</time>
      </trkpt>
      <trkpt lat="43.08651" lon="0.90775">
        <ele>408.18</ele>
        <time>2024-09-18T08:20:47.000Z</time>
      </trkpt>
      <trkpt lat="43.08656" lon="0.90792">
        <ele>408.36</ele>
        <time>2024-09-18T08:20:52.000Z</time>
      </trkpt>
      <trkpt lat="43.0866" lon="0.90808">
        <ele>408.54</ele>
        <time>2024-09-18T08:20:57.000Z</time>
      </trkpt>
      <trkpt lat="43.08666" lon="0.90824">
        <ele>408.73</ele>
        <time>2024-09-18T08:21:02.000Z</time>
      </trkpt>
      <trkpt lat="43.0867" lon="0.90841">
        <ele>408.93</ele>
        <time>2024-09-18T08:21:07.000Z</time>
      </trkpt>
      <trkpt lat="43.08674" lon="0.90857">
        <ele>409.14</ele>
        <time>2024-09-18T08:21:12.000Z</time>
      </trkpt>
      <trkpt lat="43.08677" lon="0.90872">
        <ele>409.34</ele>
        <time>2024-09-18T08:21:17.000Z</time>
      </trkpt>
      <trkpt lat="43.08679" lon="0.90885">
        <ele>409.55</ele>
        <time>2024-09-18T08:21:22.000Z</time>
      </trkpt>
      <trkpt lat="43.08679" lon="0.90901">
        <ele>409.75</ele>
        <time>2024-09-18T08:21:27.000Z</time>
      </trkpt>
      <trkpt lat="43.08679" lon="0.90919">
        <ele>409.94</ele>
        <time>2024-09-18T08:21:32.000Z</time>
      </trkpt>
      <trkpt lat="43.08678" lon="0.90935">
        <ele>410.14</ele>
        <time>2024-09-18T08:21:37.000Z</time>
      </trkpt>
      <trkpt lat="43.08677" lon="0.90957">
        <ele>410.34</ele>
        <time>2024-09-18T08:21:42.000Z</time>
      </trkpt>
      <trkpt lat="43.08677" lon="0.90976">
        <ele>410.56</ele>
        <time>2024-09-18T08:21:47.000Z</time>
      </trkpt>
      <trkpt lat="43.08677" lon="0.90995">
        <ele>410.78</ele>
        <time>2024-09-18T08:21:52.000Z</time>
      </trkpt>
      <trkpt lat="43.08678" lon="0.91013">
        <ele>411.02</ele>
        <time>2024-09-18T08:21:57.000Z</time>
      </trkpt>
      <trkpt lat="43.08678" lon="0.91031">
        <ele>411.27</ele>
        <time>2024-09-18T08:22:02.000Z</time>
      </trkpt>
      <trkpt lat="43.08678" lon="0.91049">
        <ele>411.52</ele>
        <time>2024-09-18T08:22:07.000Z</time>
      </trkpt>
      <trkpt lat="43.08678" lon="0.9107">
        <ele>411.83</ele>
        <time>2024-09-18T08:22:12.999Z</time>
      </trkpt>
      <trkpt lat="43.08678" lon="0.91087">
        <ele>412.1</ele>
        <time>2024-09-18T08:22:17.999Z</time>
      </trkpt>
      <trkpt lat="43.08676" lon="0.91106">
        <ele>412.37</ele>
        <time>2024-09-18T08:22:22.999Z</time>
      </trkpt>
      <trkpt lat="43.08673" lon="0.91126">
        <ele>412.65</ele>
        <time>2024-09-18T08:22:27.999Z</time>
      </trkpt>
      <trkpt lat="43.08664" lon="0.91148">
        <ele>414.49</ele>
        <time>2024-09-18T08:22:32.999Z</time>
      </trkpt>
      <trkpt lat="43.08649" lon="0.91173">
        <ele>415.3</ele>
        <time>2024-09-18T08:22:37.999Z</time>
      </trkpt>
      <trkpt lat="43.08631" lon="0.91195">
        <ele>415.69</ele>
        <time>2024-09-18T08:22:42.999Z</time>
      </trkpt>
      <trkpt lat="43.08613" lon="0.91217">
        <ele>415.91</ele>
        <time>2024-09-18T08:22:47.999Z</time>
      </trkpt>
      <trkpt lat="43.08595" lon="0.91237">
        <ele>416.05</ele>
        <time>2024-09-18T08:22:52.999Z</time>
      </trkpt>
      <trkpt lat="43.08576" lon="0.91256">
        <ele>416.18</ele>
        <time>2024-09-18T08:22:57.999Z</time>
      </trkpt>
      <trkpt lat="43.0856" lon="0.91277">
        <ele>416.29</ele>
        <time>2024-09-18T08:23:02.999Z</time>
      </trkpt>
      <trkpt lat="43.08547" lon="0.91304">
        <ele>416.4</ele>
        <time>2024-09-18T08:23:07.999Z</time>
      </trkpt>
      <trkpt lat="43.08536" lon="0.91336">
        <ele>416.52</ele>
        <time>2024-09-18T08:23:12.999Z</time>
      </trkpt>
      <trkpt lat="43.08523" lon="0.91371">
        <ele>416.65</ele>
        <time>2024-09-18T08:23:17.999Z</time>
      </trkpt>
      <trkpt lat="43.0851" lon="0.91402">
        <ele>416.78</ele>
        <time>2024-09-18T08:23:22.999Z</time>
      </trkpt>
      <trkpt lat="43.08497" lon="0.91435">
        <ele>416.86</ele>
        <time>2024-09-18T08:23:27.999Z</time>
      </trkpt>
      <trkpt lat="43.08484" lon="0.91475">
        <ele>416.93</ele>
        <time>2024-09-18T08:23:32.999Z</time>
      </trkpt>
      <trkpt lat="43.08473" lon="0.91515">
        <ele>417.08</ele>
        <time>2024-09-18T08:23:37.999Z</time>
      </trkpt>
      <trkpt lat="43.08467" lon="0.9156">
        <ele>417.37</ele>
        <time>2024-09-18T08:23:42.999Z</time>
      </trkpt>
      <trkpt lat="43.08471" lon="0.91608">
        <ele>417.57</ele>
        <time>2024-09-18T08:23:47.999Z</time>
      </trkpt>
      <trkpt lat="43.08491" lon="0.91657">
        <ele>418.01</ele>
        <time>2024-09-18T08:23:52.999Z</time>
      </trkpt>
      <trkpt lat="43.08517" lon="0.917">
        <ele>418.63</ele>
        <time>2024-09-18T08:23:57.999Z</time>
      </trkpt>
      <trkpt lat="43.08544" lon="0.91738">
        <ele>419.52</ele>
        <time>2024-09-18T08:24:02.999Z</time>
      </trkpt>
      <trkpt lat="43.08564" lon="0.91773">
        <ele>420.81</ele>
        <time>2024-09-18T08:24:07.999Z</time>
      </trkpt>
      <trkpt lat="43.08581" lon="0.91801">
        <ele>421.82</ele>
        <time>2024-09-18T08:24:12.999Z</time>
      </trkpt>
      <trkpt lat="43.08593" lon="0.91826">
        <ele>422.99</ele>
        <time>2024-09-18T08:24:17.999Z</time>
      </trkpt>
      <trkpt lat="43.08607" lon="0.91851">
        <ele>424.07</ele>
        <time>2024-09-18T08:24:22.999Z</time>
      </trkpt>
      <trkpt lat="43.08618" lon="0.91874">
        <ele>424.94</ele>
        <time>2024-09-18T08:24:27.999Z</time>
      </trkpt>
      <trkpt lat="43.08629" lon="0.9191">
        <ele>425.83</ele>
        <time>2024-09-18T08:24:32.999Z</time>
      </trkpt>
      <trkpt lat="43.08641" lon="0.91967">
        <ele>425.47</ele>
        <time>2024-09-18T08:24:37.999Z</time>
      </trkpt>
      <trkpt lat="43.08653" lon="0.92026">
        <ele>423.97</ele>
        <time>2024-09-18T08:24:42.999Z</time>
      </trkpt>
      <trkpt lat="43.08675" lon="0.92081">
        <ele>423.89</ele>
        <time>2024-09-18T08:24:47.999Z</time>
      </trkpt>
      <trkpt lat="43.08696" lon="0.92133">
        <ele>424.28</ele>
        <time>2024-09-18T08:24:52.999Z</time>
      </trkpt>
      <trkpt lat="43.08712" lon="0.92184">
        <ele>424.82</ele>
        <time>2024-09-18T08:24:57.999Z</time>
      </trkpt>
      <trkpt lat="43.08723" lon="0.92231">
        <ele>425.2</ele>
        <time>2024-09-18T08:25:02.999Z</time>
      </trkpt>
      <trkpt lat="43.08732" lon="0.92272">
        <ele>425.56</ele>
        <time>2024-09-18T08:25:07.999Z</time>
      </trkpt>
      <trkpt lat="43.0874" lon="0.92303">
        <ele>426.12</ele>
        <time>2024-09-18T08:25:12.999Z</time>
      </trkpt>
      <trkpt lat="43.08746" lon="0.92329">
        <ele>426.49</ele>
        <time>2024-09-18T08:25:17.999Z</time>
      </trkpt>
      <trkpt lat="43.08752" lon="0.92352">
        <ele>426.65</ele>
        <time>2024-09-18T08:25:22.999Z</time>
      </trkpt>
      <trkpt lat="43.08758" lon="0.92373">
        <ele>426.73</ele>
        <time>2024-09-18T08:25:27.999Z</time>
      </trkpt>
      <trkpt lat="43.08762" lon="0.92392">
        <ele>426.85</ele>
        <time>2024-09-18T08:25:32.999Z</time>
      </trkpt>
      <trkpt lat="43.08767" lon="0.92411">
        <ele>427</ele>
        <time>2024-09-18T08:25:37.999Z</time>
      </trkpt>
      <trkpt lat="43.08771" lon="0.9243">
        <ele>427.15</ele>
        <time>2024-09-18T08:25:42.999Z</time>
      </trkpt>
      <trkpt lat="43.08774" lon="0.9245">
        <ele>427.31</ele>
        <time>2024-09-18T08:25:47.999Z</time>
      </trkpt>
      <trkpt lat="43.08778" lon="0.9247">
        <ele>427.46</ele>
        <time>2024-09-18T08:25:52.999Z</time>
      </trkpt>
      <trkpt lat="43.0878" lon="0.92489">
        <ele>427.61</ele>
        <time>2024-09-18T08:25:57.999Z</time>
      </trkpt>
      <trkpt lat="43.08782" lon="0.92509">
        <ele>427.75</ele>
        <time>2024-09-18T08:26:02.999Z</time>
      </trkpt>
      <trkpt lat="43.08785" lon="0.92533">
        <ele>428.28</ele>
        <time>2024-09-18T08:26:07.999Z</time>
      </trkpt>
      <trkpt lat="43.08789" lon="0.92565">
        <ele>428.94</ele>
        <time>2024-09-18T08:26:12.999Z</time>
      </trkpt>
      <trkpt lat="43.08792" lon="0.92604">
        <ele>429.21</ele>
        <time>2024-09-18T08:26:17.999Z</time>
      </trkpt>
      <trkpt lat="43.08796" lon="0.92646">
        <ele>429.41</ele>
        <time>2024-09-18T08:26:22.999Z</time>
      </trkpt>
      <trkpt lat="43.088" lon="0.92689">
        <ele>429.5</ele>
        <time>2024-09-18T08:26:27.999Z</time>
      </trkpt>
      <trkpt lat="43.08804" lon="0.92732">
        <ele>429.5</ele>
        <time>2024-09-18T08:26:32.999Z</time>
      </trkpt>
      <trkpt lat="43.08808" lon="0.92775">
        <ele>429.54</ele>
        <time>2024-09-18T08:26:37.999Z</time>
      </trkpt>
      <trkpt lat="43.08811" lon="0.92816">
        <ele>429.66</ele>
        <time>2024-09-18T08:26:42.999Z</time>
      </trkpt>
      <trkpt lat="43.08812" lon="0.92851">
        <ele>429.66</ele>
        <time>2024-09-18T08:26:47.999Z</time>
      </trkpt>
      <trkpt lat="43.08811" lon="0.92881">
        <ele>430.46</ele>
        <time>2024-09-18T08:26:52.999Z</time>
      </trkpt>
      <trkpt lat="43.08808" lon="0.92905">
        <ele>430.65</ele>
        <time>2024-09-18T08:26:57.999Z</time>
      </trkpt>
      <trkpt lat="43.08804" lon="0.92928">
        <ele>430.6</ele>
        <time>2024-09-18T08:27:02.999Z</time>
      </trkpt>
      <trkpt lat="43.08797" lon="0.92952">
        <ele>430.56</ele>
        <time>2024-09-18T08:27:07.999Z</time>
      </trkpt>
      <trkpt lat="43.08789" lon="0.92976">
        <ele>430.55</ele>
        <time>2024-09-18T08:27:12.999Z</time>
      </trkpt>
      <trkpt lat="43.08779" lon="0.93002">
        <ele>430.5</ele>
        <time>2024-09-18T08:27:17.999Z</time>
      </trkpt>
      <trkpt lat="43.08766" lon="0.93033">
        <ele>430.08</ele>
        <time>2024-09-18T08:27:22.999Z</time>
      </trkpt>
      <trkpt lat="43.08751" lon="0.9307">
        <ele>429.64</ele>
        <time>2024-09-18T08:27:27.999Z</time>
      </trkpt>
      <trkpt lat="43.08734" lon="0.93115">
        <ele>429.21</ele>
        <time>2024-09-18T08:27:32.999Z</time>
      </trkpt>
      <trkpt lat="43.08713" lon="0.93174">
        <ele>428.81</ele>
        <time>2024-09-18T08:27:37.999Z</time>
      </trkpt>
      <trkpt lat="43.08691" lon="0.93238">
        <ele>428.18</ele>
        <time>2024-09-18T08:27:42.999Z</time>
      </trkpt>
      <trkpt lat="43.08674" lon="0.93312">
        <ele>424.99</ele>
        <time>2024-09-18T08:27:47.999Z</time>
      </trkpt>
      <trkpt lat="43.08662" lon="0.93389">
        <ele>422.32</ele>
        <time>2024-09-18T08:27:52.999Z</time>
      </trkpt>
      <trkpt lat="43.08649" lon="0.93464">
        <ele>421.04</ele>
        <time>2024-09-18T08:27:57.999Z</time>
      </trkpt>
      <trkpt lat="43.08631" lon="0.93529">
        <ele>420.49</ele>
        <time>2024-09-18T08:28:02.999Z</time>
      </trkpt>
      <trkpt lat="43.08607" lon="0.93585">
        <ele>419.43</ele>
        <time>2024-09-18T08:28:07.999Z</time>
      </trkpt>
      <trkpt lat="43.08583" lon="0.93637">
        <ele>418.3</ele>
        <time>2024-09-18T08:28:12.999Z</time>
      </trkpt>
      <trkpt lat="43.08559" lon="0.93684">
        <ele>417.13</ele>
        <time>2024-09-18T08:28:17.999Z</time>
      </trkpt>
      <trkpt lat="43.08535" lon="0.93726">
        <ele>414.67</ele>
        <time>2024-09-18T08:28:22.999Z</time>
      </trkpt>
      <trkpt lat="43.08507" lon="0.93767">
        <ele>411.35</ele>
        <time>2024-09-18T08:28:27.999Z</time>
      </trkpt>
      <trkpt lat="43.08475" lon="0.93811">
        <ele>408.34</ele>
        <time>2024-09-18T08:28:32.999Z</time>
      </trkpt>
      <trkpt lat="43.08441" lon="0.93858">
        <ele>405.81</ele>
        <time>2024-09-18T08:28:37.999Z</time>
      </trkpt>
      <trkpt lat="43.08404" lon="0.9391">
        <ele>403.47</ele>
        <time>2024-09-18T08:28:42.999Z</time>
      </trkpt>
      <trkpt lat="43.08365" lon="0.93963">
        <ele>401.86</ele>
        <time>2024-09-18T08:28:47.999Z</time>
      </trkpt>
      <trkpt lat="43.08352" lon="0.94037">
        <ele>399.62</ele>
        <time>2024-09-18T08:28:52.999Z</time>
      </trkpt>
      <trkpt lat="43.08363" lon="0.94115">
        <ele>396.83</ele>
        <time>2024-09-18T08:28:57.999Z</time>
      </trkpt>
      <trkpt lat="43.08397" lon="0.94187">
        <ele>392.75</ele>
        <time>2024-09-18T08:29:02.999Z</time>
      </trkpt>
      <trkpt lat="43.08421" lon="0.94264">
        <ele>388.41</ele>
        <time>2024-09-18T08:29:07.999Z</time>
      </trkpt>
      <trkpt lat="43.08432" lon="0.94342">
        <ele>384.65</ele>
        <time>2024-09-18T08:29:12.999Z</time>
      </trkpt>
      <trkpt lat="43.08425" lon="0.94417">
        <ele>381.62</ele>
        <time>2024-09-18T08:29:17.999Z</time>
      </trkpt>
      <trkpt lat="43.08418" lon="0.94492">
        <ele>378.75</ele>
        <time>2024-09-18T08:29:22.999Z</time>
      </trkpt>
      <trkpt lat="43.08418" lon="0.94567">
        <ele>375.86</ele>
        <time>2024-09-18T08:29:27.999Z</time>
      </trkpt>
      <trkpt lat="43.08414" lon="0.94645">
        <ele>371.49</ele>
        <time>2024-09-18T08:29:32.999Z</time>
      </trkpt>
      <trkpt lat="43.084" lon="0.9472">
        <ele>366.25</ele>
        <time>2024-09-18T08:29:37.999Z</time>
      </trkpt>
      <trkpt lat="43.08389" lon="0.94793">
        <ele>362.11</ele>
        <time>2024-09-18T08:29:42.999Z</time>
      </trkpt>
      <trkpt lat="43.08369" lon="0.94855">
        <ele>359.4</ele>
        <time>2024-09-18T08:29:47.999Z</time>
      </trkpt>
      <trkpt lat="43.08347" lon="0.94909">
        <ele>356.89</ele>
        <time>2024-09-18T08:29:52.999Z</time>
      </trkpt>
      <trkpt lat="43.08329" lon="0.94963">
        <ele>353.65</ele>
        <time>2024-09-18T08:29:57.999Z</time>
      </trkpt>
      <trkpt lat="43.08307" lon="0.95019">
        <ele>349.71</ele>
        <time>2024-09-18T08:30:02.999Z</time>
      </trkpt>
      <trkpt lat="43.08293" lon="0.95077">
        <ele>345.43</ele>
        <time>2024-09-18T08:30:07.999Z</time>
      </trkpt>
      <trkpt lat="43.08285" lon="0.95117">
        <ele>341.96</ele>
        <time>2024-09-18T08:30:12.999Z</time>
      </trkpt>
      <trkpt lat="43.08278" lon="0.95131">
        <ele>341.36</ele>
        <time>2024-09-18T08:30:17.999Z</time>
      </trkpt>
      <trkpt lat="43.08269" lon="0.9514">
        <ele>339.53</ele>
        <time>2024-09-18T08:30:38.999Z</time>
      </trkpt>
      <trkpt lat="43.08258" lon="0.95136">
        <ele>338.72</ele>
        <time>2024-09-18T08:30:43.999Z</time>
      </trkpt>
      <trkpt lat="43.08242" lon="0.95136">
        <ele>337.95</ele>
        <time>2024-09-18T08:30:48.999Z</time>
      </trkpt>
      <trkpt lat="43.08227" lon="0.95144">
        <ele>337.25</ele>
        <time>2024-09-18T08:30:53.999Z</time>
      </trkpt>
      <trkpt lat="43.08212" lon="0.95154">
        <ele>336.59</ele>
        <time>2024-09-18T08:30:58.999Z</time>
      </trkpt>
      <trkpt lat="43.08199" lon="0.95164">
        <ele>335.98</ele>
        <time>2024-09-18T08:31:03.999Z</time>
      </trkpt>
      <trkpt lat="43.08183" lon="0.95175">
        <ele>335.41</ele>
        <time>2024-09-18T08:31:08.999Z</time>
      </trkpt>
      <trkpt lat="43.08167" lon="0.95188">
        <ele>333.36</ele>
        <time>2024-09-18T08:31:13.999Z</time>
      </trkpt>
      <trkpt lat="43.08152" lon="0.95204">
        <ele>331.72</ele>
        <time>2024-09-18T08:31:18.999Z</time>
      </trkpt>
      <trkpt lat="43.08143" lon="0.95208">
        <ele>331.49</ele>
        <time>2024-09-18T08:31:23.999Z</time>
      </trkpt>
      <trkpt lat="43.08135" lon="0.95203">
        <ele>331.26</ele>
        <time>2024-09-18T08:31:28.999Z</time>
      </trkpt>
      <trkpt lat="43.08126" lon="0.95202">
        <ele>331.03</ele>
        <time>2024-09-18T08:31:33.999Z</time>
      </trkpt>
      <trkpt lat="43.08133" lon="0.9521">
        <ele>330.82</ele>
        <time>2024-09-18T08:31:38.999Z</time>
      </trkpt>
      <trkpt lat="43.0814" lon="0.95221">
        <ele>329.17</ele>
        <time>2024-09-18T08:33:15.999Z</time>
      </trkpt>
      <trkpt lat="43.0813" lon="0.95232">
        <ele>328.92</ele>
        <time>2024-09-18T08:33:20.999Z</time>
      </trkpt>
      <trkpt lat="43.08119" lon="0.95247">
        <ele>328.69</ele>
        <time>2024-09-18T08:33:25.999Z</time>
      </trkpt>
      <trkpt lat="43.08107" lon="0.95262">
        <ele>328.48</ele>
        <time>2024-09-18T08:33:30.999Z</time>
      </trkpt>
      <trkpt lat="43.08098" lon="0.95273">
        <ele>328.28</ele>
        <time>2024-09-18T08:33:35.999Z</time>
      </trkpt>
      <trkpt lat="43.08085" lon="0.95283">
        <ele>328.1</ele>
        <time>2024-09-18T08:33:40.999Z</time>
      </trkpt>
      <trkpt lat="43.08078" lon="0.95293">
        <ele>327.95</ele>
        <time>2024-09-18T08:33:45.999Z</time>
      </trkpt>
      <trkpt lat="43.08073" lon="0.95303">
        <ele>327.68</ele>
        <time>2024-09-18T08:33:55.999Z</time>
      </trkpt>
      <trkpt lat="43.08066" lon="0.95313">
        <ele>327.47</ele>
        <time>2024-09-18T08:34:04.999Z</time>
      </trkpt>
      <trkpt lat="43.08056" lon="0.95313">
        <ele>327.03</ele>
        <time>2024-09-18T08:35:05.000Z</time>
      </trkpt>
      <trkpt lat="43.08065" lon="0.95315">
        <ele>323.4</ele>
        <time>2024-09-18T08:53:54.999Z</time>
      </trkpt>
      <trkpt lat="43.08061" lon="0.95327">
        <ele>323.27</ele>
        <time>2024-09-18T08:54:44.999Z</time>
      </trkpt>
      <trkpt lat="43.08053" lon="0.95335">
        <ele>323.21</ele>
        <time>2024-09-18T08:54:53.999Z</time>
      </trkpt>
      <trkpt lat="43.08041" lon="0.95348">
        <ele>323.18</ele>
        <time>2024-09-18T08:54:58.999Z</time>
      </trkpt>
      <trkpt lat="43.08026" lon="0.95362">
        <ele>323.09</ele>
        <time>2024-09-18T08:55:03.999Z</time>
      </trkpt>
      <trkpt lat="43.08012" lon="0.95379">
        <ele>323.01</ele>
        <time>2024-09-18T08:55:08.999Z</time>
      </trkpt>
      <trkpt lat="43.07997" lon="0.95394">
        <ele>322.93</ele>
        <time>2024-09-18T08:55:13.999Z</time>
      </trkpt>
      <trkpt lat="43.07988" lon="0.95405">
        <ele>322.92</ele>
        <time>2024-09-18T08:55:18.999Z</time>
      </trkpt>
      <trkpt lat="43.07979" lon="0.95415">
        <ele>322.91</ele>
        <time>2024-09-18T08:55:23.999Z</time>
      </trkpt>
      <trkpt lat="43.07969" lon="0.95427">
        <ele>322.92</ele>
        <time>2024-09-18T08:55:28.999Z</time>
      </trkpt>
      <trkpt lat="43.07959" lon="0.9544">
        <ele>322.92</ele>
        <time>2024-09-18T08:55:33.999Z</time>
      </trkpt>
      <trkpt lat="43.07951" lon="0.95453">
        <ele>322.93</ele>
        <time>2024-09-18T08:55:38.999Z</time>
      </trkpt>
      <trkpt lat="43.07942" lon="0.95469">
        <ele>322.94</ele>
        <time>2024-09-18T08:55:43.999Z</time>
      </trkpt>
      <trkpt lat="43.07936" lon="0.95487">
        <ele>322.95</ele>
        <time>2024-09-18T08:55:48.999Z</time>
      </trkpt>
      <trkpt lat="43.07931" lon="0.95505">
        <ele>322.96</ele>
        <time>2024-09-18T08:55:53.999Z</time>
      </trkpt>
      <trkpt lat="43.07927" lon="0.95527">
        <ele>322.96</ele>
        <time>2024-09-18T08:55:58.999Z</time>
      </trkpt>
      <trkpt lat="43.07921" lon="0.95552">
        <ele>322.96</ele>
        <time>2024-09-18T08:56:03.999Z</time>
      </trkpt>
      <trkpt lat="43.07915" lon="0.95577">
        <ele>322.96</ele>
        <time>2024-09-18T08:56:08.999Z</time>
      </trkpt>
      <trkpt lat="43.07908" lon="0.95602">
        <ele>322.95</ele>
        <time>2024-09-18T08:56:13.999Z</time>
      </trkpt>
      <trkpt lat="43.07899" lon="0.9563">
        <ele>322.94</ele>
        <time>2024-09-18T08:56:18.999Z</time>
      </trkpt>
      <trkpt lat="43.07887" lon="0.95656">
        <ele>322.93</ele>
        <time>2024-09-18T08:56:23.999Z</time>
      </trkpt>
      <trkpt lat="43.07873" lon="0.95687">
        <ele>322.87</ele>
        <time>2024-09-18T08:56:28.999Z</time>
      </trkpt>
      <trkpt lat="43.07852" lon="0.95719">
        <ele>322.81</ele>
        <time>2024-09-18T08:56:33.999Z</time>
      </trkpt>
      <trkpt lat="43.07828" lon="0.95751">
        <ele>322.8</ele>
        <time>2024-09-18T08:56:38.999Z</time>
      </trkpt>
      <trkpt lat="43.07802" lon="0.95788">
        <ele>322.83</ele>
        <time>2024-09-18T08:56:43.999Z</time>
      </trkpt>
      <trkpt lat="43.07773" lon="0.95826">
        <ele>322.8</ele>
        <time>2024-09-18T08:56:48.999Z</time>
      </trkpt>
      <trkpt lat="43.0775" lon="0.95863">
        <ele>323.13</ele>
        <time>2024-09-18T08:56:53.999Z</time>
      </trkpt>
      <trkpt lat="43.07757" lon="0.95898">
        <ele>322.89</ele>
        <time>2024-09-18T08:56:58.999Z</time>
      </trkpt>
      <trkpt lat="43.07743" lon="0.95916">
        <ele>321.95</ele>
        <time>2024-09-18T08:57:03.999Z</time>
      </trkpt>
      <trkpt lat="43.07718" lon="0.9592">
        <ele>321.87</ele>
        <time>2024-09-18T08:57:08.999Z</time>
      </trkpt>
      <trkpt lat="43.07699" lon="0.95942">
        <ele>321.84</ele>
        <time>2024-09-18T08:57:13.999Z</time>
      </trkpt>
      <trkpt lat="43.0768" lon="0.95967">
        <ele>321.82</ele>
        <time>2024-09-18T08:57:18.999Z</time>
      </trkpt>
      <trkpt lat="43.07659" lon="0.95993">
        <ele>322.02</ele>
        <time>2024-09-18T08:57:23.999Z</time>
      </trkpt>
      <trkpt lat="43.0764" lon="0.96019">
        <ele>322.18</ele>
        <time>2024-09-18T08:57:28.999Z</time>
      </trkpt>
      <trkpt lat="43.07623" lon="0.96042">
        <ele>322.22</ele>
        <time>2024-09-18T08:57:33.999Z</time>
      </trkpt>
      <trkpt lat="43.07607" lon="0.96063">
        <ele>322.03</ele>
        <time>2024-09-18T08:57:38.999Z</time>
      </trkpt>
      <trkpt lat="43.07591" lon="0.96083">
        <ele>321.77</ele>
        <time>2024-09-18T08:57:43.999Z</time>
      </trkpt>
      <trkpt lat="43.07574" lon="0.96104">
        <ele>321.65</ele>
        <time>2024-09-18T08:57:48.999Z</time>
      </trkpt>
      <trkpt lat="43.07557" lon="0.96126">
        <ele>321.44</ele>
        <time>2024-09-18T08:57:53.999Z</time>
      </trkpt>
      <trkpt lat="43.07539" lon="0.96147">
        <ele>321.16</ele>
        <time>2024-09-18T08:57:58.999Z</time>
      </trkpt>
      <trkpt lat="43.0752" lon="0.9617">
        <ele>320.86</ele>
        <time>2024-09-18T08:58:03.999Z</time>
      </trkpt>
      <trkpt lat="43.07501" lon="0.96193">
        <ele>320.7</ele>
        <time>2024-09-18T08:58:08.999Z</time>
      </trkpt>
      <trkpt lat="43.07483" lon="0.96217">
        <ele>320.53</ele>
        <time>2024-09-18T08:58:14.000Z</time>
      </trkpt>
      <trkpt lat="43.07464" lon="0.96241">
        <ele>320.4</ele>
        <time>2024-09-18T08:58:19.000Z</time>
      </trkpt>
      <trkpt lat="43.07446" lon="0.96265">
        <ele>320.29</ele>
        <time>2024-09-18T08:58:24.000Z</time>
      </trkpt>
      <trkpt lat="43.07427" lon="0.96287">
        <ele>320.25</ele>
        <time>2024-09-18T08:58:29.000Z</time>
      </trkpt>
      <trkpt lat="43.0741" lon="0.9631">
        <ele>320.16</ele>
        <time>2024-09-18T08:58:34.000Z</time>
      </trkpt>
      <trkpt lat="43.0741" lon="0.96341">
        <ele>320.23</ele>
        <time>2024-09-18T08:58:39.000Z</time>
      </trkpt>
      <trkpt lat="43.07404" lon="0.96372">
        <ele>320.1</ele>
        <time>2024-09-18T08:58:44.000Z</time>
      </trkpt>
      <trkpt lat="43.07385" lon="0.96398">
        <ele>320.12</ele>
        <time>2024-09-18T08:58:49.000Z</time>
      </trkpt>
      <trkpt lat="43.07366" lon="0.96421">
        <ele>319.99</ele>
        <time>2024-09-18T08:58:54.000Z</time>
      </trkpt>
      <trkpt lat="43.07347" lon="0.96444">
        <ele>319.82</ele>
        <time>2024-09-18T08:58:59.000Z</time>
      </trkpt>
      <trkpt lat="43.0733" lon="0.96465">
        <ele>319.7</ele>
        <time>2024-09-18T08:59:04.000Z</time>
      </trkpt>
      <trkpt lat="43.07313" lon="0.96486">
        <ele>319.55</ele>
        <time>2024-09-18T08:59:09.000Z</time>
      </trkpt>
      <trkpt lat="43.07298" lon="0.96505">
        <ele>319.3</ele>
        <time>2024-09-18T08:59:14.000Z</time>
      </trkpt>
      <trkpt lat="43.07281" lon="0.96529">
        <ele>318.59</ele>
        <time>2024-09-18T08:59:19.000Z</time>
      </trkpt>
      <trkpt lat="43.07263" lon="0.96552">
        <ele>318.16</ele>
        <time>2024-09-18T08:59:24.000Z</time>
      </trkpt>
      <trkpt lat="43.07247" lon="0.96573">
        <ele>318.05</ele>
        <time>2024-09-18T08:59:29.000Z</time>
      </trkpt>
      <trkpt lat="43.07231" lon="0.96595">
        <ele>318.15</ele>
        <time>2024-09-18T08:59:34.000Z</time>
      </trkpt>
      <trkpt lat="43.07214" lon="0.96616">
        <ele>318.26</ele>
        <time>2024-09-18T08:59:39.000Z</time>
      </trkpt>
      <trkpt lat="43.07194" lon="0.96641">
        <ele>318.33</ele>
        <time>2024-09-18T08:59:44.000Z</time>
      </trkpt>
      <trkpt lat="43.07178" lon="0.96663">
        <ele>318.25</ele>
        <time>2024-09-18T08:59:49.000Z</time>
      </trkpt>
      <trkpt lat="43.07159" lon="0.96684">
        <ele>317.92</ele>
        <time>2024-09-18T08:59:54.000Z</time>
      </trkpt>
      <trkpt lat="43.07141" lon="0.96709">
        <ele>317.62</ele>
        <time>2024-09-18T08:59:59.000Z</time>
      </trkpt>
      <trkpt lat="43.07121" lon="0.96733">
        <ele>317.18</ele>
        <time>2024-09-18T09:00:04.000Z</time>
      </trkpt>
      <trkpt lat="43.07103" lon="0.9676">
        <ele>317.08</ele>
        <time>2024-09-18T09:00:09.000Z</time>
      </trkpt>
      <trkpt lat="43.07083" lon="0.96786">
        <ele>317.39</ele>
        <time>2024-09-18T09:00:14.000Z</time>
      </trkpt>
      <trkpt lat="43.07063" lon="0.9681">
        <ele>317.69</ele>
        <time>2024-09-18T09:00:19.000Z</time>
      </trkpt>
      <trkpt lat="43.07049" lon="0.96828">
        <ele>318</ele>
        <time>2024-09-18T09:00:24.000Z</time>
      </trkpt>
      <trkpt lat="43.07035" lon="0.96848">
        <ele>318.21</ele>
        <time>2024-09-18T09:00:29.000Z</time>
      </trkpt>
      <trkpt lat="43.0702" lon="0.9687">
        <ele>318.52</ele>
        <time>2024-09-18T09:00:34.000Z</time>
      </trkpt>
      <trkpt lat="43.07004" lon="0.96889">
        <ele>318.74</ele>
        <time>2024-09-18T09:00:39.000Z</time>
      </trkpt>
      <trkpt lat="43.06989" lon="0.96909">
        <ele>318.99</ele>
        <time>2024-09-18T09:00:44.000Z</time>
      </trkpt>
      <trkpt lat="43.06975" lon="0.96926">
        <ele>319.05</ele>
        <time>2024-09-18T09:00:49.000Z</time>
      </trkpt>
      <trkpt lat="43.06969" lon="0.96938">
        <ele>319.03</ele>
        <time>2024-09-18T09:01:49.000Z</time>
      </trkpt>
      <trkpt lat="43.06959" lon="0.96951">
        <ele>318.95</ele>
        <time>2024-09-18T09:01:54.000Z</time>
      </trkpt>
      <trkpt lat="43.06944" lon="0.96972">
        <ele>318.43</ele>
        <time>2024-09-18T09:01:59.000Z</time>
      </trkpt>
      <trkpt lat="43.06926" lon="0.96993">
        <ele>318.24</ele>
        <time>2024-09-18T09:02:04.000Z</time>
      </trkpt>
      <trkpt lat="43.06908" lon="0.97015">
        <ele>318.17</ele>
        <time>2024-09-18T09:02:09.000Z</time>
      </trkpt>
      <trkpt lat="43.0689" lon="0.9704">
        <ele>318.19</ele>
        <time>2024-09-18T09:02:14.000Z</time>
      </trkpt>
      <trkpt lat="43.06871" lon="0.97065">
        <ele>318.26</ele>
        <time>2024-09-18T09:02:19.000Z</time>
      </trkpt>
      <trkpt lat="43.06852" lon="0.97089">
        <ele>318.34</ele>
        <time>2024-09-18T09:02:24.000Z</time>
      </trkpt>
      <trkpt lat="43.06833" lon="0.97114">
        <ele>318.42</ele>
        <time>2024-09-18T09:02:29.000Z</time>
      </trkpt>
      <trkpt lat="43.06814" lon="0.97138">
        <ele>318.51</ele>
        <time>2024-09-18T09:02:34.000Z</time>
      </trkpt>
      <trkpt lat="43.06796" lon="0.97162">
        <ele>318.55</ele>
        <time>2024-09-18T09:02:39.000Z</time>
      </trkpt>
      <trkpt lat="43.06778" lon="0.97185">
        <ele>318.59</ele>
        <time>2024-09-18T09:02:44.000Z</time>
      </trkpt>
      <trkpt lat="43.06764" lon="0.97205">
        <ele>318.75</ele>
        <time>2024-09-18T09:02:49.000Z</time>
      </trkpt>
      <trkpt lat="43.06752" lon="0.97221">
        <ele>318.92</ele>
        <time>2024-09-18T09:02:54.000Z</time>
      </trkpt>
      <trkpt lat="43.06733" lon="0.97244">
        <ele>319.21</ele>
        <time>2024-09-18T09:02:59.000Z</time>
      </trkpt>
      <trkpt lat="43.06714" lon="0.97268">
        <ele>319.36</ele>
        <time>2024-09-18T09:03:04.000Z</time>
      </trkpt>
      <trkpt lat="43.06696" lon="0.97292">
        <ele>319.5</ele>
        <time>2024-09-18T09:03:09.000Z</time>
      </trkpt>
      <trkpt lat="43.06677" lon="0.97316">
        <ele>319.62</ele>
        <time>2024-09-18T09:03:14.000Z</time>
      </trkpt>
      <trkpt lat="43.06663" lon="0.97336">
        <ele>319.79</ele>
        <time>2024-09-18T09:03:19.000Z</time>
      </trkpt>
      <trkpt lat="43.06647" lon="0.97359">
        <ele>319.98</ele>
        <time>2024-09-18T09:03:24.000Z</time>
      </trkpt>
      <trkpt lat="43.06628" lon="0.9738">
        <ele>320.2</ele>
        <time>2024-09-18T09:03:29.000Z</time>
      </trkpt>
      <trkpt lat="43.06612" lon="0.97401">
        <ele>320.41</ele>
        <time>2024-09-18T09:03:34.000Z</time>
      </trkpt>
      <trkpt lat="43.06595" lon="0.97422">
        <ele>320.53</ele>
        <time>2024-09-18T09:03:39.000Z</time>
      </trkpt>
      <trkpt lat="43.06578" lon="0.97445">
        <ele>320.61</ele>
        <time>2024-09-18T09:03:44.000Z</time>
      </trkpt>
      <trkpt lat="43.0656" lon="0.97467">
        <ele>320.67</ele>
        <time>2024-09-18T09:03:49.000Z</time>
      </trkpt>
      <trkpt lat="43.06544" lon="0.97488">
        <ele>320.76</ele>
        <time>2024-09-18T09:03:54.000Z</time>
      </trkpt>
      <trkpt lat="43.06529" lon="0.9751">
        <ele>320.84</ele>
        <time>2024-09-18T09:03:59.000Z</time>
      </trkpt>
      <trkpt lat="43.06514" lon="0.97524">
        <ele>320.86</ele>
        <time>2024-09-18T09:04:04.000Z</time>
      </trkpt>
      <trkpt lat="43.065" lon="0.97544">
        <ele>321.13</ele>
        <time>2024-09-18T09:04:09.000Z</time>
      </trkpt>
      <trkpt lat="43.06481" lon="0.97561">
        <ele>321.34</ele>
        <time>2024-09-18T09:04:14.000Z</time>
      </trkpt>
      <trkpt lat="43.06462" lon="0.97581">
        <ele>321.49</ele>
        <time>2024-09-18T09:04:19.000Z</time>
      </trkpt>
      <trkpt lat="43.06446" lon="0.97598">
        <ele>321.55</ele>
        <time>2024-09-18T09:04:24.000Z</time>
      </trkpt>
      <trkpt lat="43.06428" lon="0.97615">
        <ele>321.57</ele>
        <time>2024-09-18T09:04:29.000Z</time>
      </trkpt>
      <trkpt lat="43.06408" lon="0.97635">
        <ele>321.71</ele>
        <time>2024-09-18T09:04:34.000Z</time>
      </trkpt>
      <trkpt lat="43.06389" lon="0.97656">
        <ele>321.91</ele>
        <time>2024-09-18T09:04:39.000Z</time>
      </trkpt>
      <trkpt lat="43.06368" lon="0.97673">
        <ele>322.13</ele>
        <time>2024-09-18T09:04:44.000Z</time>
      </trkpt>
      <trkpt lat="43.06345" lon="0.97693">
        <ele>322.31</ele>
        <time>2024-09-18T09:04:49.000Z</time>
      </trkpt>
      <trkpt lat="43.06323" lon="0.97715">
        <ele>322.51</ele>
        <time>2024-09-18T09:04:54.000Z</time>
      </trkpt>
      <trkpt lat="43.06301" lon="0.97736">
        <ele>322.68</ele>
        <time>2024-09-18T09:04:59.000Z</time>
      </trkpt>
      <trkpt lat="43.06278" lon="0.97755">
        <ele>322.84</ele>
        <time>2024-09-18T09:05:04.000Z</time>
      </trkpt>
      <trkpt lat="43.06255" lon="0.97774">
        <ele>322.98</ele>
        <time>2024-09-18T09:05:09.000Z</time>
      </trkpt>
      <trkpt lat="43.06233" lon="0.97794">
        <ele>323.12</ele>
        <time>2024-09-18T09:05:14.000Z</time>
      </trkpt>
      <trkpt lat="43.06211" lon="0.97813">
        <ele>323.25</ele>
        <time>2024-09-18T09:05:19.000Z</time>
      </trkpt>
      <trkpt lat="43.06189" lon="0.97831">
        <ele>323.35</ele>
        <time>2024-09-18T09:05:24.000Z</time>
      </trkpt>
      <trkpt lat="43.06166" lon="0.97846">
        <ele>323.43</ele>
        <time>2024-09-18T09:05:29.000Z</time>
      </trkpt>
      <trkpt lat="43.06142" lon="0.97863">
        <ele>323.5</ele>
        <time>2024-09-18T09:05:34.000Z</time>
      </trkpt>
      <trkpt lat="43.0612" lon="0.9788">
        <ele>323.61</ele>
        <time>2024-09-18T09:05:39.000Z</time>
      </trkpt>
      <trkpt lat="43.06097" lon="0.97895">
        <ele>323.74</ele>
        <time>2024-09-18T09:05:44.000Z</time>
      </trkpt>
      <trkpt lat="43.06074" lon="0.9791">
        <ele>323.87</ele>
        <time>2024-09-18T09:05:49.000Z</time>
      </trkpt>
      <trkpt lat="43.0605" lon="0.97924">
        <ele>324.03</ele>
        <time>2024-09-18T09:05:54.000Z</time>
      </trkpt>
      <trkpt lat="43.06027" lon="0.97938">
        <ele>324.11</ele>
        <time>2024-09-18T09:05:59.000Z</time>
      </trkpt>
      <trkpt lat="43.06002" lon="0.97952">
        <ele>324.18</ele>
        <time>2024-09-18T09:06:04.000Z</time>
      </trkpt>
      <trkpt lat="43.05979" lon="0.97964">
        <ele>324.25</ele>
        <time>2024-09-18T09:06:09.000Z</time>
      </trkpt>
      <trkpt lat="43.05955" lon="0.97976">
        <ele>324.3</ele>
        <time>2024-09-18T09:06:14.000Z</time>
      </trkpt>
      <trkpt lat="43.05932" lon="0.97988">
        <ele>324.34</ele>
        <time>2024-09-18T09:06:19.000Z</time>
      </trkpt>
      <trkpt lat="43.05912" lon="0.97997">
        <ele>324.37</ele>
        <time>2024-09-18T09:06:24.000Z</time>
      </trkpt>
      <trkpt lat="43.05895" lon="0.98004">
        <ele>324.37</ele>
        <time>2024-09-18T09:06:29.000Z</time>
      </trkpt>
      <trkpt lat="43.05884" lon="0.9801">
        <ele>325.38</ele>
        <time>2024-09-18T09:10:14.000Z</time>
      </trkpt>
      <trkpt lat="43.05864" lon="0.9802">
        <ele>326.06</ele>
        <time>2024-09-18T09:10:19.000Z</time>
      </trkpt>
      <trkpt lat="43.05838" lon="0.9803">
        <ele>326.5</ele>
        <time>2024-09-18T09:10:24.999Z</time>
      </trkpt>
      <trkpt lat="43.05815" lon="0.98038">
        <ele>326.66</ele>
        <time>2024-09-18T09:10:29.999Z</time>
      </trkpt>
      <trkpt lat="43.05792" lon="0.98048">
        <ele>326.76</ele>
        <time>2024-09-18T09:10:34.999Z</time>
      </trkpt>
      <trkpt lat="43.05766" lon="0.98057">
        <ele>326.86</ele>
        <time>2024-09-18T09:10:39.999Z</time>
      </trkpt>
      <trkpt lat="43.05739" lon="0.9807">
        <ele>326.98</ele>
        <time>2024-09-18T09:10:44.999Z</time>
      </trkpt>
      <trkpt lat="43.05711" lon="0.98082">
        <ele>327.13</ele>
        <time>2024-09-18T09:10:49.999Z</time>
      </trkpt>
      <trkpt lat="43.05683" lon="0.98095">
        <ele>327.25</ele>
        <time>2024-09-18T09:10:54.999Z</time>
      </trkpt>
      <trkpt lat="43.05656" lon="0.98107">
        <ele>327.38</ele>
        <time>2024-09-18T09:10:59.999Z</time>
      </trkpt>
      <trkpt lat="43.05628" lon="0.9812">
        <ele>327.54</ele>
        <time>2024-09-18T09:11:04.999Z</time>
      </trkpt>
      <trkpt lat="43.05601" lon="0.98131">
        <ele>327.68</ele>
        <time>2024-09-18T09:11:09.999Z</time>
      </trkpt>
      <trkpt lat="43.05575" lon="0.98142">
        <ele>327.84</ele>
        <time>2024-09-18T09:11:14.999Z</time>
      </trkpt>
      <trkpt lat="43.05552" lon="0.98153">
        <ele>327.98</ele>
        <time>2024-09-18T09:11:19.999Z</time>
      </trkpt>
      <trkpt lat="43.05534" lon="0.98161">
        <ele>328.08</ele>
        <time>2024-09-18T09:11:24.999Z</time>
      </trkpt>
      <trkpt lat="43.05514" lon="0.98168">
        <ele>328.21</ele>
        <time>2024-09-18T09:11:29.999Z</time>
      </trkpt>
      <trkpt lat="43.0549" lon="0.98176">
        <ele>328.32</ele>
        <time>2024-09-18T09:11:34.999Z</time>
      </trkpt>
      <trkpt lat="43.05464" lon="0.98185">
        <ele>328.4</ele>
        <time>2024-09-18T09:11:39.999Z</time>
      </trkpt>
      <trkpt lat="43.05437" lon="0.98194">
        <ele>328.49</ele>
        <time>2024-09-18T09:11:44.999Z</time>
      </trkpt>
      <trkpt lat="43.05411" lon="0.98205">
        <ele>328.54</ele>
        <time>2024-09-18T09:11:49.999Z</time>
      </trkpt>
      <trkpt lat="43.05386" lon="0.98217">
        <ele>328.57</ele>
        <time>2024-09-18T09:11:54.999Z</time>
      </trkpt>
      <trkpt lat="43.0536" lon="0.9823">
        <ele>328.59</ele>
        <time>2024-09-18T09:11:59.999Z</time>
      </trkpt>
      <trkpt lat="43.05333" lon="0.98244">
        <ele>328.65</ele>
        <time>2024-09-18T09:12:04.999Z</time>
      </trkpt>
      <trkpt lat="43.05307" lon="0.98256">
        <ele>328.67</ele>
        <time>2024-09-18T09:12:09.999Z</time>
      </trkpt>
      <trkpt lat="43.05281" lon="0.9827">
        <ele>328.69</ele>
        <time>2024-09-18T09:12:14.999Z</time>
      </trkpt>
      <trkpt lat="43.05254" lon="0.98281">
        <ele>328.75</ele>
        <time>2024-09-18T09:12:19.999Z</time>
      </trkpt>
      <trkpt lat="43.05227" lon="0.98295">
        <ele>328.8</ele>
        <time>2024-09-18T09:12:24.999Z</time>
      </trkpt>
      <trkpt lat="43.05201" lon="0.98308">
        <ele>328.84</ele>
        <time>2024-09-18T09:12:29.999Z</time>
      </trkpt>
      <trkpt lat="43.05176" lon="0.98322">
        <ele>328.9</ele>
        <time>2024-09-18T09:12:34.999Z</time>
      </trkpt>
      <trkpt lat="43.05151" lon="0.98336">
        <ele>328.96</ele>
        <time>2024-09-18T09:12:39.999Z</time>
      </trkpt>
      <trkpt lat="43.05127" lon="0.98351">
        <ele>328.96</ele>
        <time>2024-09-18T09:12:44.999Z</time>
      </trkpt>
      <trkpt lat="43.05103" lon="0.98367">
        <ele>328.96</ele>
        <time>2024-09-18T09:12:49.999Z</time>
      </trkpt>
      <trkpt lat="43.05077" lon="0.98384">
        <ele>328.99</ele>
        <time>2024-09-18T09:12:54.999Z</time>
      </trkpt>
      <trkpt lat="43.05053" lon="0.98401">
        <ele>329.09</ele>
        <time>2024-09-18T09:12:59.999Z</time>
      </trkpt>
      <trkpt lat="43.05029" lon="0.98418">
        <ele>329.17</ele>
        <time>2024-09-18T09:13:04.999Z</time>
      </trkpt>
      <trkpt lat="43.05005" lon="0.98438">
        <ele>329.26</ele>
        <time>2024-09-18T09:13:09.999Z</time>
      </trkpt>
      <trkpt lat="43.04982" lon="0.98457">
        <ele>329.3</ele>
        <time>2024-09-18T09:13:14.999Z</time>
      </trkpt>
      <trkpt lat="43.0496" lon="0.98477">
        <ele>329.33</ele>
        <time>2024-09-18T09:13:19.999Z</time>
      </trkpt>
      <trkpt lat="43.04934" lon="0.98501">
        <ele>329.37</ele>
        <time>2024-09-18T09:13:24.999Z</time>
      </trkpt>
      <trkpt lat="43.04914" lon="0.9852">
        <ele>329.41</ele>
        <time>2024-09-18T09:13:29.999Z</time>
      </trkpt>
      <trkpt lat="43.04894" lon="0.98541">
        <ele>329.52</ele>
        <time>2024-09-18T09:13:34.999Z</time>
      </trkpt>
      <trkpt lat="43.04871" lon="0.98563">
        <ele>329.58</ele>
        <time>2024-09-18T09:13:39.999Z</time>
      </trkpt>
      <trkpt lat="43.04849" lon="0.98584">
        <ele>329.64</ele>
        <time>2024-09-18T09:13:44.999Z</time>
      </trkpt>
      <trkpt lat="43.04826" lon="0.98608">
        <ele>329.75</ele>
        <time>2024-09-18T09:13:49.999Z</time>
      </trkpt>
      <trkpt lat="43.04805" lon="0.9863">
        <ele>329.89</ele>
        <time>2024-09-18T09:13:54.999Z</time>
      </trkpt>
      <trkpt lat="43.04784" lon="0.98652">
        <ele>330.02</ele>
        <time>2024-09-18T09:13:59.999Z</time>
      </trkpt>
      <trkpt lat="43.04762" lon="0.98673">
        <ele>330.17</ele>
        <time>2024-09-18T09:14:04.999Z</time>
      </trkpt>
      <trkpt lat="43.04741" lon="0.98694">
        <ele>330.3</ele>
        <time>2024-09-18T09:14:09.999Z</time>
      </trkpt>
      <trkpt lat="43.04719" lon="0.98716">
        <ele>330.43</ele>
        <time>2024-09-18T09:14:14.999Z</time>
      </trkpt>
      <trkpt lat="43.04697" lon="0.98738">
        <ele>330.49</ele>
        <time>2024-09-18T09:14:19.999Z</time>
      </trkpt>
      <trkpt lat="43.04674" lon="0.9876">
        <ele>330.54</ele>
        <time>2024-09-18T09:14:24.999Z</time>
      </trkpt>
      <trkpt lat="43.04651" lon="0.98782">
        <ele>330.7</ele>
        <time>2024-09-18T09:14:29.999Z</time>
      </trkpt>
      <trkpt lat="43.04629" lon="0.98804">
        <ele>330.84</ele>
        <time>2024-09-18T09:14:34.999Z</time>
      </trkpt>
      <trkpt lat="43.04606" lon="0.98827">
        <ele>330.9</ele>
        <time>2024-09-18T09:14:39.999Z</time>
      </trkpt>
      <trkpt lat="43.04585" lon="0.98849">
        <ele>330.96</ele>
        <time>2024-09-18T09:14:44.999Z</time>
      </trkpt>
      <trkpt lat="43.04563" lon="0.9887">
        <ele>331.06</ele>
        <time>2024-09-18T09:14:49.999Z</time>
      </trkpt>
      <trkpt lat="43.04542" lon="0.98892">
        <ele>331.17</ele>
        <time>2024-09-18T09:14:54.999Z</time>
      </trkpt>
      <trkpt lat="43.04522" lon="0.98914">
        <ele>331.3</ele>
        <time>2024-09-18T09:14:59.999Z</time>
      </trkpt>
      <trkpt lat="43.04505" lon="0.98934">
        <ele>331.46</ele>
        <time>2024-09-18T09:15:04.999Z</time>
      </trkpt>
      <trkpt lat="43.04486" lon="0.98949">
        <ele>331.54</ele>
        <time>2024-09-18T09:15:09.999Z</time>
      </trkpt>
      <trkpt lat="43.04469" lon="0.98966">
        <ele>331.66</ele>
        <time>2024-09-18T09:15:14.999Z</time>
      </trkpt>
      <trkpt lat="43.0445" lon="0.98986">
        <ele>331.75</ele>
        <time>2024-09-18T09:15:19.999Z</time>
      </trkpt>
      <trkpt lat="43.04432" lon="0.99003">
        <ele>331.83</ele>
        <time>2024-09-18T09:15:24.999Z</time>
      </trkpt>
      <trkpt lat="43.04412" lon="0.99023">
        <ele>331.9</ele>
        <time>2024-09-18T09:15:29.999Z</time>
      </trkpt>
      <trkpt lat="43.04395" lon="0.99039">
        <ele>331.92</ele>
        <time>2024-09-18T09:15:34.999Z</time>
      </trkpt>
      <trkpt lat="43.04375" lon="0.99059">
        <ele>332.05</ele>
        <time>2024-09-18T09:15:39.999Z</time>
      </trkpt>
      <trkpt lat="43.04356" lon="0.99079">
        <ele>332.14</ele>
        <time>2024-09-18T09:15:44.999Z</time>
      </trkpt>
      <trkpt lat="43.04335" lon="0.991">
        <ele>332.22</ele>
        <time>2024-09-18T09:15:49.999Z</time>
      </trkpt>
      <trkpt lat="43.04315" lon="0.99121">
        <ele>332.31</ele>
        <time>2024-09-18T09:15:54.999Z</time>
      </trkpt>
      <trkpt lat="43.04295" lon="0.99142">
        <ele>332.41</ele>
        <time>2024-09-18T09:15:59.999Z</time>
      </trkpt>
      <trkpt lat="43.04275" lon="0.99164">
        <ele>332.54</ele>
        <time>2024-09-18T09:16:04.999Z</time>
      </trkpt>
      <trkpt lat="43.04254" lon="0.99183">
        <ele>332.58</ele>
        <time>2024-09-18T09:16:09.999Z</time>
      </trkpt>
      <trkpt lat="43.04235" lon="0.99202">
        <ele>332.56</ele>
        <time>2024-09-18T09:16:14.999Z</time>
      </trkpt>
      <trkpt lat="43.04217" lon="0.99221">
        <ele>332.58</ele>
        <time>2024-09-18T09:16:19.999Z</time>
      </trkpt>
      <trkpt lat="43.04198" lon="0.99239">
        <ele>332.68</ele>
        <time>2024-09-18T09:16:24.999Z</time>
      </trkpt>
      <trkpt lat="43.04179" lon="0.99259">
        <ele>332.8</ele>
        <time>2024-09-18T09:16:29.999Z</time>
      </trkpt>
      <trkpt lat="43.04161" lon="0.99276">
        <ele>332.95</ele>
        <time>2024-09-18T09:16:34.999Z</time>
      </trkpt>
      <trkpt lat="43.04142" lon="0.99294">
        <ele>333.11</ele>
        <time>2024-09-18T09:16:39.999Z</time>
      </trkpt>
      <trkpt lat="43.04123" lon="0.99311">
        <ele>333.27</ele>
        <time>2024-09-18T09:16:44.999Z</time>
      </trkpt>
      <trkpt lat="43.04102" lon="0.99328">
        <ele>333.45</ele>
        <time>2024-09-18T09:16:49.999Z</time>
      </trkpt>
      <trkpt lat="43.04081" lon="0.99344">
        <ele>333.66</ele>
        <time>2024-09-18T09:16:54.999Z</time>
      </trkpt>
      <trkpt lat="43.04059" lon="0.99359">
        <ele>333.89</ele>
        <time>2024-09-18T09:16:59.999Z</time>
      </trkpt>
      <trkpt lat="43.04038" lon="0.99375">
        <ele>334.08</ele>
        <time>2024-09-18T09:17:04.999Z</time>
      </trkpt>
      <trkpt lat="43.04017" lon="0.99389">
        <ele>334.27</ele>
        <time>2024-09-18T09:17:09.999Z</time>
      </trkpt>
      <trkpt lat="43.03996" lon="0.99401">
        <ele>334.46</ele>
        <time>2024-09-18T09:17:14.999Z</time>
      </trkpt>
      <trkpt lat="43.03981" lon="0.99413">
        <ele>334.55</ele>
        <time>2024-09-18T09:17:19.999Z</time>
      </trkpt>
      <trkpt lat="43.03966" lon="0.99426">
        <ele>334.75</ele>
        <time>2024-09-18T09:17:24.999Z</time>
      </trkpt>
      <trkpt lat="43.03945" lon="0.99442">
        <ele>334.88</ele>
        <time>2024-09-18T09:17:29.999Z</time>
      </trkpt>
      <trkpt lat="43.03917" lon="0.99464">
        <ele>334.94</ele>
        <time>2024-09-18T09:17:34.999Z</time>
      </trkpt>
      <trkpt lat="43.03886" lon="0.99484">
        <ele>335.12</ele>
        <time>2024-09-18T09:17:39.999Z</time>
      </trkpt>
      <trkpt lat="43.03859" lon="0.99501">
        <ele>335.42</ele>
        <time>2024-09-18T09:17:44.999Z</time>
      </trkpt>
      <trkpt lat="43.0385" lon="0.99528">
        <ele>335.77</ele>
        <time>2024-09-18T09:17:49.999Z</time>
      </trkpt>
      <trkpt lat="43.03839" lon="0.99532">
        <ele>336.03</ele>
        <time>2024-09-18T09:18:43.999Z</time>
      </trkpt>
      <trkpt lat="43.03835" lon="0.99515">
        <ele>336.52</ele>
        <time>2024-09-18T09:18:48.999Z</time>
      </trkpt>
      <trkpt lat="43.0383" lon="0.99487">
        <ele>337.44</ele>
        <time>2024-09-18T09:18:53.999Z</time>
      </trkpt>
      <trkpt lat="43.03815" lon="0.99471">
        <ele>337.6</ele>
        <time>2024-09-18T09:18:58.999Z</time>
      </trkpt>
      <trkpt lat="43.03801" lon="0.9946">
        <ele>337.62</ele>
        <time>2024-09-18T09:19:03.999Z</time>
      </trkpt>
      <trkpt lat="43.03786" lon="0.99458">
        <ele>337.63</ele>
        <time>2024-09-18T09:19:08.999Z</time>
      </trkpt>
      <trkpt lat="43.03767" lon="0.99476">
        <ele>337.59</ele>
        <time>2024-09-18T09:19:13.999Z</time>
      </trkpt>
      <trkpt lat="43.03746" lon="0.99496">
        <ele>337.56</ele>
        <time>2024-09-18T09:19:18.999Z</time>
      </trkpt>
      <trkpt lat="43.03726" lon="0.99514">
        <ele>337.55</ele>
        <time>2024-09-18T09:19:23.999Z</time>
      </trkpt>
      <trkpt lat="43.03722" lon="0.99541">
        <ele>337.51</ele>
        <time>2024-09-18T09:19:28.999Z</time>
      </trkpt>
      <trkpt lat="43.03706" lon="0.9957">
        <ele>337.44</ele>
        <time>2024-09-18T09:19:33.999Z</time>
      </trkpt>
      <trkpt lat="43.03682" lon="0.99599">
        <ele>337.36</ele>
        <time>2024-09-18T09:19:38.999Z</time>
      </trkpt>
      <trkpt lat="43.03661" lon="0.99628">
        <ele>337.47</ele>
        <time>2024-09-18T09:19:43.999Z</time>
      </trkpt>
      <trkpt lat="43.03641" lon="0.99655">
        <ele>337.65</ele>
        <time>2024-09-18T09:19:48.999Z</time>
      </trkpt>
      <trkpt lat="43.03626" lon="0.99677">
        <ele>337.88</ele>
        <time>2024-09-18T09:19:53.999Z</time>
      </trkpt>
      <trkpt lat="43.03612" lon="0.997">
        <ele>338.17</ele>
        <time>2024-09-18T09:19:58.999Z</time>
      </trkpt>
      <trkpt lat="43.03598" lon="0.99722">
        <ele>338.57</ele>
        <time>2024-09-18T09:20:03.999Z</time>
      </trkpt>
      <trkpt lat="43.03585" lon="0.99748">
        <ele>339.01</ele>
        <time>2024-09-18T09:20:08.999Z</time>
      </trkpt>
      <trkpt lat="43.03574" lon="0.99771">
        <ele>339.4</ele>
        <time>2024-09-18T09:20:13.999Z</time>
      </trkpt>
      <trkpt lat="43.03564" lon="0.99795">
        <ele>339.52</ele>
        <time>2024-09-18T09:20:18.999Z</time>
      </trkpt>
      <trkpt lat="43.03554" lon="0.99819">
        <ele>339.52</ele>
        <time>2024-09-18T09:20:23.999Z</time>
      </trkpt>
      <trkpt lat="43.03544" lon="0.99842">
        <ele>339.47</ele>
        <time>2024-09-18T09:20:28.999Z</time>
      </trkpt>
      <trkpt lat="43.03536" lon="0.99868">
        <ele>339.4</ele>
        <time>2024-09-18T09:20:33.999Z</time>
      </trkpt>
      <trkpt lat="43.03527" lon="0.99892">
        <ele>339.38</ele>
        <time>2024-09-18T09:20:38.999Z</time>
      </trkpt>
      <trkpt lat="43.03518" lon="0.99917">
        <ele>339.33</ele>
        <time>2024-09-18T09:20:43.999Z</time>
      </trkpt>
      <trkpt lat="43.03509" lon="0.99941">
        <ele>339.28</ele>
        <time>2024-09-18T09:20:48.999Z</time>
      </trkpt>
      <trkpt lat="43.03501" lon="0.99965">
        <ele>339.25</ele>
        <time>2024-09-18T09:20:53.999Z</time>
      </trkpt>
      <trkpt lat="43.03491" lon="0.99996">
        <ele>339.19</ele>
        <time>2024-09-18T09:20:58.999Z</time>
      </trkpt>
      <trkpt lat="43.03478" lon="1.00027">
        <ele>339.12</ele>
        <time>2024-09-18T09:21:03.999Z</time>
      </trkpt>
      <trkpt lat="43.03467" lon="1.00058">
        <ele>339.12</ele>
        <time>2024-09-18T09:21:08.999Z</time>
      </trkpt>
      <trkpt lat="43.03456" lon="1.00088">
        <ele>339.06</ele>
        <time>2024-09-18T09:21:13.999Z</time>
      </trkpt>
      <trkpt lat="43.03445" lon="1.0012">
        <ele>338.99</ele>
        <time>2024-09-18T09:21:18.999Z</time>
      </trkpt>
      <trkpt lat="43.03435" lon="1.00152">
        <ele>338.9</ele>
        <time>2024-09-18T09:21:23.999Z</time>
      </trkpt>
      <trkpt lat="43.03425" lon="1.00185">
        <ele>338.84</ele>
        <time>2024-09-18T09:21:28.999Z</time>
      </trkpt>
      <trkpt lat="43.03416" lon="1.00216">
        <ele>338.82</ele>
        <time>2024-09-18T09:21:33.999Z</time>
      </trkpt>
      <trkpt lat="43.03408" lon="1.00246">
        <ele>338.8</ele>
        <time>2024-09-18T09:21:38.999Z</time>
      </trkpt>
      <trkpt lat="43.034" lon="1.00277">
        <ele>338.74</ele>
        <time>2024-09-18T09:21:43.999Z</time>
      </trkpt>
      <trkpt lat="43.03391" lon="1.00305">
        <ele>338.65</ele>
        <time>2024-09-18T09:21:48.999Z</time>
      </trkpt>
      <trkpt lat="43.03376" lon="1.00327">
        <ele>338.59</ele>
        <time>2024-09-18T09:21:53.999Z</time>
      </trkpt>
      <trkpt lat="43.03369" lon="1.00356">
        <ele>338.53</ele>
        <time>2024-09-18T09:21:58.999Z</time>
      </trkpt>
      <trkpt lat="43.03355" lon="1.00378">
        <ele>338.47</ele>
        <time>2024-09-18T09:22:03.999Z</time>
      </trkpt>
      <trkpt lat="43.03333" lon="1.00378">
        <ele>338.44</ele>
        <time>2024-09-18T09:22:08.999Z</time>
      </trkpt>
      <trkpt lat="43.03315" lon="1.00376">
        <ele>338.48</ele>
        <time>2024-09-18T09:22:13.999Z</time>
      </trkpt>
      <trkpt lat="43.03302" lon="1.00375">
        <ele>338.5</ele>
        <time>2024-09-18T09:22:18.999Z</time>
      </trkpt>
      <trkpt lat="43.03293" lon="1.0038">
        <ele>338.53</ele>
        <time>2024-09-18T09:22:23.999Z</time>
      </trkpt>
      <trkpt lat="43.033" lon="1.00388">
        <ele>338.57</ele>
        <time>2024-09-18T09:22:30.000Z</time>
      </trkpt>
      <trkpt lat="43.03316" lon="1.00391">
        <ele>338.6</ele>
        <time>2024-09-18T09:22:35.000Z</time>
      </trkpt>
      <trkpt lat="43.03331" lon="1.00394">
        <ele>338.63</ele>
        <time>2024-09-18T09:22:40.000Z</time>
      </trkpt>
      <trkpt lat="43.03342" lon="1.00398">
        <ele>338.66</ele>
        <time>2024-09-18T09:22:45.000Z</time>
      </trkpt>
      <trkpt lat="43.03352" lon="1.004">
        <ele>338.69</ele>
        <time>2024-09-18T09:22:50.000Z</time>
      </trkpt>
      <trkpt lat="43.03362" lon="1.00405">
        <ele>338.73</ele>
        <time>2024-09-18T09:22:55.000Z</time>
      </trkpt>
      <trkpt lat="43.03372" lon="1.00409">
        <ele>338.77</ele>
        <time>2024-09-18T09:23:00.000Z</time>
      </trkpt>
      <trkpt lat="43.03384" lon="1.00415">
        <ele>338.82</ele>
        <time>2024-09-18T09:23:05.000Z</time>
      </trkpt>
      <trkpt lat="43.03397" lon="1.00422">
        <ele>338.88</ele>
        <time>2024-09-18T09:23:10.000Z</time>
      </trkpt>
      <trkpt lat="43.03413" lon="1.00428">
        <ele>339.07</ele>
        <time>2024-09-18T09:23:15.000Z</time>
      </trkpt>
      <trkpt lat="43.03439" lon="1.00432">
        <ele>339.32</ele>
        <time>2024-09-18T09:23:20.000Z</time>
      </trkpt>
      <trkpt lat="43.03478" lon="1.00434">
        <ele>339.47</ele>
        <time>2024-09-18T09:23:25.000Z</time>
      </trkpt>
      <trkpt lat="43.03493" lon="1.00439">
        <ele>339.5</ele>
        <time>2024-09-18T09:23:30.000Z</time>
      </trkpt>
      <trkpt lat="43.0348" lon="1.00442">
        <ele>339.53</ele>
        <time>2024-09-18T09:23:35.000Z</time>
      </trkpt>
      <trkpt lat="43.03462" lon="1.00441">
        <ele>339.59</ele>
        <time>2024-09-18T09:23:40.000Z</time>
      </trkpt>
      <trkpt lat="43.03443" lon="1.00444">
        <ele>339.91</ele>
        <time>2024-09-18T09:23:45.000Z</time>
      </trkpt>
      <trkpt lat="43.03424" lon="1.00446">
        <ele>339.93</ele>
        <time>2024-09-18T09:23:50.000Z</time>
      </trkpt>
      <trkpt lat="43.03403" lon="1.0045">
        <ele>339.72</ele>
        <time>2024-09-18T09:23:55.000Z</time>
      </trkpt>
      <trkpt lat="43.0339" lon="1.00468">
        <ele>339.62</ele>
        <time>2024-09-18T09:24:00.000Z</time>
      </trkpt>
      <trkpt lat="43.03383" lon="1.00495">
        <ele>339.45</ele>
        <time>2024-09-18T09:24:05.000Z</time>
      </trkpt>
      <trkpt lat="43.03376" lon="1.00522">
        <ele>339.35</ele>
        <time>2024-09-18T09:24:10.000Z</time>
      </trkpt>
      <trkpt lat="43.0337" lon="1.00549">
        <ele>339.19</ele>
        <time>2024-09-18T09:24:15.000Z</time>
      </trkpt>
      <trkpt lat="43.03362" lon="1.00578">
        <ele>339.05</ele>
        <time>2024-09-18T09:24:20.000Z</time>
      </trkpt>
      <trkpt lat="43.03355" lon="1.00606">
        <ele>338.93</ele>
        <time>2024-09-18T09:24:25.000Z</time>
      </trkpt>
      <trkpt lat="43.03347" lon="1.00636">
        <ele>338.77</ele>
        <time>2024-09-18T09:24:30.000Z</time>
      </trkpt>
      <trkpt lat="43.03339" lon="1.00667">
        <ele>338.64</ele>
        <time>2024-09-18T09:24:35.000Z</time>
      </trkpt>
      <trkpt lat="43.03331" lon="1.00698">
        <ele>338.5</ele>
        <time>2024-09-18T09:24:40.000Z</time>
      </trkpt>
      <trkpt lat="43.03324" lon="1.00727">
        <ele>338.41</ele>
        <time>2024-09-18T09:24:45.000Z</time>
      </trkpt>
      <trkpt lat="43.03317" lon="1.00757">
        <ele>338.33</ele>
        <time>2024-09-18T09:24:50.000Z</time>
      </trkpt>
      <trkpt lat="43.03311" lon="1.00788">
        <ele>338.26</ele>
        <time>2024-09-18T09:24:55.000Z</time>
      </trkpt>
      <trkpt lat="43.03305" lon="1.00816">
        <ele>338.16</ele>
        <time>2024-09-18T09:25:00.000Z</time>
      </trkpt>
      <trkpt lat="43.03301" lon="1.00845">
        <ele>338.05</ele>
        <time>2024-09-18T09:25:05.000Z</time>
      </trkpt>
      <trkpt lat="43.03296" lon="1.00876">
        <ele>338.02</ele>
        <time>2024-09-18T09:25:10.000Z</time>
      </trkpt>
      <trkpt lat="43.03291" lon="1.00906">
        <ele>338.01</ele>
        <time>2024-09-18T09:25:15.000Z</time>
      </trkpt>
      <trkpt lat="43.03286" lon="1.00936">
        <ele>337.97</ele>
        <time>2024-09-18T09:25:20.000Z</time>
      </trkpt>
      <trkpt lat="43.03281" lon="1.00965">
        <ele>337.89</ele>
        <time>2024-09-18T09:25:25.000Z</time>
      </trkpt>
      <trkpt lat="43.03276" lon="1.00995">
        <ele>337.87</ele>
        <time>2024-09-18T09:25:30.000Z</time>
      </trkpt>
      <trkpt lat="43.03271" lon="1.01025">
        <ele>337.89</ele>
        <time>2024-09-18T09:25:35.000Z</time>
      </trkpt>
      <trkpt lat="43.03265" lon="1.01055">
        <ele>337.84</ele>
        <time>2024-09-18T09:25:40.000Z</time>
      </trkpt>
      <trkpt lat="43.0326" lon="1.01085">
        <ele>337.83</ele>
        <time>2024-09-18T09:25:45.000Z</time>
      </trkpt>
      <trkpt lat="43.03255" lon="1.01114">
        <ele>337.86</ele>
        <time>2024-09-18T09:25:50.000Z</time>
      </trkpt>
      <trkpt lat="43.03249" lon="1.01144">
        <ele>337.9</ele>
        <time>2024-09-18T09:25:55.000Z</time>
      </trkpt>
      <trkpt lat="43.03244" lon="1.01173">
        <ele>337.88</ele>
        <time>2024-09-18T09:26:00.000Z</time>
      </trkpt>
      <trkpt lat="43.03238" lon="1.01203">
        <ele>337.81</ele>
        <time>2024-09-18T09:26:05.000Z</time>
      </trkpt>
      <trkpt lat="43.03233" lon="1.01229">
        <ele>337.77</ele>
        <time>2024-09-18T09:26:10.000Z</time>
      </trkpt>
      <trkpt lat="43.03229" lon="1.01257">
        <ele>337.73</ele>
        <time>2024-09-18T09:26:15.000Z</time>
      </trkpt>
      <trkpt lat="43.03224" lon="1.01283">
        <ele>337.71</ele>
        <time>2024-09-18T09:26:20.000Z</time>
      </trkpt>
      <trkpt lat="43.03217" lon="1.01316">
        <ele>337.65</ele>
        <time>2024-09-18T09:26:25.000Z</time>
      </trkpt>
      <trkpt lat="43.03213" lon="1.01343">
        <ele>337.66</ele>
        <time>2024-09-18T09:26:30.000Z</time>
      </trkpt>
      <trkpt lat="43.0321" lon="1.0137">
        <ele>337.71</ele>
        <time>2024-09-18T09:26:35.000Z</time>
      </trkpt>
      <trkpt lat="43.03206" lon="1.01398">
        <ele>337.82</ele>
        <time>2024-09-18T09:26:40.000Z</time>
      </trkpt>
      <trkpt lat="43.03205" lon="1.01425">
        <ele>337.84</ele>
        <time>2024-09-18T09:26:45.000Z</time>
      </trkpt>
      <trkpt lat="43.03204" lon="1.01453">
        <ele>337.98</ele>
        <time>2024-09-18T09:26:50.000Z</time>
      </trkpt>
      <trkpt lat="43.03203" lon="1.01483">
        <ele>338.15</ele>
        <time>2024-09-18T09:26:55.000Z</time>
      </trkpt>
      <trkpt lat="43.03202" lon="1.01513">
        <ele>338.27</ele>
        <time>2024-09-18T09:27:00.000Z</time>
      </trkpt>
      <trkpt lat="43.03203" lon="1.01543">
        <ele>338.44</ele>
        <time>2024-09-18T09:27:05.000Z</time>
      </trkpt>
      <trkpt lat="43.03207" lon="1.0157">
        <ele>338.56</ele>
        <time>2024-09-18T09:27:10.000Z</time>
      </trkpt>
      <trkpt lat="43.0322" lon="1.01591">
        <ele>338.72</ele>
        <time>2024-09-18T09:27:15.000Z</time>
      </trkpt>
      <trkpt lat="43.03231" lon="1.01616">
        <ele>338.91</ele>
        <time>2024-09-18T09:27:20.000Z</time>
      </trkpt>
      <trkpt lat="43.03241" lon="1.01641">
        <ele>338.98</ele>
        <time>2024-09-18T09:27:25.000Z</time>
      </trkpt>
      <trkpt lat="43.03231" lon="1.01653">
        <ele>339.01</ele>
        <time>2024-09-18T09:27:30.000Z</time>
      </trkpt>
      <trkpt lat="43.03207" lon="1.01649">
        <ele>339.13</ele>
        <time>2024-09-18T09:27:35.000Z</time>
      </trkpt>
      <trkpt lat="43.0319" lon="1.01642">
        <ele>339.16</ele>
        <time>2024-09-18T09:27:40.000Z</time>
      </trkpt>
      <trkpt lat="43.03183" lon="1.01621">
        <ele>339.16</ele>
        <time>2024-09-18T09:27:45.000Z</time>
      </trkpt>
      <trkpt lat="43.03182" lon="1.01604">
        <ele>339.17</ele>
        <time>2024-09-18T09:27:50.000Z</time>
      </trkpt>
      <trkpt lat="43.03173" lon="1.016">
        <ele>339.2</ele>
        <time>2024-09-18T09:28:05.000Z</time>
      </trkpt>
      <trkpt lat="43.03168" lon="1.0161">
        <ele>339.23</ele>
        <time>2024-09-18T09:28:13.000Z</time>
      </trkpt>
      <trkpt lat="43.03166" lon="1.01625">
        <ele>339.26</ele>
        <time>2024-09-18T09:28:20.000Z</time>
      </trkpt>
      <trkpt lat="43.03165" lon="1.01643">
        <ele>339.29</ele>
        <time>2024-09-18T09:28:25.000Z</time>
      </trkpt>
      <trkpt lat="43.03165" lon="1.01658">
        <ele>339.33</ele>
        <time>2024-09-18T09:28:30.000Z</time>
      </trkpt>
      <trkpt lat="43.03164" lon="1.01673">
        <ele>339.36</ele>
        <time>2024-09-18T09:28:35.000Z</time>
      </trkpt>
      <trkpt lat="43.03162" lon="1.01691">
        <ele>339.39</ele>
        <time>2024-09-18T09:28:40.000Z</time>
      </trkpt>
      <trkpt lat="43.0316" lon="1.01714">
        <ele>339.47</ele>
        <time>2024-09-18T09:28:45.000Z</time>
      </trkpt>
      <trkpt lat="43.03158" lon="1.01741">
        <ele>339.66</ele>
        <time>2024-09-18T09:28:50.000Z</time>
      </trkpt>
      <trkpt lat="43.03158" lon="1.01767">
        <ele>339.74</ele>
        <time>2024-09-18T09:28:55.000Z</time>
      </trkpt>
      <trkpt lat="43.03158" lon="1.01793">
        <ele>339.84</ele>
        <time>2024-09-18T09:29:00.000Z</time>
      </trkpt>
      <trkpt lat="43.03159" lon="1.01821">
        <ele>339.95</ele>
        <time>2024-09-18T09:29:05.000Z</time>
      </trkpt>
      <trkpt lat="43.0316" lon="1.0185">
        <ele>340.07</ele>
        <time>2024-09-18T09:29:10.000Z</time>
      </trkpt>
      <trkpt lat="43.03161" lon="1.01879">
        <ele>340.17</ele>
        <time>2024-09-18T09:29:15.000Z</time>
      </trkpt>
      <trkpt lat="43.03164" lon="1.01906">
        <ele>340.24</ele>
        <time>2024-09-18T09:29:20.000Z</time>
      </trkpt>
      <trkpt lat="43.03167" lon="1.01933">
        <ele>340.27</ele>
        <time>2024-09-18T09:29:25.000Z</time>
      </trkpt>
      <trkpt lat="43.0317" lon="1.01967">
        <ele>340.34</ele>
        <time>2024-09-18T09:29:30.000Z</time>
      </trkpt>
      <trkpt lat="43.03174" lon="1.01999">
        <ele>340.37</ele>
        <time>2024-09-18T09:29:35.000Z</time>
      </trkpt>
      <trkpt lat="43.03178" lon="1.02029">
        <ele>340.39</ele>
        <time>2024-09-18T09:29:40.000Z</time>
      </trkpt>
      <trkpt lat="43.0318" lon="1.02055">
        <ele>340.41</ele>
        <time>2024-09-18T09:29:45.000Z</time>
      </trkpt>
      <trkpt lat="43.03182" lon="1.02078">
        <ele>340.42</ele>
        <time>2024-09-18T09:29:50.000Z</time>
      </trkpt>
      <trkpt lat="43.03185" lon="1.02101">
        <ele>340.43</ele>
        <time>2024-09-18T09:29:55.000Z</time>
      </trkpt>
      <trkpt lat="43.03188" lon="1.02123">
        <ele>340.45</ele>
        <time>2024-09-18T09:30:00.000Z</time>
      </trkpt>
      <trkpt lat="43.03191" lon="1.02148">
        <ele>340.47</ele>
        <time>2024-09-18T09:30:05.000Z</time>
      </trkpt>
      <trkpt lat="43.03193" lon="1.02168">
        <ele>340.5</ele>
        <time>2024-09-18T09:30:10.000Z</time>
      </trkpt>
      <trkpt lat="43.03196" lon="1.02188">
        <ele>340.54</ele>
        <time>2024-09-18T09:30:15.000Z</time>
      </trkpt>
      <trkpt lat="43.03197" lon="1.02212">
        <ele>340.58</ele>
        <time>2024-09-18T09:30:20.000Z</time>
      </trkpt>
      <trkpt lat="43.032" lon="1.02237">
        <ele>340.84</ele>
        <time>2024-09-18T09:30:25.000Z</time>
      </trkpt>
      <trkpt lat="43.03204" lon="1.02263">
        <ele>341.08</ele>
        <time>2024-09-18T09:30:30.000Z</time>
      </trkpt>
      <trkpt lat="43.03206" lon="1.02289">
        <ele>341.12</ele>
        <time>2024-09-18T09:30:35.000Z</time>
      </trkpt>
      <trkpt lat="43.03209" lon="1.02313">
        <ele>341.15</ele>
        <time>2024-09-18T09:30:40.000Z</time>
      </trkpt>
      <trkpt lat="43.03211" lon="1.02339">
        <ele>341.18</ele>
        <time>2024-09-18T09:30:45.000Z</time>
      </trkpt>
      <trkpt lat="43.03213" lon="1.02365">
        <ele>341.25</ele>
        <time>2024-09-18T09:30:50.000Z</time>
      </trkpt>
      <trkpt lat="43.03217" lon="1.02393">
        <ele>341.45</ele>
        <time>2024-09-18T09:30:55.000Z</time>
      </trkpt>
      <trkpt lat="43.0322" lon="1.02421">
        <ele>341.6</ele>
        <time>2024-09-18T09:31:00.000Z</time>
      </trkpt>
      <trkpt lat="43.03223" lon="1.02448">
        <ele>341.69</ele>
        <time>2024-09-18T09:31:05.000Z</time>
      </trkpt>
      <trkpt lat="43.03227" lon="1.02476">
        <ele>341.77</ele>
        <time>2024-09-18T09:31:10.000Z</time>
      </trkpt>
      <trkpt lat="43.0323" lon="1.02504">
        <ele>341.84</ele>
        <time>2024-09-18T09:31:15.000Z</time>
      </trkpt>
      <trkpt lat="43.03233" lon="1.02535">
        <ele>341.93</ele>
        <time>2024-09-18T09:31:20.000Z</time>
      </trkpt>
      <trkpt lat="43.03237" lon="1.02566">
        <ele>342.02</ele>
        <time>2024-09-18T09:31:25.000Z</time>
      </trkpt>
      <trkpt lat="43.03241" lon="1.02599">
        <ele>342.11</ele>
        <time>2024-09-18T09:31:30.000Z</time>
      </trkpt>
      <trkpt lat="43.03245" lon="1.02629">
        <ele>342.19</ele>
        <time>2024-09-18T09:31:35.000Z</time>
      </trkpt>
      <trkpt lat="43.03248" lon="1.02661">
        <ele>342.25</ele>
        <time>2024-09-18T09:31:40.000Z</time>
      </trkpt>
      <trkpt lat="43.03251" lon="1.02692">
        <ele>342.3</ele>
        <time>2024-09-18T09:31:45.000Z</time>
      </trkpt>
      <trkpt lat="43.03254" lon="1.02723">
        <ele>342.34</ele>
        <time>2024-09-18T09:31:50.000Z</time>
      </trkpt>
      <trkpt lat="43.03259" lon="1.02754">
        <ele>342.38</ele>
        <time>2024-09-18T09:31:55.000Z</time>
      </trkpt>
      <trkpt lat="43.03259" lon="1.02784">
        <ele>342.41</ele>
        <time>2024-09-18T09:32:00.000Z</time>
      </trkpt>
      <trkpt lat="43.03243" lon="1.0279">
        <ele>342.41</ele>
        <time>2024-09-18T09:32:05.000Z</time>
      </trkpt>
      <trkpt lat="43.0323" lon="1.02794">
        <ele>342.42</ele>
        <time>2024-09-18T09:32:10.000Z</time>
      </trkpt>
      <trkpt lat="43.0322" lon="1.02799">
        <ele>342.44</ele>
        <time>2024-09-18T09:32:15.000Z</time>
      </trkpt>
      <trkpt lat="43.03218" lon="1.02816">
        <ele>342.46</ele>
        <time>2024-09-18T09:32:20.000Z</time>
      </trkpt>
      <trkpt lat="43.03222" lon="1.02838">
        <ele>342.49</ele>
        <time>2024-09-18T09:32:25.000Z</time>
      </trkpt>
      <trkpt lat="43.03223" lon="1.02854">
        <ele>342.52</ele>
        <time>2024-09-18T09:32:30.000Z</time>
      </trkpt>
      <trkpt lat="43.03225" lon="1.02869">
        <ele>342.85</ele>
        <time>2024-09-18T09:33:44.000Z</time>
      </trkpt>
      <trkpt lat="43.03229" lon="1.02894">
        <ele>342.92</ele>
        <time>2024-09-18T09:33:49.000Z</time>
      </trkpt>
      <trkpt lat="43.03233" lon="1.02921">
        <ele>343.58</ele>
        <time>2024-09-18T09:33:54.000Z</time>
      </trkpt>
      <trkpt lat="43.03237" lon="1.02953">
        <ele>343.99</ele>
        <time>2024-09-18T09:33:59.000Z</time>
      </trkpt>
      <trkpt lat="43.03238" lon="1.02984">
        <ele>344.23</ele>
        <time>2024-09-18T09:34:04.000Z</time>
      </trkpt>
      <trkpt lat="43.03241" lon="1.03013">
        <ele>344.46</ele>
        <time>2024-09-18T09:34:09.000Z</time>
      </trkpt>
      <trkpt lat="43.03245" lon="1.03044">
        <ele>344.68</ele>
        <time>2024-09-18T09:34:14.000Z</time>
      </trkpt>
      <trkpt lat="43.03249" lon="1.03077">
        <ele>344.93</ele>
        <time>2024-09-18T09:34:19.000Z</time>
      </trkpt>
      <trkpt lat="43.03254" lon="1.03109">
        <ele>345.12</ele>
        <time>2024-09-18T09:34:24.000Z</time>
      </trkpt>
      <trkpt lat="43.03257" lon="1.03144">
        <ele>345.25</ele>
        <time>2024-09-18T09:34:29.000Z</time>
      </trkpt>
      <trkpt lat="43.03261" lon="1.03188">
        <ele>345.42</ele>
        <time>2024-09-18T09:34:34.999Z</time>
      </trkpt>
      <trkpt lat="43.03263" lon="1.03221">
        <ele>345.52</ele>
        <time>2024-09-18T09:34:39.999Z</time>
      </trkpt>
      <trkpt lat="43.03266" lon="1.03256">
        <ele>345.6</ele>
        <time>2024-09-18T09:34:44.999Z</time>
      </trkpt>
      <trkpt lat="43.03271" lon="1.0329">
        <ele>345.62</ele>
        <time>2024-09-18T09:34:49.999Z</time>
      </trkpt>
      <trkpt lat="43.03273" lon="1.03322">
        <ele>345.65</ele>
        <time>2024-09-18T09:34:54.999Z</time>
      </trkpt>
      <trkpt lat="43.0328" lon="1.03361">
        <ele>345.68</ele>
        <time>2024-09-18T09:34:59.999Z</time>
      </trkpt>
      <trkpt lat="43.03283" lon="1.03389">
        <ele>345.71</ele>
        <time>2024-09-18T09:35:04.999Z</time>
      </trkpt>
      <trkpt lat="43.03284" lon="1.03419">
        <ele>345.74</ele>
        <time>2024-09-18T09:35:09.999Z</time>
      </trkpt>
      <trkpt lat="43.03292" lon="1.03458">
        <ele>345.84</ele>
        <time>2024-09-18T09:35:14.999Z</time>
      </trkpt>
      <trkpt lat="43.03292" lon="1.03489">
        <ele>345.9</ele>
        <time>2024-09-18T09:35:19.999Z</time>
      </trkpt>
      <trkpt lat="43.03293" lon="1.03514">
        <ele>345.94</ele>
        <time>2024-09-18T09:35:24.999Z</time>
      </trkpt>
      <trkpt lat="43.033" lon="1.03546">
        <ele>345.98</ele>
        <time>2024-09-18T09:35:29.999Z</time>
      </trkpt>
      <trkpt lat="43.03301" lon="1.03576">
        <ele>346.03</ele>
        <time>2024-09-18T09:35:34.999Z</time>
      </trkpt>
      <trkpt lat="43.03296" lon="1.03617">
        <ele>346.11</ele>
        <time>2024-09-18T09:35:39.999Z</time>
      </trkpt>
      <trkpt lat="43.03299" lon="1.03654">
        <ele>345.9</ele>
        <time>2024-09-18T09:35:44.999Z</time>
      </trkpt>
      <trkpt lat="43.03305" lon="1.03685">
        <ele>345.6</ele>
        <time>2024-09-18T09:35:49.999Z</time>
      </trkpt>
      <trkpt lat="43.03309" lon="1.03715">
        <ele>345.31</ele>
        <time>2024-09-18T09:35:54.999Z</time>
      </trkpt>
      <trkpt lat="43.03314" lon="1.03741">
        <ele>345.17</ele>
        <time>2024-09-18T09:35:59.999Z</time>
      </trkpt>
      <trkpt lat="43.03318" lon="1.0377">
        <ele>344.87</ele>
        <time>2024-09-18T09:36:04.999Z</time>
      </trkpt>
      <trkpt lat="43.03324" lon="1.03804">
        <ele>344.65</ele>
        <time>2024-09-18T09:36:09.999Z</time>
      </trkpt>
      <trkpt lat="43.03329" lon="1.03832">
        <ele>344.44</ele>
        <time>2024-09-18T09:36:14.999Z</time>
      </trkpt>
      <trkpt lat="43.03338" lon="1.03859">
        <ele>344.38</ele>
        <time>2024-09-18T09:36:19.999Z</time>
      </trkpt>
      <trkpt lat="43.03343" lon="1.0389">
        <ele>344.43</ele>
        <time>2024-09-18T09:36:24.999Z</time>
      </trkpt>
      <trkpt lat="43.03348" lon="1.03921">
        <ele>344.59</ele>
        <time>2024-09-18T09:36:29.999Z</time>
      </trkpt>
      <trkpt lat="43.03351" lon="1.03951">
        <ele>344.66</ele>
        <time>2024-09-18T09:36:34.999Z</time>
      </trkpt>
      <trkpt lat="43.03355" lon="1.03981">
        <ele>344.92</ele>
        <time>2024-09-18T09:36:39.999Z</time>
      </trkpt>
      <trkpt lat="43.03358" lon="1.04011">
        <ele>345.19</ele>
        <time>2024-09-18T09:36:44.999Z</time>
      </trkpt>
      <trkpt lat="43.03362" lon="1.04044">
        <ele>345.61</ele>
        <time>2024-09-18T09:36:49.999Z</time>
      </trkpt>
      <trkpt lat="43.03365" lon="1.04073">
        <ele>345.7</ele>
        <time>2024-09-18T09:36:54.999Z</time>
      </trkpt>
      <trkpt lat="43.0337" lon="1.04108">
        <ele>346.06</ele>
        <time>2024-09-18T09:36:59.999Z</time>
      </trkpt>
      <trkpt lat="43.0337" lon="1.0414">
        <ele>346.22</ele>
        <time>2024-09-18T09:37:04.999Z</time>
      </trkpt>
      <trkpt lat="43.0337" lon="1.04177">
        <ele>346.19</ele>
        <time>2024-09-18T09:37:09.999Z</time>
      </trkpt>
      <trkpt lat="43.03371" lon="1.0421">
        <ele>345.97</ele>
        <time>2024-09-18T09:37:14.999Z</time>
      </trkpt>
      <trkpt lat="43.03374" lon="1.04241">
        <ele>345.88</ele>
        <time>2024-09-18T09:37:19.999Z</time>
      </trkpt>
      <trkpt lat="43.03376" lon="1.04273">
        <ele>345.14</ele>
        <time>2024-09-18T09:37:24.999Z</time>
      </trkpt>
      <trkpt lat="43.03377" lon="1.04307">
        <ele>344.63</ele>
        <time>2024-09-18T09:37:29.999Z</time>
      </trkpt>
      <trkpt lat="43.03379" lon="1.04336">
        <ele>344.25</ele>
        <time>2024-09-18T09:37:34.999Z</time>
      </trkpt>
      <trkpt lat="43.03383" lon="1.04366">
        <ele>343.91</ele>
        <time>2024-09-18T09:37:39.999Z</time>
      </trkpt>
      <trkpt lat="43.03389" lon="1.04398">
        <ele>343.6</ele>
        <time>2024-09-18T09:37:44.999Z</time>
      </trkpt>
      <trkpt lat="43.03396" lon="1.04429">
        <ele>343.36</ele>
        <time>2024-09-18T09:37:49.999Z</time>
      </trkpt>
      <trkpt lat="43.03402" lon="1.04464">
        <ele>343.2</ele>
        <time>2024-09-18T09:37:54.999Z</time>
      </trkpt>
      <trkpt lat="43.03406" lon="1.045">
        <ele>343.11</ele>
        <time>2024-09-18T09:37:59.999Z</time>
      </trkpt>
      <trkpt lat="43.03412" lon="1.04536">
        <ele>343.04</ele>
        <time>2024-09-18T09:38:04.999Z</time>
      </trkpt>
      <trkpt lat="43.03417" lon="1.04573">
        <ele>342.96</ele>
        <time>2024-09-18T09:38:09.999Z</time>
      </trkpt>
      <trkpt lat="43.03422" lon="1.04612">
        <ele>342.91</ele>
        <time>2024-09-18T09:38:14.999Z</time>
      </trkpt>
      <trkpt lat="43.03425" lon="1.04648">
        <ele>342.84</ele>
        <time>2024-09-18T09:38:19.999Z</time>
      </trkpt>
      <trkpt lat="43.0343" lon="1.04682">
        <ele>342.76</ele>
        <time>2024-09-18T09:38:24.999Z</time>
      </trkpt>
      <trkpt lat="43.03434" lon="1.04713">
        <ele>342.71</ele>
        <time>2024-09-18T09:38:29.999Z</time>
      </trkpt>
      <trkpt lat="43.03441" lon="1.04743">
        <ele>342.74</ele>
        <time>2024-09-18T09:38:34.999Z</time>
      </trkpt>
      <trkpt lat="43.03445" lon="1.04772">
        <ele>342.79</ele>
        <time>2024-09-18T09:38:39.999Z</time>
      </trkpt>
      <trkpt lat="43.03449" lon="1.04803">
        <ele>342.86</ele>
        <time>2024-09-18T09:38:44.999Z</time>
      </trkpt>
      <trkpt lat="43.03451" lon="1.04833">
        <ele>342.98</ele>
        <time>2024-09-18T09:38:49.999Z</time>
      </trkpt>
      <trkpt lat="43.03454" lon="1.04863">
        <ele>343.01</ele>
        <time>2024-09-18T09:38:54.999Z</time>
      </trkpt>
      <trkpt lat="43.03457" lon="1.04894">
        <ele>343.06</ele>
        <time>2024-09-18T09:38:59.999Z</time>
      </trkpt>
      <trkpt lat="43.03461" lon="1.04924">
        <ele>343.1</ele>
        <time>2024-09-18T09:39:04.999Z</time>
      </trkpt>
      <trkpt lat="43.03465" lon="1.04954">
        <ele>343.18</ele>
        <time>2024-09-18T09:39:09.999Z</time>
      </trkpt>
      <trkpt lat="43.03468" lon="1.04985">
        <ele>343.26</ele>
        <time>2024-09-18T09:39:14.999Z</time>
      </trkpt>
      <trkpt lat="43.03472" lon="1.05014">
        <ele>343.34</ele>
        <time>2024-09-18T09:39:19.999Z</time>
      </trkpt>
      <trkpt lat="43.03475" lon="1.05045">
        <ele>343.42</ele>
        <time>2024-09-18T09:39:24.999Z</time>
      </trkpt>
      <trkpt lat="43.03478" lon="1.05076">
        <ele>343.5</ele>
        <time>2024-09-18T09:39:29.999Z</time>
      </trkpt>
      <trkpt lat="43.0348" lon="1.05108">
        <ele>343.57</ele>
        <time>2024-09-18T09:39:34.999Z</time>
      </trkpt>
      <trkpt lat="43.03483" lon="1.05138">
        <ele>343.64</ele>
        <time>2024-09-18T09:39:39.999Z</time>
      </trkpt>
      <trkpt lat="43.03486" lon="1.05168">
        <ele>343.7</ele>
        <time>2024-09-18T09:39:44.999Z</time>
      </trkpt>
      <trkpt lat="43.03491" lon="1.05196">
        <ele>343.75</ele>
        <time>2024-09-18T09:39:49.999Z</time>
      </trkpt>
      <trkpt lat="43.03495" lon="1.05225">
        <ele>343.87</ele>
        <time>2024-09-18T09:39:54.999Z</time>
      </trkpt>
      <trkpt lat="43.03498" lon="1.05254">
        <ele>344.08</ele>
        <time>2024-09-18T09:39:59.999Z</time>
      </trkpt>
      <trkpt lat="43.03502" lon="1.05286">
        <ele>344.24</ele>
        <time>2024-09-18T09:40:04.999Z</time>
      </trkpt>
      <trkpt lat="43.03508" lon="1.05315">
        <ele>344.41</ele>
        <time>2024-09-18T09:40:09.999Z</time>
      </trkpt>
      <trkpt lat="43.03514" lon="1.05348">
        <ele>344.54</ele>
        <time>2024-09-18T09:40:14.999Z</time>
      </trkpt>
      <trkpt lat="43.03519" lon="1.05382">
        <ele>344.66</ele>
        <time>2024-09-18T09:40:19.999Z</time>
      </trkpt>
      <trkpt lat="43.03523" lon="1.05415">
        <ele>344.77</ele>
        <time>2024-09-18T09:40:24.999Z</time>
      </trkpt>
      <trkpt lat="43.03526" lon="1.05447">
        <ele>344.85</ele>
        <time>2024-09-18T09:40:29.999Z</time>
      </trkpt>
      <trkpt lat="43.03529" lon="1.05483">
        <ele>344.91</ele>
        <time>2024-09-18T09:40:34.999Z</time>
      </trkpt>
      <trkpt lat="43.03534" lon="1.05518">
        <ele>344.99</ele>
        <time>2024-09-18T09:40:39.999Z</time>
      </trkpt>
      <trkpt lat="43.0354" lon="1.05549">
        <ele>345.08</ele>
        <time>2024-09-18T09:40:44.999Z</time>
      </trkpt>
      <trkpt lat="43.03547" lon="1.05582">
        <ele>345.24</ele>
        <time>2024-09-18T09:40:49.999Z</time>
      </trkpt>
      <trkpt lat="43.03556" lon="1.05613">
        <ele>345.41</ele>
        <time>2024-09-18T09:40:54.999Z</time>
      </trkpt>
      <trkpt lat="43.03567" lon="1.05639">
        <ele>345.67</ele>
        <time>2024-09-18T09:40:59.999Z</time>
      </trkpt>
      <trkpt lat="43.03579" lon="1.05665">
        <ele>345.96</ele>
        <time>2024-09-18T09:41:04.999Z</time>
      </trkpt>
      <trkpt lat="43.03592" lon="1.05688">
        <ele>346.17</ele>
        <time>2024-09-18T09:41:09.999Z</time>
      </trkpt>
      <trkpt lat="43.03608" lon="1.0571">
        <ele>346.3</ele>
        <time>2024-09-18T09:41:14.999Z</time>
      </trkpt>
      <trkpt lat="43.03622" lon="1.05729">
        <ele>346.34</ele>
        <time>2024-09-18T09:41:19.999Z</time>
      </trkpt>
      <trkpt lat="43.03637" lon="1.05751">
        <ele>346.37</ele>
        <time>2024-09-18T09:41:24.999Z</time>
      </trkpt>
      <trkpt lat="43.03652" lon="1.05772">
        <ele>346.39</ele>
        <time>2024-09-18T09:41:29.999Z</time>
      </trkpt>
      <trkpt lat="43.03669" lon="1.05794">
        <ele>346.39</ele>
        <time>2024-09-18T09:41:34.999Z</time>
      </trkpt>
      <trkpt lat="43.03685" lon="1.05816">
        <ele>346.42</ele>
        <time>2024-09-18T09:41:39.999Z</time>
      </trkpt>
      <trkpt lat="43.037" lon="1.05836">
        <ele>346.41</ele>
        <time>2024-09-18T09:41:44.999Z</time>
      </trkpt>
      <trkpt lat="43.03717" lon="1.05857">
        <ele>346.4</ele>
        <time>2024-09-18T09:41:49.999Z</time>
      </trkpt>
      <trkpt lat="43.03734" lon="1.0588">
        <ele>346.46</ele>
        <time>2024-09-18T09:41:54.999Z</time>
      </trkpt>
      <trkpt lat="43.03752" lon="1.05904">
        <ele>346.67</ele>
        <time>2024-09-18T09:41:59.999Z</time>
      </trkpt>
      <trkpt lat="43.03769" lon="1.05927">
        <ele>346.92</ele>
        <time>2024-09-18T09:42:04.999Z</time>
      </trkpt>
      <trkpt lat="43.03787" lon="1.0595">
        <ele>347</ele>
        <time>2024-09-18T09:42:09.999Z</time>
      </trkpt>
      <trkpt lat="43.03803" lon="1.05975">
        <ele>347.22</ele>
        <time>2024-09-18T09:42:14.999Z</time>
      </trkpt>
      <trkpt lat="43.03815" lon="1.06003">
        <ele>347.72</ele>
        <time>2024-09-18T09:42:19.999Z</time>
      </trkpt>
      <trkpt lat="43.03825" lon="1.06037">
        <ele>348.49</ele>
        <time>2024-09-18T09:42:24.999Z</time>
      </trkpt>
      <trkpt lat="43.03829" lon="1.06069">
        <ele>349.35</ele>
        <time>2024-09-18T09:42:29.999Z</time>
      </trkpt>
      <trkpt lat="43.0383" lon="1.06097">
        <ele>349.64</ele>
        <time>2024-09-18T09:42:34.999Z</time>
      </trkpt>
      <trkpt lat="43.03828" lon="1.06136">
        <ele>349.75</ele>
        <time>2024-09-18T09:42:39.999Z</time>
      </trkpt>
      <trkpt lat="43.03823" lon="1.06173">
        <ele>349.78</ele>
        <time>2024-09-18T09:42:44.999Z</time>
      </trkpt>
      <trkpt lat="43.0382" lon="1.06214">
        <ele>349.88</ele>
        <time>2024-09-18T09:42:49.999Z</time>
      </trkpt>
      <trkpt lat="43.03817" lon="1.06253">
        <ele>350.45</ele>
        <time>2024-09-18T09:42:54.999Z</time>
      </trkpt>
      <trkpt lat="43.03813" lon="1.06288">
        <ele>350.99</ele>
        <time>2024-09-18T09:42:59.999Z</time>
      </trkpt>
      <trkpt lat="43.03807" lon="1.06322">
        <ele>351.43</ele>
        <time>2024-09-18T09:43:04.999Z</time>
      </trkpt>
      <trkpt lat="43.038" lon="1.06353">
        <ele>351.89</ele>
        <time>2024-09-18T09:43:09.999Z</time>
      </trkpt>
      <trkpt lat="43.03795" lon="1.06381">
        <ele>352.35</ele>
        <time>2024-09-18T09:43:14.999Z</time>
      </trkpt>
      <trkpt lat="43.03811" lon="1.06397">
        <ele>352.49</ele>
        <time>2024-09-18T09:43:19.999Z</time>
      </trkpt>
      <trkpt lat="43.0382" lon="1.06411">
        <ele>352.71</ele>
        <time>2024-09-18T09:43:24.999Z</time>
      </trkpt>
      <trkpt lat="43.03831" lon="1.064">
        <ele>352.92</ele>
        <time>2024-09-18T09:43:29.999Z</time>
      </trkpt>
      <trkpt lat="43.03828" lon="1.06412">
        <ele>353.17</ele>
        <time>2024-09-18T09:43:35.999Z</time>
      </trkpt>
      <trkpt lat="43.03816" lon="1.06428">
        <ele>353.35</ele>
        <time>2024-09-18T09:43:40.999Z</time>
      </trkpt>
      <trkpt lat="43.03801" lon="1.0645">
        <ele>354.34</ele>
        <time>2024-09-18T09:43:45.999Z</time>
      </trkpt>
      <trkpt lat="43.03787" lon="1.06475">
        <ele>354.81</ele>
        <time>2024-09-18T09:43:50.999Z</time>
      </trkpt>
      <trkpt lat="43.03776" lon="1.06498">
        <ele>354.88</ele>
        <time>2024-09-18T09:43:55.999Z</time>
      </trkpt>
      <trkpt lat="43.03763" lon="1.06521">
        <ele>354.94</ele>
        <time>2024-09-18T09:44:00.999Z</time>
      </trkpt>
      <trkpt lat="43.03749" lon="1.06546">
        <ele>355.01</ele>
        <time>2024-09-18T09:44:05.999Z</time>
      </trkpt>
      <trkpt lat="43.03736" lon="1.0657">
        <ele>355.05</ele>
        <time>2024-09-18T09:44:10.999Z</time>
      </trkpt>
      <trkpt lat="43.03724" lon="1.06592">
        <ele>355.05</ele>
        <time>2024-09-18T09:44:15.999Z</time>
      </trkpt>
      <trkpt lat="43.03712" lon="1.06617">
        <ele>355.07</ele>
        <time>2024-09-18T09:44:20.999Z</time>
      </trkpt>
      <trkpt lat="43.03703" lon="1.06643">
        <ele>355.14</ele>
        <time>2024-09-18T09:44:25.999Z</time>
      </trkpt>
      <trkpt lat="43.03692" lon="1.0667">
        <ele>355.26</ele>
        <time>2024-09-18T09:44:30.999Z</time>
      </trkpt>
      <trkpt lat="43.03679" lon="1.06696">
        <ele>355.46</ele>
        <time>2024-09-18T09:44:35.999Z</time>
      </trkpt>
      <trkpt lat="43.03666" lon="1.06727">
        <ele>355.57</ele>
        <time>2024-09-18T09:44:40.999Z</time>
      </trkpt>
      <trkpt lat="43.03652" lon="1.06756">
        <ele>355.63</ele>
        <time>2024-09-18T09:44:45.999Z</time>
      </trkpt>
      <trkpt lat="43.0364" lon="1.06786">
        <ele>355.7</ele>
        <time>2024-09-18T09:44:50.999Z</time>
      </trkpt>
      <trkpt lat="43.0363" lon="1.06811">
        <ele>355.72</ele>
        <time>2024-09-18T09:44:55.999Z</time>
      </trkpt>
      <trkpt lat="43.03614" lon="1.06845">
        <ele>355.74</ele>
        <time>2024-09-18T09:45:00.999Z</time>
      </trkpt>
      <trkpt lat="43.03601" lon="1.06872">
        <ele>355.73</ele>
        <time>2024-09-18T09:45:05.999Z</time>
      </trkpt>
      <trkpt lat="43.03588" lon="1.06899">
        <ele>355.77</ele>
        <time>2024-09-18T09:45:10.999Z</time>
      </trkpt>
      <trkpt lat="43.03574" lon="1.06932">
        <ele>355.84</ele>
        <time>2024-09-18T09:45:15.999Z</time>
      </trkpt>
      <trkpt lat="43.03563" lon="1.06961">
        <ele>355.87</ele>
        <time>2024-09-18T09:45:20.999Z</time>
      </trkpt>
      <trkpt lat="43.03555" lon="1.06988">
        <ele>355.9</ele>
        <time>2024-09-18T09:45:25.999Z</time>
      </trkpt>
      <trkpt lat="43.03542" lon="1.0702">
        <ele>355.97</ele>
        <time>2024-09-18T09:45:30.999Z</time>
      </trkpt>
      <trkpt lat="43.03531" lon="1.07049">
        <ele>355.99</ele>
        <time>2024-09-18T09:45:35.999Z</time>
      </trkpt>
      <trkpt lat="43.0352" lon="1.07078">
        <ele>356.04</ele>
        <time>2024-09-18T09:45:40.999Z</time>
      </trkpt>
      <trkpt lat="43.03512" lon="1.07105">
        <ele>356.07</ele>
        <time>2024-09-18T09:45:45.999Z</time>
      </trkpt>
      <trkpt lat="43.03502" lon="1.07134">
        <ele>356.08</ele>
        <time>2024-09-18T09:45:50.999Z</time>
      </trkpt>
      <trkpt lat="43.03495" lon="1.07161">
        <ele>356.09</ele>
        <time>2024-09-18T09:45:55.999Z</time>
      </trkpt>
      <trkpt lat="43.03486" lon="1.07191">
        <ele>356.12</ele>
        <time>2024-09-18T09:46:00.999Z</time>
      </trkpt>
      <trkpt lat="43.03476" lon="1.07226">
        <ele>356.13</ele>
        <time>2024-09-18T09:46:05.999Z</time>
      </trkpt>
      <trkpt lat="43.03471" lon="1.07251">
        <ele>356.12</ele>
        <time>2024-09-18T09:46:10.999Z</time>
      </trkpt>
      <trkpt lat="43.03464" lon="1.07283">
        <ele>356.11</ele>
        <time>2024-09-18T09:46:15.999Z</time>
      </trkpt>
      <trkpt lat="43.03458" lon="1.07315">
        <ele>356.08</ele>
        <time>2024-09-18T09:46:20.999Z</time>
      </trkpt>
      <trkpt lat="43.03451" lon="1.07346">
        <ele>356.08</ele>
        <time>2024-09-18T09:46:25.999Z</time>
      </trkpt>
      <trkpt lat="43.03444" lon="1.07374">
        <ele>356.07</ele>
        <time>2024-09-18T09:46:30.999Z</time>
      </trkpt>
      <trkpt lat="43.03441" lon="1.07397">
        <ele>356.07</ele>
        <time>2024-09-18T09:46:35.999Z</time>
      </trkpt>
      <trkpt lat="43.03432" lon="1.07434">
        <ele>356.11</ele>
        <time>2024-09-18T09:46:41.000Z</time>
      </trkpt>
      <trkpt lat="43.03425" lon="1.07464">
        <ele>356.16</ele>
        <time>2024-09-18T09:46:46.000Z</time>
      </trkpt>
      <trkpt lat="43.03419" lon="1.07495">
        <ele>356.17</ele>
        <time>2024-09-18T09:46:51.000Z</time>
      </trkpt>
      <trkpt lat="43.03411" lon="1.07525">
        <ele>356.21</ele>
        <time>2024-09-18T09:46:56.000Z</time>
      </trkpt>
      <trkpt lat="43.03403" lon="1.07556">
        <ele>356.26</ele>
        <time>2024-09-18T09:47:01.000Z</time>
      </trkpt>
      <trkpt lat="43.03395" lon="1.07589">
        <ele>356.25</ele>
        <time>2024-09-18T09:47:06.000Z</time>
      </trkpt>
      <trkpt lat="43.03386" lon="1.07621">
        <ele>356.21</ele>
        <time>2024-09-18T09:47:11.000Z</time>
      </trkpt>
      <trkpt lat="43.0338" lon="1.07648">
        <ele>356.18</ele>
        <time>2024-09-18T09:47:16.000Z</time>
      </trkpt>
      <trkpt lat="43.03371" lon="1.07676">
        <ele>356.18</ele>
        <time>2024-09-18T09:47:21.000Z</time>
      </trkpt>
      <trkpt lat="43.03362" lon="1.07704">
        <ele>356.2</ele>
        <time>2024-09-18T09:47:26.000Z</time>
      </trkpt>
      <trkpt lat="43.03355" lon="1.07733">
        <ele>356.25</ele>
        <time>2024-09-18T09:47:31.000Z</time>
      </trkpt>
      <trkpt lat="43.0335" lon="1.07762">
        <ele>356.27</ele>
        <time>2024-09-18T09:47:36.000Z</time>
      </trkpt>
      <trkpt lat="43.03343" lon="1.07797">
        <ele>356.3</ele>
        <time>2024-09-18T09:47:41.000Z</time>
      </trkpt>
      <trkpt lat="43.03336" lon="1.07826">
        <ele>356.4</ele>
        <time>2024-09-18T09:47:46.000Z</time>
      </trkpt>
      <trkpt lat="43.03326" lon="1.07857">
        <ele>356.58</ele>
        <time>2024-09-18T09:47:51.000Z</time>
      </trkpt>
      <trkpt lat="43.03316" lon="1.0789">
        <ele>356.75</ele>
        <time>2024-09-18T09:47:56.000Z</time>
      </trkpt>
      <trkpt lat="43.03311" lon="1.07914">
        <ele>356.79</ele>
        <time>2024-09-18T09:48:01.000Z</time>
      </trkpt>
      <trkpt lat="43.03303" lon="1.07947">
        <ele>356.84</ele>
        <time>2024-09-18T09:48:06.000Z</time>
      </trkpt>
      <trkpt lat="43.03294" lon="1.07974">
        <ele>356.86</ele>
        <time>2024-09-18T09:48:11.000Z</time>
      </trkpt>
      <trkpt lat="43.03286" lon="1.08003">
        <ele>356.89</ele>
        <time>2024-09-18T09:48:16.000Z</time>
      </trkpt>
      <trkpt lat="43.03276" lon="1.08031">
        <ele>356.96</ele>
        <time>2024-09-18T09:48:21.000Z</time>
      </trkpt>
      <trkpt lat="43.03269" lon="1.08065">
        <ele>356.95</ele>
        <time>2024-09-18T09:48:26.000Z</time>
      </trkpt>
      <trkpt lat="43.0326" lon="1.08091">
        <ele>356.88</ele>
        <time>2024-09-18T09:48:31.000Z</time>
      </trkpt>
      <trkpt lat="43.03252" lon="1.08114">
        <ele>356.84</ele>
        <time>2024-09-18T09:48:36.000Z</time>
      </trkpt>
      <trkpt lat="43.03243" lon="1.08136">
        <ele>356.85</ele>
        <time>2024-09-18T09:48:41.000Z</time>
      </trkpt>
      <trkpt lat="43.03233" lon="1.08164">
        <ele>357.12</ele>
        <time>2024-09-18T09:48:46.000Z</time>
      </trkpt>
      <trkpt lat="43.03223" lon="1.08189">
        <ele>357.2</ele>
        <time>2024-09-18T09:48:51.000Z</time>
      </trkpt>
      <trkpt lat="43.03211" lon="1.08215">
        <ele>357.36</ele>
        <time>2024-09-18T09:48:56.000Z</time>
      </trkpt>
      <trkpt lat="43.032" lon="1.08239">
        <ele>357.49</ele>
        <time>2024-09-18T09:49:01.000Z</time>
      </trkpt>
      <trkpt lat="43.03191" lon="1.0826">
        <ele>357.66</ele>
        <time>2024-09-18T09:49:06.000Z</time>
      </trkpt>
      <trkpt lat="43.03182" lon="1.08279">
        <ele>357.71</ele>
        <time>2024-09-18T09:49:11.000Z</time>
      </trkpt>
      <trkpt lat="43.03169" lon="1.083">
        <ele>358.01</ele>
        <time>2024-09-18T09:49:16.000Z</time>
      </trkpt>
      <trkpt lat="43.03158" lon="1.08319">
        <ele>358.07</ele>
        <time>2024-09-18T09:49:21.000Z</time>
      </trkpt>
      <trkpt lat="43.03151" lon="1.0833">
        <ele>358.13</ele>
        <time>2024-09-18T09:49:26.000Z</time>
      </trkpt>
      <trkpt lat="43.03142" lon="1.08349">
        <ele>358.18</ele>
        <time>2024-09-18T09:49:31.000Z</time>
      </trkpt>
      <trkpt lat="43.03131" lon="1.08368">
        <ele>358.31</ele>
        <time>2024-09-18T09:49:36.000Z</time>
      </trkpt>
      <trkpt lat="43.03119" lon="1.0839">
        <ele>358.49</ele>
        <time>2024-09-18T09:49:41.000Z</time>
      </trkpt>
      <trkpt lat="43.03107" lon="1.08411">
        <ele>358.57</ele>
        <time>2024-09-18T09:49:46.000Z</time>
      </trkpt>
      <trkpt lat="43.03094" lon="1.08433">
        <ele>358.81</ele>
        <time>2024-09-18T09:49:51.000Z</time>
      </trkpt>
      <trkpt lat="43.0308" lon="1.08455">
        <ele>359.03</ele>
        <time>2024-09-18T09:49:56.000Z</time>
      </trkpt>
      <trkpt lat="43.03065" lon="1.08479">
        <ele>359.3</ele>
        <time>2024-09-18T09:50:01.000Z</time>
      </trkpt>
      <trkpt lat="43.03052" lon="1.08501">
        <ele>359.44</ele>
        <time>2024-09-18T09:50:06.000Z</time>
      </trkpt>
      <trkpt lat="43.03044" lon="1.08515">
        <ele>359.46</ele>
        <time>2024-09-18T09:50:11.000Z</time>
      </trkpt>
      <trkpt lat="43.03036" lon="1.0853">
        <ele>359.49</ele>
        <time>2024-09-18T09:50:16.000Z</time>
      </trkpt>
      <trkpt lat="43.03023" lon="1.08551">
        <ele>359.82</ele>
        <time>2024-09-18T09:50:21.000Z</time>
      </trkpt>
      <trkpt lat="43.0301" lon="1.08574">
        <ele>360.05</ele>
        <time>2024-09-18T09:50:26.000Z</time>
      </trkpt>
      <trkpt lat="43.02996" lon="1.086">
        <ele>360.16</ele>
        <time>2024-09-18T09:50:31.000Z</time>
      </trkpt>
      <trkpt lat="43.02981" lon="1.08623">
        <ele>360.24</ele>
        <time>2024-09-18T09:50:36.000Z</time>
      </trkpt>
      <trkpt lat="43.02966" lon="1.08648">
        <ele>360.3</ele>
        <time>2024-09-18T09:50:41.000Z</time>
      </trkpt>
      <trkpt lat="43.02952" lon="1.08674">
        <ele>360.36</ele>
        <time>2024-09-18T09:50:46.000Z</time>
      </trkpt>
      <trkpt lat="43.02938" lon="1.08698">
        <ele>360.46</ele>
        <time>2024-09-18T09:50:51.000Z</time>
      </trkpt>
      <trkpt lat="43.02924" lon="1.0872">
        <ele>360.51</ele>
        <time>2024-09-18T09:50:56.000Z</time>
      </trkpt>
      <trkpt lat="43.02912" lon="1.08741">
        <ele>360.55</ele>
        <time>2024-09-18T09:51:01.000Z</time>
      </trkpt>
      <trkpt lat="43.02899" lon="1.08762">
        <ele>360.57</ele>
        <time>2024-09-18T09:51:06.000Z</time>
      </trkpt>
      <trkpt lat="43.02886" lon="1.08783">
        <ele>360.61</ele>
        <time>2024-09-18T09:51:11.000Z</time>
      </trkpt>
      <trkpt lat="43.02873" lon="1.08804">
        <ele>360.66</ele>
        <time>2024-09-18T09:51:16.000Z</time>
      </trkpt>
      <trkpt lat="43.02861" lon="1.08826">
        <ele>360.74</ele>
        <time>2024-09-18T09:51:21.000Z</time>
      </trkpt>
      <trkpt lat="43.02846" lon="1.08851">
        <ele>360.83</ele>
        <time>2024-09-18T09:51:26.000Z</time>
      </trkpt>
      <trkpt lat="43.02831" lon="1.08877">
        <ele>360.96</ele>
        <time>2024-09-18T09:51:31.000Z</time>
      </trkpt>
      <trkpt lat="43.02819" lon="1.089">
        <ele>361.07</ele>
        <time>2024-09-18T09:51:36.000Z</time>
      </trkpt>
      <trkpt lat="43.02805" lon="1.08924">
        <ele>361.16</ele>
        <time>2024-09-18T09:51:41.000Z</time>
      </trkpt>
      <trkpt lat="43.0279" lon="1.08949">
        <ele>361.27</ele>
        <time>2024-09-18T09:51:46.000Z</time>
      </trkpt>
      <trkpt lat="43.02775" lon="1.08974">
        <ele>361.34</ele>
        <time>2024-09-18T09:51:51.000Z</time>
      </trkpt>
      <trkpt lat="43.02762" lon="1.08995">
        <ele>361.38</ele>
        <time>2024-09-18T09:51:56.000Z</time>
      </trkpt>
      <trkpt lat="43.02749" lon="1.09016">
        <ele>361.44</ele>
        <time>2024-09-18T09:52:01.000Z</time>
      </trkpt>
      <trkpt lat="43.02737" lon="1.09037">
        <ele>361.48</ele>
        <time>2024-09-18T09:52:06.000Z</time>
      </trkpt>
      <trkpt lat="43.02726" lon="1.09059">
        <ele>361.54</ele>
        <time>2024-09-18T09:52:11.000Z</time>
      </trkpt>
      <trkpt lat="43.02713" lon="1.09084">
        <ele>361.59</ele>
        <time>2024-09-18T09:52:16.000Z</time>
      </trkpt>
      <trkpt lat="43.027" lon="1.09108">
        <ele>361.7</ele>
        <time>2024-09-18T09:52:21.000Z</time>
      </trkpt>
      <trkpt lat="43.02689" lon="1.0913">
        <ele>361.84</ele>
        <time>2024-09-18T09:52:26.000Z</time>
      </trkpt>
      <trkpt lat="43.0268" lon="1.09149">
        <ele>361.88</ele>
        <time>2024-09-18T09:52:31.000Z</time>
      </trkpt>
      <trkpt lat="43.02664" lon="1.09182">
        <ele>362.09</ele>
        <time>2024-09-18T09:52:36.000Z</time>
      </trkpt>
      <trkpt lat="43.02653" lon="1.09212">
        <ele>362.24</ele>
        <time>2024-09-18T09:52:41.000Z</time>
      </trkpt>
      <trkpt lat="43.02642" lon="1.09239">
        <ele>362.35</ele>
        <time>2024-09-18T09:52:46.000Z</time>
      </trkpt>
      <trkpt lat="43.02632" lon="1.09265">
        <ele>362.37</ele>
        <time>2024-09-18T09:52:51.000Z</time>
      </trkpt>
      <trkpt lat="43.02622" lon="1.0929">
        <ele>362.45</ele>
        <time>2024-09-18T09:52:56.000Z</time>
      </trkpt>
      <trkpt lat="43.02612" lon="1.0932">
        <ele>362.54</ele>
        <time>2024-09-18T09:53:01.000Z</time>
      </trkpt>
      <trkpt lat="43.02607" lon="1.09337">
        <ele>362.58</ele>
        <time>2024-09-18T09:53:06.000Z</time>
      </trkpt>
      <trkpt lat="43.02604" lon="1.09349">
        <ele>362.7</ele>
        <time>2024-09-18T09:53:47.000Z</time>
      </trkpt>
      <trkpt lat="43.026" lon="1.09363">
        <ele>362.42</ele>
        <time>2024-09-18T09:54:22.000Z</time>
      </trkpt>
      <trkpt lat="43.02593" lon="1.09384">
        <ele>362.1</ele>
        <time>2024-09-18T09:54:27.000Z</time>
      </trkpt>
      <trkpt lat="43.02585" lon="1.09412">
        <ele>361.43</ele>
        <time>2024-09-18T09:54:32.000Z</time>
      </trkpt>
      <trkpt lat="43.02579" lon="1.09438">
        <ele>361.31</ele>
        <time>2024-09-18T09:54:37.000Z</time>
      </trkpt>
      <trkpt lat="43.02571" lon="1.09468">
        <ele>361.24</ele>
        <time>2024-09-18T09:54:42.000Z</time>
      </trkpt>
      <trkpt lat="43.02566" lon="1.09491">
        <ele>361.24</ele>
        <time>2024-09-18T09:54:47.000Z</time>
      </trkpt>
      <trkpt lat="43.02557" lon="1.09519">
        <ele>361.32</ele>
        <time>2024-09-18T09:54:52.000Z</time>
      </trkpt>
      <trkpt lat="43.02551" lon="1.09545">
        <ele>361.65</ele>
        <time>2024-09-18T09:54:57.000Z</time>
      </trkpt>
      <trkpt lat="43.02547" lon="1.09575">
        <ele>362.05</ele>
        <time>2024-09-18T09:55:02.000Z</time>
      </trkpt>
      <trkpt lat="43.02543" lon="1.09605">
        <ele>362.25</ele>
        <time>2024-09-18T09:55:07.000Z</time>
      </trkpt>
      <trkpt lat="43.02537" lon="1.09633">
        <ele>362.41</ele>
        <time>2024-09-18T09:55:12.000Z</time>
      </trkpt>
      <trkpt lat="43.02533" lon="1.09659">
        <ele>362.45</ele>
        <time>2024-09-18T09:55:17.000Z</time>
      </trkpt>
      <trkpt lat="43.02528" lon="1.09688">
        <ele>362.61</ele>
        <time>2024-09-18T09:55:22.000Z</time>
      </trkpt>
      <trkpt lat="43.02523" lon="1.09723">
        <ele>362.87</ele>
        <time>2024-09-18T09:55:27.000Z</time>
      </trkpt>
      <trkpt lat="43.02514" lon="1.09755">
        <ele>363.12</ele>
        <time>2024-09-18T09:55:32.000Z</time>
      </trkpt>
      <trkpt lat="43.02507" lon="1.09786">
        <ele>363.19</ele>
        <time>2024-09-18T09:55:37.000Z</time>
      </trkpt>
      <trkpt lat="43.02501" lon="1.09816">
        <ele>363.21</ele>
        <time>2024-09-18T09:55:42.000Z</time>
      </trkpt>
      <trkpt lat="43.02497" lon="1.09846">
        <ele>363.25</ele>
        <time>2024-09-18T09:55:47.000Z</time>
      </trkpt>
      <trkpt lat="43.0249" lon="1.09878">
        <ele>363.37</ele>
        <time>2024-09-18T09:55:52.000Z</time>
      </trkpt>
      <trkpt lat="43.02487" lon="1.09908">
        <ele>363.42</ele>
        <time>2024-09-18T09:55:57.000Z</time>
      </trkpt>
      <trkpt lat="43.02482" lon="1.09935">
        <ele>363.49</ele>
        <time>2024-09-18T09:56:02.000Z</time>
      </trkpt>
      <trkpt lat="43.02477" lon="1.09966">
        <ele>363.68</ele>
        <time>2024-09-18T09:56:07.000Z</time>
      </trkpt>
      <trkpt lat="43.02469" lon="1.09995">
        <ele>364.08</ele>
        <time>2024-09-18T09:56:12.000Z</time>
      </trkpt>
      <trkpt lat="43.0246" lon="1.10028">
        <ele>364.43</ele>
        <time>2024-09-18T09:56:17.000Z</time>
      </trkpt>
      <trkpt lat="43.02451" lon="1.10059">
        <ele>364.65</ele>
        <time>2024-09-18T09:56:22.000Z</time>
      </trkpt>
      <trkpt lat="43.02443" lon="1.1009">
        <ele>364.79</ele>
        <time>2024-09-18T09:56:27.000Z</time>
      </trkpt>
      <trkpt lat="43.02436" lon="1.10121">
        <ele>365.02</ele>
        <time>2024-09-18T09:56:32.000Z</time>
      </trkpt>
      <trkpt lat="43.02429" lon="1.10148">
        <ele>365.21</ele>
        <time>2024-09-18T09:56:37.000Z</time>
      </trkpt>
      <trkpt lat="43.02422" lon="1.10171">
        <ele>365.27</ele>
        <time>2024-09-18T09:56:42.000Z</time>
      </trkpt>
      <trkpt lat="43.02417" lon="1.10189">
        <ele>365.31</ele>
        <time>2024-09-18T09:56:47.000Z</time>
      </trkpt>
      <trkpt lat="43.02411" lon="1.10205">
        <ele>365.36</ele>
        <time>2024-09-18T09:56:52.000Z</time>
      </trkpt>
      <trkpt lat="43.0241" lon="1.10218">
        <ele>365.44</ele>
        <time>2024-09-18T09:56:58.000Z</time>
      </trkpt>
      <trkpt lat="43.02409" lon="1.10232">
        <ele>373.65</ele>
        <time>2024-09-18T10:04:38.999Z</time>
      </trkpt>
      <trkpt lat="43.02405" lon="1.10249">
        <ele>373.98</ele>
        <time>2024-09-18T10:04:43.999Z</time>
      </trkpt>
      <trkpt lat="43.02399" lon="1.10267">
        <ele>374.27</ele>
        <time>2024-09-18T10:04:48.999Z</time>
      </trkpt>
      <trkpt lat="43.02385" lon="1.10292">
        <ele>376.08</ele>
        <time>2024-09-18T10:04:53.999Z</time>
      </trkpt>
      <trkpt lat="43.02372" lon="1.10315">
        <ele>376.75</ele>
        <time>2024-09-18T10:04:58.999Z</time>
      </trkpt>
      <trkpt lat="43.02362" lon="1.10338">
        <ele>376.9</ele>
        <time>2024-09-18T10:05:03.999Z</time>
      </trkpt>
      <trkpt lat="43.02351" lon="1.10363">
        <ele>377.04</ele>
        <time>2024-09-18T10:05:08.999Z</time>
      </trkpt>
      <trkpt lat="43.02339" lon="1.10388">
        <ele>377.11</ele>
        <time>2024-09-18T10:05:13.999Z</time>
      </trkpt>
      <trkpt lat="43.02326" lon="1.10412">
        <ele>377.14</ele>
        <time>2024-09-18T10:05:18.999Z</time>
      </trkpt>
      <trkpt lat="43.02312" lon="1.10438">
        <ele>377.23</ele>
        <time>2024-09-18T10:05:23.999Z</time>
      </trkpt>
      <trkpt lat="43.02298" lon="1.10464">
        <ele>377.3</ele>
        <time>2024-09-18T10:05:28.999Z</time>
      </trkpt>
      <trkpt lat="43.02285" lon="1.10485">
        <ele>377.32</ele>
        <time>2024-09-18T10:05:33.999Z</time>
      </trkpt>
      <trkpt lat="43.02272" lon="1.10508">
        <ele>377.32</ele>
        <time>2024-09-18T10:05:38.999Z</time>
      </trkpt>
      <trkpt lat="43.02258" lon="1.10532">
        <ele>377.38</ele>
        <time>2024-09-18T10:05:43.999Z</time>
      </trkpt>
      <trkpt lat="43.02243" lon="1.10554">
        <ele>377.43</ele>
        <time>2024-09-18T10:05:48.999Z</time>
      </trkpt>
      <trkpt lat="43.02227" lon="1.10577">
        <ele>377.47</ele>
        <time>2024-09-18T10:05:53.999Z</time>
      </trkpt>
      <trkpt lat="43.02208" lon="1.10605">
        <ele>377.53</ele>
        <time>2024-09-18T10:05:58.999Z</time>
      </trkpt>
      <trkpt lat="43.02191" lon="1.10629">
        <ele>377.66</ele>
        <time>2024-09-18T10:06:03.999Z</time>
      </trkpt>
      <trkpt lat="43.02168" lon="1.10655">
        <ele>377.8</ele>
        <time>2024-09-18T10:06:08.999Z</time>
      </trkpt>
      <trkpt lat="43.02147" lon="1.10677">
        <ele>377.83</ele>
        <time>2024-09-18T10:06:13.999Z</time>
      </trkpt>
      <trkpt lat="43.02129" lon="1.10698">
        <ele>377.85</ele>
        <time>2024-09-18T10:06:18.999Z</time>
      </trkpt>
      <trkpt lat="43.02111" lon="1.10716">
        <ele>377.89</ele>
        <time>2024-09-18T10:06:23.999Z</time>
      </trkpt>
      <trkpt lat="43.02092" lon="1.10738">
        <ele>377.91</ele>
        <time>2024-09-18T10:06:28.999Z</time>
      </trkpt>
      <trkpt lat="43.02072" lon="1.10759">
        <ele>377.92</ele>
        <time>2024-09-18T10:06:33.999Z</time>
      </trkpt>
      <trkpt lat="43.02049" lon="1.10785">
        <ele>377.92</ele>
        <time>2024-09-18T10:06:38.999Z</time>
      </trkpt>
      <trkpt lat="43.02028" lon="1.10811">
        <ele>377.9</ele>
        <time>2024-09-18T10:06:43.999Z</time>
      </trkpt>
      <trkpt lat="43.02007" lon="1.10835">
        <ele>377.91</ele>
        <time>2024-09-18T10:06:48.999Z</time>
      </trkpt>
      <trkpt lat="43.01987" lon="1.10858">
        <ele>377.91</ele>
        <time>2024-09-18T10:06:53.999Z</time>
      </trkpt>
      <trkpt lat="43.01967" lon="1.10878">
        <ele>377.93</ele>
        <time>2024-09-18T10:06:58.999Z</time>
      </trkpt>
      <trkpt lat="43.01947" lon="1.10899">
        <ele>377.97</ele>
        <time>2024-09-18T10:07:03.999Z</time>
      </trkpt>
      <trkpt lat="43.01927" lon="1.10922">
        <ele>377.98</ele>
        <time>2024-09-18T10:07:08.999Z</time>
      </trkpt>
      <trkpt lat="43.01909" lon="1.10942">
        <ele>377.99</ele>
        <time>2024-09-18T10:07:13.999Z</time>
      </trkpt>
      <trkpt lat="43.0189" lon="1.10962">
        <ele>378.04</ele>
        <time>2024-09-18T10:07:18.999Z</time>
      </trkpt>
      <trkpt lat="43.01872" lon="1.10981">
        <ele>378.08</ele>
        <time>2024-09-18T10:07:23.999Z</time>
      </trkpt>
      <trkpt lat="43.01854" lon="1.10999">
        <ele>378.11</ele>
        <time>2024-09-18T10:07:28.999Z</time>
      </trkpt>
      <trkpt lat="43.01836" lon="1.11019">
        <ele>378.16</ele>
        <time>2024-09-18T10:07:33.999Z</time>
      </trkpt>
      <trkpt lat="43.01819" lon="1.11036">
        <ele>378.21</ele>
        <time>2024-09-18T10:07:38.999Z</time>
      </trkpt>
      <trkpt lat="43.01801" lon="1.11056">
        <ele>378.26</ele>
        <time>2024-09-18T10:07:43.999Z</time>
      </trkpt>
      <trkpt lat="43.01783" lon="1.11076">
        <ele>378.32</ele>
        <time>2024-09-18T10:07:48.999Z</time>
      </trkpt>
      <trkpt lat="43.01765" lon="1.11097">
        <ele>378.39</ele>
        <time>2024-09-18T10:07:53.999Z</time>
      </trkpt>
      <trkpt lat="43.01747" lon="1.11118">
        <ele>378.46</ele>
        <time>2024-09-18T10:07:58.999Z</time>
      </trkpt>
      <trkpt lat="43.01727" lon="1.11139">
        <ele>378.48</ele>
        <time>2024-09-18T10:08:03.999Z</time>
      </trkpt>
      <trkpt lat="43.01708" lon="1.11162">
        <ele>378.51</ele>
        <time>2024-09-18T10:08:08.999Z</time>
      </trkpt>
      <trkpt lat="43.01688" lon="1.11184">
        <ele>378.53</ele>
        <time>2024-09-18T10:08:13.999Z</time>
      </trkpt>
      <trkpt lat="43.01671" lon="1.11204">
        <ele>378.53</ele>
        <time>2024-09-18T10:08:18.999Z</time>
      </trkpt>
      <trkpt lat="43.0165" lon="1.11223">
        <ele>378.56</ele>
        <time>2024-09-18T10:08:23.999Z</time>
      </trkpt>
      <trkpt lat="43.01635" lon="1.11238">
        <ele>378.58</ele>
        <time>2024-09-18T10:08:28.999Z</time>
      </trkpt>
      <trkpt lat="43.01618" lon="1.11257">
        <ele>378.6</ele>
        <time>2024-09-18T10:08:33.999Z</time>
      </trkpt>
      <trkpt lat="43.016" lon="1.11279">
        <ele>378.74</ele>
        <time>2024-09-18T10:08:38.999Z</time>
      </trkpt>
      <trkpt lat="43.01579" lon="1.11302">
        <ele>378.91</ele>
        <time>2024-09-18T10:08:43.999Z</time>
      </trkpt>
      <trkpt lat="43.01561" lon="1.11327">
        <ele>378.93</ele>
        <time>2024-09-18T10:08:48.999Z</time>
      </trkpt>
      <trkpt lat="43.01539" lon="1.1135">
        <ele>379.02</ele>
        <time>2024-09-18T10:08:53.999Z</time>
      </trkpt>
      <trkpt lat="43.01517" lon="1.11372">
        <ele>379.16</ele>
        <time>2024-09-18T10:08:58.999Z</time>
      </trkpt>
      <trkpt lat="43.01494" lon="1.11397">
        <ele>379.25</ele>
        <time>2024-09-18T10:09:03.999Z</time>
      </trkpt>
      <trkpt lat="43.01472" lon="1.11423">
        <ele>379.33</ele>
        <time>2024-09-18T10:09:08.999Z</time>
      </trkpt>
      <trkpt lat="43.0145" lon="1.11445">
        <ele>379.39</ele>
        <time>2024-09-18T10:09:13.999Z</time>
      </trkpt>
      <trkpt lat="43.01429" lon="1.11467">
        <ele>379.44</ele>
        <time>2024-09-18T10:09:18.999Z</time>
      </trkpt>
      <trkpt lat="43.01407" lon="1.11493">
        <ele>379.46</ele>
        <time>2024-09-18T10:09:23.999Z</time>
      </trkpt>
      <trkpt lat="43.01387" lon="1.11516">
        <ele>379.48</ele>
        <time>2024-09-18T10:09:28.999Z</time>
      </trkpt>
      <trkpt lat="43.01369" lon="1.11538">
        <ele>379.49</ele>
        <time>2024-09-18T10:09:33.999Z</time>
      </trkpt>
      <trkpt lat="43.01349" lon="1.11562">
        <ele>379.51</ele>
        <time>2024-09-18T10:09:38.999Z</time>
      </trkpt>
      <trkpt lat="43.01331" lon="1.11586">
        <ele>379.53</ele>
        <time>2024-09-18T10:09:43.999Z</time>
      </trkpt>
      <trkpt lat="43.01313" lon="1.11612">
        <ele>379.59</ele>
        <time>2024-09-18T10:09:48.999Z</time>
      </trkpt>
      <trkpt lat="43.01295" lon="1.11638">
        <ele>379.66</ele>
        <time>2024-09-18T10:09:53.999Z</time>
      </trkpt>
      <trkpt lat="43.01277" lon="1.11665">
        <ele>379.72</ele>
        <time>2024-09-18T10:09:58.999Z</time>
      </trkpt>
      <trkpt lat="43.0126" lon="1.1169">
        <ele>379.78</ele>
        <time>2024-09-18T10:10:03.999Z</time>
      </trkpt>
      <trkpt lat="43.01244" lon="1.11716">
        <ele>379.82</ele>
        <time>2024-09-18T10:10:08.999Z</time>
      </trkpt>
      <trkpt lat="43.01228" lon="1.11744">
        <ele>379.89</ele>
        <time>2024-09-18T10:10:13.999Z</time>
      </trkpt>
      <trkpt lat="43.01213" lon="1.11771">
        <ele>379.95</ele>
        <time>2024-09-18T10:10:18.999Z</time>
      </trkpt>
      <trkpt lat="43.01199" lon="1.11797">
        <ele>380.01</ele>
        <time>2024-09-18T10:10:23.999Z</time>
      </trkpt>
      <trkpt lat="43.01186" lon="1.1182">
        <ele>380.09</ele>
        <time>2024-09-18T10:10:28.999Z</time>
      </trkpt>
      <trkpt lat="43.01172" lon="1.11845">
        <ele>380.19</ele>
        <time>2024-09-18T10:10:33.999Z</time>
      </trkpt>
      <trkpt lat="43.01156" lon="1.11871">
        <ele>380.28</ele>
        <time>2024-09-18T10:10:38.999Z</time>
      </trkpt>
      <trkpt lat="43.01143" lon="1.11894">
        <ele>380.35</ele>
        <time>2024-09-18T10:10:43.999Z</time>
      </trkpt>
      <trkpt lat="43.0113" lon="1.11919">
        <ele>380.42</ele>
        <time>2024-09-18T10:10:48.999Z</time>
      </trkpt>
      <trkpt lat="43.01118" lon="1.11944">
        <ele>380.49</ele>
        <time>2024-09-18T10:10:54.000Z</time>
      </trkpt>
      <trkpt lat="43.01106" lon="1.11969">
        <ele>380.57</ele>
        <time>2024-09-18T10:10:59.000Z</time>
      </trkpt>
      <trkpt lat="43.01096" lon="1.11995">
        <ele>380.63</ele>
        <time>2024-09-18T10:11:04.000Z</time>
      </trkpt>
      <trkpt lat="43.01087" lon="1.12012">
        <ele>380.65</ele>
        <time>2024-09-18T10:11:09.000Z</time>
      </trkpt>
      <trkpt lat="43.01076" lon="1.12037">
        <ele>380.76</ele>
        <time>2024-09-18T10:11:14.000Z</time>
      </trkpt>
      <trkpt lat="43.01066" lon="1.12061">
        <ele>380.85</ele>
        <time>2024-09-18T10:11:19.000Z</time>
      </trkpt>
      <trkpt lat="43.01056" lon="1.12087">
        <ele>380.93</ele>
        <time>2024-09-18T10:11:24.000Z</time>
      </trkpt>
      <trkpt lat="43.01045" lon="1.12114">
        <ele>381.08</ele>
        <time>2024-09-18T10:11:29.000Z</time>
      </trkpt>
      <trkpt lat="43.01035" lon="1.1214">
        <ele>381.19</ele>
        <time>2024-09-18T10:11:34.000Z</time>
      </trkpt>
      <trkpt lat="43.01025" lon="1.12166">
        <ele>381.28</ele>
        <time>2024-09-18T10:11:39.000Z</time>
      </trkpt>
      <trkpt lat="43.01015" lon="1.12192">
        <ele>381.33</ele>
        <time>2024-09-18T10:11:44.000Z</time>
      </trkpt>
      <trkpt lat="43.01004" lon="1.12219">
        <ele>381.37</ele>
        <time>2024-09-18T10:11:49.000Z</time>
      </trkpt>
      <trkpt lat="43.00993" lon="1.12247">
        <ele>381.43</ele>
        <time>2024-09-18T10:11:54.000Z</time>
      </trkpt>
      <trkpt lat="43.00983" lon="1.12274">
        <ele>381.52</ele>
        <time>2024-09-18T10:11:59.000Z</time>
      </trkpt>
      <trkpt lat="43.00972" lon="1.12302">
        <ele>381.6</ele>
        <time>2024-09-18T10:12:04.000Z</time>
      </trkpt>
      <trkpt lat="43.00962" lon="1.12329">
        <ele>381.68</ele>
        <time>2024-09-18T10:12:09.000Z</time>
      </trkpt>
      <trkpt lat="43.00952" lon="1.12358">
        <ele>381.76</ele>
        <time>2024-09-18T10:12:14.000Z</time>
      </trkpt>
      <trkpt lat="43.00941" lon="1.12384">
        <ele>381.88</ele>
        <time>2024-09-18T10:12:19.000Z</time>
      </trkpt>
      <trkpt lat="43.00932" lon="1.12407">
        <ele>381.93</ele>
        <time>2024-09-18T10:12:24.000Z</time>
      </trkpt>
      <trkpt lat="43.00921" lon="1.12435">
        <ele>382.12</ele>
        <time>2024-09-18T10:12:29.000Z</time>
      </trkpt>
      <trkpt lat="43.00911" lon="1.12462">
        <ele>382.26</ele>
        <time>2024-09-18T10:12:34.000Z</time>
      </trkpt>
      <trkpt lat="43.009" lon="1.12489">
        <ele>382.39</ele>
        <time>2024-09-18T10:12:39.000Z</time>
      </trkpt>
      <trkpt lat="43.00888" lon="1.12516">
        <ele>382.5</ele>
        <time>2024-09-18T10:12:44.000Z</time>
      </trkpt>
      <trkpt lat="43.00875" lon="1.12543">
        <ele>382.63</ele>
        <time>2024-09-18T10:12:49.000Z</time>
      </trkpt>
      <trkpt lat="43.00863" lon="1.12565">
        <ele>382.65</ele>
        <time>2024-09-18T10:12:54.000Z</time>
      </trkpt>
      <trkpt lat="43.00855" lon="1.1258">
        <ele>382.67</ele>
        <time>2024-09-18T10:12:59.000Z</time>
      </trkpt>
      <trkpt lat="43.00842" lon="1.126">
        <ele>382.68</ele>
        <time>2024-09-18T10:13:04.000Z</time>
      </trkpt>
      <trkpt lat="43.0083" lon="1.1262">
        <ele>382.7</ele>
        <time>2024-09-18T10:13:09.000Z</time>
      </trkpt>
      <trkpt lat="43.00816" lon="1.12647">
        <ele>382.72</ele>
        <time>2024-09-18T10:13:14.000Z</time>
      </trkpt>
      <trkpt lat="43.00796" lon="1.12675">
        <ele>382.74</ele>
        <time>2024-09-18T10:13:19.000Z</time>
      </trkpt>
      <trkpt lat="43.00778" lon="1.12703">
        <ele>382.8</ele>
        <time>2024-09-18T10:13:24.000Z</time>
      </trkpt>
      <trkpt lat="43.00761" lon="1.12728">
        <ele>382.83</ele>
        <time>2024-09-18T10:13:29.000Z</time>
      </trkpt>
      <trkpt lat="43.00747" lon="1.12745">
        <ele>382.9</ele>
        <time>2024-09-18T10:13:34.000Z</time>
      </trkpt>
      <trkpt lat="43.00732" lon="1.12764">
        <ele>382.92</ele>
        <time>2024-09-18T10:13:39.000Z</time>
      </trkpt>
      <trkpt lat="43.00714" lon="1.12778">
        <ele>382.95</ele>
        <time>2024-09-18T10:13:44.000Z</time>
      </trkpt>
      <trkpt lat="43.00699" lon="1.12794">
        <ele>382.98</ele>
        <time>2024-09-18T10:13:49.000Z</time>
      </trkpt>
      <trkpt lat="43.00678" lon="1.12819">
        <ele>383.05</ele>
        <time>2024-09-18T10:13:54.000Z</time>
      </trkpt>
      <trkpt lat="43.00659" lon="1.1284">
        <ele>383.09</ele>
        <time>2024-09-18T10:13:59.000Z</time>
      </trkpt>
      <trkpt lat="43.00645" lon="1.12848">
        <ele>383.13</ele>
        <time>2024-09-18T10:14:04.000Z</time>
      </trkpt>
      <trkpt lat="43.00635" lon="1.12842">
        <ele>383.19</ele>
        <time>2024-09-18T10:14:09.000Z</time>
      </trkpt>
      <trkpt lat="43.00626" lon="1.12836">
        <ele>383.27</ele>
        <time>2024-09-18T10:14:14.000Z</time>
      </trkpt>
      <trkpt lat="43.00619" lon="1.1285">
        <ele>383.37</ele>
        <time>2024-09-18T10:14:19.000Z</time>
      </trkpt>
      <trkpt lat="43.00623" lon="1.12875">
        <ele>383.89</ele>
        <time>2024-09-18T10:14:24.000Z</time>
      </trkpt>
      <trkpt lat="43.00605" lon="1.12898">
        <ele>384.36</ele>
        <time>2024-09-18T10:14:29.000Z</time>
      </trkpt>
      <trkpt lat="43.0058" lon="1.12919">
        <ele>384.6</ele>
        <time>2024-09-18T10:14:34.000Z</time>
      </trkpt>
      <trkpt lat="43.00556" lon="1.12941">
        <ele>384.72</ele>
        <time>2024-09-18T10:14:39.000Z</time>
      </trkpt>
      <trkpt lat="43.00532" lon="1.12964">
        <ele>384.78</ele>
        <time>2024-09-18T10:14:44.000Z</time>
      </trkpt>
      <trkpt lat="43.00512" lon="1.12982">
        <ele>384.86</ele>
        <time>2024-09-18T10:14:49.000Z</time>
      </trkpt>
      <trkpt lat="43.00494" lon="1.12999">
        <ele>384.94</ele>
        <time>2024-09-18T10:14:54.000Z</time>
      </trkpt>
      <trkpt lat="43.00475" lon="1.13017">
        <ele>385.02</ele>
        <time>2024-09-18T10:14:59.000Z</time>
      </trkpt>
      <trkpt lat="43.00457" lon="1.13034">
        <ele>385.1</ele>
        <time>2024-09-18T10:15:04.000Z</time>
      </trkpt>
      <trkpt lat="43.00439" lon="1.1305">
        <ele>385.19</ele>
        <time>2024-09-18T10:15:09.000Z</time>
      </trkpt>
      <trkpt lat="43.00419" lon="1.13067">
        <ele>385.25</ele>
        <time>2024-09-18T10:15:14.000Z</time>
      </trkpt>
      <trkpt lat="43.00398" lon="1.13085">
        <ele>385.31</ele>
        <time>2024-09-18T10:15:19.000Z</time>
      </trkpt>
      <trkpt lat="43.0038" lon="1.13102">
        <ele>385.36</ele>
        <time>2024-09-18T10:15:24.000Z</time>
      </trkpt>
      <trkpt lat="43.00372" lon="1.13116">
        <ele>385.39</ele>
        <time>2024-09-18T10:15:29.000Z</time>
      </trkpt>
      <trkpt lat="43.00364" lon="1.13125">
        <ele>385.76</ele>
        <time>2024-09-18T10:16:08.000Z</time>
      </trkpt>
      <trkpt lat="43.00352" lon="1.13139">
        <ele>385.94</ele>
        <time>2024-09-18T10:16:13.000Z</time>
      </trkpt>
      <trkpt lat="43.00334" lon="1.13158">
        <ele>387.14</ele>
        <time>2024-09-18T10:16:18.000Z</time>
      </trkpt>
      <trkpt lat="43.00318" lon="1.13176">
        <ele>387.64</ele>
        <time>2024-09-18T10:16:23.000Z</time>
      </trkpt>
      <trkpt lat="43.00308" lon="1.1319">
        <ele>387.69</ele>
        <time>2024-09-18T10:16:28.000Z</time>
      </trkpt>
      <trkpt lat="43.003" lon="1.13207">
        <ele>387.73</ele>
        <time>2024-09-18T10:16:33.000Z</time>
      </trkpt>
      <trkpt lat="43.00291" lon="1.13226">
        <ele>387.99</ele>
        <time>2024-09-18T10:16:38.000Z</time>
      </trkpt>
      <trkpt lat="43.00275" lon="1.13245">
        <ele>388.16</ele>
        <time>2024-09-18T10:16:43.000Z</time>
      </trkpt>
      <trkpt lat="43.0026" lon="1.13263">
        <ele>388.22</ele>
        <time>2024-09-18T10:16:48.000Z</time>
      </trkpt>
      <trkpt lat="43.00246" lon="1.1328">
        <ele>388.26</ele>
        <time>2024-09-18T10:16:53.000Z</time>
      </trkpt>
      <trkpt lat="43.00231" lon="1.13297">
        <ele>388.26</ele>
        <time>2024-09-18T10:16:58.000Z</time>
      </trkpt>
      <trkpt lat="43.00217" lon="1.13314">
        <ele>388.27</ele>
        <time>2024-09-18T10:17:03.000Z</time>
      </trkpt>
      <trkpt lat="43.00205" lon="1.13331">
        <ele>388.27</ele>
        <time>2024-09-18T10:17:08.000Z</time>
      </trkpt>
      <trkpt lat="43.00193" lon="1.13348">
        <ele>388.27</ele>
        <time>2024-09-18T10:17:13.000Z</time>
      </trkpt>
      <trkpt lat="43.00182" lon="1.13364">
        <ele>388.29</ele>
        <time>2024-09-18T10:17:18.000Z</time>
      </trkpt>
      <trkpt lat="43.00168" lon="1.13376">
        <ele>388.35</ele>
        <time>2024-09-18T10:17:23.000Z</time>
      </trkpt>
      <trkpt lat="43.00153" lon="1.13388">
        <ele>388.37</ele>
        <time>2024-09-18T10:17:28.000Z</time>
      </trkpt>
      <trkpt lat="43.00141" lon="1.13395">
        <ele>388.4</ele>
        <time>2024-09-18T10:17:33.000Z</time>
      </trkpt>
      <trkpt lat="43.00128" lon="1.13403">
        <ele>388.43</ele>
        <time>2024-09-18T10:17:38.000Z</time>
      </trkpt>
      <trkpt lat="43.00115" lon="1.1341">
        <ele>388.47</ele>
        <time>2024-09-18T10:17:43.000Z</time>
      </trkpt>
      <trkpt lat="43.00101" lon="1.13417">
        <ele>388.51</ele>
        <time>2024-09-18T10:17:48.000Z</time>
      </trkpt>
      <trkpt lat="43.00087" lon="1.13422">
        <ele>388.55</ele>
        <time>2024-09-18T10:17:53.000Z</time>
      </trkpt>
      <trkpt lat="43.00074" lon="1.13427">
        <ele>388.6</ele>
        <time>2024-09-18T10:17:58.000Z</time>
      </trkpt>
      <trkpt lat="43.00059" lon="1.13434">
        <ele>388.65</ele>
        <time>2024-09-18T10:18:03.000Z</time>
      </trkpt>
      <trkpt lat="43.00046" lon="1.1344">
        <ele>388.7</ele>
        <time>2024-09-18T10:18:08.000Z</time>
      </trkpt>
      <trkpt lat="43.00035" lon="1.13447">
        <ele>388.75</ele>
        <time>2024-09-18T10:18:13.000Z</time>
      </trkpt>
      <trkpt lat="43.00037" lon="1.13461">
        <ele>388.8</ele>
        <time>2024-09-18T10:18:18.000Z</time>
      </trkpt>
      <trkpt lat="43.00042" lon="1.13474">
        <ele>388.86</ele>
        <time>2024-09-18T10:18:23.000Z</time>
      </trkpt>
      <trkpt lat="43.00045" lon="1.13486">
        <ele>389.04</ele>
        <time>2024-09-18T10:18:47.000Z</time>
      </trkpt>
      <trkpt lat="43.00049" lon="1.13497">
        <ele>391.75</ele>
        <time>2024-09-18T10:23:15.999Z</time>
      </trkpt>
      <trkpt lat="43.00046" lon="1.13509">
        <ele>392.63</ele>
        <time>2024-09-18T10:23:26.999Z</time>
      </trkpt>
      <trkpt lat="43.00044" lon="1.13522">
        <ele>394.08</ele>
        <time>2024-09-18T10:24:22.999Z</time>
      </trkpt>
      <trkpt lat="43.00039" lon="1.13538">
        <ele>394.33</ele>
        <time>2024-09-18T10:24:27.999Z</time>
      </trkpt>
      <trkpt lat="43.00033" lon="1.13548">
        <ele>394.6</ele>
        <time>2024-09-18T10:24:33.999Z</time>
      </trkpt>
      <trkpt lat="43.00029" lon="1.13559">
        <ele>394.87</ele>
        <time>2024-09-18T10:24:40.999Z</time>
      </trkpt>
      <trkpt lat="43.00027" lon="1.13572">
        <ele>395.11</ele>
        <time>2024-09-18T10:24:47.999Z</time>
      </trkpt>
      <trkpt lat="43.00024" lon="1.13583">
        <ele>395.29</ele>
        <time>2024-09-18T10:24:53.999Z</time>
      </trkpt>
      <trkpt lat="43.0002" lon="1.13595">
        <ele>395.49</ele>
        <time>2024-09-18T10:25:00.999Z</time>
      </trkpt>
      <trkpt lat="43.00018" lon="1.13608">
        <ele>395.7</ele>
        <time>2024-09-18T10:25:08.999Z</time>
      </trkpt>
      <trkpt lat="43.00015" lon="1.13619">
        <ele>395.88</ele>
        <time>2024-09-18T10:25:16.999Z</time>
      </trkpt>
      <trkpt lat="43.00013" lon="1.13632">
        <ele>396.02</ele>
        <time>2024-09-18T10:25:23.999Z</time>
      </trkpt>
      <trkpt lat="43.0001" lon="1.13645">
        <ele>396.2</ele>
        <time>2024-09-18T10:25:33.999Z</time>
      </trkpt>
      <trkpt lat="43.00006" lon="1.13659">
        <ele>396.34</ele>
        <time>2024-09-18T10:25:41.999Z</time>
      </trkpt>
      <trkpt lat="43.00001" lon="1.13669">
        <ele>396.46</ele>
        <time>2024-09-18T10:25:48.999Z</time>
      </trkpt>
      <trkpt lat="42.99996" lon="1.1368">
        <ele>396.59</ele>
        <time>2024-09-18T10:25:56.999Z</time>
      </trkpt>
      <trkpt lat="42.9999" lon="1.13691">
        <ele>396.69</ele>
        <time>2024-09-18T10:26:02.999Z</time>
      </trkpt>
      <trkpt lat="42.99984" lon="1.13701">
        <ele>396.8</ele>
        <time>2024-09-18T10:26:08.999Z</time>
      </trkpt>
      <trkpt lat="42.99982" lon="1.13714">
        <ele>396.92</ele>
        <time>2024-09-18T10:26:15.999Z</time>
      </trkpt>
      <trkpt lat="42.99984" lon="1.13726">
        <ele>397.07</ele>
        <time>2024-09-18T10:26:23.999Z</time>
      </trkpt>
      <trkpt lat="42.99989" lon="1.13737">
        <ele>397.18</ele>
        <time>2024-09-18T10:26:29.999Z</time>
      </trkpt>
      <trkpt lat="42.99992" lon="1.13748">
        <ele>397.34</ele>
        <time>2024-09-18T10:26:37.999Z</time>
      </trkpt>
      <trkpt lat="42.99984" lon="1.13755">
        <ele>397.54</ele>
        <time>2024-09-18T10:26:46.999Z</time>
      </trkpt>
      <trkpt lat="42.99975" lon="1.1376">
        <ele>397.69</ele>
        <time>2024-09-18T10:26:53.999Z</time>
      </trkpt>
      <trkpt lat="42.99966" lon="1.13768">
        <ele>397.87</ele>
        <time>2024-09-18T10:27:00.999Z</time>
      </trkpt>
      <trkpt lat="42.99956" lon="1.13774">
        <ele>398.04</ele>
        <time>2024-09-18T10:27:06.999Z</time>
      </trkpt>
      <trkpt lat="42.99947" lon="1.13778">
        <ele>398.23</ele>
        <time>2024-09-18T10:27:13.999Z</time>
      </trkpt>
      <trkpt lat="42.99935" lon="1.13783">
        <ele>398.37</ele>
        <time>2024-09-18T10:27:18.999Z</time>
      </trkpt>
      <trkpt lat="42.99922" lon="1.13791">
        <ele>398.49</ele>
        <time>2024-09-18T10:27:23.999Z</time>
      </trkpt>
      <trkpt lat="42.99907" lon="1.13798">
        <ele>398.62</ele>
        <time>2024-09-18T10:27:28.999Z</time>
      </trkpt>
      <trkpt lat="42.99893" lon="1.13804">
        <ele>398.73</ele>
        <time>2024-09-18T10:27:33.999Z</time>
      </trkpt>
      <trkpt lat="42.99884" lon="1.13809">
        <ele>398.85</ele>
        <time>2024-09-18T10:27:38.999Z</time>
      </trkpt>
      <trkpt lat="42.99872" lon="1.13815">
        <ele>398.98</ele>
        <time>2024-09-18T10:27:43.999Z</time>
      </trkpt>
      <trkpt lat="42.99862" lon="1.13822">
        <ele>399.1</ele>
        <time>2024-09-18T10:27:48.999Z</time>
      </trkpt>
      <trkpt lat="42.99852" lon="1.13828">
        <ele>399.26</ele>
        <time>2024-09-18T10:27:53.999Z</time>
      </trkpt>
      <trkpt lat="42.99837" lon="1.13835">
        <ele>399.47</ele>
        <time>2024-09-18T10:27:58.999Z</time>
      </trkpt>
      <trkpt lat="42.99821" lon="1.13838">
        <ele>399.74</ele>
        <time>2024-09-18T10:28:03.999Z</time>
      </trkpt>
      <trkpt lat="42.99804" lon="1.13847">
        <ele>400.05</ele>
        <time>2024-09-18T10:28:08.999Z</time>
      </trkpt>
      <trkpt lat="42.99788" lon="1.13854">
        <ele>400.41</ele>
        <time>2024-09-18T10:28:13.999Z</time>
      </trkpt>
      <trkpt lat="42.99782" lon="1.13863">
        <ele>401.04</ele>
        <time>2024-09-18T10:28:22.999Z</time>
      </trkpt>
      <trkpt lat="42.99773" lon="1.13869">
        <ele>401.54</ele>
        <time>2024-09-18T10:28:27.999Z</time>
      </trkpt>
      <trkpt lat="42.99757" lon="1.13877">
        <ele>402.08</ele>
        <time>2024-09-18T10:28:32.999Z</time>
      </trkpt>
      <trkpt lat="42.99741" lon="1.13884">
        <ele>403.5</ele>
        <time>2024-09-18T10:28:37.999Z</time>
      </trkpt>
      <trkpt lat="42.99719" lon="1.13891">
        <ele>407.26</ele>
        <time>2024-09-18T10:28:42.999Z</time>
      </trkpt>
      <trkpt lat="42.99696" lon="1.13893">
        <ele>408.9</ele>
        <time>2024-09-18T10:28:47.999Z</time>
      </trkpt>
      <trkpt lat="42.99668" lon="1.13895">
        <ele>409.61</ele>
        <time>2024-09-18T10:28:52.999Z</time>
      </trkpt>
      <trkpt lat="42.99638" lon="1.13898">
        <ele>410.09</ele>
        <time>2024-09-18T10:28:57.999Z</time>
      </trkpt>
      <trkpt lat="42.99608" lon="1.13907">
        <ele>410.46</ele>
        <time>2024-09-18T10:29:02.999Z</time>
      </trkpt>
      <trkpt lat="42.99578" lon="1.13927">
        <ele>410.86</ele>
        <time>2024-09-18T10:29:07.999Z</time>
      </trkpt>
      <trkpt lat="42.99554" lon="1.13951">
        <ele>411.31</ele>
        <time>2024-09-18T10:29:12.999Z</time>
      </trkpt>
      <trkpt lat="42.9953" lon="1.13984">
        <ele>411.7</ele>
        <time>2024-09-18T10:29:17.999Z</time>
      </trkpt>
      <trkpt lat="42.99504" lon="1.14021">
        <ele>412.24</ele>
        <time>2024-09-18T10:29:22.999Z</time>
      </trkpt>
      <trkpt lat="42.99463" lon="1.14041">
        <ele>412.72</ele>
        <time>2024-09-18T10:29:27.999Z</time>
      </trkpt>
      <trkpt lat="42.99419" lon="1.14032">
        <ele>413.12</ele>
        <time>2024-09-18T10:29:32.999Z</time>
      </trkpt>
      <trkpt lat="42.99378" lon="1.14012">
        <ele>412.7</ele>
        <time>2024-09-18T10:29:37.999Z</time>
      </trkpt>
      <trkpt lat="42.99334" lon="1.14021">
        <ele>411.71</ele>
        <time>2024-09-18T10:29:42.999Z</time>
      </trkpt>
      <trkpt lat="42.99305" lon="1.14062">
        <ele>410.93</ele>
        <time>2024-09-18T10:29:47.999Z</time>
      </trkpt>
      <trkpt lat="42.9928" lon="1.141">
        <ele>410.45</ele>
        <time>2024-09-18T10:29:52.999Z</time>
      </trkpt>
      <trkpt lat="42.9926" lon="1.14133">
        <ele>410.3</ele>
        <time>2024-09-18T10:29:57.999Z</time>
      </trkpt>
      <trkpt lat="42.99244" lon="1.14161">
        <ele>410.13</ele>
        <time>2024-09-18T10:30:02.999Z</time>
      </trkpt>
      <trkpt lat="42.99235" lon="1.14174">
        <ele>410.06</ele>
        <time>2024-09-18T10:30:07.999Z</time>
      </trkpt>
      <trkpt lat="42.99227" lon="1.14184">
        <ele>409.96</ele>
        <time>2024-09-18T10:30:13.999Z</time>
      </trkpt>
      <trkpt lat="42.99225" lon="1.14171">
        <ele>409.92</ele>
        <time>2024-09-18T10:30:26.999Z</time>
      </trkpt>
      <trkpt lat="42.99217" lon="1.14165">
        <ele>409.74</ele>
        <time>2024-09-18T10:31:26.999Z</time>
      </trkpt>
      <trkpt lat="42.99211" lon="1.14176">
        <ele>407.27</ele>
        <time>2024-09-18T10:34:24.999Z</time>
      </trkpt>
      <trkpt lat="42.99213" lon="1.14188">
        <ele>407.04</ele>
        <time>2024-09-18T10:34:29.999Z</time>
      </trkpt>
      <trkpt lat="42.99222" lon="1.14195">
        <ele>406.82</ele>
        <time>2024-09-18T10:34:34.999Z</time>
      </trkpt>
      <trkpt lat="42.99234" lon="1.14202">
        <ele>406.62</ele>
        <time>2024-09-18T10:34:39.999Z</time>
      </trkpt>
      <trkpt lat="42.99245" lon="1.14195">
        <ele>406.45</ele>
        <time>2024-09-18T10:34:44.999Z</time>
      </trkpt>
      <trkpt lat="42.99253" lon="1.14205">
        <ele>406.29</ele>
        <time>2024-09-18T10:34:49.999Z</time>
      </trkpt>
      <trkpt lat="42.99261" lon="1.14213">
        <ele>406.16</ele>
        <time>2024-09-18T10:34:54.999Z</time>
      </trkpt>
      <trkpt lat="42.99269" lon="1.14208">
        <ele>405.99</ele>
        <time>2024-09-18T10:35:05.000Z</time>
      </trkpt>
      <trkpt lat="42.99261" lon="1.14198">
        <ele>406.05</ele>
        <time>2024-09-18T10:38:14.000Z</time>
      </trkpt>
      <trkpt lat="42.99252" lon="1.14181">
        <ele>406.05</ele>
        <time>2024-09-18T10:38:19.000Z</time>
      </trkpt>
      <trkpt lat="42.9923" lon="1.1418">
        <ele>406.04</ele>
        <time>2024-09-18T10:38:24.000Z</time>
      </trkpt>
      <trkpt lat="42.99212" lon="1.14199">
        <ele>406.03</ele>
        <time>2024-09-18T10:38:29.000Z</time>
      </trkpt>
      <trkpt lat="42.99194" lon="1.14221">
        <ele>406.01</ele>
        <time>2024-09-18T10:38:34.000Z</time>
      </trkpt>
      <trkpt lat="42.99178" lon="1.14247">
        <ele>405.95</ele>
        <time>2024-09-18T10:38:39.000Z</time>
      </trkpt>
      <trkpt lat="42.99162" lon="1.14274">
        <ele>405.96</ele>
        <time>2024-09-18T10:38:44.000Z</time>
      </trkpt>
      <trkpt lat="42.99147" lon="1.14297">
        <ele>405.9</ele>
        <time>2024-09-18T10:38:49.000Z</time>
      </trkpt>
      <trkpt lat="42.99131" lon="1.1432">
        <ele>405.81</ele>
        <time>2024-09-18T10:38:54.000Z</time>
      </trkpt>
      <trkpt lat="42.99108" lon="1.14341">
        <ele>405.66</ele>
        <time>2024-09-18T10:38:59.000Z</time>
      </trkpt>
      <trkpt lat="42.99086" lon="1.14356">
        <ele>405.63</ele>
        <time>2024-09-18T10:39:04.000Z</time>
      </trkpt>
      <trkpt lat="42.99062" lon="1.14366">
        <ele>405.58</ele>
        <time>2024-09-18T10:39:09.000Z</time>
      </trkpt>
      <trkpt lat="42.99037" lon="1.14371">
        <ele>405.57</ele>
        <time>2024-09-18T10:39:14.000Z</time>
      </trkpt>
      <trkpt lat="42.99013" lon="1.14371">
        <ele>405.61</ele>
        <time>2024-09-18T10:39:19.000Z</time>
      </trkpt>
      <trkpt lat="42.98991" lon="1.14368">
        <ele>405.6</ele>
        <time>2024-09-18T10:39:24.000Z</time>
      </trkpt>
      <trkpt lat="42.98968" lon="1.14366">
        <ele>405.61</ele>
        <time>2024-09-18T10:39:29.000Z</time>
      </trkpt>
      <trkpt lat="42.98945" lon="1.14361">
        <ele>405.61</ele>
        <time>2024-09-18T10:39:34.000Z</time>
      </trkpt>
      <trkpt lat="42.98924" lon="1.14358">
        <ele>405.53</ele>
        <time>2024-09-18T10:39:39.000Z</time>
      </trkpt>
      <trkpt lat="42.98902" lon="1.14354">
        <ele>405.42</ele>
        <time>2024-09-18T10:39:44.000Z</time>
      </trkpt>
      <trkpt lat="42.98879" lon="1.1435">
        <ele>405.39</ele>
        <time>2024-09-18T10:39:49.000Z</time>
      </trkpt>
      <trkpt lat="42.98857" lon="1.14347">
        <ele>405.38</ele>
        <time>2024-09-18T10:39:54.000Z</time>
      </trkpt>
      <trkpt lat="42.98836" lon="1.14345">
        <ele>405.39</ele>
        <time>2024-09-18T10:39:59.000Z</time>
      </trkpt>
      <trkpt lat="42.98812" lon="1.14342">
        <ele>405.43</ele>
        <time>2024-09-18T10:40:04.000Z</time>
      </trkpt>
      <trkpt lat="42.98789" lon="1.14338">
        <ele>405.46</ele>
        <time>2024-09-18T10:40:09.000Z</time>
      </trkpt>
      <trkpt lat="42.98768" lon="1.14336">
        <ele>405.5</ele>
        <time>2024-09-18T10:40:14.000Z</time>
      </trkpt>
      <trkpt lat="42.98747" lon="1.1434">
        <ele>405.55</ele>
        <time>2024-09-18T10:40:19.000Z</time>
      </trkpt>
      <trkpt lat="42.98728" lon="1.14348">
        <ele>405.59</ele>
        <time>2024-09-18T10:40:24.000Z</time>
      </trkpt>
      <trkpt lat="42.98709" lon="1.14356">
        <ele>405.62</ele>
        <time>2024-09-18T10:40:29.000Z</time>
      </trkpt>
      <trkpt lat="42.98689" lon="1.14365">
        <ele>405.63</ele>
        <time>2024-09-18T10:40:34.000Z</time>
      </trkpt>
      <trkpt lat="42.98672" lon="1.1437">
        <ele>405.64</ele>
        <time>2024-09-18T10:40:39.000Z</time>
      </trkpt>
      <trkpt lat="42.98652" lon="1.14378">
        <ele>405.66</ele>
        <time>2024-09-18T10:40:44.000Z</time>
      </trkpt>
      <trkpt lat="42.98636" lon="1.14383">
        <ele>405.67</ele>
        <time>2024-09-18T10:40:49.000Z</time>
      </trkpt>
      <trkpt lat="42.98625" lon="1.14389">
        <ele>405.68</ele>
        <time>2024-09-18T10:40:54.000Z</time>
      </trkpt>
      <trkpt lat="42.98616" lon="1.14393">
        <ele>405.7</ele>
        <time>2024-09-18T10:41:00.000Z</time>
      </trkpt>
      <trkpt lat="42.98608" lon="1.14387">
        <ele>405.73</ele>
        <time>2024-09-18T10:41:16.000Z</time>
      </trkpt>
      <trkpt lat="42.98599" lon="1.1437">
        <ele>405.74</ele>
        <time>2024-09-18T10:41:21.000Z</time>
      </trkpt>
      <trkpt lat="42.98594" lon="1.14356">
        <ele>405.73</ele>
        <time>2024-09-18T10:41:26.000Z</time>
      </trkpt>
      <trkpt lat="42.9859" lon="1.14342">
        <ele>405.71</ele>
        <time>2024-09-18T10:41:36.000Z</time>
      </trkpt>
      <trkpt lat="42.98583" lon="1.14324">
        <ele>405.69</ele>
        <time>2024-09-18T10:41:41.000Z</time>
      </trkpt>
      <trkpt lat="42.98578" lon="1.143">
        <ele>405.66</ele>
        <time>2024-09-18T10:41:46.000Z</time>
      </trkpt>
      <trkpt lat="42.98575" lon="1.14283">
        <ele>405.61</ele>
        <time>2024-09-18T10:41:51.000Z</time>
      </trkpt>
      <trkpt lat="42.98565" lon="1.14282">
        <ele>405.55</ele>
        <time>2024-09-18T10:41:56.000Z</time>
      </trkpt>
      <trkpt lat="42.98551" lon="1.14291">
        <ele>405.51</ele>
        <time>2024-09-18T10:42:01.000Z</time>
      </trkpt>
      <trkpt lat="42.98539" lon="1.14298">
        <ele>405.48</ele>
        <time>2024-09-18T10:42:06.000Z</time>
      </trkpt>
      <trkpt lat="42.98526" lon="1.14306">
        <ele>405.46</ele>
        <time>2024-09-18T10:42:11.000Z</time>
      </trkpt>
      <trkpt lat="42.98512" lon="1.14316">
        <ele>405.46</ele>
        <time>2024-09-18T10:42:16.000Z</time>
      </trkpt>
      <trkpt lat="42.98502" lon="1.14323">
        <ele>405.48</ele>
        <time>2024-09-18T10:42:21.000Z</time>
      </trkpt>
      <trkpt lat="42.98497" lon="1.14334">
        <ele>405.63</ele>
        <time>2024-09-18T10:43:03.000Z</time>
      </trkpt>
      <trkpt lat="42.98487" lon="1.14339">
        <ele>405.66</ele>
        <time>2024-09-18T10:43:09.000Z</time>
      </trkpt>
      <trkpt lat="42.98479" lon="1.14354">
        <ele>405.68</ele>
        <time>2024-09-18T10:43:14.000Z</time>
      </trkpt>
      <trkpt lat="42.98482" lon="1.14367">
        <ele>405.7</ele>
        <time>2024-09-18T10:43:19.000Z</time>
      </trkpt>
      <trkpt lat="42.98491" lon="1.14386">
        <ele>405.72</ele>
        <time>2024-09-18T10:43:24.000Z</time>
      </trkpt>
      <trkpt lat="42.98498" lon="1.14403">
        <ele>405.74</ele>
        <time>2024-09-18T10:43:29.000Z</time>
      </trkpt>
      <trkpt lat="42.98504" lon="1.14417">
        <ele>405.76</ele>
        <time>2024-09-18T10:43:34.000Z</time>
      </trkpt>
      <trkpt lat="42.98512" lon="1.14438">
        <ele>405.78</ele>
        <time>2024-09-18T10:43:39.000Z</time>
      </trkpt>
      <trkpt lat="42.98512" lon="1.14451">
        <ele>405.82</ele>
        <time>2024-09-18T10:43:44.000Z</time>
      </trkpt>
      <trkpt lat="42.98506" lon="1.14466">
        <ele>405.86</ele>
        <time>2024-09-18T10:43:49.000Z</time>
      </trkpt>
      <trkpt lat="42.98496" lon="1.14487">
        <ele>405.92</ele>
        <time>2024-09-18T10:43:54.000Z</time>
      </trkpt>
      <trkpt lat="42.98486" lon="1.14513">
        <ele>405.94</ele>
        <time>2024-09-18T10:43:59.000Z</time>
      </trkpt>
      <trkpt lat="42.98477" lon="1.14529">
        <ele>405.95</ele>
        <time>2024-09-18T10:44:04.000Z</time>
      </trkpt>
      <trkpt lat="42.98471" lon="1.14541">
        <ele>405.97</ele>
        <time>2024-09-18T10:44:10.000Z</time>
      </trkpt>
      <trkpt lat="42.98467" lon="1.14554">
        <ele>406.01</ele>
        <time>2024-09-18T10:44:15.000Z</time>
      </trkpt>
      <trkpt lat="42.98459" lon="1.14563">
        <ele>406.07</ele>
        <time>2024-09-18T10:44:21.000Z</time>
      </trkpt>
      <trkpt lat="42.98451" lon="1.14569">
        <ele>406.11</ele>
        <time>2024-09-18T10:44:26.000Z</time>
      </trkpt>
      <trkpt lat="42.98442" lon="1.14572">
        <ele>406.29</ele>
        <time>2024-09-18T10:45:14.000Z</time>
      </trkpt>
      <trkpt lat="42.98432" lon="1.14573">
        <ele>406.82</ele>
        <time>2024-09-18T10:46:08.000Z</time>
      </trkpt>
      <trkpt lat="42.98426" lon="1.14565">
        <ele>406.99</ele>
        <time>2024-09-18T10:46:18.000Z</time>
      </trkpt>
      <trkpt lat="42.98411" lon="1.14549">
        <ele>407.07</ele>
        <time>2024-09-18T10:46:23.000Z</time>
      </trkpt>
      <trkpt lat="42.98399" lon="1.14531">
        <ele>407.15</ele>
        <time>2024-09-18T10:46:28.000Z</time>
      </trkpt>
      <trkpt lat="42.98394" lon="1.14521">
        <ele>407.22</ele>
        <time>2024-09-18T10:46:34.000Z</time>
      </trkpt>
      <trkpt lat="42.98397" lon="1.1451">
        <ele>407.87</ele>
        <time>2024-09-18T10:47:23.999Z</time>
      </trkpt>
      <trkpt lat="42.98399" lon="1.14495">
        <ele>408.2</ele>
        <time>2024-09-18T10:47:51.999Z</time>
      </trkpt>
      <trkpt lat="42.98402" lon="1.14507">
        <ele>408.28</ele>
        <time>2024-09-18T10:48:06.999Z</time>
      </trkpt>
      <trkpt lat="42.98403" lon="1.14494">
        <ele>408.57</ele>
        <time>2024-09-18T10:48:48.999Z</time>
      </trkpt>
      <trkpt lat="42.98404" lon="1.14481">
        <ele>409.28</ele>
        <time>2024-09-18T10:48:58.999Z</time>
      </trkpt>
      <trkpt lat="42.98401" lon="1.14492">
        <ele>409.94</ele>
        <time>2024-09-18T10:50:25.999Z</time>
      </trkpt>
      <trkpt lat="42.98401" lon="1.14504">
        <ele>409.92</ele>
        <time>2024-09-18T10:50:53.999Z</time>
      </trkpt>
      <trkpt lat="42.98407" lon="1.14495">
        <ele>409.13</ele>
        <time>2024-09-18T10:51:53.999Z</time>
      </trkpt>
      <trkpt lat="42.984" lon="1.14502">
        <ele>408.57</ele>
        <time>2024-09-18T10:52:31.999Z</time>
      </trkpt>
      <trkpt lat="42.98394" lon="1.14512">
        <ele>408.39</ele>
        <time>2024-09-18T10:53:15.999Z</time>
      </trkpt>
      <trkpt lat="42.98403" lon="1.1451">
        <ele>408.94</ele>
        <time>2024-09-18T10:54:05.999Z</time>
      </trkpt>
      <trkpt lat="42.98404" lon="1.14498">
        <ele>411.71</ele>
        <time>2024-09-18T10:56:41.999Z</time>
      </trkpt>
      <trkpt lat="42.98408" lon="1.1451">
        <ele>412.56</ele>
        <time>2024-09-18T10:58:10.999Z</time>
      </trkpt>
      <trkpt lat="42.98401" lon="1.14518">
        <ele>412.72</ele>
        <time>2024-09-18T10:58:22.999Z</time>
      </trkpt>
      <trkpt lat="42.98395" lon="1.14527">
        <ele>413.32</ele>
        <time>2024-09-18T10:59:23.000Z</time>
      </trkpt>
      <trkpt lat="42.98389" lon="1.14516">
        <ele>421.46</ele>
        <time>2024-09-18T11:06:37.000Z</time>
      </trkpt>
      <trkpt lat="42.98379" lon="1.14507">
        <ele>422.01</ele>
        <time>2024-09-18T11:06:42.000Z</time>
      </trkpt>
      <trkpt lat="42.98369" lon="1.14508">
        <ele>422.46</ele>
        <time>2024-09-18T11:06:47.000Z</time>
      </trkpt>
      <trkpt lat="42.9836" lon="1.14513">
        <ele>422.99</ele>
        <time>2024-09-18T11:06:54.000Z</time>
      </trkpt>
      <trkpt lat="42.98354" lon="1.14523">
        <ele>423.35</ele>
        <time>2024-09-18T11:07:01.000Z</time>
      </trkpt>
      <trkpt lat="42.98347" lon="1.14531">
        <ele>423.52</ele>
        <time>2024-09-18T11:07:06.000Z</time>
      </trkpt>
      <trkpt lat="42.98327" lon="1.14544">
        <ele>423.62</ele>
        <time>2024-09-18T11:07:11.000Z</time>
      </trkpt>
      <trkpt lat="42.98317" lon="1.14543">
        <ele>423.69</ele>
        <time>2024-09-18T11:07:16.000Z</time>
      </trkpt>
      <trkpt lat="42.98311" lon="1.14534">
        <ele>423.8</ele>
        <time>2024-09-18T11:07:27.000Z</time>
      </trkpt>
      <trkpt lat="42.98306" lon="1.14546">
        <ele>423.7</ele>
        <time>2024-09-18T11:07:49.000Z</time>
      </trkpt>
      <trkpt lat="42.98292" lon="1.14555">
        <ele>423.64</ele>
        <time>2024-09-18T11:07:54.000Z</time>
      </trkpt>
      <trkpt lat="42.9828" lon="1.14564">
        <ele>423.6</ele>
        <time>2024-09-18T11:07:59.000Z</time>
      </trkpt>
      <trkpt lat="42.98269" lon="1.14577">
        <ele>423.58</ele>
        <time>2024-09-18T11:08:04.000Z</time>
      </trkpt>
      <trkpt lat="42.98263" lon="1.14586">
        <ele>423.31</ele>
        <time>2024-09-18T11:09:00.000Z</time>
      </trkpt>
      <trkpt lat="42.98254" lon="1.14584">
        <ele>420.75</ele>
        <time>2024-09-18T11:16:31.999Z</time>
      </trkpt>
      <trkpt lat="42.98264" lon="1.14576">
        <ele>417.23</ele>
        <time>2024-09-18T11:43:55.999Z</time>
      </trkpt>
      <trkpt lat="42.98279" lon="1.14569">
        <ele>417.25</ele>
        <time>2024-09-18T11:44:00.999Z</time>
      </trkpt>
      <trkpt lat="42.98294" lon="1.14556">
        <ele>417.27</ele>
        <time>2024-09-18T11:44:05.999Z</time>
      </trkpt>
      <trkpt lat="42.98308" lon="1.14543">
        <ele>417.29</ele>
        <time>2024-09-18T11:44:10.999Z</time>
      </trkpt>
      <trkpt lat="42.98322" lon="1.14533">
        <ele>417.3</ele>
        <time>2024-09-18T11:44:15.999Z</time>
      </trkpt>
      <trkpt lat="42.98337" lon="1.14522">
        <ele>417.31</ele>
        <time>2024-09-18T11:44:20.999Z</time>
      </trkpt>
      <trkpt lat="42.98348" lon="1.1451">
        <ele>417.32</ele>
        <time>2024-09-18T11:44:25.999Z</time>
      </trkpt>
      <trkpt lat="42.9836" lon="1.14511">
        <ele>417.32</ele>
        <time>2024-09-18T11:44:30.999Z</time>
      </trkpt>
      <trkpt lat="42.98369" lon="1.14506">
        <ele>417.31</ele>
        <time>2024-09-18T11:44:35.999Z</time>
      </trkpt>
      <trkpt lat="42.98378" lon="1.14512">
        <ele>417.28</ele>
        <time>2024-09-18T11:44:41.999Z</time>
      </trkpt>
      <trkpt lat="42.98386" lon="1.14518">
        <ele>417.26</ele>
        <time>2024-09-18T11:44:47.999Z</time>
      </trkpt>
      <trkpt lat="42.98396" lon="1.14516">
        <ele>417.24</ele>
        <time>2024-09-18T11:44:53.999Z</time>
      </trkpt>
      <trkpt lat="42.98396" lon="1.14504">
        <ele>417.21</ele>
        <time>2024-09-18T11:47:52.000Z</time>
      </trkpt>
      <trkpt lat="42.98405" lon="1.14498">
        <ele>416.68</ele>
        <time>2024-09-18T12:05:08.999Z</time>
      </trkpt>
      <trkpt lat="42.984" lon="1.14509">
        <ele>416.75</ele>
        <time>2024-09-18T12:06:25.999Z</time>
      </trkpt>
      <trkpt lat="42.98397" lon="1.14521">
        <ele>416.78</ele>
        <time>2024-09-18T12:06:45.999Z</time>
      </trkpt>
      <trkpt lat="42.98405" lon="1.14536">
        <ele>416.8</ele>
        <time>2024-09-18T12:06:50.999Z</time>
      </trkpt>
      <trkpt lat="42.98412" lon="1.14546">
        <ele>416.82</ele>
        <time>2024-09-18T12:06:55.999Z</time>
      </trkpt>
      <trkpt lat="42.98419" lon="1.14556">
        <ele>416.84</ele>
        <time>2024-09-18T12:07:00.999Z</time>
      </trkpt>
      <trkpt lat="42.98428" lon="1.14564">
        <ele>416.87</ele>
        <time>2024-09-18T12:07:07.999Z</time>
      </trkpt>
      <trkpt lat="42.98438" lon="1.14566">
        <ele>416.89</ele>
        <time>2024-09-18T12:07:12.999Z</time>
      </trkpt>
      <trkpt lat="42.98447" lon="1.14563">
        <ele>416.93</ele>
        <time>2024-09-18T12:07:29.999Z</time>
      </trkpt>
      <trkpt lat="42.98456" lon="1.14559">
        <ele>417.08</ele>
        <time>2024-09-18T12:09:02.999Z</time>
      </trkpt>
      <trkpt lat="42.98464" lon="1.14551">
        <ele>417.15</ele>
        <time>2024-09-18T12:09:10.999Z</time>
      </trkpt>
      <trkpt lat="42.98469" lon="1.14539">
        <ele>417.27</ele>
        <time>2024-09-18T12:09:42.999Z</time>
      </trkpt>
      <trkpt lat="42.98475" lon="1.14523">
        <ele>417.29</ele>
        <time>2024-09-18T12:09:47.999Z</time>
      </trkpt>
      <trkpt lat="42.98484" lon="1.14503">
        <ele>417.35</ele>
        <time>2024-09-18T12:09:52.999Z</time>
      </trkpt>
      <trkpt lat="42.98491" lon="1.14492">
        <ele>417.36</ele>
        <time>2024-09-18T12:09:57.999Z</time>
      </trkpt>
      <trkpt lat="42.98497" lon="1.14482">
        <ele>417.38</ele>
        <time>2024-09-18T12:10:02.999Z</time>
      </trkpt>
      <trkpt lat="42.98507" lon="1.14468">
        <ele>417.39</ele>
        <time>2024-09-18T12:10:07.999Z</time>
      </trkpt>
      <trkpt lat="42.98514" lon="1.14448">
        <ele>417.4</ele>
        <time>2024-09-18T12:10:12.999Z</time>
      </trkpt>
      <trkpt lat="42.98507" lon="1.14427">
        <ele>417.4</ele>
        <time>2024-09-18T12:10:17.999Z</time>
      </trkpt>
      <trkpt lat="42.98501" lon="1.14411">
        <ele>417.4</ele>
        <time>2024-09-18T12:10:22.999Z</time>
      </trkpt>
      <trkpt lat="42.98495" lon="1.144">
        <ele>417.4</ele>
        <time>2024-09-18T12:10:27.999Z</time>
      </trkpt>
      <trkpt lat="42.98485" lon="1.14383">
        <ele>417.39</ele>
        <time>2024-09-18T12:10:32.999Z</time>
      </trkpt>
      <trkpt lat="42.98474" lon="1.14366">
        <ele>417.38</ele>
        <time>2024-09-18T12:10:37.999Z</time>
      </trkpt>
      <trkpt lat="42.98479" lon="1.14347">
        <ele>417.37</ele>
        <time>2024-09-18T12:10:42.999Z</time>
      </trkpt>
      <trkpt lat="42.98494" lon="1.14334">
        <ele>417.35</ele>
        <time>2024-09-18T12:10:47.999Z</time>
      </trkpt>
      <trkpt lat="42.98509" lon="1.14322">
        <ele>417.34</ele>
        <time>2024-09-18T12:10:52.999Z</time>
      </trkpt>
      <trkpt lat="42.98522" lon="1.14312">
        <ele>417.32</ele>
        <time>2024-09-18T12:10:57.999Z</time>
      </trkpt>
      <trkpt lat="42.98538" lon="1.14302">
        <ele>417.32</ele>
        <time>2024-09-18T12:11:03.000Z</time>
      </trkpt>
      <trkpt lat="42.98556" lon="1.14293">
        <ele>417.31</ele>
        <time>2024-09-18T12:11:08.000Z</time>
      </trkpt>
      <trkpt lat="42.98574" lon="1.14288">
        <ele>417.29</ele>
        <time>2024-09-18T12:11:13.000Z</time>
      </trkpt>
      <trkpt lat="42.98588" lon="1.14281">
        <ele>417.25</ele>
        <time>2024-09-18T12:11:18.000Z</time>
      </trkpt>
      <trkpt lat="42.98596" lon="1.14287">
        <ele>417.2</ele>
        <time>2024-09-18T12:11:23.000Z</time>
      </trkpt>
      <trkpt lat="42.98601" lon="1.14305">
        <ele>417.15</ele>
        <time>2024-09-18T12:11:28.000Z</time>
      </trkpt>
      <trkpt lat="42.98609" lon="1.14324">
        <ele>417.08</ele>
        <time>2024-09-18T12:11:33.000Z</time>
      </trkpt>
      <trkpt lat="42.98617" lon="1.14345">
        <ele>416.96</ele>
        <time>2024-09-18T12:11:38.000Z</time>
      </trkpt>
      <trkpt lat="42.98624" lon="1.14363">
        <ele>416.81</ele>
        <time>2024-09-18T12:11:43.000Z</time>
      </trkpt>
      <trkpt lat="42.9863" lon="1.14383">
        <ele>416.6</ele>
        <time>2024-09-18T12:11:48.000Z</time>
      </trkpt>
      <trkpt lat="42.98636" lon="1.14402">
        <ele>416.38</ele>
        <time>2024-09-18T12:11:53.000Z</time>
      </trkpt>
      <trkpt lat="42.98644" lon="1.14421">
        <ele>416.18</ele>
        <time>2024-09-18T12:11:58.000Z</time>
      </trkpt>
      <trkpt lat="42.98653" lon="1.14444">
        <ele>415.25</ele>
        <time>2024-09-18T12:12:03.000Z</time>
      </trkpt>
      <trkpt lat="42.98665" lon="1.14465">
        <ele>414.99</ele>
        <time>2024-09-18T12:12:08.000Z</time>
      </trkpt>
      <trkpt lat="42.98673" lon="1.14487">
        <ele>414.93</ele>
        <time>2024-09-18T12:12:13.000Z</time>
      </trkpt>
      <trkpt lat="42.98682" lon="1.14505">
        <ele>414.89</ele>
        <time>2024-09-18T12:12:18.000Z</time>
      </trkpt>
      <trkpt lat="42.98688" lon="1.14519">
        <ele>414.84</ele>
        <time>2024-09-18T12:12:23.000Z</time>
      </trkpt>
      <trkpt lat="42.98697" lon="1.14537">
        <ele>414.8</ele>
        <time>2024-09-18T12:12:28.000Z</time>
      </trkpt>
      <trkpt lat="42.98705" lon="1.14553">
        <ele>414.75</ele>
        <time>2024-09-18T12:12:33.000Z</time>
      </trkpt>
      <trkpt lat="42.9871" lon="1.14564">
        <ele>414.64</ele>
        <time>2024-09-18T12:13:04.000Z</time>
      </trkpt>
      <trkpt lat="42.98717" lon="1.14577">
        <ele>414.6</ele>
        <time>2024-09-18T12:13:09.000Z</time>
      </trkpt>
      <trkpt lat="42.98723" lon="1.14594">
        <ele>414.57</ele>
        <time>2024-09-18T12:13:14.000Z</time>
      </trkpt>
      <trkpt lat="42.98732" lon="1.14614">
        <ele>414.52</ele>
        <time>2024-09-18T12:13:19.000Z</time>
      </trkpt>
      <trkpt lat="42.98741" lon="1.14639">
        <ele>414.14</ele>
        <time>2024-09-18T12:13:24.000Z</time>
      </trkpt>
      <trkpt lat="42.98752" lon="1.14664">
        <ele>413.74</ele>
        <time>2024-09-18T12:13:29.000Z</time>
      </trkpt>
      <trkpt lat="42.98764" lon="1.14689">
        <ele>413.5</ele>
        <time>2024-09-18T12:13:34.000Z</time>
      </trkpt>
      <trkpt lat="42.98776" lon="1.14713">
        <ele>413.37</ele>
        <time>2024-09-18T12:13:39.000Z</time>
      </trkpt>
      <trkpt lat="42.98786" lon="1.14736">
        <ele>413.37</ele>
        <time>2024-09-18T12:13:44.000Z</time>
      </trkpt>
      <trkpt lat="42.98795" lon="1.14757">
        <ele>413.38</ele>
        <time>2024-09-18T12:13:49.000Z</time>
      </trkpt>
      <trkpt lat="42.98803" lon="1.14777">
        <ele>413.37</ele>
        <time>2024-09-18T12:13:54.000Z</time>
      </trkpt>
      <trkpt lat="42.98811" lon="1.14795">
        <ele>413.37</ele>
        <time>2024-09-18T12:13:59.000Z</time>
      </trkpt>
      <trkpt lat="42.98819" lon="1.14812">
        <ele>413.36</ele>
        <time>2024-09-18T12:14:04.000Z</time>
      </trkpt>
      <trkpt lat="42.98825" lon="1.14828">
        <ele>413.35</ele>
        <time>2024-09-18T12:14:09.000Z</time>
      </trkpt>
      <trkpt lat="42.98833" lon="1.14843">
        <ele>413.33</ele>
        <time>2024-09-18T12:14:14.000Z</time>
      </trkpt>
      <trkpt lat="42.9884" lon="1.14859">
        <ele>413.31</ele>
        <time>2024-09-18T12:14:19.000Z</time>
      </trkpt>
      <trkpt lat="42.98849" lon="1.14876">
        <ele>413.29</ele>
        <time>2024-09-18T12:14:24.000Z</time>
      </trkpt>
      <trkpt lat="42.98856" lon="1.14892">
        <ele>413.28</ele>
        <time>2024-09-18T12:14:29.000Z</time>
      </trkpt>
      <trkpt lat="42.98863" lon="1.14908">
        <ele>413.26</ele>
        <time>2024-09-18T12:14:34.000Z</time>
      </trkpt>
      <trkpt lat="42.98871" lon="1.14924">
        <ele>413.24</ele>
        <time>2024-09-18T12:14:39.000Z</time>
      </trkpt>
      <trkpt lat="42.98878" lon="1.14941">
        <ele>413.23</ele>
        <time>2024-09-18T12:14:44.000Z</time>
      </trkpt>
      <trkpt lat="42.98886" lon="1.14959">
        <ele>413.22</ele>
        <time>2024-09-18T12:14:49.000Z</time>
      </trkpt>
      <trkpt lat="42.98895" lon="1.14978">
        <ele>413.22</ele>
        <time>2024-09-18T12:14:54.000Z</time>
      </trkpt>
      <trkpt lat="42.98903" lon="1.14997">
        <ele>413.21</ele>
        <time>2024-09-18T12:14:59.000Z</time>
      </trkpt>
      <trkpt lat="42.98912" lon="1.15018">
        <ele>413.16</ele>
        <time>2024-09-18T12:15:04.000Z</time>
      </trkpt>
      <trkpt lat="42.98924" lon="1.15041">
        <ele>413.09</ele>
        <time>2024-09-18T12:15:09.000Z</time>
      </trkpt>
      <trkpt lat="42.98935" lon="1.15066">
        <ele>413.04</ele>
        <time>2024-09-18T12:15:14.000Z</time>
      </trkpt>
      <trkpt lat="42.98948" lon="1.15095">
        <ele>412.98</ele>
        <time>2024-09-18T12:15:19.000Z</time>
      </trkpt>
      <trkpt lat="42.98961" lon="1.15122">
        <ele>412.95</ele>
        <time>2024-09-18T12:15:24.000Z</time>
      </trkpt>
      <trkpt lat="42.98975" lon="1.1515">
        <ele>412.85</ele>
        <time>2024-09-18T12:15:29.000Z</time>
      </trkpt>
      <trkpt lat="42.98988" lon="1.15178">
        <ele>412.73</ele>
        <time>2024-09-18T12:15:34.000Z</time>
      </trkpt>
      <trkpt lat="42.98999" lon="1.152">
        <ele>412.7</ele>
        <time>2024-09-18T12:15:39.000Z</time>
      </trkpt>
      <trkpt lat="42.99007" lon="1.1522">
        <ele>412.68</ele>
        <time>2024-09-18T12:15:44.000Z</time>
      </trkpt>
      <trkpt lat="42.99018" lon="1.15244">
        <ele>412.67</ele>
        <time>2024-09-18T12:15:49.000Z</time>
      </trkpt>
      <trkpt lat="42.99028" lon="1.15264">
        <ele>412.65</ele>
        <time>2024-09-18T12:15:54.000Z</time>
      </trkpt>
      <trkpt lat="42.99039" lon="1.15285">
        <ele>412.62</ele>
        <time>2024-09-18T12:15:59.000Z</time>
      </trkpt>
      <trkpt lat="42.99046" lon="1.15301">
        <ele>412.59</ele>
        <time>2024-09-18T12:16:04.000Z</time>
      </trkpt>
      <trkpt lat="42.99063" lon="1.15326">
        <ele>412.55</ele>
        <time>2024-09-18T12:16:09.000Z</time>
      </trkpt>
      <trkpt lat="42.99085" lon="1.15352">
        <ele>412.41</ele>
        <time>2024-09-18T12:16:14.000Z</time>
      </trkpt>
      <trkpt lat="42.99101" lon="1.15374">
        <ele>412.3</ele>
        <time>2024-09-18T12:16:19.000Z</time>
      </trkpt>
      <trkpt lat="42.99115" lon="1.15392">
        <ele>412.22</ele>
        <time>2024-09-18T12:16:24.000Z</time>
      </trkpt>
      <trkpt lat="42.99131" lon="1.15414">
        <ele>412.13</ele>
        <time>2024-09-18T12:16:29.000Z</time>
      </trkpt>
      <trkpt lat="42.99148" lon="1.15432">
        <ele>412.11</ele>
        <time>2024-09-18T12:16:34.000Z</time>
      </trkpt>
      <trkpt lat="42.99161" lon="1.15449">
        <ele>412.1</ele>
        <time>2024-09-18T12:16:39.000Z</time>
      </trkpt>
      <trkpt lat="42.99173" lon="1.15465">
        <ele>412.08</ele>
        <time>2024-09-18T12:16:44.000Z</time>
      </trkpt>
      <trkpt lat="42.99185" lon="1.1548">
        <ele>412.07</ele>
        <time>2024-09-18T12:16:49.000Z</time>
      </trkpt>
      <trkpt lat="42.99192" lon="1.155">
        <ele>412.06</ele>
        <time>2024-09-18T12:16:54.000Z</time>
      </trkpt>
      <trkpt lat="42.9919" lon="1.15513">
        <ele>411.98</ele>
        <time>2024-09-18T12:17:20.000Z</time>
      </trkpt>
      <trkpt lat="42.99188" lon="1.15525">
        <ele>411.91</ele>
        <time>2024-09-18T12:17:25.000Z</time>
      </trkpt>
      <trkpt lat="42.99185" lon="1.15537">
        <ele>411.82</ele>
        <time>2024-09-18T12:17:35.000Z</time>
      </trkpt>
      <trkpt lat="42.99193" lon="1.15562">
        <ele>411.45</ele>
        <time>2024-09-18T12:17:40.000Z</time>
      </trkpt>
      <trkpt lat="42.99206" lon="1.15589">
        <ele>411.1</ele>
        <time>2024-09-18T12:17:45.000Z</time>
      </trkpt>
      <trkpt lat="42.9922" lon="1.15615">
        <ele>410.9</ele>
        <time>2024-09-18T12:17:50.000Z</time>
      </trkpt>
      <trkpt lat="42.99226" lon="1.1564">
        <ele>410.77</ele>
        <time>2024-09-18T12:17:55.000Z</time>
      </trkpt>
      <trkpt lat="42.99224" lon="1.15671">
        <ele>410.72</ele>
        <time>2024-09-18T12:18:00.000Z</time>
      </trkpt>
      <trkpt lat="42.99213" lon="1.15706">
        <ele>410.78</ele>
        <time>2024-09-18T12:18:05.000Z</time>
      </trkpt>
      <trkpt lat="42.99196" lon="1.15732">
        <ele>410.91</ele>
        <time>2024-09-18T12:18:10.000Z</time>
      </trkpt>
      <trkpt lat="42.99181" lon="1.15747">
        <ele>410.96</ele>
        <time>2024-09-18T12:18:15.000Z</time>
      </trkpt>
      <trkpt lat="42.99164" lon="1.15762">
        <ele>410.96</ele>
        <time>2024-09-18T12:18:20.000Z</time>
      </trkpt>
      <trkpt lat="42.99148" lon="1.15775">
        <ele>410.97</ele>
        <time>2024-09-18T12:18:25.000Z</time>
      </trkpt>
      <trkpt lat="42.99133" lon="1.15792">
        <ele>410.98</ele>
        <time>2024-09-18T12:18:30.000Z</time>
      </trkpt>
      <trkpt lat="42.99121" lon="1.15813">
        <ele>410.99</ele>
        <time>2024-09-18T12:18:35.000Z</time>
      </trkpt>
      <trkpt lat="42.99107" lon="1.15837">
        <ele>411.01</ele>
        <time>2024-09-18T12:18:40.000Z</time>
      </trkpt>
      <trkpt lat="42.99095" lon="1.15858">
        <ele>411.05</ele>
        <time>2024-09-18T12:18:45.000Z</time>
      </trkpt>
      <trkpt lat="42.99081" lon="1.15881">
        <ele>411.14</ele>
        <time>2024-09-18T12:18:50.000Z</time>
      </trkpt>
      <trkpt lat="42.9907" lon="1.15905">
        <ele>411.22</ele>
        <time>2024-09-18T12:18:55.000Z</time>
      </trkpt>
      <trkpt lat="42.99063" lon="1.15928">
        <ele>411.26</ele>
        <time>2024-09-18T12:19:00.000Z</time>
      </trkpt>
      <trkpt lat="42.99056" lon="1.15943">
        <ele>411.31</ele>
        <time>2024-09-18T12:19:05.000Z</time>
      </trkpt>
      <trkpt lat="42.9905" lon="1.15959">
        <ele>411.38</ele>
        <time>2024-09-18T12:19:10.000Z</time>
      </trkpt>
      <trkpt lat="42.99045" lon="1.15976">
        <ele>411.45</ele>
        <time>2024-09-18T12:19:15.000Z</time>
      </trkpt>
      <trkpt lat="42.99041" lon="1.15997">
        <ele>411.52</ele>
        <time>2024-09-18T12:19:20.000Z</time>
      </trkpt>
      <trkpt lat="42.99035" lon="1.16028">
        <ele>411.59</ele>
        <time>2024-09-18T12:19:25.000Z</time>
      </trkpt>
      <trkpt lat="42.99035" lon="1.16054">
        <ele>411.65</ele>
        <time>2024-09-18T12:19:30.000Z</time>
      </trkpt>
      <trkpt lat="42.99034" lon="1.16075">
        <ele>411.71</ele>
        <time>2024-09-18T12:19:35.000Z</time>
      </trkpt>
      <trkpt lat="42.99034" lon="1.16093">
        <ele>411.77</ele>
        <time>2024-09-18T12:19:40.000Z</time>
      </trkpt>
      <trkpt lat="42.99035" lon="1.16108">
        <ele>411.83</ele>
        <time>2024-09-18T12:19:45.000Z</time>
      </trkpt>
      <trkpt lat="42.99036" lon="1.16127">
        <ele>411.9</ele>
        <time>2024-09-18T12:19:50.000Z</time>
      </trkpt>
      <trkpt lat="42.99038" lon="1.16147">
        <ele>412</ele>
        <time>2024-09-18T12:19:55.000Z</time>
      </trkpt>
      <trkpt lat="42.9904" lon="1.16168">
        <ele>412.1</ele>
        <time>2024-09-18T12:20:00.000Z</time>
      </trkpt>
      <trkpt lat="42.99039" lon="1.16187">
        <ele>412.22</ele>
        <time>2024-09-18T12:20:05.000Z</time>
      </trkpt>
      <trkpt lat="42.99034" lon="1.16203">
        <ele>412.33</ele>
        <time>2024-09-18T12:20:10.000Z</time>
      </trkpt>
      <trkpt lat="42.99028" lon="1.16215">
        <ele>412.45</ele>
        <time>2024-09-18T12:20:15.000Z</time>
      </trkpt>
      <trkpt lat="42.99023" lon="1.16228">
        <ele>412.56</ele>
        <time>2024-09-18T12:20:20.000Z</time>
      </trkpt>
      <trkpt lat="42.99033" lon="1.16237">
        <ele>413.01</ele>
        <time>2024-09-18T12:20:25.000Z</time>
      </trkpt>
      <trkpt lat="42.99065" lon="1.16233">
        <ele>413.62</ele>
        <time>2024-09-18T12:20:30.000Z</time>
      </trkpt>
      <trkpt lat="42.99085" lon="1.16237">
        <ele>413.78</ele>
        <time>2024-09-18T12:20:35.000Z</time>
      </trkpt>
      <trkpt lat="42.99092" lon="1.16258">
        <ele>413.8</ele>
        <time>2024-09-18T12:20:40.000Z</time>
      </trkpt>
      <trkpt lat="42.99097" lon="1.16283">
        <ele>413.82</ele>
        <time>2024-09-18T12:20:45.000Z</time>
      </trkpt>
      <trkpt lat="42.99101" lon="1.16307">
        <ele>413.85</ele>
        <time>2024-09-18T12:20:50.000Z</time>
      </trkpt>
      <trkpt lat="42.99105" lon="1.16333">
        <ele>413.86</ele>
        <time>2024-09-18T12:20:55.000Z</time>
      </trkpt>
      <trkpt lat="42.99111" lon="1.1636">
        <ele>413.85</ele>
        <time>2024-09-18T12:21:00.000Z</time>
      </trkpt>
      <trkpt lat="42.99117" lon="1.16388">
        <ele>413.79</ele>
        <time>2024-09-18T12:21:05.000Z</time>
      </trkpt>
      <trkpt lat="42.99121" lon="1.16417">
        <ele>413.7</ele>
        <time>2024-09-18T12:21:10.000Z</time>
      </trkpt>
      <trkpt lat="42.99135" lon="1.16455">
        <ele>413.47</ele>
        <time>2024-09-18T12:21:15.000Z</time>
      </trkpt>
      <trkpt lat="42.99148" lon="1.16493">
        <ele>413.27</ele>
        <time>2024-09-18T12:21:20.000Z</time>
      </trkpt>
      <trkpt lat="42.99151" lon="1.16526">
        <ele>413.16</ele>
        <time>2024-09-18T12:21:25.000Z</time>
      </trkpt>
      <trkpt lat="42.99156" lon="1.16557">
        <ele>413.05</ele>
        <time>2024-09-18T12:21:30.000Z</time>
      </trkpt>
      <trkpt lat="42.99166" lon="1.16588">
        <ele>413.03</ele>
        <time>2024-09-18T12:21:35.000Z</time>
      </trkpt>
      <trkpt lat="42.99177" lon="1.16615">
        <ele>413.06</ele>
        <time>2024-09-18T12:21:40.000Z</time>
      </trkpt>
      <trkpt lat="42.9919" lon="1.16645">
        <ele>413.1</ele>
        <time>2024-09-18T12:21:45.000Z</time>
      </trkpt>
      <trkpt lat="42.99201" lon="1.16673">
        <ele>413.15</ele>
        <time>2024-09-18T12:21:50.000Z</time>
      </trkpt>
      <trkpt lat="42.99211" lon="1.16699">
        <ele>413.22</ele>
        <time>2024-09-18T12:21:55.000Z</time>
      </trkpt>
      <trkpt lat="42.99225" lon="1.16724">
        <ele>413.29</ele>
        <time>2024-09-18T12:22:00.000Z</time>
      </trkpt>
      <trkpt lat="42.99236" lon="1.16752">
        <ele>413.36</ele>
        <time>2024-09-18T12:22:05.000Z</time>
      </trkpt>
      <trkpt lat="42.99248" lon="1.16778">
        <ele>413.4</ele>
        <time>2024-09-18T12:22:10.000Z</time>
      </trkpt>
      <trkpt lat="42.99255" lon="1.16804">
        <ele>413.44</ele>
        <time>2024-09-18T12:22:15.000Z</time>
      </trkpt>
      <trkpt lat="42.99268" lon="1.1683">
        <ele>413.49</ele>
        <time>2024-09-18T12:22:20.000Z</time>
      </trkpt>
      <trkpt lat="42.99276" lon="1.16855">
        <ele>413.57</ele>
        <time>2024-09-18T12:22:25.000Z</time>
      </trkpt>
      <trkpt lat="42.99279" lon="1.16882">
        <ele>413.69</ele>
        <time>2024-09-18T12:22:30.000Z</time>
      </trkpt>
      <trkpt lat="42.99288" lon="1.16917">
        <ele>413.83</ele>
        <time>2024-09-18T12:22:35.000Z</time>
      </trkpt>
      <trkpt lat="42.99292" lon="1.16954">
        <ele>413.94</ele>
        <time>2024-09-18T12:22:40.000Z</time>
      </trkpt>
      <trkpt lat="42.99293" lon="1.16986">
        <ele>414.02</ele>
        <time>2024-09-18T12:22:45.000Z</time>
      </trkpt>
      <trkpt lat="42.99293" lon="1.17015">
        <ele>414.08</ele>
        <time>2024-09-18T12:22:50.000Z</time>
      </trkpt>
      <trkpt lat="42.99291" lon="1.17047">
        <ele>414.15</ele>
        <time>2024-09-18T12:22:55.000Z</time>
      </trkpt>
      <trkpt lat="42.99288" lon="1.17072">
        <ele>414.24</ele>
        <time>2024-09-18T12:23:00.000Z</time>
      </trkpt>
      <trkpt lat="42.99287" lon="1.17085">
        <ele>414.4</ele>
        <time>2024-09-18T12:23:17.999Z</time>
      </trkpt>
      <trkpt lat="42.99289" lon="1.17097">
        <ele>414.51</ele>
        <time>2024-09-18T12:24:57.999Z</time>
      </trkpt>
      <trkpt lat="42.99289" lon="1.17115">
        <ele>414.59</ele>
        <time>2024-09-18T12:25:02.999Z</time>
      </trkpt>
      <trkpt lat="42.99288" lon="1.17139">
        <ele>414.69</ele>
        <time>2024-09-18T12:25:07.999Z</time>
      </trkpt>
      <trkpt lat="42.99287" lon="1.17163">
        <ele>414.8</ele>
        <time>2024-09-18T12:25:12.999Z</time>
      </trkpt>
      <trkpt lat="42.99286" lon="1.17193">
        <ele>414.91</ele>
        <time>2024-09-18T12:25:17.999Z</time>
      </trkpt>
      <trkpt lat="42.99286" lon="1.17225">
        <ele>415.05</ele>
        <time>2024-09-18T12:25:22.999Z</time>
      </trkpt>
      <trkpt lat="42.99286" lon="1.17251">
        <ele>415.21</ele>
        <time>2024-09-18T12:25:27.999Z</time>
      </trkpt>
      <trkpt lat="42.99288" lon="1.17279">
        <ele>415.44</ele>
        <time>2024-09-18T12:25:32.999Z</time>
      </trkpt>
      <trkpt lat="42.99291" lon="1.17306">
        <ele>417.56</ele>
        <time>2024-09-18T12:25:37.999Z</time>
      </trkpt>
      <trkpt lat="42.99293" lon="1.17335">
        <ele>419.17</ele>
        <time>2024-09-18T12:25:42.999Z</time>
      </trkpt>
      <trkpt lat="42.99294" lon="1.17363">
        <ele>420.1</ele>
        <time>2024-09-18T12:25:47.999Z</time>
      </trkpt>
      <trkpt lat="42.99297" lon="1.17394">
        <ele>420.52</ele>
        <time>2024-09-18T12:25:52.999Z</time>
      </trkpt>
      <trkpt lat="42.99301" lon="1.17428">
        <ele>420.73</ele>
        <time>2024-09-18T12:25:57.999Z</time>
      </trkpt>
      <trkpt lat="42.99304" lon="1.17464">
        <ele>420.88</ele>
        <time>2024-09-18T12:26:02.999Z</time>
      </trkpt>
      <trkpt lat="42.99307" lon="1.175">
        <ele>420.97</ele>
        <time>2024-09-18T12:26:07.999Z</time>
      </trkpt>
      <trkpt lat="42.9931" lon="1.17537">
        <ele>421.11</ele>
        <time>2024-09-18T12:26:12.999Z</time>
      </trkpt>
      <trkpt lat="42.99313" lon="1.17579">
        <ele>421.22</ele>
        <time>2024-09-18T12:26:17.999Z</time>
      </trkpt>
      <trkpt lat="42.99317" lon="1.17614">
        <ele>421.28</ele>
        <time>2024-09-18T12:26:22.999Z</time>
      </trkpt>
      <trkpt lat="42.9932" lon="1.17644">
        <ele>421.4</ele>
        <time>2024-09-18T12:26:27.999Z</time>
      </trkpt>
      <trkpt lat="42.99324" lon="1.17678">
        <ele>421.46</ele>
        <time>2024-09-18T12:26:32.999Z</time>
      </trkpt>
      <trkpt lat="42.99328" lon="1.17716">
        <ele>421.48</ele>
        <time>2024-09-18T12:26:37.999Z</time>
      </trkpt>
      <trkpt lat="42.99332" lon="1.1775">
        <ele>421.54</ele>
        <time>2024-09-18T12:26:42.999Z</time>
      </trkpt>
      <trkpt lat="42.99334" lon="1.17783">
        <ele>421.63</ele>
        <time>2024-09-18T12:26:47.999Z</time>
      </trkpt>
      <trkpt lat="42.99337" lon="1.17816">
        <ele>421.73</ele>
        <time>2024-09-18T12:26:52.999Z</time>
      </trkpt>
      <trkpt lat="42.9934" lon="1.17847">
        <ele>421.83</ele>
        <time>2024-09-18T12:26:57.999Z</time>
      </trkpt>
      <trkpt lat="42.99343" lon="1.17878">
        <ele>421.93</ele>
        <time>2024-09-18T12:27:02.999Z</time>
      </trkpt>
      <trkpt lat="42.99347" lon="1.17905">
        <ele>421.96</ele>
        <time>2024-09-18T12:27:07.999Z</time>
      </trkpt>
      <trkpt lat="42.99349" lon="1.17928">
        <ele>421.97</ele>
        <time>2024-09-18T12:27:12.999Z</time>
      </trkpt>
      <trkpt lat="42.99352" lon="1.1795">
        <ele>421.99</ele>
        <time>2024-09-18T12:27:17.999Z</time>
      </trkpt>
      <trkpt lat="42.99355" lon="1.17978">
        <ele>422.05</ele>
        <time>2024-09-18T12:27:22.999Z</time>
      </trkpt>
      <trkpt lat="42.99356" lon="1.18005">
        <ele>422.15</ele>
        <time>2024-09-18T12:27:27.999Z</time>
      </trkpt>
      <trkpt lat="42.99359" lon="1.18037">
        <ele>422.22</ele>
        <time>2024-09-18T12:27:32.999Z</time>
      </trkpt>
      <trkpt lat="42.99362" lon="1.18069">
        <ele>422.35</ele>
        <time>2024-09-18T12:27:37.999Z</time>
      </trkpt>
      <trkpt lat="42.99364" lon="1.18097">
        <ele>422.47</ele>
        <time>2024-09-18T12:27:42.999Z</time>
      </trkpt>
      <trkpt lat="42.99366" lon="1.18128">
        <ele>422.59</ele>
        <time>2024-09-18T12:27:47.999Z</time>
      </trkpt>
      <trkpt lat="42.99367" lon="1.18162">
        <ele>422.69</ele>
        <time>2024-09-18T12:27:52.999Z</time>
      </trkpt>
      <trkpt lat="42.99369" lon="1.18196">
        <ele>422.79</ele>
        <time>2024-09-18T12:27:57.999Z</time>
      </trkpt>
      <trkpt lat="42.9937" lon="1.18223">
        <ele>422.85</ele>
        <time>2024-09-18T12:28:02.999Z</time>
      </trkpt>
      <trkpt lat="42.99371" lon="1.18246">
        <ele>422.88</ele>
        <time>2024-09-18T12:28:07.999Z</time>
      </trkpt>
      <trkpt lat="42.99372" lon="1.18264">
        <ele>422.91</ele>
        <time>2024-09-18T12:28:12.999Z</time>
      </trkpt>
      <trkpt lat="42.99371" lon="1.18289">
        <ele>423</ele>
        <time>2024-09-18T12:28:17.999Z</time>
      </trkpt>
      <trkpt lat="42.99372" lon="1.18318">
        <ele>423.16</ele>
        <time>2024-09-18T12:28:22.999Z</time>
      </trkpt>
      <trkpt lat="42.99371" lon="1.18344">
        <ele>423.18</ele>
        <time>2024-09-18T12:28:27.999Z</time>
      </trkpt>
      <trkpt lat="42.99372" lon="1.18372">
        <ele>423.24</ele>
        <time>2024-09-18T12:28:32.999Z</time>
      </trkpt>
      <trkpt lat="42.99375" lon="1.18402">
        <ele>423.27</ele>
        <time>2024-09-18T12:28:37.999Z</time>
      </trkpt>
      <trkpt lat="42.99379" lon="1.18431">
        <ele>423.32</ele>
        <time>2024-09-18T12:28:42.999Z</time>
      </trkpt>
      <trkpt lat="42.99382" lon="1.18462">
        <ele>423.35</ele>
        <time>2024-09-18T12:28:47.999Z</time>
      </trkpt>
      <trkpt lat="42.99389" lon="1.18492">
        <ele>423.38</ele>
        <time>2024-09-18T12:28:52.999Z</time>
      </trkpt>
      <trkpt lat="42.99396" lon="1.1852">
        <ele>423.47</ele>
        <time>2024-09-18T12:28:57.999Z</time>
      </trkpt>
      <trkpt lat="42.99404" lon="1.18545">
        <ele>423.5</ele>
        <time>2024-09-18T12:29:02.999Z</time>
      </trkpt>
      <trkpt lat="42.99413" lon="1.18573">
        <ele>423.63</ele>
        <time>2024-09-18T12:29:07.999Z</time>
      </trkpt>
      <trkpt lat="42.9942" lon="1.18601">
        <ele>423.66</ele>
        <time>2024-09-18T12:29:12.999Z</time>
      </trkpt>
      <trkpt lat="42.99428" lon="1.18631">
        <ele>423.68</ele>
        <time>2024-09-18T12:29:17.999Z</time>
      </trkpt>
      <trkpt lat="42.99443" lon="1.18657">
        <ele>423.72</ele>
        <time>2024-09-18T12:29:22.999Z</time>
      </trkpt>
      <trkpt lat="42.99452" lon="1.18684">
        <ele>423.79</ele>
        <time>2024-09-18T12:29:27.999Z</time>
      </trkpt>
      <trkpt lat="42.99458" lon="1.18719">
        <ele>423.88</ele>
        <time>2024-09-18T12:29:32.999Z</time>
      </trkpt>
      <trkpt lat="42.99467" lon="1.18753">
        <ele>423.96</ele>
        <time>2024-09-18T12:29:37.999Z</time>
      </trkpt>
      <trkpt lat="42.9947" lon="1.18785">
        <ele>424.15</ele>
        <time>2024-09-18T12:29:42.999Z</time>
      </trkpt>
      <trkpt lat="42.99472" lon="1.18816">
        <ele>424.49</ele>
        <time>2024-09-18T12:29:47.999Z</time>
      </trkpt>
      <trkpt lat="42.99469" lon="1.18846">
        <ele>424.61</ele>
        <time>2024-09-18T12:29:52.999Z</time>
      </trkpt>
      <trkpt lat="42.99468" lon="1.18874">
        <ele>424.73</ele>
        <time>2024-09-18T12:29:57.999Z</time>
      </trkpt>
      <trkpt lat="42.99464" lon="1.18904">
        <ele>424.93</ele>
        <time>2024-09-18T12:30:02.999Z</time>
      </trkpt>
      <trkpt lat="42.99455" lon="1.18935">
        <ele>425.1</ele>
        <time>2024-09-18T12:30:07.999Z</time>
      </trkpt>
      <trkpt lat="42.99448" lon="1.18959">
        <ele>425.24</ele>
        <time>2024-09-18T12:30:12.999Z</time>
      </trkpt>
      <trkpt lat="42.99429" lon="1.19004">
        <ele>425.71</ele>
        <time>2024-09-18T12:30:17.999Z</time>
      </trkpt>
      <trkpt lat="42.99414" lon="1.1904">
        <ele>426</ele>
        <time>2024-09-18T12:30:22.999Z</time>
      </trkpt>
      <trkpt lat="42.99403" lon="1.19068">
        <ele>426.2</ele>
        <time>2024-09-18T12:30:27.999Z</time>
      </trkpt>
      <trkpt lat="42.99392" lon="1.19099">
        <ele>426.39</ele>
        <time>2024-09-18T12:30:32.999Z</time>
      </trkpt>
      <trkpt lat="42.99383" lon="1.19127">
        <ele>426.48</ele>
        <time>2024-09-18T12:30:37.999Z</time>
      </trkpt>
      <trkpt lat="42.99376" lon="1.19151">
        <ele>426.53</ele>
        <time>2024-09-18T12:30:42.999Z</time>
      </trkpt>
      <trkpt lat="42.9937" lon="1.19172">
        <ele>426.57</ele>
        <time>2024-09-18T12:30:47.999Z</time>
      </trkpt>
      <trkpt lat="42.9936" lon="1.1921">
        <ele>426.64</ele>
        <time>2024-09-18T12:30:52.999Z</time>
      </trkpt>
      <trkpt lat="42.99356" lon="1.19241">
        <ele>426.71</ele>
        <time>2024-09-18T12:30:57.999Z</time>
      </trkpt>
      <trkpt lat="42.99356" lon="1.19274">
        <ele>427.07</ele>
        <time>2024-09-18T12:31:02.999Z</time>
      </trkpt>
      <trkpt lat="42.99357" lon="1.19304">
        <ele>427.2</ele>
        <time>2024-09-18T12:31:07.999Z</time>
      </trkpt>
      <trkpt lat="42.99359" lon="1.19331">
        <ele>427.25</ele>
        <time>2024-09-18T12:31:12.999Z</time>
      </trkpt>
      <trkpt lat="42.99362" lon="1.19359">
        <ele>427.3</ele>
        <time>2024-09-18T12:31:17.999Z</time>
      </trkpt>
      <trkpt lat="42.99368" lon="1.19386">
        <ele>427.44</ele>
        <time>2024-09-18T12:31:22.999Z</time>
      </trkpt>
      <trkpt lat="42.99376" lon="1.19415">
        <ele>427.86</ele>
        <time>2024-09-18T12:31:27.999Z</time>
      </trkpt>
      <trkpt lat="42.99384" lon="1.19445">
        <ele>428.13</ele>
        <time>2024-09-18T12:31:32.999Z</time>
      </trkpt>
      <trkpt lat="42.9939" lon="1.19471">
        <ele>428.16</ele>
        <time>2024-09-18T12:31:37.999Z</time>
      </trkpt>
      <trkpt lat="42.99396" lon="1.19494">
        <ele>428.19</ele>
        <time>2024-09-18T12:31:42.999Z</time>
      </trkpt>
      <trkpt lat="42.99402" lon="1.19517">
        <ele>428.31</ele>
        <time>2024-09-18T12:31:47.999Z</time>
      </trkpt>
      <trkpt lat="42.99408" lon="1.19542">
        <ele>428.43</ele>
        <time>2024-09-18T12:31:52.999Z</time>
      </trkpt>
      <trkpt lat="42.99413" lon="1.19565">
        <ele>428.45</ele>
        <time>2024-09-18T12:31:57.999Z</time>
      </trkpt>
      <trkpt lat="42.99419" lon="1.19589">
        <ele>428.47</ele>
        <time>2024-09-18T12:32:02.999Z</time>
      </trkpt>
      <trkpt lat="42.99422" lon="1.19612">
        <ele>428.49</ele>
        <time>2024-09-18T12:32:07.999Z</time>
      </trkpt>
      <trkpt lat="42.99423" lon="1.19635">
        <ele>428.51</ele>
        <time>2024-09-18T12:32:12.999Z</time>
      </trkpt>
      <trkpt lat="42.99424" lon="1.1966">
        <ele>428.52</ele>
        <time>2024-09-18T12:32:17.999Z</time>
      </trkpt>
      <trkpt lat="42.99425" lon="1.19686">
        <ele>428.56</ele>
        <time>2024-09-18T12:32:22.999Z</time>
      </trkpt>
      <trkpt lat="42.99429" lon="1.19718">
        <ele>428.58</ele>
        <time>2024-09-18T12:32:27.999Z</time>
      </trkpt>
      <trkpt lat="42.9943" lon="1.19751">
        <ele>428.6</ele>
        <time>2024-09-18T12:32:32.999Z</time>
      </trkpt>
      <trkpt lat="42.99427" lon="1.19784">
        <ele>428.76</ele>
        <time>2024-09-18T12:32:37.999Z</time>
      </trkpt>
      <trkpt lat="42.99422" lon="1.19811">
        <ele>428.81</ele>
        <time>2024-09-18T12:32:42.999Z</time>
      </trkpt>
      <trkpt lat="42.99418" lon="1.19835">
        <ele>428.87</ele>
        <time>2024-09-18T12:32:47.999Z</time>
      </trkpt>
      <trkpt lat="42.99413" lon="1.19858">
        <ele>428.94</ele>
        <time>2024-09-18T12:32:52.999Z</time>
      </trkpt>
      <trkpt lat="42.994" lon="1.19889">
        <ele>429.03</ele>
        <time>2024-09-18T12:32:57.999Z</time>
      </trkpt>
      <trkpt lat="42.99392" lon="1.19915">
        <ele>429.29</ele>
        <time>2024-09-18T12:33:02.999Z</time>
      </trkpt>
      <trkpt lat="42.99382" lon="1.19943">
        <ele>429.44</ele>
        <time>2024-09-18T12:33:07.999Z</time>
      </trkpt>
      <trkpt lat="42.99371" lon="1.19971">
        <ele>429.58</ele>
        <time>2024-09-18T12:33:12.999Z</time>
      </trkpt>
      <trkpt lat="42.99361" lon="1.19993">
        <ele>429.72</ele>
        <time>2024-09-18T12:33:17.999Z</time>
      </trkpt>
      <trkpt lat="42.99347" lon="1.20021">
        <ele>430.63</ele>
        <time>2024-09-18T12:33:22.999Z</time>
      </trkpt>
      <trkpt lat="42.99334" lon="1.20048">
        <ele>431.09</ele>
        <time>2024-09-18T12:33:27.999Z</time>
      </trkpt>
      <trkpt lat="42.99323" lon="1.20073">
        <ele>431.25</ele>
        <time>2024-09-18T12:33:32.999Z</time>
      </trkpt>
      <trkpt lat="42.99311" lon="1.20099">
        <ele>431.75</ele>
        <time>2024-09-18T12:33:37.999Z</time>
      </trkpt>
      <trkpt lat="42.99299" lon="1.20126">
        <ele>432.03</ele>
        <time>2024-09-18T12:33:42.999Z</time>
      </trkpt>
      <trkpt lat="42.99289" lon="1.20155">
        <ele>432.25</ele>
        <time>2024-09-18T12:33:47.999Z</time>
      </trkpt>
      <trkpt lat="42.99281" lon="1.20185">
        <ele>432.45</ele>
        <time>2024-09-18T12:33:52.999Z</time>
      </trkpt>
      <trkpt lat="42.99274" lon="1.20214">
        <ele>432.65</ele>
        <time>2024-09-18T12:33:57.999Z</time>
      </trkpt>
      <trkpt lat="42.9927" lon="1.20242">
        <ele>432.82</ele>
        <time>2024-09-18T12:34:02.999Z</time>
      </trkpt>
      <trkpt lat="42.99266" lon="1.20272">
        <ele>432.94</ele>
        <time>2024-09-18T12:34:07.999Z</time>
      </trkpt>
      <trkpt lat="42.99262" lon="1.20303">
        <ele>433</ele>
        <time>2024-09-18T12:34:12.999Z</time>
      </trkpt>
      <trkpt lat="42.99258" lon="1.20332">
        <ele>433.05</ele>
        <time>2024-09-18T12:34:17.999Z</time>
      </trkpt>
      <trkpt lat="42.99255" lon="1.20362">
        <ele>433.08</ele>
        <time>2024-09-18T12:34:22.999Z</time>
      </trkpt>
      <trkpt lat="42.99252" lon="1.20393">
        <ele>433.09</ele>
        <time>2024-09-18T12:34:27.999Z</time>
      </trkpt>
      <trkpt lat="42.99249" lon="1.20423">
        <ele>433.09</ele>
        <time>2024-09-18T12:34:32.999Z</time>
      </trkpt>
      <trkpt lat="42.99246" lon="1.20448">
        <ele>433.1</ele>
        <time>2024-09-18T12:34:37.999Z</time>
      </trkpt>
      <trkpt lat="42.99244" lon="1.20469">
        <ele>433.09</ele>
        <time>2024-09-18T12:34:42.999Z</time>
      </trkpt>
      <trkpt lat="42.99241" lon="1.20488">
        <ele>433.09</ele>
        <time>2024-09-18T12:34:47.999Z</time>
      </trkpt>
      <trkpt lat="42.99241" lon="1.20501">
        <ele>433.05</ele>
        <time>2024-09-18T12:35:24.000Z</time>
      </trkpt>
      <trkpt lat="42.99238" lon="1.20517">
        <ele>433.04</ele>
        <time>2024-09-18T12:35:29.000Z</time>
      </trkpt>
      <trkpt lat="42.99236" lon="1.2053">
        <ele>433.04</ele>
        <time>2024-09-18T12:35:34.000Z</time>
      </trkpt>
      <trkpt lat="42.99235" lon="1.20542">
        <ele>433.02</ele>
        <time>2024-09-18T12:35:52.000Z</time>
      </trkpt>
      <trkpt lat="42.99232" lon="1.20566">
        <ele>433.01</ele>
        <time>2024-09-18T12:35:57.000Z</time>
      </trkpt>
      <trkpt lat="42.99229" lon="1.20594">
        <ele>432.98</ele>
        <time>2024-09-18T12:36:02.000Z</time>
      </trkpt>
      <trkpt lat="42.99225" lon="1.20621">
        <ele>432.96</ele>
        <time>2024-09-18T12:36:07.000Z</time>
      </trkpt>
      <trkpt lat="42.9922" lon="1.20649">
        <ele>432.94</ele>
        <time>2024-09-18T12:36:12.000Z</time>
      </trkpt>
      <trkpt lat="42.99217" lon="1.20676">
        <ele>432.92</ele>
        <time>2024-09-18T12:36:17.000Z</time>
      </trkpt>
      <trkpt lat="42.99212" lon="1.20704">
        <ele>432.89</ele>
        <time>2024-09-18T12:36:22.000Z</time>
      </trkpt>
      <trkpt lat="42.99206" lon="1.20732">
        <ele>432.83</ele>
        <time>2024-09-18T12:36:27.000Z</time>
      </trkpt>
      <trkpt lat="42.99203" lon="1.20762">
        <ele>432.76</ele>
        <time>2024-09-18T12:36:32.000Z</time>
      </trkpt>
      <trkpt lat="42.992" lon="1.20793">
        <ele>432.68</ele>
        <time>2024-09-18T12:36:37.000Z</time>
      </trkpt>
      <trkpt lat="42.99195" lon="1.20823">
        <ele>432.62</ele>
        <time>2024-09-18T12:36:42.000Z</time>
      </trkpt>
      <trkpt lat="42.99188" lon="1.20852">
        <ele>432.52</ele>
        <time>2024-09-18T12:36:47.000Z</time>
      </trkpt>
      <trkpt lat="42.99186" lon="1.20883">
        <ele>432.39</ele>
        <time>2024-09-18T12:36:52.000Z</time>
      </trkpt>
      <trkpt lat="42.99182" lon="1.20912">
        <ele>432.26</ele>
        <time>2024-09-18T12:36:57.000Z</time>
      </trkpt>
      <trkpt lat="42.99178" lon="1.20941">
        <ele>432.12</ele>
        <time>2024-09-18T12:37:02.000Z</time>
      </trkpt>
      <trkpt lat="42.99176" lon="1.20973">
        <ele>431.96</ele>
        <time>2024-09-18T12:37:07.000Z</time>
      </trkpt>
      <trkpt lat="42.99175" lon="1.21004">
        <ele>431.81</ele>
        <time>2024-09-18T12:37:12.000Z</time>
      </trkpt>
      <trkpt lat="42.99174" lon="1.21035">
        <ele>431.65</ele>
        <time>2024-09-18T12:37:17.000Z</time>
      </trkpt>
      <trkpt lat="42.99174" lon="1.21067">
        <ele>431.52</ele>
        <time>2024-09-18T12:37:22.000Z</time>
      </trkpt>
      <trkpt lat="42.99174" lon="1.21098">
        <ele>431.45</ele>
        <time>2024-09-18T12:37:27.000Z</time>
      </trkpt>
      <trkpt lat="42.99176" lon="1.2113">
        <ele>431.38</ele>
        <time>2024-09-18T12:37:32.000Z</time>
      </trkpt>
      <trkpt lat="42.99178" lon="1.2116">
        <ele>431.35</ele>
        <time>2024-09-18T12:37:37.000Z</time>
      </trkpt>
      <trkpt lat="42.9918" lon="1.21192">
        <ele>431.34</ele>
        <time>2024-09-18T12:37:42.000Z</time>
      </trkpt>
      <trkpt lat="42.99183" lon="1.21224">
        <ele>431.36</ele>
        <time>2024-09-18T12:37:47.000Z</time>
      </trkpt>
      <trkpt lat="42.99186" lon="1.21255">
        <ele>431.39</ele>
        <time>2024-09-18T12:37:52.000Z</time>
      </trkpt>
      <trkpt lat="42.99188" lon="1.21285">
        <ele>431.43</ele>
        <time>2024-09-18T12:37:57.000Z</time>
      </trkpt>
      <trkpt lat="42.99192" lon="1.21313">
        <ele>431.46</ele>
        <time>2024-09-18T12:38:02.000Z</time>
      </trkpt>
      <trkpt lat="42.99192" lon="1.21342">
        <ele>431.47</ele>
        <time>2024-09-18T12:38:07.000Z</time>
      </trkpt>
      <trkpt lat="42.99196" lon="1.21371">
        <ele>431.47</ele>
        <time>2024-09-18T12:38:12.000Z</time>
      </trkpt>
      <trkpt lat="42.99198" lon="1.21401">
        <ele>431.46</ele>
        <time>2024-09-18T12:38:17.000Z</time>
      </trkpt>
      <trkpt lat="42.99202" lon="1.21432">
        <ele>431.42</ele>
        <time>2024-09-18T12:38:22.000Z</time>
      </trkpt>
      <trkpt lat="42.99203" lon="1.21464">
        <ele>431.38</ele>
        <time>2024-09-18T12:38:27.000Z</time>
      </trkpt>
      <trkpt lat="42.99205" lon="1.21496">
        <ele>431.4</ele>
        <time>2024-09-18T12:38:32.000Z</time>
      </trkpt>
      <trkpt lat="42.99205" lon="1.21528">
        <ele>431.43</ele>
        <time>2024-09-18T12:38:37.000Z</time>
      </trkpt>
      <trkpt lat="42.99205" lon="1.21559">
        <ele>431.49</ele>
        <time>2024-09-18T12:38:42.000Z</time>
      </trkpt>
      <trkpt lat="42.99204" lon="1.21588">
        <ele>431.54</ele>
        <time>2024-09-18T12:38:47.000Z</time>
      </trkpt>
      <trkpt lat="42.99203" lon="1.21617">
        <ele>431.64</ele>
        <time>2024-09-18T12:38:52.000Z</time>
      </trkpt>
      <trkpt lat="42.99201" lon="1.21648">
        <ele>431.74</ele>
        <time>2024-09-18T12:38:57.000Z</time>
      </trkpt>
      <trkpt lat="42.99199" lon="1.21681">
        <ele>431.82</ele>
        <time>2024-09-18T12:39:02.000Z</time>
      </trkpt>
      <trkpt lat="42.99195" lon="1.21713">
        <ele>431.89</ele>
        <time>2024-09-18T12:39:07.000Z</time>
      </trkpt>
      <trkpt lat="42.99191" lon="1.21743">
        <ele>431.97</ele>
        <time>2024-09-18T12:39:12.000Z</time>
      </trkpt>
      <trkpt lat="42.99186" lon="1.21771">
        <ele>432.06</ele>
        <time>2024-09-18T12:39:17.000Z</time>
      </trkpt>
      <trkpt lat="42.9918" lon="1.21798">
        <ele>432.14</ele>
        <time>2024-09-18T12:39:22.000Z</time>
      </trkpt>
      <trkpt lat="42.99174" lon="1.21826">
        <ele>432.28</ele>
        <time>2024-09-18T12:39:27.000Z</time>
      </trkpt>
      <trkpt lat="42.99166" lon="1.21854">
        <ele>432.51</ele>
        <time>2024-09-18T12:39:32.000Z</time>
      </trkpt>
      <trkpt lat="42.99158" lon="1.21884">
        <ele>432.77</ele>
        <time>2024-09-18T12:39:37.000Z</time>
      </trkpt>
      <trkpt lat="42.99149" lon="1.21912">
        <ele>432.98</ele>
        <time>2024-09-18T12:39:42.000Z</time>
      </trkpt>
      <trkpt lat="42.99141" lon="1.21936">
        <ele>433.12</ele>
        <time>2024-09-18T12:39:47.000Z</time>
      </trkpt>
      <trkpt lat="42.99133" lon="1.21962">
        <ele>433.22</ele>
        <time>2024-09-18T12:39:52.000Z</time>
      </trkpt>
      <trkpt lat="42.99125" lon="1.21989">
        <ele>433.36</ele>
        <time>2024-09-18T12:39:57.000Z</time>
      </trkpt>
      <trkpt lat="42.99118" lon="1.22022">
        <ele>433.52</ele>
        <time>2024-09-18T12:40:02.000Z</time>
      </trkpt>
      <trkpt lat="42.99116" lon="1.22055">
        <ele>433.63</ele>
        <time>2024-09-18T12:40:07.000Z</time>
      </trkpt>
      <trkpt lat="42.99117" lon="1.22086">
        <ele>433.75</ele>
        <time>2024-09-18T12:40:12.000Z</time>
      </trkpt>
      <trkpt lat="42.99118" lon="1.22117">
        <ele>433.89</ele>
        <time>2024-09-18T12:40:17.000Z</time>
      </trkpt>
      <trkpt lat="42.99119" lon="1.22146">
        <ele>434.01</ele>
        <time>2024-09-18T12:40:22.000Z</time>
      </trkpt>
      <trkpt lat="42.99122" lon="1.22171">
        <ele>434.06</ele>
        <time>2024-09-18T12:40:27.000Z</time>
      </trkpt>
      <trkpt lat="42.99124" lon="1.22195">
        <ele>434.08</ele>
        <time>2024-09-18T12:40:32.000Z</time>
      </trkpt>
      <trkpt lat="42.99123" lon="1.22213">
        <ele>434.13</ele>
        <time>2024-09-18T12:40:37.000Z</time>
      </trkpt>
      <trkpt lat="42.99127" lon="1.22232">
        <ele>434.19</ele>
        <time>2024-09-18T12:40:42.000Z</time>
      </trkpt>
      <trkpt lat="42.99132" lon="1.22249">
        <ele>434.27</ele>
        <time>2024-09-18T12:40:47.000Z</time>
      </trkpt>
      <trkpt lat="42.99138" lon="1.22259">
        <ele>434.7</ele>
        <time>2024-09-18T12:41:18.000Z</time>
      </trkpt>
      <trkpt lat="42.9914" lon="1.22272">
        <ele>434.97</ele>
        <time>2024-09-18T12:41:24.000Z</time>
      </trkpt>
      <trkpt lat="42.99145" lon="1.22287">
        <ele>435.19</ele>
        <time>2024-09-18T12:41:29.000Z</time>
      </trkpt>
      <trkpt lat="42.99156" lon="1.22309">
        <ele>435.4</ele>
        <time>2024-09-18T12:41:34.000Z</time>
      </trkpt>
      <trkpt lat="42.99167" lon="1.22332">
        <ele>435.61</ele>
        <time>2024-09-18T12:41:39.000Z</time>
      </trkpt>
      <trkpt lat="42.99179" lon="1.22351">
        <ele>435.8</ele>
        <time>2024-09-18T12:41:44.000Z</time>
      </trkpt>
      <trkpt lat="42.99189" lon="1.22367">
        <ele>435.99</ele>
        <time>2024-09-18T12:41:49.000Z</time>
      </trkpt>
      <trkpt lat="42.99201" lon="1.22383">
        <ele>436.17</ele>
        <time>2024-09-18T12:41:54.000Z</time>
      </trkpt>
      <trkpt lat="42.99213" lon="1.22397">
        <ele>436.34</ele>
        <time>2024-09-18T12:41:59.000Z</time>
      </trkpt>
      <trkpt lat="42.9923" lon="1.22415">
        <ele>436.5</ele>
        <time>2024-09-18T12:42:04.000Z</time>
      </trkpt>
      <trkpt lat="42.99248" lon="1.22429">
        <ele>436.65</ele>
        <time>2024-09-18T12:42:09.000Z</time>
      </trkpt>
      <trkpt lat="42.99265" lon="1.22444">
        <ele>436.79</ele>
        <time>2024-09-18T12:42:14.000Z</time>
      </trkpt>
      <trkpt lat="42.99288" lon="1.22458">
        <ele>437.14</ele>
        <time>2024-09-18T12:42:19.000Z</time>
      </trkpt>
      <trkpt lat="42.99309" lon="1.22466">
        <ele>437.87</ele>
        <time>2024-09-18T12:42:24.000Z</time>
      </trkpt>
      <trkpt lat="42.99329" lon="1.22471">
        <ele>437.96</ele>
        <time>2024-09-18T12:42:29.000Z</time>
      </trkpt>
      <trkpt lat="42.9935" lon="1.22477">
        <ele>438.19</ele>
        <time>2024-09-18T12:42:34.000Z</time>
      </trkpt>
      <trkpt lat="42.99368" lon="1.22481">
        <ele>438.27</ele>
        <time>2024-09-18T12:42:39.000Z</time>
      </trkpt>
      <trkpt lat="42.99388" lon="1.22487">
        <ele>438.52</ele>
        <time>2024-09-18T12:42:44.000Z</time>
      </trkpt>
      <trkpt lat="42.99411" lon="1.22493">
        <ele>438.6</ele>
        <time>2024-09-18T12:42:49.000Z</time>
      </trkpt>
      <trkpt lat="42.9943" lon="1.22501">
        <ele>438.69</ele>
        <time>2024-09-18T12:42:54.000Z</time>
      </trkpt>
      <trkpt lat="42.99447" lon="1.2251">
        <ele>438.79</ele>
        <time>2024-09-18T12:42:59.000Z</time>
      </trkpt>
      <trkpt lat="42.99463" lon="1.22519">
        <ele>438.91</ele>
        <time>2024-09-18T12:43:04.000Z</time>
      </trkpt>
      <trkpt lat="42.99482" lon="1.22533">
        <ele>439.05</ele>
        <time>2024-09-18T12:43:09.000Z</time>
      </trkpt>
      <trkpt lat="42.99501" lon="1.22547">
        <ele>439.47</ele>
        <time>2024-09-18T12:43:14.000Z</time>
      </trkpt>
      <trkpt lat="42.99516" lon="1.22561">
        <ele>439.64</ele>
        <time>2024-09-18T12:43:19.000Z</time>
      </trkpt>
      <trkpt lat="42.99532" lon="1.2258">
        <ele>439.82</ele>
        <time>2024-09-18T12:43:24.000Z</time>
      </trkpt>
      <trkpt lat="42.99549" lon="1.22603">
        <ele>439.99</ele>
        <time>2024-09-18T12:43:29.000Z</time>
      </trkpt>
      <trkpt lat="42.99568" lon="1.22627">
        <ele>440.44</ele>
        <time>2024-09-18T12:43:34.000Z</time>
      </trkpt>
      <trkpt lat="42.99581" lon="1.22646">
        <ele>440.6</ele>
        <time>2024-09-18T12:43:39.000Z</time>
      </trkpt>
      <trkpt lat="42.99592" lon="1.22667">
        <ele>440.74</ele>
        <time>2024-09-18T12:43:44.000Z</time>
      </trkpt>
      <trkpt lat="42.99604" lon="1.22691">
        <ele>440.88</ele>
        <time>2024-09-18T12:43:49.000Z</time>
      </trkpt>
      <trkpt lat="42.99617" lon="1.22715">
        <ele>441.02</ele>
        <time>2024-09-18T12:43:54.000Z</time>
      </trkpt>
      <trkpt lat="42.99629" lon="1.22738">
        <ele>441.15</ele>
        <time>2024-09-18T12:43:59.000Z</time>
      </trkpt>
      <trkpt lat="42.9964" lon="1.2276">
        <ele>441.27</ele>
        <time>2024-09-18T12:44:04.000Z</time>
      </trkpt>
      <trkpt lat="42.99651" lon="1.22779">
        <ele>441.39</ele>
        <time>2024-09-18T12:44:09.000Z</time>
      </trkpt>
      <trkpt lat="42.99662" lon="1.22802">
        <ele>441.5</ele>
        <time>2024-09-18T12:44:14.000Z</time>
      </trkpt>
      <trkpt lat="42.99674" lon="1.22826">
        <ele>441.6</ele>
        <time>2024-09-18T12:44:19.000Z</time>
      </trkpt>
      <trkpt lat="42.99686" lon="1.22848">
        <ele>441.69</ele>
        <time>2024-09-18T12:44:24.000Z</time>
      </trkpt>
      <trkpt lat="42.99701" lon="1.2287">
        <ele>441.77</ele>
        <time>2024-09-18T12:44:29.000Z</time>
      </trkpt>
      <trkpt lat="42.99712" lon="1.2289">
        <ele>441.86</ele>
        <time>2024-09-18T12:44:34.000Z</time>
      </trkpt>
      <trkpt lat="42.99723" lon="1.22914">
        <ele>441.95</ele>
        <time>2024-09-18T12:44:39.000Z</time>
      </trkpt>
      <trkpt lat="42.99732" lon="1.2294">
        <ele>442.03</ele>
        <time>2024-09-18T12:44:44.000Z</time>
      </trkpt>
      <trkpt lat="42.9974" lon="1.22965">
        <ele>442.1</ele>
        <time>2024-09-18T12:44:49.000Z</time>
      </trkpt>
      <trkpt lat="42.99748" lon="1.22996">
        <ele>442.64</ele>
        <time>2024-09-18T12:44:54.000Z</time>
      </trkpt>
      <trkpt lat="42.99755" lon="1.23027">
        <ele>442.91</ele>
        <time>2024-09-18T12:44:59.000Z</time>
      </trkpt>
      <trkpt lat="42.99761" lon="1.23055">
        <ele>443.1</ele>
        <time>2024-09-18T12:45:04.000Z</time>
      </trkpt>
      <trkpt lat="42.99765" lon="1.23085">
        <ele>443.35</ele>
        <time>2024-09-18T12:45:09.000Z</time>
      </trkpt>
      <trkpt lat="42.99767" lon="1.23114">
        <ele>443.59</ele>
        <time>2024-09-18T12:45:14.000Z</time>
      </trkpt>
      <trkpt lat="42.99765" lon="1.23142">
        <ele>443.83</ele>
        <time>2024-09-18T12:45:19.000Z</time>
      </trkpt>
      <trkpt lat="42.99763" lon="1.2317">
        <ele>444.05</ele>
        <time>2024-09-18T12:45:24.000Z</time>
      </trkpt>
      <trkpt lat="42.99759" lon="1.23197">
        <ele>444.28</ele>
        <time>2024-09-18T12:45:29.000Z</time>
      </trkpt>
      <trkpt lat="42.99754" lon="1.23226">
        <ele>444.5</ele>
        <time>2024-09-18T12:45:34.000Z</time>
      </trkpt>
      <trkpt lat="42.99749" lon="1.23252">
        <ele>444.75</ele>
        <time>2024-09-18T12:45:39.000Z</time>
      </trkpt>
      <trkpt lat="42.99742" lon="1.23278">
        <ele>444.96</ele>
        <time>2024-09-18T12:45:44.000Z</time>
      </trkpt>
      <trkpt lat="42.99735" lon="1.23304">
        <ele>445.16</ele>
        <time>2024-09-18T12:45:49.000Z</time>
      </trkpt>
      <trkpt lat="42.99729" lon="1.23325">
        <ele>445.23</ele>
        <time>2024-09-18T12:45:54.000Z</time>
      </trkpt>
      <trkpt lat="42.99726" lon="1.23339">
        <ele>445.27</ele>
        <time>2024-09-18T12:45:59.000Z</time>
      </trkpt>
      <trkpt lat="42.99731" lon="1.23352">
        <ele>446.36</ele>
        <time>2024-09-18T12:47:57.999Z</time>
      </trkpt>
      <trkpt lat="42.99734" lon="1.23373">
        <ele>447.22</ele>
        <time>2024-09-18T12:48:02.999Z</time>
      </trkpt>
      <trkpt lat="42.99728" lon="1.23407">
        <ele>448.3</ele>
        <time>2024-09-18T12:48:07.999Z</time>
      </trkpt>
      <trkpt lat="42.99737" lon="1.23436">
        <ele>448.71</ele>
        <time>2024-09-18T12:48:12.999Z</time>
      </trkpt>
      <trkpt lat="42.99726" lon="1.23469">
        <ele>448.85</ele>
        <time>2024-09-18T12:48:17.999Z</time>
      </trkpt>
      <trkpt lat="42.9972" lon="1.23507">
        <ele>448.84</ele>
        <time>2024-09-18T12:48:22.999Z</time>
      </trkpt>
      <trkpt lat="42.99714" lon="1.2354">
        <ele>448.81</ele>
        <time>2024-09-18T12:48:27.999Z</time>
      </trkpt>
      <trkpt lat="42.9971" lon="1.23562">
        <ele>448.8</ele>
        <time>2024-09-18T12:48:32.999Z</time>
      </trkpt>
      <trkpt lat="42.99707" lon="1.23581">
        <ele>448.8</ele>
        <time>2024-09-18T12:48:37.999Z</time>
      </trkpt>
      <trkpt lat="42.99704" lon="1.23601">
        <ele>448.8</ele>
        <time>2024-09-18T12:48:42.999Z</time>
      </trkpt>
      <trkpt lat="42.99701" lon="1.23621">
        <ele>448.81</ele>
        <time>2024-09-18T12:48:47.999Z</time>
      </trkpt>
      <trkpt lat="42.99698" lon="1.23645">
        <ele>448.84</ele>
        <time>2024-09-18T12:48:52.999Z</time>
      </trkpt>
      <trkpt lat="42.9969" lon="1.23662">
        <ele>448.89</ele>
        <time>2024-09-18T12:48:57.999Z</time>
      </trkpt>
      <trkpt lat="42.99683" lon="1.23678">
        <ele>448.96</ele>
        <time>2024-09-18T12:49:02.999Z</time>
      </trkpt>
      <trkpt lat="42.99678" lon="1.23689">
        <ele>449.05</ele>
        <time>2024-09-18T12:49:07.999Z</time>
      </trkpt>
      <trkpt lat="42.99667" lon="1.23701">
        <ele>449.15</ele>
        <time>2024-09-18T12:49:12.999Z</time>
      </trkpt>
      <trkpt lat="42.99652" lon="1.23712">
        <ele>449.25</ele>
        <time>2024-09-18T12:49:17.999Z</time>
      </trkpt>
      <trkpt lat="42.99637" lon="1.23726">
        <ele>449.36</ele>
        <time>2024-09-18T12:49:22.999Z</time>
      </trkpt>
      <trkpt lat="42.99626" lon="1.23745">
        <ele>449.48</ele>
        <time>2024-09-18T12:49:27.999Z</time>
      </trkpt>
      <trkpt lat="42.9962" lon="1.23767">
        <ele>449.6</ele>
        <time>2024-09-18T12:49:32.999Z</time>
      </trkpt>
      <trkpt lat="42.99613" lon="1.23795">
        <ele>450.34</ele>
        <time>2024-09-18T12:49:37.999Z</time>
      </trkpt>
      <trkpt lat="42.99607" lon="1.23824">
        <ele>450.82</ele>
        <time>2024-09-18T12:49:42.999Z</time>
      </trkpt>
      <trkpt lat="42.99599" lon="1.23857">
        <ele>451.08</ele>
        <time>2024-09-18T12:49:47.999Z</time>
      </trkpt>
      <trkpt lat="42.9959" lon="1.2389">
        <ele>451.21</ele>
        <time>2024-09-18T12:49:52.999Z</time>
      </trkpt>
      <trkpt lat="42.99581" lon="1.23922">
        <ele>451.32</ele>
        <time>2024-09-18T12:49:57.999Z</time>
      </trkpt>
      <trkpt lat="42.99571" lon="1.23951">
        <ele>451.45</ele>
        <time>2024-09-18T12:50:02.999Z</time>
      </trkpt>
      <trkpt lat="42.99562" lon="1.23977">
        <ele>451.58</ele>
        <time>2024-09-18T12:50:07.999Z</time>
      </trkpt>
      <trkpt lat="42.99552" lon="1.24004">
        <ele>451.73</ele>
        <time>2024-09-18T12:50:12.999Z</time>
      </trkpt>
      <trkpt lat="42.99542" lon="1.24029">
        <ele>451.91</ele>
        <time>2024-09-18T12:50:17.999Z</time>
      </trkpt>
      <trkpt lat="42.99532" lon="1.24055">
        <ele>452.1</ele>
        <time>2024-09-18T12:50:22.999Z</time>
      </trkpt>
      <trkpt lat="42.99521" lon="1.24081">
        <ele>452.29</ele>
        <time>2024-09-18T12:50:27.999Z</time>
      </trkpt>
      <trkpt lat="42.9951" lon="1.24107">
        <ele>452.5</ele>
        <time>2024-09-18T12:50:32.999Z</time>
      </trkpt>
      <trkpt lat="42.995" lon="1.24133">
        <ele>452.7</ele>
        <time>2024-09-18T12:50:37.999Z</time>
      </trkpt>
      <trkpt lat="42.99489" lon="1.24159">
        <ele>452.91</ele>
        <time>2024-09-18T12:50:42.999Z</time>
      </trkpt>
      <trkpt lat="42.99478" lon="1.24185">
        <ele>453.13</ele>
        <time>2024-09-18T12:50:47.999Z</time>
      </trkpt>
      <trkpt lat="42.99468" lon="1.24211">
        <ele>453.39</ele>
        <time>2024-09-18T12:50:52.999Z</time>
      </trkpt>
      <trkpt lat="42.99459" lon="1.24233">
        <ele>453.52</ele>
        <time>2024-09-18T12:50:57.999Z</time>
      </trkpt>
      <trkpt lat="42.9945" lon="1.24253">
        <ele>453.55</ele>
        <time>2024-09-18T12:51:02.999Z</time>
      </trkpt>
      <trkpt lat="42.99442" lon="1.24274">
        <ele>453.61</ele>
        <time>2024-09-18T12:51:07.999Z</time>
      </trkpt>
      <trkpt lat="42.99432" lon="1.243">
        <ele>454.03</ele>
        <time>2024-09-18T12:51:12.999Z</time>
      </trkpt>
      <trkpt lat="42.99422" lon="1.24324">
        <ele>454.23</ele>
        <time>2024-09-18T12:51:17.999Z</time>
      </trkpt>
      <trkpt lat="42.99412" lon="1.24349">
        <ele>454.46</ele>
        <time>2024-09-18T12:51:22.999Z</time>
      </trkpt>
      <trkpt lat="42.99402" lon="1.24375">
        <ele>454.7</ele>
        <time>2024-09-18T12:51:27.999Z</time>
      </trkpt>
      <trkpt lat="42.99394" lon="1.24401">
        <ele>454.89</ele>
        <time>2024-09-18T12:51:32.999Z</time>
      </trkpt>
      <trkpt lat="42.99387" lon="1.24427">
        <ele>455.01</ele>
        <time>2024-09-18T12:51:37.999Z</time>
      </trkpt>
      <trkpt lat="42.99381" lon="1.24453">
        <ele>455.12</ele>
        <time>2024-09-18T12:51:42.999Z</time>
      </trkpt>
      <trkpt lat="42.99376" lon="1.24475">
        <ele>455.14</ele>
        <time>2024-09-18T12:51:47.999Z</time>
      </trkpt>
      <trkpt lat="42.9937" lon="1.24501">
        <ele>455.19</ele>
        <time>2024-09-18T12:51:52.999Z</time>
      </trkpt>
      <trkpt lat="42.99369" lon="1.24529">
        <ele>455.25</ele>
        <time>2024-09-18T12:51:57.999Z</time>
      </trkpt>
      <trkpt lat="42.99367" lon="1.24558">
        <ele>455.32</ele>
        <time>2024-09-18T12:52:02.999Z</time>
      </trkpt>
      <trkpt lat="42.99365" lon="1.24587">
        <ele>455.49</ele>
        <time>2024-09-18T12:52:07.999Z</time>
      </trkpt>
      <trkpt lat="42.99363" lon="1.24616">
        <ele>455.65</ele>
        <time>2024-09-18T12:52:12.999Z</time>
      </trkpt>
      <trkpt lat="42.99361" lon="1.24643">
        <ele>455.79</ele>
        <time>2024-09-18T12:52:17.999Z</time>
      </trkpt>
      <trkpt lat="42.99358" lon="1.24669">
        <ele>455.98</ele>
        <time>2024-09-18T12:52:22.999Z</time>
      </trkpt>
      <trkpt lat="42.99354" lon="1.24698">
        <ele>456.17</ele>
        <time>2024-09-18T12:52:27.999Z</time>
      </trkpt>
      <trkpt lat="42.9935" lon="1.24725">
        <ele>456.37</ele>
        <time>2024-09-18T12:52:32.999Z</time>
      </trkpt>
      <trkpt lat="42.99345" lon="1.24753">
        <ele>456.53</ele>
        <time>2024-09-18T12:52:37.999Z</time>
      </trkpt>
      <trkpt lat="42.99339" lon="1.24781">
        <ele>456.66</ele>
        <time>2024-09-18T12:52:42.999Z</time>
      </trkpt>
      <trkpt lat="42.99331" lon="1.24807">
        <ele>456.8</ele>
        <time>2024-09-18T12:52:47.999Z</time>
      </trkpt>
      <trkpt lat="42.99323" lon="1.2483">
        <ele>456.86</ele>
        <time>2024-09-18T12:52:52.999Z</time>
      </trkpt>
      <trkpt lat="42.99315" lon="1.24851">
        <ele>456.89</ele>
        <time>2024-09-18T12:52:57.999Z</time>
      </trkpt>
      <trkpt lat="42.99305" lon="1.24875">
        <ele>457.22</ele>
        <time>2024-09-18T12:53:02.999Z</time>
      </trkpt>
      <trkpt lat="42.99293" lon="1.24899">
        <ele>457.6</ele>
        <time>2024-09-18T12:53:07.999Z</time>
      </trkpt>
      <trkpt lat="42.99281" lon="1.24921">
        <ele>457.74</ele>
        <time>2024-09-18T12:53:12.999Z</time>
      </trkpt>
      <trkpt lat="42.99268" lon="1.24942">
        <ele>458.18</ele>
        <time>2024-09-18T12:53:17.999Z</time>
      </trkpt>
      <trkpt lat="42.99253" lon="1.24963">
        <ele>458.57</ele>
        <time>2024-09-18T12:53:22.999Z</time>
      </trkpt>
      <trkpt lat="42.99239" lon="1.24984">
        <ele>458.9</ele>
        <time>2024-09-18T12:53:27.999Z</time>
      </trkpt>
      <trkpt lat="42.99225" lon="1.25004">
        <ele>459.21</ele>
        <time>2024-09-18T12:53:32.999Z</time>
      </trkpt>
      <trkpt lat="42.99213" lon="1.25022">
        <ele>459.26</ele>
        <time>2024-09-18T12:53:37.999Z</time>
      </trkpt>
      <trkpt lat="42.992" lon="1.25042">
        <ele>459.75</ele>
        <time>2024-09-18T12:53:42.999Z</time>
      </trkpt>
      <trkpt lat="42.99187" lon="1.25062">
        <ele>459.91</ele>
        <time>2024-09-18T12:53:47.999Z</time>
      </trkpt>
      <trkpt lat="42.99174" lon="1.25081">
        <ele>460.2</ele>
        <time>2024-09-18T12:53:52.999Z</time>
      </trkpt>
      <trkpt lat="42.99161" lon="1.25101">
        <ele>460.63</ele>
        <time>2024-09-18T12:53:57.999Z</time>
      </trkpt>
      <trkpt lat="42.99149" lon="1.25121">
        <ele>461.02</ele>
        <time>2024-09-18T12:54:02.999Z</time>
      </trkpt>
      <trkpt lat="42.99138" lon="1.25143">
        <ele>461.24</ele>
        <time>2024-09-18T12:54:07.999Z</time>
      </trkpt>
      <trkpt lat="42.99126" lon="1.25168">
        <ele>461.67</ele>
        <time>2024-09-18T12:54:12.999Z</time>
      </trkpt>
      <trkpt lat="42.99117" lon="1.25189">
        <ele>461.74</ele>
        <time>2024-09-18T12:54:17.999Z</time>
      </trkpt>
      <trkpt lat="42.99109" lon="1.25209">
        <ele>461.79</ele>
        <time>2024-09-18T12:54:22.999Z</time>
      </trkpt>
      <trkpt lat="42.99102" lon="1.25232">
        <ele>461.86</ele>
        <time>2024-09-18T12:54:27.999Z</time>
      </trkpt>
      <trkpt lat="42.99095" lon="1.25252">
        <ele>461.93</ele>
        <time>2024-09-18T12:54:32.999Z</time>
      </trkpt>
      <trkpt lat="42.99088" lon="1.25276">
        <ele>462.02</ele>
        <time>2024-09-18T12:54:37.999Z</time>
      </trkpt>
      <trkpt lat="42.99084" lon="1.25302">
        <ele>462.7</ele>
        <time>2024-09-18T12:54:42.999Z</time>
      </trkpt>
      <trkpt lat="42.99078" lon="1.25328">
        <ele>463.05</ele>
        <time>2024-09-18T12:54:47.999Z</time>
      </trkpt>
      <trkpt lat="42.99073" lon="1.25353">
        <ele>463.17</ele>
        <time>2024-09-18T12:54:52.999Z</time>
      </trkpt>
      <trkpt lat="42.99069" lon="1.25376">
        <ele>463.21</ele>
        <time>2024-09-18T12:54:57.999Z</time>
      </trkpt>
      <trkpt lat="42.99064" lon="1.25399">
        <ele>463.32</ele>
        <time>2024-09-18T12:55:02.999Z</time>
      </trkpt>
      <trkpt lat="42.99059" lon="1.25424">
        <ele>463.46</ele>
        <time>2024-09-18T12:55:07.999Z</time>
      </trkpt>
      <trkpt lat="42.99053" lon="1.2545">
        <ele>463.77</ele>
        <time>2024-09-18T12:55:12.999Z</time>
      </trkpt>
      <trkpt lat="42.99044" lon="1.25473">
        <ele>463.89</ele>
        <time>2024-09-18T12:55:17.999Z</time>
      </trkpt>
      <trkpt lat="42.99036" lon="1.25497">
        <ele>464.04</ele>
        <time>2024-09-18T12:55:22.999Z</time>
      </trkpt>
      <trkpt lat="42.9903" lon="1.25525">
        <ele>464.18</ele>
        <time>2024-09-18T12:55:27.999Z</time>
      </trkpt>
      <trkpt lat="42.99026" lon="1.2555">
        <ele>464.25</ele>
        <time>2024-09-18T12:55:32.999Z</time>
      </trkpt>
      <trkpt lat="42.99022" lon="1.25566">
        <ele>464.3</ele>
        <time>2024-09-18T12:55:37.999Z</time>
      </trkpt>
      <trkpt lat="42.99021" lon="1.25584">
        <ele>464.37</ele>
        <time>2024-09-18T12:55:42.999Z</time>
      </trkpt>
      <trkpt lat="42.99016" lon="1.25609">
        <ele>464.69</ele>
        <time>2024-09-18T12:55:47.999Z</time>
      </trkpt>
      <trkpt lat="42.99011" lon="1.25634">
        <ele>464.9</ele>
        <time>2024-09-18T12:55:52.999Z</time>
      </trkpt>
      <trkpt lat="42.99005" lon="1.25657">
        <ele>464.97</ele>
        <time>2024-09-18T12:55:57.999Z</time>
      </trkpt>
      <trkpt lat="42.99002" lon="1.25684">
        <ele>465.14</ele>
        <time>2024-09-18T12:56:02.999Z</time>
      </trkpt>
      <trkpt lat="42.98997" lon="1.2571">
        <ele>465.59</ele>
        <time>2024-09-18T12:56:07.999Z</time>
      </trkpt>
      <trkpt lat="42.98991" lon="1.25738">
        <ele>465.85</ele>
        <time>2024-09-18T12:56:12.999Z</time>
      </trkpt>
      <trkpt lat="42.98986" lon="1.25766">
        <ele>466.06</ele>
        <time>2024-09-18T12:56:17.999Z</time>
      </trkpt>
      <trkpt lat="42.9898" lon="1.25791">
        <ele>466.26</ele>
        <time>2024-09-18T12:56:22.999Z</time>
      </trkpt>
      <trkpt lat="42.98974" lon="1.25818">
        <ele>466.55</ele>
        <time>2024-09-18T12:56:27.999Z</time>
      </trkpt>
      <trkpt lat="42.98968" lon="1.25843">
        <ele>466.7</ele>
        <time>2024-09-18T12:56:32.999Z</time>
      </trkpt>
      <trkpt lat="42.98963" lon="1.2587">
        <ele>466.98</ele>
        <time>2024-09-18T12:56:37.999Z</time>
      </trkpt>
      <trkpt lat="42.98958" lon="1.25896">
        <ele>467.22</ele>
        <time>2024-09-18T12:56:42.999Z</time>
      </trkpt>
      <trkpt lat="42.98951" lon="1.25918">
        <ele>467.26</ele>
        <time>2024-09-18T12:56:47.999Z</time>
      </trkpt>
      <trkpt lat="42.98945" lon="1.25939">
        <ele>467.31</ele>
        <time>2024-09-18T12:56:52.999Z</time>
      </trkpt>
      <trkpt lat="42.9894" lon="1.25964">
        <ele>467.47</ele>
        <time>2024-09-18T12:56:57.999Z</time>
      </trkpt>
      <trkpt lat="42.98935" lon="1.25993">
        <ele>467.99</ele>
        <time>2024-09-18T12:57:02.999Z</time>
      </trkpt>
      <trkpt lat="42.9893" lon="1.26022">
        <ele>468.35</ele>
        <time>2024-09-18T12:57:07.999Z</time>
      </trkpt>
      <trkpt lat="42.98927" lon="1.26048">
        <ele>468.54</ele>
        <time>2024-09-18T12:57:12.999Z</time>
      </trkpt>
      <trkpt lat="42.98926" lon="1.26074">
        <ele>468.75</ele>
        <time>2024-09-18T12:57:17.999Z</time>
      </trkpt>
      <trkpt lat="42.98924" lon="1.26102">
        <ele>469.05</ele>
        <time>2024-09-18T12:57:22.999Z</time>
      </trkpt>
      <trkpt lat="42.98922" lon="1.2613">
        <ele>469.31</ele>
        <time>2024-09-18T12:57:27.999Z</time>
      </trkpt>
      <trkpt lat="42.9892" lon="1.26159">
        <ele>469.47</ele>
        <time>2024-09-18T12:57:32.999Z</time>
      </trkpt>
      <trkpt lat="42.9892" lon="1.26184">
        <ele>469.51</ele>
        <time>2024-09-18T12:57:37.999Z</time>
      </trkpt>
      <trkpt lat="42.98921" lon="1.26211">
        <ele>469.79</ele>
        <time>2024-09-18T12:57:42.999Z</time>
      </trkpt>
      <trkpt lat="42.98923" lon="1.2624">
        <ele>470.1</ele>
        <time>2024-09-18T12:57:47.999Z</time>
      </trkpt>
      <trkpt lat="42.98923" lon="1.26269">
        <ele>470.38</ele>
        <time>2024-09-18T12:57:52.999Z</time>
      </trkpt>
      <trkpt lat="42.98924" lon="1.26298">
        <ele>470.66</ele>
        <time>2024-09-18T12:57:57.999Z</time>
      </trkpt>
      <trkpt lat="42.98924" lon="1.26325">
        <ele>470.85</ele>
        <time>2024-09-18T12:58:02.999Z</time>
      </trkpt>
      <trkpt lat="42.98925" lon="1.26352">
        <ele>471.2</ele>
        <time>2024-09-18T12:58:07.999Z</time>
      </trkpt>
      <trkpt lat="42.98925" lon="1.2638">
        <ele>471.52</ele>
        <time>2024-09-18T12:58:12.999Z</time>
      </trkpt>
      <trkpt lat="42.98927" lon="1.26407">
        <ele>471.8</ele>
        <time>2024-09-18T12:58:17.999Z</time>
      </trkpt>
      <trkpt lat="42.98928" lon="1.26434">
        <ele>472.08</ele>
        <time>2024-09-18T12:58:22.999Z</time>
      </trkpt>
      <trkpt lat="42.98927" lon="1.26462">
        <ele>472.34</ele>
        <time>2024-09-18T12:58:27.999Z</time>
      </trkpt>
      <trkpt lat="42.98927" lon="1.26487">
        <ele>472.5</ele>
        <time>2024-09-18T12:58:32.999Z</time>
      </trkpt>
      <trkpt lat="42.98927" lon="1.26514">
        <ele>472.83</ele>
        <time>2024-09-18T12:58:37.999Z</time>
      </trkpt>
      <trkpt lat="42.98926" lon="1.26542">
        <ele>473.08</ele>
        <time>2024-09-18T12:58:42.999Z</time>
      </trkpt>
      <trkpt lat="42.98925" lon="1.2657">
        <ele>473.34</ele>
        <time>2024-09-18T12:58:47.999Z</time>
      </trkpt>
      <trkpt lat="42.98926" lon="1.26596">
        <ele>473.48</ele>
        <time>2024-09-18T12:58:52.999Z</time>
      </trkpt>
      <trkpt lat="42.98924" lon="1.26618">
        <ele>473.53</ele>
        <time>2024-09-18T12:58:57.999Z</time>
      </trkpt>
      <trkpt lat="42.98922" lon="1.26646">
        <ele>473.67</ele>
        <time>2024-09-18T12:59:02.999Z</time>
      </trkpt>
      <trkpt lat="42.98921" lon="1.26675">
        <ele>473.84</ele>
        <time>2024-09-18T12:59:07.999Z</time>
      </trkpt>
      <trkpt lat="42.98922" lon="1.26702">
        <ele>473.92</ele>
        <time>2024-09-18T12:59:12.999Z</time>
      </trkpt>
      <trkpt lat="42.98923" lon="1.2673">
        <ele>474.01</ele>
        <time>2024-09-18T12:59:17.999Z</time>
      </trkpt>
      <trkpt lat="42.98921" lon="1.26756">
        <ele>474.11</ele>
        <time>2024-09-18T12:59:22.999Z</time>
      </trkpt>
      <trkpt lat="42.9892" lon="1.26783">
        <ele>474.21</ele>
        <time>2024-09-18T12:59:27.999Z</time>
      </trkpt>
      <trkpt lat="42.98918" lon="1.26807">
        <ele>474.33</ele>
        <time>2024-09-18T12:59:32.999Z</time>
      </trkpt>
      <trkpt lat="42.98919" lon="1.26836">
        <ele>474.46</ele>
        <time>2024-09-18T12:59:38.000Z</time>
      </trkpt>
      <trkpt lat="42.98922" lon="1.26862">
        <ele>474.59</ele>
        <time>2024-09-18T12:59:43.000Z</time>
      </trkpt>
      <trkpt lat="42.98926" lon="1.2689">
        <ele>474.73</ele>
        <time>2024-09-18T12:59:48.000Z</time>
      </trkpt>
      <trkpt lat="42.98925" lon="1.26916">
        <ele>474.84</ele>
        <time>2024-09-18T12:59:53.000Z</time>
      </trkpt>
      <trkpt lat="42.98924" lon="1.26943">
        <ele>474.95</ele>
        <time>2024-09-18T12:59:58.000Z</time>
      </trkpt>
      <trkpt lat="42.9892" lon="1.26974">
        <ele>475.06</ele>
        <time>2024-09-18T13:00:03.000Z</time>
      </trkpt>
      <trkpt lat="42.98919" lon="1.26999">
        <ele>475.18</ele>
        <time>2024-09-18T13:00:08.000Z</time>
      </trkpt>
      <trkpt lat="42.98919" lon="1.27026">
        <ele>475.52</ele>
        <time>2024-09-18T13:00:13.000Z</time>
      </trkpt>
      <trkpt lat="42.98914" lon="1.27049">
        <ele>475.86</ele>
        <time>2024-09-18T13:00:18.000Z</time>
      </trkpt>
      <trkpt lat="42.98912" lon="1.27079">
        <ele>476</ele>
        <time>2024-09-18T13:00:23.000Z</time>
      </trkpt>
      <trkpt lat="42.98914" lon="1.27106">
        <ele>476.14</ele>
        <time>2024-09-18T13:00:28.000Z</time>
      </trkpt>
      <trkpt lat="42.98917" lon="1.27134">
        <ele>476.94</ele>
        <time>2024-09-18T13:00:33.000Z</time>
      </trkpt>
      <trkpt lat="42.98923" lon="1.27162">
        <ele>477.42</ele>
        <time>2024-09-18T13:00:38.000Z</time>
      </trkpt>
      <trkpt lat="42.98929" lon="1.27193">
        <ele>477.68</ele>
        <time>2024-09-18T13:00:43.000Z</time>
      </trkpt>
      <trkpt lat="42.98933" lon="1.27218">
        <ele>477.8</ele>
        <time>2024-09-18T13:00:48.000Z</time>
      </trkpt>
      <trkpt lat="42.98937" lon="1.27238">
        <ele>477.9</ele>
        <time>2024-09-18T13:00:53.000Z</time>
      </trkpt>
      <trkpt lat="42.98942" lon="1.27256">
        <ele>478.03</ele>
        <time>2024-09-18T13:00:58.000Z</time>
      </trkpt>
      <trkpt lat="42.98945" lon="1.27272">
        <ele>478.17</ele>
        <time>2024-09-18T13:01:03.000Z</time>
      </trkpt>
      <trkpt lat="42.98947" lon="1.27288">
        <ele>483.29</ele>
        <time>2024-09-18T13:04:44.000Z</time>
      </trkpt>
      <trkpt lat="42.98953" lon="1.2731">
        <ele>483.85</ele>
        <time>2024-09-18T13:04:49.000Z</time>
      </trkpt>
      <trkpt lat="42.98958" lon="1.27332">
        <ele>484.35</ele>
        <time>2024-09-18T13:04:54.000Z</time>
      </trkpt>
      <trkpt lat="42.98965" lon="1.27358">
        <ele>485.6</ele>
        <time>2024-09-18T13:04:59.000Z</time>
      </trkpt>
      <trkpt lat="42.98972" lon="1.27386">
        <ele>487.4</ele>
        <time>2024-09-18T13:05:04.000Z</time>
      </trkpt>
      <trkpt lat="42.98979" lon="1.27411">
        <ele>487.91</ele>
        <time>2024-09-18T13:05:09.000Z</time>
      </trkpt>
      <trkpt lat="42.98984" lon="1.27438">
        <ele>488.27</ele>
        <time>2024-09-18T13:05:14.000Z</time>
      </trkpt>
      <trkpt lat="42.98988" lon="1.27461">
        <ele>488.37</ele>
        <time>2024-09-18T13:05:19.000Z</time>
      </trkpt>
      <trkpt lat="42.98991" lon="1.27485">
        <ele>488.47</ele>
        <time>2024-09-18T13:05:24.000Z</time>
      </trkpt>
      <trkpt lat="42.98992" lon="1.2751">
        <ele>488.57</ele>
        <time>2024-09-18T13:05:29.000Z</time>
      </trkpt>
      <trkpt lat="42.98991" lon="1.27535">
        <ele>488.67</ele>
        <time>2024-09-18T13:05:34.000Z</time>
      </trkpt>
      <trkpt lat="42.9899" lon="1.27559">
        <ele>488.76</ele>
        <time>2024-09-18T13:05:39.000Z</time>
      </trkpt>
      <trkpt lat="42.98989" lon="1.27581">
        <ele>488.85</ele>
        <time>2024-09-18T13:05:44.000Z</time>
      </trkpt>
      <trkpt lat="42.98987" lon="1.27606">
        <ele>488.94</ele>
        <time>2024-09-18T13:05:49.000Z</time>
      </trkpt>
      <trkpt lat="42.98985" lon="1.27635">
        <ele>489.26</ele>
        <time>2024-09-18T13:05:54.000Z</time>
      </trkpt>
      <trkpt lat="42.98981" lon="1.27663">
        <ele>489.35</ele>
        <time>2024-09-18T13:05:59.000Z</time>
      </trkpt>
      <trkpt lat="42.98977" lon="1.27687">
        <ele>489.4</ele>
        <time>2024-09-18T13:06:04.000Z</time>
      </trkpt>
      <trkpt lat="42.98971" lon="1.27715">
        <ele>489.46</ele>
        <time>2024-09-18T13:06:09.000Z</time>
      </trkpt>
      <trkpt lat="42.98965" lon="1.27741">
        <ele>489.54</ele>
        <time>2024-09-18T13:06:14.000Z</time>
      </trkpt>
      <trkpt lat="42.98961" lon="1.27764">
        <ele>489.63</ele>
        <time>2024-09-18T13:06:19.000Z</time>
      </trkpt>
      <trkpt lat="42.98957" lon="1.27796">
        <ele>490.27</ele>
        <time>2024-09-18T13:06:24.000Z</time>
      </trkpt>
      <trkpt lat="42.98953" lon="1.27829">
        <ele>490.71</ele>
        <time>2024-09-18T13:06:29.000Z</time>
      </trkpt>
      <trkpt lat="42.98949" lon="1.27859">
        <ele>490.97</ele>
        <time>2024-09-18T13:06:34.000Z</time>
      </trkpt>
      <trkpt lat="42.98944" lon="1.2789">
        <ele>491.19</ele>
        <time>2024-09-18T13:06:39.000Z</time>
      </trkpt>
      <trkpt lat="42.98938" lon="1.27922">
        <ele>491.39</ele>
        <time>2024-09-18T13:06:44.000Z</time>
      </trkpt>
      <trkpt lat="42.98932" lon="1.27953">
        <ele>491.57</ele>
        <time>2024-09-18T13:06:49.000Z</time>
      </trkpt>
      <trkpt lat="42.98925" lon="1.27982">
        <ele>491.75</ele>
        <time>2024-09-18T13:06:54.000Z</time>
      </trkpt>
      <trkpt lat="42.9892" lon="1.28009">
        <ele>491.92</ele>
        <time>2024-09-18T13:06:59.000Z</time>
      </trkpt>
      <trkpt lat="42.98914" lon="1.28037">
        <ele>492.09</ele>
        <time>2024-09-18T13:07:04.000Z</time>
      </trkpt>
      <trkpt lat="42.9891" lon="1.28064">
        <ele>492.24</ele>
        <time>2024-09-18T13:07:09.000Z</time>
      </trkpt>
      <trkpt lat="42.98906" lon="1.28091">
        <ele>492.41</ele>
        <time>2024-09-18T13:07:14.000Z</time>
      </trkpt>
      <trkpt lat="42.98905" lon="1.2812">
        <ele>492.56</ele>
        <time>2024-09-18T13:07:19.000Z</time>
      </trkpt>
      <trkpt lat="42.98905" lon="1.28151">
        <ele>492.7</ele>
        <time>2024-09-18T13:07:24.000Z</time>
      </trkpt>
      <trkpt lat="42.98906" lon="1.28182">
        <ele>492.84</ele>
        <time>2024-09-18T13:07:29.000Z</time>
      </trkpt>
      <trkpt lat="42.98905" lon="1.2821">
        <ele>492.92</ele>
        <time>2024-09-18T13:07:34.000Z</time>
      </trkpt>
      <trkpt lat="42.98911" lon="1.28239">
        <ele>493</ele>
        <time>2024-09-18T13:07:39.000Z</time>
      </trkpt>
      <trkpt lat="42.98917" lon="1.28264">
        <ele>493.04</ele>
        <time>2024-09-18T13:07:44.000Z</time>
      </trkpt>
      <trkpt lat="42.98918" lon="1.28294">
        <ele>493.06</ele>
        <time>2024-09-18T13:07:49.000Z</time>
      </trkpt>
      <trkpt lat="42.98916" lon="1.28325">
        <ele>493.08</ele>
        <time>2024-09-18T13:07:54.000Z</time>
      </trkpt>
      <trkpt lat="42.98916" lon="1.28359">
        <ele>493.15</ele>
        <time>2024-09-18T13:07:59.000Z</time>
      </trkpt>
      <trkpt lat="42.98918" lon="1.28395">
        <ele>493.27</ele>
        <time>2024-09-18T13:08:04.000Z</time>
      </trkpt>
      <trkpt lat="42.9892" lon="1.28428">
        <ele>493.4</ele>
        <time>2024-09-18T13:08:09.000Z</time>
      </trkpt>
      <trkpt lat="42.98924" lon="1.28459">
        <ele>493.54</ele>
        <time>2024-09-18T13:08:14.000Z</time>
      </trkpt>
      <trkpt lat="42.98929" lon="1.2849">
        <ele>493.69</ele>
        <time>2024-09-18T13:08:19.000Z</time>
      </trkpt>
      <trkpt lat="42.98936" lon="1.28521">
        <ele>493.8</ele>
        <time>2024-09-18T13:08:24.000Z</time>
      </trkpt>
      <trkpt lat="42.98945" lon="1.28546">
        <ele>493.9</ele>
        <time>2024-09-18T13:08:29.000Z</time>
      </trkpt>
      <trkpt lat="42.98955" lon="1.28569">
        <ele>493.95</ele>
        <time>2024-09-18T13:08:34.000Z</time>
      </trkpt>
      <trkpt lat="42.98962" lon="1.2859">
        <ele>493.96</ele>
        <time>2024-09-18T13:08:39.000Z</time>
      </trkpt>
      <trkpt lat="42.99351" lon="1.29584">
        <ele>494.68</ele>
        <time>2024-09-18T13:11:22.000Z</time>
      </trkpt>
      <trkpt lat="42.99355" lon="1.29619">
        <ele>494.14</ele>
        <time>2024-09-18T13:11:27.000Z</time>
      </trkpt>
      <trkpt lat="42.99362" lon="1.29657">
        <ele>494.38</ele>
        <time>2024-09-18T13:11:32.000Z</time>
      </trkpt>
      <trkpt lat="42.99369" lon="1.29692">
        <ele>495.2</ele>
        <time>2024-09-18T13:11:37.000Z</time>
      </trkpt>
      <trkpt lat="42.99381" lon="1.29745">
        <ele>495.3</ele>
        <time>2024-09-18T13:11:42.000Z</time>
      </trkpt>
      <trkpt lat="42.99391" lon="1.29787">
        <ele>495.35</ele>
        <time>2024-09-18T13:11:47.999Z</time>
      </trkpt>
      <trkpt lat="42.994" lon="1.29826">
        <ele>495.47</ele>
        <time>2024-09-18T13:11:52.999Z</time>
      </trkpt>
      <trkpt lat="42.99408" lon="1.29867">
        <ele>495.56</ele>
        <time>2024-09-18T13:11:57.999Z</time>
      </trkpt>
      <trkpt lat="42.99416" lon="1.29905">
        <ele>495.4</ele>
        <time>2024-09-18T13:12:02.999Z</time>
      </trkpt>
      <trkpt lat="42.99424" lon="1.29941">
        <ele>495.31</ele>
        <time>2024-09-18T13:12:07.999Z</time>
      </trkpt>
      <trkpt lat="42.99431" lon="1.29975">
        <ele>495.05</ele>
        <time>2024-09-18T13:12:12.999Z</time>
      </trkpt>
      <trkpt lat="42.99437" lon="1.30007">
        <ele>494.74</ele>
        <time>2024-09-18T13:12:17.999Z</time>
      </trkpt>
      <trkpt lat="42.99443" lon="1.30038">
        <ele>494.28</ele>
        <time>2024-09-18T13:12:22.999Z</time>
      </trkpt>
      <trkpt lat="42.99449" lon="1.30067">
        <ele>493.83</ele>
        <time>2024-09-18T13:12:27.999Z</time>
      </trkpt>
      <trkpt lat="42.99453" lon="1.30094">
        <ele>493.56</ele>
        <time>2024-09-18T13:12:32.999Z</time>
      </trkpt>
      <trkpt lat="42.99458" lon="1.3012">
        <ele>493.07</ele>
        <time>2024-09-18T13:12:37.999Z</time>
      </trkpt>
      <trkpt lat="42.99463" lon="1.3015">
        <ele>492.64</ele>
        <time>2024-09-18T13:12:42.999Z</time>
      </trkpt>
      <trkpt lat="42.99467" lon="1.30182">
        <ele>492.25</ele>
        <time>2024-09-18T13:12:47.999Z</time>
      </trkpt>
      <trkpt lat="42.9947" lon="1.3021">
        <ele>491.73</ele>
        <time>2024-09-18T13:12:52.999Z</time>
      </trkpt>
      <trkpt lat="42.99471" lon="1.30243">
        <ele>491.04</ele>
        <time>2024-09-18T13:12:57.999Z</time>
      </trkpt>
      <trkpt lat="42.99471" lon="1.30274">
        <ele>490.51</ele>
        <time>2024-09-18T13:13:02.999Z</time>
      </trkpt>
      <trkpt lat="42.99473" lon="1.30308">
        <ele>490.03</ele>
        <time>2024-09-18T13:13:07.999Z</time>
      </trkpt>
      <trkpt lat="42.99472" lon="1.30343">
        <ele>489.36</ele>
        <time>2024-09-18T13:13:12.999Z</time>
      </trkpt>
      <trkpt lat="42.99469" lon="1.30379">
        <ele>488.57</ele>
        <time>2024-09-18T13:13:17.999Z</time>
      </trkpt>
      <trkpt lat="42.99463" lon="1.30415">
        <ele>487.73</ele>
        <time>2024-09-18T13:13:22.999Z</time>
      </trkpt>
      <trkpt lat="42.99456" lon="1.30453">
        <ele>487.03</ele>
        <time>2024-09-18T13:13:27.999Z</time>
      </trkpt>
      <trkpt lat="42.9945" lon="1.30488">
        <ele>486.42</ele>
        <time>2024-09-18T13:13:32.999Z</time>
      </trkpt>
      <trkpt lat="42.99441" lon="1.30526">
        <ele>486.06</ele>
        <time>2024-09-18T13:13:37.999Z</time>
      </trkpt>
      <trkpt lat="42.99433" lon="1.30561">
        <ele>485.86</ele>
        <time>2024-09-18T13:13:42.999Z</time>
      </trkpt>
      <trkpt lat="42.99425" lon="1.30598">
        <ele>485.71</ele>
        <time>2024-09-18T13:13:47.999Z</time>
      </trkpt>
      <trkpt lat="42.99415" lon="1.30633">
        <ele>485.6</ele>
        <time>2024-09-18T13:13:52.999Z</time>
      </trkpt>
      <trkpt lat="42.9941" lon="1.30671">
        <ele>485.49</ele>
        <time>2024-09-18T13:13:57.999Z</time>
      </trkpt>
      <trkpt lat="42.99405" lon="1.30707">
        <ele>485.28</ele>
        <time>2024-09-18T13:14:02.999Z</time>
      </trkpt>
      <trkpt lat="42.99351" lon="1.31043">
        <ele>485.01</ele>
        <time>2024-09-18T13:14:53.999Z</time>
      </trkpt>
      <trkpt lat="42.99346" lon="1.31058">
        <ele>484.87</ele>
        <time>2024-09-18T13:14:58.999Z</time>
      </trkpt>
      <trkpt lat="42.99349" lon="1.31082">
        <ele>484.41</ele>
        <time>2024-09-18T13:15:03.999Z</time>
      </trkpt>
      <trkpt lat="42.9935" lon="1.31109">
        <ele>483.41</ele>
        <time>2024-09-18T13:15:08.999Z</time>
      </trkpt>
      <trkpt lat="42.99352" lon="1.31135">
        <ele>482.13</ele>
        <time>2024-09-18T13:15:13.999Z</time>
      </trkpt>
      <trkpt lat="42.99349" lon="1.31158">
        <ele>480.97</ele>
        <time>2024-09-18T13:15:18.999Z</time>
      </trkpt>
      <trkpt lat="42.99341" lon="1.31182">
        <ele>478.25</ele>
        <time>2024-09-18T13:15:23.999Z</time>
      </trkpt>
      <trkpt lat="42.9933" lon="1.31286">
        <ele>475.05</ele>
        <time>2024-09-18T13:15:28.999Z</time>
      </trkpt>
      <trkpt lat="42.99334" lon="1.31326">
        <ele>473.77</ele>
        <time>2024-09-18T13:15:33.999Z</time>
      </trkpt>
      <trkpt lat="42.9934" lon="1.31364">
        <ele>473.26</ele>
        <time>2024-09-18T13:15:38.999Z</time>
      </trkpt>
      <trkpt lat="42.99346" lon="1.31395">
        <ele>473.06</ele>
        <time>2024-09-18T13:15:43.999Z</time>
      </trkpt>
      <trkpt lat="42.99354" lon="1.31427">
        <ele>472.97</ele>
        <time>2024-09-18T13:15:48.999Z</time>
      </trkpt>
      <trkpt lat="42.99362" lon="1.31459">
        <ele>472.9</ele>
        <time>2024-09-18T13:15:53.999Z</time>
      </trkpt>
      <trkpt lat="42.99378" lon="1.31498">
        <ele>472.82</ele>
        <time>2024-09-18T13:15:58.999Z</time>
      </trkpt>
      <trkpt lat="42.99393" lon="1.31533">
        <ele>472.76</ele>
        <time>2024-09-18T13:16:03.999Z</time>
      </trkpt>
      <trkpt lat="42.99409" lon="1.31565">
        <ele>472.72</ele>
        <time>2024-09-18T13:16:08.999Z</time>
      </trkpt>
      <trkpt lat="42.99425" lon="1.31593">
        <ele>472.49</ele>
        <time>2024-09-18T13:16:13.999Z</time>
      </trkpt>
      <trkpt lat="42.99438" lon="1.31623">
        <ele>472.14</ele>
        <time>2024-09-18T13:16:18.999Z</time>
      </trkpt>
      <trkpt lat="42.99454" lon="1.31654">
        <ele>471.69</ele>
        <time>2024-09-18T13:16:23.999Z</time>
      </trkpt>
      <trkpt lat="42.99464" lon="1.31677">
        <ele>471.59</ele>
        <time>2024-09-18T13:16:28.999Z</time>
      </trkpt>
      <trkpt lat="42.99475" lon="1.31706">
        <ele>470.54</ele>
        <time>2024-09-18T13:16:33.999Z</time>
      </trkpt>
      <trkpt lat="42.99483" lon="1.31731">
        <ele>469.96</ele>
        <time>2024-09-18T13:16:38.999Z</time>
      </trkpt>
      <trkpt lat="42.99495" lon="1.31743">
        <ele>469.81</ele>
        <time>2024-09-18T13:16:43.999Z</time>
      </trkpt>
      <trkpt lat="42.9951" lon="1.31763">
        <ele>469.6</ele>
        <time>2024-09-18T13:16:48.999Z</time>
      </trkpt>
      <trkpt lat="42.9952" lon="1.31791">
        <ele>469.39</ele>
        <time>2024-09-18T13:16:53.999Z</time>
      </trkpt>
      <trkpt lat="42.99533" lon="1.31824">
        <ele>469.31</ele>
        <time>2024-09-18T13:16:58.999Z</time>
      </trkpt>
      <trkpt lat="42.99549" lon="1.3186">
        <ele>469.25</ele>
        <time>2024-09-18T13:17:03.999Z</time>
      </trkpt>
      <trkpt lat="42.99569" lon="1.319">
        <ele>469.18</ele>
        <time>2024-09-18T13:17:08.999Z</time>
      </trkpt>
      <trkpt lat="42.99589" lon="1.31938">
        <ele>468.91</ele>
        <time>2024-09-18T13:17:13.999Z</time>
      </trkpt>
      <trkpt lat="42.99607" lon="1.31972">
        <ele>468.54</ele>
        <time>2024-09-18T13:17:18.999Z</time>
      </trkpt>
      <trkpt lat="42.99626" lon="1.3201">
        <ele>468.21</ele>
        <time>2024-09-18T13:17:23.999Z</time>
      </trkpt>
      <trkpt lat="42.99645" lon="1.32049">
        <ele>467.89</ele>
        <time>2024-09-18T13:17:28.999Z</time>
      </trkpt>
      <trkpt lat="42.99662" lon="1.32084">
        <ele>467.49</ele>
        <time>2024-09-18T13:17:33.999Z</time>
      </trkpt>
      <trkpt lat="42.99674" lon="1.32111">
        <ele>467.23</ele>
        <time>2024-09-18T13:17:38.999Z</time>
      </trkpt>
      <trkpt lat="42.99678" lon="1.32125">
        <ele>466.59</ele>
        <time>2024-09-18T13:26:13.000Z</time>
      </trkpt>
      <trkpt lat="42.99683" lon="1.32144">
        <ele>466.5</ele>
        <time>2024-09-18T13:26:18.000Z</time>
      </trkpt>
      <trkpt lat="42.99689" lon="1.32159">
        <ele>466.41</ele>
        <time>2024-09-18T13:26:23.000Z</time>
      </trkpt>
      <trkpt lat="42.99695" lon="1.32178">
        <ele>466.32</ele>
        <time>2024-09-18T13:26:28.000Z</time>
      </trkpt>
      <trkpt lat="42.99702" lon="1.32201">
        <ele>466.24</ele>
        <time>2024-09-18T13:26:33.000Z</time>
      </trkpt>
      <trkpt lat="42.99708" lon="1.32225">
        <ele>466.15</ele>
        <time>2024-09-18T13:26:38.000Z</time>
      </trkpt>
      <trkpt lat="42.99715" lon="1.32251">
        <ele>465.82</ele>
        <time>2024-09-18T13:26:43.000Z</time>
      </trkpt>
      <trkpt lat="42.99721" lon="1.3228">
        <ele>465.39</ele>
        <time>2024-09-18T13:26:48.000Z</time>
      </trkpt>
      <trkpt lat="42.99729" lon="1.32317">
        <ele>465.16</ele>
        <time>2024-09-18T13:26:53.000Z</time>
      </trkpt>
      <trkpt lat="42.99736" lon="1.3235">
        <ele>464.97</ele>
        <time>2024-09-18T13:26:58.000Z</time>
      </trkpt>
      <trkpt lat="42.99743" lon="1.32383">
        <ele>464.81</ele>
        <time>2024-09-18T13:27:03.000Z</time>
      </trkpt>
      <trkpt lat="42.9975" lon="1.32413">
        <ele>464.67</ele>
        <time>2024-09-18T13:27:08.000Z</time>
      </trkpt>
      <trkpt lat="42.99758" lon="1.32451">
        <ele>464.52</ele>
        <time>2024-09-18T13:27:13.000Z</time>
      </trkpt>
      <trkpt lat="42.99767" lon="1.32493">
        <ele>464.29</ele>
        <time>2024-09-18T13:27:18.000Z</time>
      </trkpt>
      <trkpt lat="42.99777" lon="1.32535">
        <ele>463.98</ele>
        <time>2024-09-18T13:27:23.000Z</time>
      </trkpt>
      <trkpt lat="42.99789" lon="1.32576">
        <ele>463.67</ele>
        <time>2024-09-18T13:27:28.000Z</time>
      </trkpt>
      <trkpt lat="42.99802" lon="1.32618">
        <ele>463.36</ele>
        <time>2024-09-18T13:27:33.000Z</time>
      </trkpt>
      <trkpt lat="42.99815" lon="1.32658">
        <ele>463.05</ele>
        <time>2024-09-18T13:27:38.000Z</time>
      </trkpt>
      <trkpt lat="42.99829" lon="1.327">
        <ele>462.73</ele>
        <time>2024-09-18T13:27:43.000Z</time>
      </trkpt>
      <trkpt lat="42.99843" lon="1.32733">
        <ele>462.31</ele>
        <time>2024-09-18T13:27:48.000Z</time>
      </trkpt>
      <trkpt lat="42.9986" lon="1.32766">
        <ele>461.78</ele>
        <time>2024-09-18T13:27:53.000Z</time>
      </trkpt>
      <trkpt lat="42.99877" lon="1.32802">
        <ele>462.1</ele>
        <time>2024-09-18T13:27:58.000Z</time>
      </trkpt>
      <trkpt lat="42.99896" lon="1.32838">
        <ele>462.3</ele>
        <time>2024-09-18T13:28:03.000Z</time>
      </trkpt>
      <trkpt lat="42.99914" lon="1.32874">
        <ele>462.13</ele>
        <time>2024-09-18T13:28:08.000Z</time>
      </trkpt>
      <trkpt lat="42.99934" lon="1.32915">
        <ele>461.11</ele>
        <time>2024-09-18T13:28:13.000Z</time>
      </trkpt>
      <trkpt lat="42.99953" lon="1.32951">
        <ele>458.53</ele>
        <time>2024-09-18T13:28:18.000Z</time>
      </trkpt>
      <trkpt lat="42.99973" lon="1.32982">
        <ele>456.44</ele>
        <time>2024-09-18T13:28:23.000Z</time>
      </trkpt>
      <trkpt lat="42.99988" lon="1.33009">
        <ele>454.62</ele>
        <time>2024-09-18T13:28:28.000Z</time>
      </trkpt>
      <trkpt lat="43.00005" lon="1.33036">
        <ele>452.46</ele>
        <time>2024-09-18T13:28:33.000Z</time>
      </trkpt>
      <trkpt lat="43.00023" lon="1.33065">
        <ele>450.67</ele>
        <time>2024-09-18T13:28:38.000Z</time>
      </trkpt>
      <trkpt lat="43.00046" lon="1.331">
        <ele>449.08</ele>
        <time>2024-09-18T13:28:43.000Z</time>
      </trkpt>
      <trkpt lat="43.00068" lon="1.33134">
        <ele>447.58</ele>
        <time>2024-09-18T13:28:48.000Z</time>
      </trkpt>
      <trkpt lat="43.00089" lon="1.33167">
        <ele>446.95</ele>
        <time>2024-09-18T13:28:53.000Z</time>
      </trkpt>
      <trkpt lat="43.00115" lon="1.33196">
        <ele>446.18</ele>
        <time>2024-09-18T13:28:58.000Z</time>
      </trkpt>
      <trkpt lat="43.00136" lon="1.3323">
        <ele>445.66</ele>
        <time>2024-09-18T13:29:03.000Z</time>
      </trkpt>
      <trkpt lat="43.00154" lon="1.33271">
        <ele>446.02</ele>
        <time>2024-09-18T13:29:08.000Z</time>
      </trkpt>
      <trkpt lat="43.00168" lon="1.33309">
        <ele>446.17</ele>
        <time>2024-09-18T13:29:13.000Z</time>
      </trkpt>
      <trkpt lat="43.00183" lon="1.33343">
        <ele>445.97</ele>
        <time>2024-09-18T13:29:18.000Z</time>
      </trkpt>
      <trkpt lat="43.00199" lon="1.33378">
        <ele>445.58</ele>
        <time>2024-09-18T13:29:23.000Z</time>
      </trkpt>
      <trkpt lat="43.00213" lon="1.33416">
        <ele>445.24</ele>
        <time>2024-09-18T13:29:28.000Z</time>
      </trkpt>
      <trkpt lat="43.00228" lon="1.33452">
        <ele>444.41</ele>
        <time>2024-09-18T13:29:33.000Z</time>
      </trkpt>
      <trkpt lat="43.00242" lon="1.33489">
        <ele>444</ele>
        <time>2024-09-18T13:29:38.000Z</time>
      </trkpt>
      <trkpt lat="43.00255" lon="1.33529">
        <ele>443.21</ele>
        <time>2024-09-18T13:29:43.000Z</time>
      </trkpt>
      <trkpt lat="43.00262" lon="1.33566">
        <ele>442.3</ele>
        <time>2024-09-18T13:29:48.000Z</time>
      </trkpt>
      <trkpt lat="43.00269" lon="1.33597">
        <ele>442.53</ele>
        <time>2024-09-18T13:29:53.000Z</time>
      </trkpt>
      <trkpt lat="43.0027" lon="1.33627">
        <ele>442.57</ele>
        <time>2024-09-18T13:29:58.000Z</time>
      </trkpt>
      <trkpt lat="43.00275" lon="1.33667">
        <ele>442.48</ele>
        <time>2024-09-18T13:30:03.000Z</time>
      </trkpt>
      <trkpt lat="43.00284" lon="1.33713">
        <ele>442.06</ele>
        <time>2024-09-18T13:30:08.000Z</time>
      </trkpt>
      <trkpt lat="43.00292" lon="1.33761">
        <ele>441.17</ele>
        <time>2024-09-18T13:30:13.000Z</time>
      </trkpt>
      <trkpt lat="43.00299" lon="1.33806">
        <ele>440.03</ele>
        <time>2024-09-18T13:30:18.000Z</time>
      </trkpt>
      <trkpt lat="43.00305" lon="1.33855">
        <ele>439.57</ele>
        <time>2024-09-18T13:30:23.000Z</time>
      </trkpt>
      <trkpt lat="43.00313" lon="1.33903">
        <ele>438.98</ele>
        <time>2024-09-18T13:30:28.000Z</time>
      </trkpt>
      <trkpt lat="43.00319" lon="1.3395">
        <ele>438.55</ele>
        <time>2024-09-18T13:30:33.000Z</time>
      </trkpt>
      <trkpt lat="43.00328" lon="1.33993">
        <ele>437.91</ele>
        <time>2024-09-18T13:30:38.000Z</time>
      </trkpt>
      <trkpt lat="43.00335" lon="1.34039">
        <ele>437.14</ele>
        <time>2024-09-18T13:30:43.000Z</time>
      </trkpt>
      <trkpt lat="43.00341" lon="1.34089">
        <ele>436.59</ele>
        <time>2024-09-18T13:30:48.000Z</time>
      </trkpt>
      <trkpt lat="43.00349" lon="1.34139">
        <ele>435.8</ele>
        <time>2024-09-18T13:30:53.000Z</time>
      </trkpt>
      <trkpt lat="43.00358" lon="1.34189">
        <ele>435.08</ele>
        <time>2024-09-18T13:30:58.000Z</time>
      </trkpt>
      <trkpt lat="43.00367" lon="1.34236">
        <ele>434.55</ele>
        <time>2024-09-18T13:31:03.000Z</time>
      </trkpt>
      <trkpt lat="43.00373" lon="1.34279">
        <ele>432.79</ele>
        <time>2024-09-18T13:31:08.000Z</time>
      </trkpt>
      <trkpt lat="43.00379" lon="1.34321">
        <ele>431.11</ele>
        <time>2024-09-18T13:31:13.000Z</time>
      </trkpt>
      <trkpt lat="43.00383" lon="1.34359">
        <ele>430.39</ele>
        <time>2024-09-18T13:31:18.000Z</time>
      </trkpt>
      <trkpt lat="43.0039" lon="1.34398">
        <ele>430.17</ele>
        <time>2024-09-18T13:31:23.000Z</time>
      </trkpt>
      <trkpt lat="43.00396" lon="1.34437">
        <ele>429.96</ele>
        <time>2024-09-18T13:31:28.000Z</time>
      </trkpt>
      <trkpt lat="43.00402" lon="1.34472">
        <ele>429.78</ele>
        <time>2024-09-18T13:31:33.000Z</time>
      </trkpt>
      <trkpt lat="43.00406" lon="1.34508">
        <ele>429</ele>
        <time>2024-09-18T13:31:38.000Z</time>
      </trkpt>
      <trkpt lat="43.00411" lon="1.34542">
        <ele>428.84</ele>
        <time>2024-09-18T13:31:43.000Z</time>
      </trkpt>
      <trkpt lat="43.00416" lon="1.34575">
        <ele>428.89</ele>
        <time>2024-09-18T13:31:48.000Z</time>
      </trkpt>
      <trkpt lat="43.00421" lon="1.34606">
        <ele>428.95</ele>
        <time>2024-09-18T13:31:53.000Z</time>
      </trkpt>
      <trkpt lat="43.00428" lon="1.34641">
        <ele>428.93</ele>
        <time>2024-09-18T13:31:58.000Z</time>
      </trkpt>
      <trkpt lat="43.00431" lon="1.34672">
        <ele>428.94</ele>
        <time>2024-09-18T13:32:03.000Z</time>
      </trkpt>
      <trkpt lat="43.00433" lon="1.34704">
        <ele>428.91</ele>
        <time>2024-09-18T13:32:08.000Z</time>
      </trkpt>
      <trkpt lat="43.00433" lon="1.34739">
        <ele>428.57</ele>
        <time>2024-09-18T13:32:13.000Z</time>
      </trkpt>
      <trkpt lat="43.00432" lon="1.34778">
        <ele>428.3</ele>
        <time>2024-09-18T13:32:18.000Z</time>
      </trkpt>
      <trkpt lat="43.00429" lon="1.34813">
        <ele>428.36</ele>
        <time>2024-09-18T13:32:23.000Z</time>
      </trkpt>
      <trkpt lat="43.00426" lon="1.34852">
        <ele>428.41</ele>
        <time>2024-09-18T13:32:28.000Z</time>
      </trkpt>
      <trkpt lat="43.00425" lon="1.34889">
        <ele>428.56</ele>
        <time>2024-09-18T13:32:33.000Z</time>
      </trkpt>
      <trkpt lat="43.00425" lon="1.34925">
        <ele>428.64</ele>
        <time>2024-09-18T13:32:38.000Z</time>
      </trkpt>
      <trkpt lat="43.00428" lon="1.34963">
        <ele>428.48</ele>
        <time>2024-09-18T13:32:43.000Z</time>
      </trkpt>
      <trkpt lat="43.00432" lon="1.35016">
        <ele>427.9</ele>
        <time>2024-09-18T13:32:48.000Z</time>
      </trkpt>
      <trkpt lat="43.00437" lon="1.35064">
        <ele>427.41</ele>
        <time>2024-09-18T13:32:53.000Z</time>
      </trkpt>
      <trkpt lat="43.00444" lon="1.35107">
        <ele>426.79</ele>
        <time>2024-09-18T13:32:58.000Z</time>
      </trkpt>
      <trkpt lat="43.00455" lon="1.35151">
        <ele>426.2</ele>
        <time>2024-09-18T13:33:03.000Z</time>
      </trkpt>
      <trkpt lat="43.00467" lon="1.35193">
        <ele>425.86</ele>
        <time>2024-09-18T13:33:08.000Z</time>
      </trkpt>
      <trkpt lat="43.0048" lon="1.35236">
        <ele>425.8</ele>
        <time>2024-09-18T13:33:13.000Z</time>
      </trkpt>
      <trkpt lat="43.00494" lon="1.35278">
        <ele>426.12</ele>
        <time>2024-09-18T13:33:18.000Z</time>
      </trkpt>
      <trkpt lat="43.00507" lon="1.35319">
        <ele>425.2</ele>
        <time>2024-09-18T13:33:23.000Z</time>
      </trkpt>
      <trkpt lat="43.00519" lon="1.35365">
        <ele>424.09</ele>
        <time>2024-09-18T13:33:28.000Z</time>
      </trkpt>
      <trkpt lat="43.00534" lon="1.3541">
        <ele>423.52</ele>
        <time>2024-09-18T13:33:33.000Z</time>
      </trkpt>
      <trkpt lat="43.00547" lon="1.35452">
        <ele>422.9</ele>
        <time>2024-09-18T13:33:38.000Z</time>
      </trkpt>
      <trkpt lat="43.00557" lon="1.35493">
        <ele>422.28</ele>
        <time>2024-09-18T13:33:43.000Z</time>
      </trkpt>
      <trkpt lat="43.00569" lon="1.3553">
        <ele>422.38</ele>
        <time>2024-09-18T13:33:48.000Z</time>
      </trkpt>
      <trkpt lat="43.00583" lon="1.35571">
        <ele>422.32</ele>
        <time>2024-09-18T13:33:53.000Z</time>
      </trkpt>
      <trkpt lat="43.00595" lon="1.35614">
        <ele>421.52</ele>
        <time>2024-09-18T13:33:58.000Z</time>
      </trkpt>
      <trkpt lat="43.00607" lon="1.35669">
        <ele>419.55</ele>
        <time>2024-09-18T13:34:03.000Z</time>
      </trkpt>
      <trkpt lat="43.00618" lon="1.35721">
        <ele>417.76</ele>
        <time>2024-09-18T13:34:08.000Z</time>
      </trkpt>
      <trkpt lat="43.00627" lon="1.3577">
        <ele>416.53</ele>
        <time>2024-09-18T13:34:13.000Z</time>
      </trkpt>
      <trkpt lat="43.00638" lon="1.35812">
        <ele>415.73</ele>
        <time>2024-09-18T13:34:18.000Z</time>
      </trkpt>
      <trkpt lat="43.0065" lon="1.35861">
        <ele>415.58</ele>
        <time>2024-09-18T13:34:23.000Z</time>
      </trkpt>
      <trkpt lat="43.00661" lon="1.3591">
        <ele>415.47</ele>
        <time>2024-09-18T13:34:28.000Z</time>
      </trkpt>
      <trkpt lat="43.00671" lon="1.35958">
        <ele>415.32</ele>
        <time>2024-09-18T13:34:33.000Z</time>
      </trkpt>
      <trkpt lat="43.00682" lon="1.36001">
        <ele>415.09</ele>
        <time>2024-09-18T13:34:38.000Z</time>
      </trkpt>
      <trkpt lat="43.00691" lon="1.3604">
        <ele>414.72</ele>
        <time>2024-09-18T13:34:43.000Z</time>
      </trkpt>
      <trkpt lat="43.00704" lon="1.36085">
        <ele>413.44</ele>
        <time>2024-09-18T13:34:48.000Z</time>
      </trkpt>
      <trkpt lat="43.00721" lon="1.36128">
        <ele>412.61</ele>
        <time>2024-09-18T13:34:53.000Z</time>
      </trkpt>
      <trkpt lat="43.00739" lon="1.36163">
        <ele>411.73</ele>
        <time>2024-09-18T13:34:58.000Z</time>
      </trkpt>
      <trkpt lat="43.00759" lon="1.36196">
        <ele>410.76</ele>
        <time>2024-09-18T13:35:03.000Z</time>
      </trkpt>
      <trkpt lat="43.00781" lon="1.36229">
        <ele>410.39</ele>
        <time>2024-09-18T13:35:08.000Z</time>
      </trkpt>
      <trkpt lat="43.00804" lon="1.36262">
        <ele>410.16</ele>
        <time>2024-09-18T13:35:13.000Z</time>
      </trkpt>
      <trkpt lat="43.00827" lon="1.36297">
        <ele>409.8</ele>
        <time>2024-09-18T13:35:18.000Z</time>
      </trkpt>
      <trkpt lat="43.00851" lon="1.36332">
        <ele>409.32</ele>
        <time>2024-09-18T13:35:23.000Z</time>
      </trkpt>
      <trkpt lat="43.00875" lon="1.36367">
        <ele>408.87</ele>
        <time>2024-09-18T13:35:28.000Z</time>
      </trkpt>
      <trkpt lat="43.009" lon="1.36402">
        <ele>408.56</ele>
        <time>2024-09-18T13:35:33.000Z</time>
      </trkpt>
      <trkpt lat="43.00924" lon="1.36438">
        <ele>408.24</ele>
        <time>2024-09-18T13:35:38.000Z</time>
      </trkpt>
      <trkpt lat="43.00948" lon="1.36472">
        <ele>407.78</ele>
        <time>2024-09-18T13:35:43.000Z</time>
      </trkpt>
      <trkpt lat="43.00973" lon="1.36509">
        <ele>407.29</ele>
        <time>2024-09-18T13:35:48.000Z</time>
      </trkpt>
      <trkpt lat="43.00999" lon="1.36546">
        <ele>406.89</ele>
        <time>2024-09-18T13:35:53.000Z</time>
      </trkpt>
      <trkpt lat="43.01024" lon="1.36582">
        <ele>406.66</ele>
        <time>2024-09-18T13:35:58.000Z</time>
      </trkpt>
      <trkpt lat="43.01052" lon="1.3662">
        <ele>406.08</ele>
        <time>2024-09-18T13:36:03.999Z</time>
      </trkpt>
      <trkpt lat="43.01068" lon="1.36645">
        <ele>405.45</ele>
        <time>2024-09-18T13:36:08.999Z</time>
      </trkpt>
      <trkpt lat="43.01083" lon="1.36671">
        <ele>404.55</ele>
        <time>2024-09-18T13:36:13.999Z</time>
      </trkpt>
      <trkpt lat="43.01099" lon="1.36692">
        <ele>404.02</ele>
        <time>2024-09-18T13:36:18.999Z</time>
      </trkpt>
      <trkpt lat="43.01122" lon="1.36716">
        <ele>404.33</ele>
        <time>2024-09-18T13:36:23.999Z</time>
      </trkpt>
      <trkpt lat="43.01149" lon="1.36739">
        <ele>404.34</ele>
        <time>2024-09-18T13:36:28.999Z</time>
      </trkpt>
      <trkpt lat="43.01175" lon="1.36756">
        <ele>405.07</ele>
        <time>2024-09-18T13:36:33.999Z</time>
      </trkpt>
      <trkpt lat="43.01202" lon="1.3677">
        <ele>404.7</ele>
        <time>2024-09-18T13:36:38.999Z</time>
      </trkpt>
      <trkpt lat="43.01231" lon="1.36781">
        <ele>403.41</ele>
        <time>2024-09-18T13:36:43.999Z</time>
      </trkpt>
      <trkpt lat="43.01263" lon="1.36792">
        <ele>401.94</ele>
        <time>2024-09-18T13:36:48.999Z</time>
      </trkpt>
      <trkpt lat="43.01297" lon="1.36801">
        <ele>400.32</ele>
        <time>2024-09-18T13:36:53.999Z</time>
      </trkpt>
      <trkpt lat="43.01331" lon="1.36812">
        <ele>399</ele>
        <time>2024-09-18T13:36:58.999Z</time>
      </trkpt>
      <trkpt lat="43.01364" lon="1.36824">
        <ele>397.97</ele>
        <time>2024-09-18T13:37:03.999Z</time>
      </trkpt>
      <trkpt lat="43.01395" lon="1.36839">
        <ele>397.31</ele>
        <time>2024-09-18T13:37:08.999Z</time>
      </trkpt>
      <trkpt lat="43.01425" lon="1.36858">
        <ele>396.81</ele>
        <time>2024-09-18T13:37:13.999Z</time>
      </trkpt>
      <trkpt lat="43.01454" lon="1.36882">
        <ele>396.64</ele>
        <time>2024-09-18T13:37:18.999Z</time>
      </trkpt>
      <trkpt lat="43.01483" lon="1.36907">
        <ele>396.82</ele>
        <time>2024-09-18T13:37:23.999Z</time>
      </trkpt>
      <trkpt lat="43.01512" lon="1.36933">
        <ele>396.87</ele>
        <time>2024-09-18T13:37:28.999Z</time>
      </trkpt>
      <trkpt lat="43.0154" lon="1.3696">
        <ele>396.47</ele>
        <time>2024-09-18T13:37:33.999Z</time>
      </trkpt>
      <trkpt lat="43.01565" lon="1.36985">
        <ele>395.61</ele>
        <time>2024-09-18T13:37:38.999Z</time>
      </trkpt>
      <trkpt lat="43.01588" lon="1.37012">
        <ele>395.21</ele>
        <time>2024-09-18T13:37:43.999Z</time>
      </trkpt>
      <trkpt lat="43.0161" lon="1.3704">
        <ele>395.09</ele>
        <time>2024-09-18T13:37:48.999Z</time>
      </trkpt>
      <trkpt lat="43.01631" lon="1.37066">
        <ele>394.43</ele>
        <time>2024-09-18T13:37:53.999Z</time>
      </trkpt>
      <trkpt lat="43.01648" lon="1.37081">
        <ele>393.38</ele>
        <time>2024-09-18T13:37:58.999Z</time>
      </trkpt>
      <trkpt lat="43.01674" lon="1.37094">
        <ele>393.4</ele>
        <time>2024-09-18T13:38:03.999Z</time>
      </trkpt>
      <trkpt lat="43.01685" lon="1.371">
        <ele>393.45</ele>
        <time>2024-09-18T13:38:08.999Z</time>
      </trkpt>
      <trkpt lat="43.01689" lon="1.37112">
        <ele>393.32</ele>
        <time>2024-09-18T13:38:19.999Z</time>
      </trkpt>
      <trkpt lat="43.01697" lon="1.37121">
        <ele>393.13</ele>
        <time>2024-09-18T13:38:27.999Z</time>
      </trkpt>
      <trkpt lat="43.01707" lon="1.37129">
        <ele>392.98</ele>
        <time>2024-09-18T13:38:32.999Z</time>
      </trkpt>
      <trkpt lat="43.01722" lon="1.3714">
        <ele>392.8</ele>
        <time>2024-09-18T13:38:37.999Z</time>
      </trkpt>
      <trkpt lat="43.01732" lon="1.37154">
        <ele>392.6</ele>
        <time>2024-09-18T13:38:42.999Z</time>
      </trkpt>
      <trkpt lat="43.01738" lon="1.37171">
        <ele>392.39</ele>
        <time>2024-09-18T13:38:47.999Z</time>
      </trkpt>
      <trkpt lat="43.01739" lon="1.37193">
        <ele>392.17</ele>
        <time>2024-09-18T13:38:52.999Z</time>
      </trkpt>
      <trkpt lat="43.01739" lon="1.37206">
        <ele>391.69</ele>
        <time>2024-09-18T13:39:17.999Z</time>
      </trkpt>
      <trkpt lat="43.01739" lon="1.37218">
        <ele>391.48</ele>
        <time>2024-09-18T13:39:22.999Z</time>
      </trkpt>
      <trkpt lat="43.01738" lon="1.3724">
        <ele>391.28</ele>
        <time>2024-09-18T13:39:27.999Z</time>
      </trkpt>
      <trkpt lat="43.01738" lon="1.37269">
        <ele>390.52</ele>
        <time>2024-09-18T13:39:32.999Z</time>
      </trkpt>
      <trkpt lat="43.01736" lon="1.37303">
        <ele>389.49</ele>
        <time>2024-09-18T13:39:37.999Z</time>
      </trkpt>
      <trkpt lat="43.01731" lon="1.37324">
        <ele>389.3</ele>
        <time>2024-09-18T13:39:42.999Z</time>
      </trkpt>
      <trkpt lat="43.01726" lon="1.37355">
        <ele>388.78</ele>
        <time>2024-09-18T13:39:47.999Z</time>
      </trkpt>
      <trkpt lat="43.01718" lon="1.37374">
        <ele>388.51</ele>
        <time>2024-09-18T13:39:52.999Z</time>
      </trkpt>
      <trkpt lat="43.01702" lon="1.37373">
        <ele>388.43</ele>
        <time>2024-09-18T13:39:57.999Z</time>
      </trkpt>
      <trkpt lat="43.01698" lon="1.37397">
        <ele>388.35</ele>
        <time>2024-09-18T13:40:02.999Z</time>
      </trkpt>
      <trkpt lat="43.01696" lon="1.37415">
        <ele>388.26</ele>
        <time>2024-09-18T13:40:07.999Z</time>
      </trkpt>
      <trkpt lat="43.01695" lon="1.37432">
        <ele>388.12</ele>
        <time>2024-09-18T13:40:12.999Z</time>
      </trkpt>
      <trkpt lat="43.01698" lon="1.37449">
        <ele>387.96</ele>
        <time>2024-09-18T13:40:17.999Z</time>
      </trkpt>
      <trkpt lat="43.01699" lon="1.37467">
        <ele>387.76</ele>
        <time>2024-09-18T13:40:22.999Z</time>
      </trkpt>
      <trkpt lat="43.01701" lon="1.37493">
        <ele>386.57</ele>
        <time>2024-09-18T13:40:27.999Z</time>
      </trkpt>
      <trkpt lat="43.01706" lon="1.37526">
        <ele>385.32</ele>
        <time>2024-09-18T13:40:32.999Z</time>
      </trkpt>
      <trkpt lat="43.01709" lon="1.3756">
        <ele>384.56</ele>
        <time>2024-09-18T13:40:37.999Z</time>
      </trkpt>
      <trkpt lat="43.0171" lon="1.37592">
        <ele>384.13</ele>
        <time>2024-09-18T13:40:42.999Z</time>
      </trkpt>
      <trkpt lat="43.01709" lon="1.37621">
        <ele>383.93</ele>
        <time>2024-09-18T13:40:47.999Z</time>
      </trkpt>
      <trkpt lat="43.01707" lon="1.3765">
        <ele>383.84</ele>
        <time>2024-09-18T13:40:52.999Z</time>
      </trkpt>
      <trkpt lat="43.01705" lon="1.37681">
        <ele>383.81</ele>
        <time>2024-09-18T13:40:57.999Z</time>
      </trkpt>
      <trkpt lat="43.01702" lon="1.3771">
        <ele>383.78</ele>
        <time>2024-09-18T13:41:02.999Z</time>
      </trkpt>
      <trkpt lat="43.01698" lon="1.37742">
        <ele>383.72</ele>
        <time>2024-09-18T13:41:07.999Z</time>
      </trkpt>
      <trkpt lat="43.01695" lon="1.37774">
        <ele>383.62</ele>
        <time>2024-09-18T13:41:12.999Z</time>
      </trkpt>
      <trkpt lat="43.01685" lon="1.37798">
        <ele>383.57</ele>
        <time>2024-09-18T13:41:17.999Z</time>
      </trkpt>
      <trkpt lat="43.01678" lon="1.3782">
        <ele>383.56</ele>
        <time>2024-09-18T13:41:22.999Z</time>
      </trkpt>
      <trkpt lat="43.01684" lon="1.37842">
        <ele>383.51</ele>
        <time>2024-09-18T13:41:27.999Z</time>
      </trkpt>
      <trkpt lat="43.017" lon="1.37864">
        <ele>383.38</ele>
        <time>2024-09-18T13:41:32.999Z</time>
      </trkpt>
      <trkpt lat="43.01703" lon="1.37896">
        <ele>383.29</ele>
        <time>2024-09-18T13:41:37.999Z</time>
      </trkpt>
      <trkpt lat="43.01705" lon="1.37931">
        <ele>383.22</ele>
        <time>2024-09-18T13:41:42.999Z</time>
      </trkpt>
      <trkpt lat="43.01708" lon="1.37965">
        <ele>383.15</ele>
        <time>2024-09-18T13:41:47.999Z</time>
      </trkpt>
      <trkpt lat="43.01712" lon="1.37998">
        <ele>383.05</ele>
        <time>2024-09-18T13:41:52.999Z</time>
      </trkpt>
      <trkpt lat="43.01718" lon="1.3803">
        <ele>382.99</ele>
        <time>2024-09-18T13:41:57.999Z</time>
      </trkpt>
      <trkpt lat="43.01721" lon="1.3806">
        <ele>382.93</ele>
        <time>2024-09-18T13:42:02.999Z</time>
      </trkpt>
      <trkpt lat="43.01727" lon="1.38089">
        <ele>382.84</ele>
        <time>2024-09-18T13:42:07.999Z</time>
      </trkpt>
      <trkpt lat="43.01731" lon="1.38117">
        <ele>382.74</ele>
        <time>2024-09-18T13:42:12.999Z</time>
      </trkpt>
      <trkpt lat="43.01735" lon="1.38146">
        <ele>382.63</ele>
        <time>2024-09-18T13:42:17.999Z</time>
      </trkpt>
      <trkpt lat="43.01737" lon="1.38173">
        <ele>382.56</ele>
        <time>2024-09-18T13:42:22.999Z</time>
      </trkpt>
      <trkpt lat="43.01738" lon="1.38202">
        <ele>382.52</ele>
        <time>2024-09-18T13:42:27.999Z</time>
      </trkpt>
      <trkpt lat="43.01738" lon="1.38234">
        <ele>382.48</ele>
        <time>2024-09-18T13:42:32.999Z</time>
      </trkpt>
      <trkpt lat="43.01736" lon="1.38266">
        <ele>382.49</ele>
        <time>2024-09-18T13:42:37.999Z</time>
      </trkpt>
      <trkpt lat="43.01734" lon="1.38293">
        <ele>382.52</ele>
        <time>2024-09-18T13:42:42.999Z</time>
      </trkpt>
      <trkpt lat="43.0173" lon="1.38326">
        <ele>382.64</ele>
        <time>2024-09-18T13:42:47.999Z</time>
      </trkpt>
      <trkpt lat="43.01727" lon="1.38357">
        <ele>382.72</ele>
        <time>2024-09-18T13:42:52.999Z</time>
      </trkpt>
      <trkpt lat="43.01725" lon="1.38387">
        <ele>382.74</ele>
        <time>2024-09-18T13:42:57.999Z</time>
      </trkpt>
      <trkpt lat="43.01721" lon="1.38418">
        <ele>382.75</ele>
        <time>2024-09-18T13:43:02.999Z</time>
      </trkpt>
      <trkpt lat="43.01718" lon="1.38448">
        <ele>382.81</ele>
        <time>2024-09-18T13:43:07.999Z</time>
      </trkpt>
      <trkpt lat="43.01716" lon="1.38478">
        <ele>382.91</ele>
        <time>2024-09-18T13:43:12.999Z</time>
      </trkpt>
      <trkpt lat="43.01715" lon="1.38501">
        <ele>382.95</ele>
        <time>2024-09-18T13:43:17.999Z</time>
      </trkpt>
      <trkpt lat="43.01712" lon="1.38531">
        <ele>383.03</ele>
        <time>2024-09-18T13:43:22.999Z</time>
      </trkpt>
      <trkpt lat="43.01708" lon="1.38562">
        <ele>383.08</ele>
        <time>2024-09-18T13:43:27.999Z</time>
      </trkpt>
      <trkpt lat="43.01705" lon="1.38593">
        <ele>383.15</ele>
        <time>2024-09-18T13:43:32.999Z</time>
      </trkpt>
      <trkpt lat="43.01703" lon="1.38627">
        <ele>383.24</ele>
        <time>2024-09-18T13:43:37.999Z</time>
      </trkpt>
      <trkpt lat="43.01702" lon="1.3866">
        <ele>383.3</ele>
        <time>2024-09-18T13:43:42.999Z</time>
      </trkpt>
      <trkpt lat="43.01703" lon="1.38694">
        <ele>383.37</ele>
        <time>2024-09-18T13:43:47.999Z</time>
      </trkpt>
      <trkpt lat="43.01705" lon="1.38726">
        <ele>383.44</ele>
        <time>2024-09-18T13:43:52.999Z</time>
      </trkpt>
      <trkpt lat="43.01709" lon="1.38756">
        <ele>383.49</ele>
        <time>2024-09-18T13:43:57.999Z</time>
      </trkpt>
      <trkpt lat="43.01715" lon="1.38787">
        <ele>383.5</ele>
        <time>2024-09-18T13:44:02.999Z</time>
      </trkpt>
      <trkpt lat="43.01723" lon="1.38819">
        <ele>383.5</ele>
        <time>2024-09-18T13:44:07.999Z</time>
      </trkpt>
      <trkpt lat="43.01731" lon="1.3885">
        <ele>383.52</ele>
        <time>2024-09-18T13:44:12.999Z</time>
      </trkpt>
      <trkpt lat="43.01739" lon="1.3888">
        <ele>383.53</ele>
        <time>2024-09-18T13:44:17.999Z</time>
      </trkpt>
      <trkpt lat="43.01748" lon="1.38913">
        <ele>383.54</ele>
        <time>2024-09-18T13:44:22.999Z</time>
      </trkpt>
      <trkpt lat="43.01757" lon="1.38945">
        <ele>383.54</ele>
        <time>2024-09-18T13:44:27.999Z</time>
      </trkpt>
      <trkpt lat="43.01764" lon="1.38975">
        <ele>383.54</ele>
        <time>2024-09-18T13:44:32.999Z</time>
      </trkpt>
      <trkpt lat="43.01771" lon="1.39003">
        <ele>383.52</ele>
        <time>2024-09-18T13:44:37.999Z</time>
      </trkpt>
      <trkpt lat="43.01776" lon="1.39031">
        <ele>383.52</ele>
        <time>2024-09-18T13:44:42.999Z</time>
      </trkpt>
      <trkpt lat="43.01779" lon="1.39058">
        <ele>383.55</ele>
        <time>2024-09-18T13:44:47.999Z</time>
      </trkpt>
      <trkpt lat="43.01781" lon="1.39085">
        <ele>383.59</ele>
        <time>2024-09-18T13:44:52.999Z</time>
      </trkpt>
      <trkpt lat="43.01782" lon="1.39113">
        <ele>383.62</ele>
        <time>2024-09-18T13:44:57.999Z</time>
      </trkpt>
      <trkpt lat="43.01782" lon="1.39142">
        <ele>383.67</ele>
        <time>2024-09-18T13:45:02.999Z</time>
      </trkpt>
      <trkpt lat="43.01782" lon="1.3917">
        <ele>383.81</ele>
        <time>2024-09-18T13:45:07.999Z</time>
      </trkpt>
      <trkpt lat="43.01779" lon="1.39195">
        <ele>383.96</ele>
        <time>2024-09-18T13:45:12.999Z</time>
      </trkpt>
      <trkpt lat="43.01777" lon="1.39223">
        <ele>384.09</ele>
        <time>2024-09-18T13:45:17.999Z</time>
      </trkpt>
      <trkpt lat="43.01777" lon="1.3925">
        <ele>384.25</ele>
        <time>2024-09-18T13:45:22.999Z</time>
      </trkpt>
      <trkpt lat="43.01775" lon="1.39276">
        <ele>384.39</ele>
        <time>2024-09-18T13:45:27.999Z</time>
      </trkpt>
      <trkpt lat="43.01773" lon="1.39301">
        <ele>384.59</ele>
        <time>2024-09-18T13:45:32.999Z</time>
      </trkpt>
      <trkpt lat="43.01769" lon="1.39329">
        <ele>384.72</ele>
        <time>2024-09-18T13:45:37.999Z</time>
      </trkpt>
      <trkpt lat="43.01767" lon="1.39357">
        <ele>384.78</ele>
        <time>2024-09-18T13:45:42.999Z</time>
      </trkpt>
      <trkpt lat="43.01765" lon="1.39383">
        <ele>384.85</ele>
        <time>2024-09-18T13:45:47.999Z</time>
      </trkpt>
      <trkpt lat="43.01764" lon="1.39408">
        <ele>385.01</ele>
        <time>2024-09-18T13:45:52.999Z</time>
      </trkpt>
      <trkpt lat="43.01763" lon="1.39434">
        <ele>385.18</ele>
        <time>2024-09-18T13:45:57.999Z</time>
      </trkpt>
      <trkpt lat="43.01761" lon="1.39461">
        <ele>385.34</ele>
        <time>2024-09-18T13:46:02.999Z</time>
      </trkpt>
      <trkpt lat="43.01759" lon="1.39488">
        <ele>385.48</ele>
        <time>2024-09-18T13:46:07.999Z</time>
      </trkpt>
      <trkpt lat="43.01757" lon="1.39514">
        <ele>385.59</ele>
        <time>2024-09-18T13:46:12.999Z</time>
      </trkpt>
      <trkpt lat="43.01756" lon="1.3954">
        <ele>385.72</ele>
        <time>2024-09-18T13:46:17.999Z</time>
      </trkpt>
      <trkpt lat="43.01754" lon="1.39565">
        <ele>385.9</ele>
        <time>2024-09-18T13:46:22.999Z</time>
      </trkpt>
      <trkpt lat="43.01752" lon="1.39592">
        <ele>386.09</ele>
        <time>2024-09-18T13:46:27.999Z</time>
      </trkpt>
      <trkpt lat="43.0175" lon="1.39619">
        <ele>386.26</ele>
        <time>2024-09-18T13:46:32.999Z</time>
      </trkpt>
      <trkpt lat="43.01748" lon="1.39648">
        <ele>386.43</ele>
        <time>2024-09-18T13:46:37.999Z</time>
      </trkpt>
      <trkpt lat="43.01747" lon="1.39677">
        <ele>386.6</ele>
        <time>2024-09-18T13:46:42.999Z</time>
      </trkpt>
      <trkpt lat="43.01745" lon="1.39707">
        <ele>386.76</ele>
        <time>2024-09-18T13:46:47.999Z</time>
      </trkpt>
      <trkpt lat="43.01743" lon="1.39735">
        <ele>386.94</ele>
        <time>2024-09-18T13:46:52.999Z</time>
      </trkpt>
      <trkpt lat="43.01741" lon="1.39762">
        <ele>387.13</ele>
        <time>2024-09-18T13:46:57.999Z</time>
      </trkpt>
      <trkpt lat="43.01739" lon="1.39789">
        <ele>387.34</ele>
        <time>2024-09-18T13:47:02.999Z</time>
      </trkpt>
      <trkpt lat="43.01737" lon="1.39816">
        <ele>387.52</ele>
        <time>2024-09-18T13:47:07.999Z</time>
      </trkpt>
      <trkpt lat="43.01735" lon="1.39843">
        <ele>387.7</ele>
        <time>2024-09-18T13:47:12.999Z</time>
      </trkpt>
      <trkpt lat="43.01732" lon="1.3987">
        <ele>387.9</ele>
        <time>2024-09-18T13:47:17.999Z</time>
      </trkpt>
      <trkpt lat="43.0173" lon="1.39896">
        <ele>388.11</ele>
        <time>2024-09-18T13:47:22.999Z</time>
      </trkpt>
      <trkpt lat="43.01727" lon="1.39923">
        <ele>388.3</ele>
        <time>2024-09-18T13:47:27.999Z</time>
      </trkpt>
      <trkpt lat="43.01725" lon="1.3995">
        <ele>388.48</ele>
        <time>2024-09-18T13:47:32.999Z</time>
      </trkpt>
      <trkpt lat="43.01723" lon="1.39978">
        <ele>388.62</ele>
        <time>2024-09-18T13:47:37.999Z</time>
      </trkpt>
      <trkpt lat="43.01721" lon="1.40005">
        <ele>388.76</ele>
        <time>2024-09-18T13:47:42.999Z</time>
      </trkpt>
      <trkpt lat="43.0172" lon="1.40031">
        <ele>388.9</ele>
        <time>2024-09-18T13:47:47.999Z</time>
      </trkpt>
      <trkpt lat="43.01718" lon="1.40057">
        <ele>389.05</ele>
        <time>2024-09-18T13:47:52.999Z</time>
      </trkpt>
      <trkpt lat="43.01716" lon="1.40083">
        <ele>389.2</ele>
        <time>2024-09-18T13:47:57.999Z</time>
      </trkpt>
      <trkpt lat="43.01714" lon="1.40109">
        <ele>389.33</ele>
        <time>2024-09-18T13:48:02.999Z</time>
      </trkpt>
      <trkpt lat="43.0171" lon="1.40135">
        <ele>389.47</ele>
        <time>2024-09-18T13:48:07.999Z</time>
      </trkpt>
      <trkpt lat="43.01707" lon="1.40162">
        <ele>389.58</ele>
        <time>2024-09-18T13:48:12.999Z</time>
      </trkpt>
      <trkpt lat="43.01705" lon="1.40188">
        <ele>389.69</ele>
        <time>2024-09-18T13:48:18.000Z</time>
      </trkpt>
      <trkpt lat="43.01702" lon="1.40216">
        <ele>389.78</ele>
        <time>2024-09-18T13:48:23.000Z</time>
      </trkpt>
      <trkpt lat="43.01699" lon="1.40243">
        <ele>389.85</ele>
        <time>2024-09-18T13:48:28.000Z</time>
      </trkpt>
      <trkpt lat="43.01695" lon="1.40269">
        <ele>389.92</ele>
        <time>2024-09-18T13:48:33.000Z</time>
      </trkpt>
      <trkpt lat="43.01689" lon="1.40296">
        <ele>389.97</ele>
        <time>2024-09-18T13:48:38.000Z</time>
      </trkpt>
      <trkpt lat="43.01681" lon="1.4032">
        <ele>389.99</ele>
        <time>2024-09-18T13:48:43.000Z</time>
      </trkpt>
      <trkpt lat="43.01671" lon="1.40347">
        <ele>389.99</ele>
        <time>2024-09-18T13:48:48.000Z</time>
      </trkpt>
      <trkpt lat="43.0167" lon="1.40368">
        <ele>389.99</ele>
        <time>2024-09-18T13:48:53.000Z</time>
      </trkpt>
      <trkpt lat="43.01677" lon="1.40378">
        <ele>389.98</ele>
        <time>2024-09-18T13:48:58.000Z</time>
      </trkpt>
      <trkpt lat="43.01691" lon="1.40402">
        <ele>389.98</ele>
        <time>2024-09-18T13:49:03.000Z</time>
      </trkpt>
      <trkpt lat="43.01697" lon="1.40424">
        <ele>389.98</ele>
        <time>2024-09-18T13:49:08.000Z</time>
      </trkpt>
      <trkpt lat="43.01703" lon="1.40446">
        <ele>389.99</ele>
        <time>2024-09-18T13:49:13.000Z</time>
      </trkpt>
      <trkpt lat="43.0171" lon="1.40468">
        <ele>389.99</ele>
        <time>2024-09-18T13:49:18.000Z</time>
      </trkpt>
      <trkpt lat="43.01716" lon="1.4049">
        <ele>390</ele>
        <time>2024-09-18T13:49:23.000Z</time>
      </trkpt>
      <trkpt lat="43.01723" lon="1.40514">
        <ele>390.02</ele>
        <time>2024-09-18T13:49:28.000Z</time>
      </trkpt>
      <trkpt lat="43.01731" lon="1.40538">
        <ele>390.08</ele>
        <time>2024-09-18T13:49:33.000Z</time>
      </trkpt>
      <trkpt lat="43.0174" lon="1.40563">
        <ele>390.14</ele>
        <time>2024-09-18T13:49:38.000Z</time>
      </trkpt>
      <trkpt lat="43.01749" lon="1.40587">
        <ele>390.22</ele>
        <time>2024-09-18T13:49:43.000Z</time>
      </trkpt>
      <trkpt lat="43.01758" lon="1.40607">
        <ele>390.27</ele>
        <time>2024-09-18T13:49:48.000Z</time>
      </trkpt>
      <trkpt lat="43.01767" lon="1.40627">
        <ele>390.29</ele>
        <time>2024-09-18T13:49:53.000Z</time>
      </trkpt>
      <trkpt lat="43.01775" lon="1.40643">
        <ele>390.31</ele>
        <time>2024-09-18T13:49:58.000Z</time>
      </trkpt>
      <trkpt lat="43.01784" lon="1.40659">
        <ele>390.34</ele>
        <time>2024-09-18T13:50:03.000Z</time>
      </trkpt>
      <trkpt lat="43.01795" lon="1.4068">
        <ele>390.38</ele>
        <time>2024-09-18T13:50:08.000Z</time>
      </trkpt>
      <trkpt lat="43.01808" lon="1.40702">
        <ele>390.68</ele>
        <time>2024-09-18T13:50:13.000Z</time>
      </trkpt>
      <trkpt lat="43.0182" lon="1.40725">
        <ele>390.83</ele>
        <time>2024-09-18T13:50:18.000Z</time>
      </trkpt>
      <trkpt lat="43.01833" lon="1.40747">
        <ele>390.93</ele>
        <time>2024-09-18T13:50:23.000Z</time>
      </trkpt>
      <trkpt lat="43.01845" lon="1.40771">
        <ele>391.01</ele>
        <time>2024-09-18T13:50:28.000Z</time>
      </trkpt>
      <trkpt lat="43.01858" lon="1.40796">
        <ele>391.08</ele>
        <time>2024-09-18T13:50:33.000Z</time>
      </trkpt>
      <trkpt lat="43.01869" lon="1.40825">
        <ele>391.13</ele>
        <time>2024-09-18T13:50:38.000Z</time>
      </trkpt>
      <trkpt lat="43.01879" lon="1.40854">
        <ele>391.19</ele>
        <time>2024-09-18T13:50:43.000Z</time>
      </trkpt>
      <trkpt lat="43.01888" lon="1.40883">
        <ele>391.34</ele>
        <time>2024-09-18T13:50:48.000Z</time>
      </trkpt>
      <trkpt lat="43.01894" lon="1.40913">
        <ele>391.49</ele>
        <time>2024-09-18T13:50:53.000Z</time>
      </trkpt>
      <trkpt lat="43.01898" lon="1.40941">
        <ele>391.62</ele>
        <time>2024-09-18T13:50:58.000Z</time>
      </trkpt>
      <trkpt lat="43.01901" lon="1.40972">
        <ele>391.75</ele>
        <time>2024-09-18T13:51:03.000Z</time>
      </trkpt>
      <trkpt lat="43.01902" lon="1.41003">
        <ele>391.94</ele>
        <time>2024-09-18T13:51:08.000Z</time>
      </trkpt>
      <trkpt lat="43.01901" lon="1.41034">
        <ele>392.2</ele>
        <time>2024-09-18T13:51:13.000Z</time>
      </trkpt>
      <trkpt lat="43.01898" lon="1.41065">
        <ele>392.5</ele>
        <time>2024-09-18T13:51:18.000Z</time>
      </trkpt>
      <trkpt lat="43.01893" lon="1.41095">
        <ele>392.74</ele>
        <time>2024-09-18T13:51:23.000Z</time>
      </trkpt>
      <trkpt lat="43.01889" lon="1.41125">
        <ele>392.96</ele>
        <time>2024-09-18T13:51:28.000Z</time>
      </trkpt>
      <trkpt lat="43.01885" lon="1.4115">
        <ele>393.14</ele>
        <time>2024-09-18T13:51:33.000Z</time>
      </trkpt>
      <trkpt lat="43.01882" lon="1.41173">
        <ele>393.25</ele>
        <time>2024-09-18T13:51:38.000Z</time>
      </trkpt>
      <trkpt lat="43.01879" lon="1.41194">
        <ele>393.3</ele>
        <time>2024-09-18T13:51:43.000Z</time>
      </trkpt>
      <trkpt lat="43.01877" lon="1.4122">
        <ele>393.37</ele>
        <time>2024-09-18T13:51:48.000Z</time>
      </trkpt>
      <trkpt lat="43.01875" lon="1.4125">
        <ele>393.45</ele>
        <time>2024-09-18T13:51:53.000Z</time>
      </trkpt>
      <trkpt lat="43.01873" lon="1.41277">
        <ele>393.56</ele>
        <time>2024-09-18T13:51:58.000Z</time>
      </trkpt>
      <trkpt lat="43.01875" lon="1.41303">
        <ele>393.69</ele>
        <time>2024-09-18T13:52:03.000Z</time>
      </trkpt>
      <trkpt lat="43.01877" lon="1.41326">
        <ele>393.82</ele>
        <time>2024-09-18T13:52:08.000Z</time>
      </trkpt>
      <trkpt lat="43.01881" lon="1.41356">
        <ele>394.38</ele>
        <time>2024-09-18T13:52:13.000Z</time>
      </trkpt>
      <trkpt lat="43.01887" lon="1.41386">
        <ele>394.93</ele>
        <time>2024-09-18T13:52:18.000Z</time>
      </trkpt>
      <trkpt lat="43.01893" lon="1.41412">
        <ele>395.24</ele>
        <time>2024-09-18T13:52:23.000Z</time>
      </trkpt>
      <trkpt lat="43.01899" lon="1.41433">
        <ele>395.27</ele>
        <time>2024-09-18T13:52:28.000Z</time>
      </trkpt>
      <trkpt lat="43.01906" lon="1.41449">
        <ele>395.29</ele>
        <time>2024-09-18T13:52:33.000Z</time>
      </trkpt>
      <trkpt lat="43.01913" lon="1.41466">
        <ele>395.3</ele>
        <time>2024-09-18T13:52:38.000Z</time>
      </trkpt>
      <trkpt lat="43.01921" lon="1.41484">
        <ele>395.31</ele>
        <time>2024-09-18T13:52:43.000Z</time>
      </trkpt>
      <trkpt lat="43.0193" lon="1.41502">
        <ele>395.31</ele>
        <time>2024-09-18T13:52:48.000Z</time>
      </trkpt>
      <trkpt lat="43.01938" lon="1.41521">
        <ele>395.31</ele>
        <time>2024-09-18T13:52:53.000Z</time>
      </trkpt>
      <trkpt lat="43.0195" lon="1.41545">
        <ele>395.3</ele>
        <time>2024-09-18T13:52:58.000Z</time>
      </trkpt>
      <trkpt lat="43.01961" lon="1.41567">
        <ele>395.3</ele>
        <time>2024-09-18T13:53:03.000Z</time>
      </trkpt>
      <trkpt lat="43.01972" lon="1.41589">
        <ele>395.32</ele>
        <time>2024-09-18T13:53:08.000Z</time>
      </trkpt>
      <trkpt lat="43.01982" lon="1.41609">
        <ele>395.34</ele>
        <time>2024-09-18T13:53:13.000Z</time>
      </trkpt>
      <trkpt lat="43.0199" lon="1.41629">
        <ele>395.36</ele>
        <time>2024-09-18T13:53:18.000Z</time>
      </trkpt>
      <trkpt lat="43.01995" lon="1.41646">
        <ele>395.38</ele>
        <time>2024-09-18T13:53:23.000Z</time>
      </trkpt>
      <trkpt lat="43.02002" lon="1.41656">
        <ele>395.73</ele>
        <time>2024-09-18T13:54:56.000Z</time>
      </trkpt>
      <trkpt lat="43.02005" lon="1.41671">
        <ele>395.92</ele>
        <time>2024-09-18T13:55:01.000Z</time>
      </trkpt>
      <trkpt lat="43.02011" lon="1.41693">
        <ele>396.33</ele>
        <time>2024-09-18T13:55:06.000Z</time>
      </trkpt>
      <trkpt lat="43.02018" lon="1.41717">
        <ele>396.55</ele>
        <time>2024-09-18T13:55:11.000Z</time>
      </trkpt>
      <trkpt lat="43.02022" lon="1.41741">
        <ele>396.68</ele>
        <time>2024-09-18T13:55:16.000Z</time>
      </trkpt>
      <trkpt lat="43.02024" lon="1.41764">
        <ele>396.8</ele>
        <time>2024-09-18T13:55:21.000Z</time>
      </trkpt>
      <trkpt lat="43.02022" lon="1.41792">
        <ele>396.91</ele>
        <time>2024-09-18T13:55:26.000Z</time>
      </trkpt>
      <trkpt lat="43.0202" lon="1.41819">
        <ele>397.02</ele>
        <time>2024-09-18T13:55:31.000Z</time>
      </trkpt>
      <trkpt lat="43.0202" lon="1.4184">
        <ele>397.14</ele>
        <time>2024-09-18T13:55:36.000Z</time>
      </trkpt>
      <trkpt lat="43.02017" lon="1.41866">
        <ele>397.26</ele>
        <time>2024-09-18T13:55:41.000Z</time>
      </trkpt>
      <trkpt lat="43.02012" lon="1.41907">
        <ele>397.39</ele>
        <time>2024-09-18T13:55:46.000Z</time>
      </trkpt>
      <trkpt lat="43.02003" lon="1.41935">
        <ele>397.52</ele>
        <time>2024-09-18T13:55:51.000Z</time>
      </trkpt>
      <trkpt lat="43.01996" lon="1.41961">
        <ele>397.85</ele>
        <time>2024-09-18T13:55:56.000Z</time>
      </trkpt>
      <trkpt lat="43.01988" lon="1.41985">
        <ele>397.96</ele>
        <time>2024-09-18T13:56:01.000Z</time>
      </trkpt>
      <trkpt lat="43.01982" lon="1.42004">
        <ele>398.05</ele>
        <time>2024-09-18T13:56:06.000Z</time>
      </trkpt>
      <trkpt lat="43.01975" lon="1.42027">
        <ele>398.25</ele>
        <time>2024-09-18T13:56:11.000Z</time>
      </trkpt>
      <trkpt lat="43.01967" lon="1.42052">
        <ele>398.55</ele>
        <time>2024-09-18T13:56:16.000Z</time>
      </trkpt>
      <trkpt lat="43.01958" lon="1.42076">
        <ele>398.71</ele>
        <time>2024-09-18T13:56:21.000Z</time>
      </trkpt>
      <trkpt lat="43.01946" lon="1.42101">
        <ele>398.94</ele>
        <time>2024-09-18T13:56:26.000Z</time>
      </trkpt>
      <trkpt lat="43.01934" lon="1.42127">
        <ele>399.11</ele>
        <time>2024-09-18T13:56:31.000Z</time>
      </trkpt>
      <trkpt lat="43.01927" lon="1.42146">
        <ele>399.16</ele>
        <time>2024-09-18T13:56:36.000Z</time>
      </trkpt>
      <trkpt lat="43.01923" lon="1.42157">
        <ele>399.21</ele>
        <time>2024-09-18T13:56:41.000Z</time>
      </trkpt>
      <trkpt lat="43.01914" lon="1.42171">
        <ele>399.28</ele>
        <time>2024-09-18T13:56:46.000Z</time>
      </trkpt>
      <trkpt lat="43.01904" lon="1.42184">
        <ele>399.35</ele>
        <time>2024-09-18T13:56:51.000Z</time>
      </trkpt>
      <trkpt lat="43.01894" lon="1.42198">
        <ele>399.43</ele>
        <time>2024-09-18T13:56:56.000Z</time>
      </trkpt>
      <trkpt lat="43.0188" lon="1.42219">
        <ele>399.79</ele>
        <time>2024-09-18T13:57:01.000Z</time>
      </trkpt>
      <trkpt lat="43.01861" lon="1.42236">
        <ele>400.56</ele>
        <time>2024-09-18T13:57:06.000Z</time>
      </trkpt>
      <trkpt lat="43.01844" lon="1.42252">
        <ele>401.47</ele>
        <time>2024-09-18T13:57:11.000Z</time>
      </trkpt>
      <trkpt lat="43.01828" lon="1.42268">
        <ele>402.15</ele>
        <time>2024-09-18T13:57:16.000Z</time>
      </trkpt>
      <trkpt lat="43.01812" lon="1.42286">
        <ele>402.39</ele>
        <time>2024-09-18T13:57:21.000Z</time>
      </trkpt>
      <trkpt lat="43.01795" lon="1.42304">
        <ele>402.47</ele>
        <time>2024-09-18T13:57:26.000Z</time>
      </trkpt>
      <trkpt lat="43.01777" lon="1.42323">
        <ele>402.73</ele>
        <time>2024-09-18T13:57:31.000Z</time>
      </trkpt>
      <trkpt lat="43.01762" lon="1.42341">
        <ele>402.79</ele>
        <time>2024-09-18T13:57:36.000Z</time>
      </trkpt>
      <trkpt lat="43.01746" lon="1.42365">
        <ele>402.97</ele>
        <time>2024-09-18T13:57:41.000Z</time>
      </trkpt>
      <trkpt lat="43.01731" lon="1.42392">
        <ele>403.28</ele>
        <time>2024-09-18T13:57:46.000Z</time>
      </trkpt>
      <trkpt lat="43.01718" lon="1.42416">
        <ele>403.35</ele>
        <time>2024-09-18T13:57:51.000Z</time>
      </trkpt>
      <trkpt lat="43.01705" lon="1.42442">
        <ele>403.41</ele>
        <time>2024-09-18T13:57:56.000Z</time>
      </trkpt>
      <trkpt lat="43.01699" lon="1.42472">
        <ele>403.64</ele>
        <time>2024-09-18T13:58:01.000Z</time>
      </trkpt>
      <trkpt lat="43.01694" lon="1.42504">
        <ele>403.89</ele>
        <time>2024-09-18T13:58:06.000Z</time>
      </trkpt>
      <trkpt lat="43.01687" lon="1.42531">
        <ele>404.16</ele>
        <time>2024-09-18T13:58:11.000Z</time>
      </trkpt>
      <trkpt lat="43.01681" lon="1.4256">
        <ele>404.44</ele>
        <time>2024-09-18T13:58:16.000Z</time>
      </trkpt>
      <trkpt lat="43.01679" lon="1.42584">
        <ele>404.55</ele>
        <time>2024-09-18T13:58:21.000Z</time>
      </trkpt>
      <trkpt lat="43.01674" lon="1.42619">
        <ele>404.87</ele>
        <time>2024-09-18T13:58:26.000Z</time>
      </trkpt>
      <trkpt lat="43.01667" lon="1.42649">
        <ele>405.53</ele>
        <time>2024-09-18T13:58:31.000Z</time>
      </trkpt>
      <trkpt lat="43.0166" lon="1.42677">
        <ele>405.96</ele>
        <time>2024-09-18T13:58:36.000Z</time>
      </trkpt>
      <trkpt lat="43.01655" lon="1.42705">
        <ele>406.35</ele>
        <time>2024-09-18T13:58:41.000Z</time>
      </trkpt>
      <trkpt lat="43.01646" lon="1.42733">
        <ele>406.65</ele>
        <time>2024-09-18T13:58:46.000Z</time>
      </trkpt>
      <trkpt lat="43.01635" lon="1.42759">
        <ele>406.92</ele>
        <time>2024-09-18T13:58:51.000Z</time>
      </trkpt>
      <trkpt lat="43.01623" lon="1.42784">
        <ele>407.11</ele>
        <time>2024-09-18T13:58:56.000Z</time>
      </trkpt>
      <trkpt lat="43.01612" lon="1.42808">
        <ele>407.39</ele>
        <time>2024-09-18T13:59:01.000Z</time>
      </trkpt>
      <trkpt lat="43.01598" lon="1.42833">
        <ele>407.67</ele>
        <time>2024-09-18T13:59:06.000Z</time>
      </trkpt>
      <trkpt lat="43.01584" lon="1.42859">
        <ele>407.91</ele>
        <time>2024-09-18T13:59:11.000Z</time>
      </trkpt>
      <trkpt lat="43.01569" lon="1.42885">
        <ele>408.1</ele>
        <time>2024-09-18T13:59:16.000Z</time>
      </trkpt>
      <trkpt lat="43.01554" lon="1.42912">
        <ele>408.22</ele>
        <time>2024-09-18T13:59:21.000Z</time>
      </trkpt>
      <trkpt lat="43.0154" lon="1.42942">
        <ele>408.33</ele>
        <time>2024-09-18T13:59:26.000Z</time>
      </trkpt>
      <trkpt lat="43.01527" lon="1.42971">
        <ele>408.44</ele>
        <time>2024-09-18T13:59:31.000Z</time>
      </trkpt>
      <trkpt lat="43.01515" lon="1.42999">
        <ele>408.6</ele>
        <time>2024-09-18T13:59:36.000Z</time>
      </trkpt>
      <trkpt lat="43.01502" lon="1.43026">
        <ele>408.73</ele>
        <time>2024-09-18T13:59:41.000Z</time>
      </trkpt>
      <trkpt lat="43.01492" lon="1.43044">
        <ele>408.77</ele>
        <time>2024-09-18T13:59:46.000Z</time>
      </trkpt>
      <trkpt lat="43.01481" lon="1.43036">
        <ele>408.84</ele>
        <time>2024-09-18T13:59:51.000Z</time>
      </trkpt>
      <trkpt lat="43.01471" lon="1.43029">
        <ele>408.92</ele>
        <time>2024-09-18T13:59:56.000Z</time>
      </trkpt>
      <trkpt lat="43.01463" lon="1.43023">
        <ele>409</ele>
        <time>2024-09-18T14:00:01.000Z</time>
      </trkpt>
      <trkpt lat="43.01469" lon="1.43033">
        <ele>409.31</ele>
        <time>2024-09-18T14:00:21.999Z</time>
      </trkpt>
      <trkpt lat="43.01459" lon="1.43032">
        <ele>412.47</ele>
        <time>2024-09-18T14:05:14.999Z</time>
      </trkpt>
      <trkpt lat="43.01446" lon="1.43031">
        <ele>412.77</ele>
        <time>2024-09-18T14:05:19.999Z</time>
      </trkpt>
      <trkpt lat="43.0143" lon="1.4302">
        <ele>413.43</ele>
        <time>2024-09-18T14:05:24.999Z</time>
      </trkpt>
      <trkpt lat="43.01411" lon="1.43008">
        <ele>415.06</ele>
        <time>2024-09-18T14:05:29.999Z</time>
      </trkpt>
      <trkpt lat="43.0139" lon="1.42995">
        <ele>415.68</ele>
        <time>2024-09-18T14:05:34.999Z</time>
      </trkpt>
      <trkpt lat="43.01369" lon="1.42982">
        <ele>416.01</ele>
        <time>2024-09-18T14:05:39.999Z</time>
      </trkpt>
      <trkpt lat="43.01349" lon="1.42967">
        <ele>416.28</ele>
        <time>2024-09-18T14:05:44.999Z</time>
      </trkpt>
      <trkpt lat="43.01331" lon="1.42956">
        <ele>416.4</ele>
        <time>2024-09-18T14:05:49.999Z</time>
      </trkpt>
      <trkpt lat="43.01316" lon="1.42947">
        <ele>416.43</ele>
        <time>2024-09-18T14:05:54.999Z</time>
      </trkpt>
      <trkpt lat="43.01302" lon="1.4294">
        <ele>416.46</ele>
        <time>2024-09-18T14:05:59.999Z</time>
      </trkpt>
      <trkpt lat="43.01288" lon="1.42931">
        <ele>416.51</ele>
        <time>2024-09-18T14:06:04.999Z</time>
      </trkpt>
      <trkpt lat="43.01275" lon="1.42922">
        <ele>416.56</ele>
        <time>2024-09-18T14:06:09.999Z</time>
      </trkpt>
      <trkpt lat="43.01266" lon="1.42908">
        <ele>416.61</ele>
        <time>2024-09-18T14:06:14.999Z</time>
      </trkpt>
      <trkpt lat="43.01251" lon="1.42907">
        <ele>416.67</ele>
        <time>2024-09-18T14:06:19.999Z</time>
      </trkpt>
      <trkpt lat="43.01239" lon="1.42911">
        <ele>416.74</ele>
        <time>2024-09-18T14:06:24.999Z</time>
      </trkpt>
      <trkpt lat="43.0123" lon="1.42917">
        <ele>416.81</ele>
        <time>2024-09-18T14:06:29.999Z</time>
      </trkpt>
      <trkpt lat="43.01228" lon="1.42943">
        <ele>417.17</ele>
        <time>2024-09-18T14:06:34.999Z</time>
      </trkpt>
      <trkpt lat="43.01225" lon="1.42977">
        <ele>417.44</ele>
        <time>2024-09-18T14:06:39.999Z</time>
      </trkpt>
      <trkpt lat="43.0122" lon="1.43013">
        <ele>417.49</ele>
        <time>2024-09-18T14:06:44.999Z</time>
      </trkpt>
      <trkpt lat="43.01214" lon="1.4305">
        <ele>417.5</ele>
        <time>2024-09-18T14:06:49.999Z</time>
      </trkpt>
      <trkpt lat="43.01211" lon="1.43084">
        <ele>417.47</ele>
        <time>2024-09-18T14:06:54.999Z</time>
      </trkpt>
      <trkpt lat="43.01208" lon="1.43115">
        <ele>417.5</ele>
        <time>2024-09-18T14:06:59.999Z</time>
      </trkpt>
      <trkpt lat="43.0121" lon="1.43137">
        <ele>417.52</ele>
        <time>2024-09-18T14:07:04.999Z</time>
      </trkpt>
      <trkpt lat="43.01225" lon="1.4314">
        <ele>417.55</ele>
        <time>2024-09-18T14:07:09.999Z</time>
      </trkpt>
      <trkpt lat="43.01234" lon="1.4314">
        <ele>417.57</ele>
        <time>2024-09-18T14:07:14.999Z</time>
      </trkpt>
      <trkpt lat="43.01239" lon="1.4313">
        <ele>418.5</ele>
        <time>2024-09-18T14:13:16.000Z</time>
      </trkpt>
      <trkpt lat="43.0123" lon="1.43131">
        <ele>419.35</ele>
        <time>2024-09-18T14:21:31.000Z</time>
      </trkpt>
      <trkpt lat="43.01226" lon="1.43112">
        <ele>419.5</ele>
        <time>2024-09-18T14:21:36.000Z</time>
      </trkpt>
      <trkpt lat="43.01221" lon="1.43096">
        <ele>419.64</ele>
        <time>2024-09-18T14:21:41.000Z</time>
      </trkpt>
      <trkpt lat="43.01216" lon="1.43076">
        <ele>419.75</ele>
        <time>2024-09-18T14:21:46.000Z</time>
      </trkpt>
      <trkpt lat="43.01216" lon="1.43053">
        <ele>419.84</ele>
        <time>2024-09-18T14:21:51.000Z</time>
      </trkpt>
      <trkpt lat="43.01221" lon="1.43031">
        <ele>419.92</ele>
        <time>2024-09-18T14:21:56.000Z</time>
      </trkpt>
      <trkpt lat="43.01224" lon="1.43009">
        <ele>420.08</ele>
        <time>2024-09-18T14:22:01.000Z</time>
      </trkpt>
      <trkpt lat="43.01228" lon="1.42981">
        <ele>420.42</ele>
        <time>2024-09-18T14:22:06.000Z</time>
      </trkpt>
      <trkpt lat="43.01232" lon="1.42953">
        <ele>420.52</ele>
        <time>2024-09-18T14:22:11.000Z</time>
      </trkpt>
      <trkpt lat="43.01235" lon="1.42926">
        <ele>420.55</ele>
        <time>2024-09-18T14:22:16.000Z</time>
      </trkpt>
      <trkpt lat="43.01245" lon="1.42909">
        <ele>420.55</ele>
        <time>2024-09-18T14:22:21.000Z</time>
      </trkpt>
      <trkpt lat="43.01255" lon="1.42915">
        <ele>427.61</ele>
        <time>2024-09-18T14:52:23.999Z</time>
      </trkpt>
      <trkpt lat="43.01277" lon="1.42928">
        <ele>428.11</ele>
        <time>2024-09-18T14:52:28.999Z</time>
      </trkpt>
      <trkpt lat="43.01302" lon="1.42947">
        <ele>428.31</ele>
        <time>2024-09-18T14:52:33.999Z</time>
      </trkpt>
      <trkpt lat="43.01331" lon="1.42967">
        <ele>428.25</ele>
        <time>2024-09-18T14:52:38.999Z</time>
      </trkpt>
      <trkpt lat="43.01364" lon="1.42985">
        <ele>428.09</ele>
        <time>2024-09-18T14:52:43.999Z</time>
      </trkpt>
      <trkpt lat="43.01392" lon="1.43001">
        <ele>427.97</ele>
        <time>2024-09-18T14:52:48.999Z</time>
      </trkpt>
      <trkpt lat="43.01418" lon="1.43015">
        <ele>427.99</ele>
        <time>2024-09-18T14:52:53.999Z</time>
      </trkpt>
      <trkpt lat="43.01437" lon="1.4303">
        <ele>427.59</ele>
        <time>2024-09-18T14:52:58.999Z</time>
      </trkpt>
      <trkpt lat="43.01454" lon="1.43035">
        <ele>427.56</ele>
        <time>2024-09-18T14:53:03.999Z</time>
      </trkpt>
      <trkpt lat="43.01471" lon="1.43035">
        <ele>427.38</ele>
        <time>2024-09-18T14:53:08.999Z</time>
      </trkpt>
      <trkpt lat="43.01481" lon="1.43044">
        <ele>427.22</ele>
        <time>2024-09-18T14:53:13.999Z</time>
      </trkpt>
      <trkpt lat="43.01486" lon="1.43055">
        <ele>427.08</ele>
        <time>2024-09-18T14:53:18.999Z</time>
      </trkpt>
      <trkpt lat="43.01478" lon="1.43069">
        <ele>426.95</ele>
        <time>2024-09-18T14:53:23.999Z</time>
      </trkpt>
      <trkpt lat="43.01468" lon="1.43091">
        <ele>426.18</ele>
        <time>2024-09-18T14:53:28.999Z</time>
      </trkpt>
      <trkpt lat="43.01454" lon="1.43115">
        <ele>424.89</ele>
        <time>2024-09-18T14:53:33.999Z</time>
      </trkpt>
      <trkpt lat="43.01441" lon="1.4314">
        <ele>423.83</ele>
        <time>2024-09-18T14:53:38.999Z</time>
      </trkpt>
      <trkpt lat="43.01428" lon="1.43165">
        <ele>423.14</ele>
        <time>2024-09-18T14:53:43.999Z</time>
      </trkpt>
      <trkpt lat="43.01417" lon="1.43196">
        <ele>422.61</ele>
        <time>2024-09-18T14:53:48.999Z</time>
      </trkpt>
      <trkpt lat="43.01406" lon="1.43226">
        <ele>422.33</ele>
        <time>2024-09-18T14:53:53.999Z</time>
      </trkpt>
      <trkpt lat="43.01396" lon="1.43253">
        <ele>422.27</ele>
        <time>2024-09-18T14:53:58.999Z</time>
      </trkpt>
      <trkpt lat="43.01385" lon="1.43279">
        <ele>422.28</ele>
        <time>2024-09-18T14:54:03.999Z</time>
      </trkpt>
      <trkpt lat="43.01376" lon="1.43305">
        <ele>422.29</ele>
        <time>2024-09-18T14:54:08.999Z</time>
      </trkpt>
      <trkpt lat="43.01369" lon="1.43337">
        <ele>422.42</ele>
        <time>2024-09-18T14:54:13.999Z</time>
      </trkpt>
      <trkpt lat="43.01366" lon="1.43373">
        <ele>422.57</ele>
        <time>2024-09-18T14:54:18.999Z</time>
      </trkpt>
      <trkpt lat="43.01364" lon="1.434">
        <ele>422.67</ele>
        <time>2024-09-18T14:54:23.999Z</time>
      </trkpt>
      <trkpt lat="43.01362" lon="1.43423">
        <ele>422.7</ele>
        <time>2024-09-18T14:54:28.999Z</time>
      </trkpt>
      <trkpt lat="43.0136" lon="1.43452">
        <ele>422.9</ele>
        <time>2024-09-18T14:54:33.999Z</time>
      </trkpt>
      <trkpt lat="43.01358" lon="1.43479">
        <ele>422.96</ele>
        <time>2024-09-18T14:54:38.999Z</time>
      </trkpt>
      <trkpt lat="43.01357" lon="1.43507">
        <ele>422.97</ele>
        <time>2024-09-18T14:54:43.999Z</time>
      </trkpt>
      <trkpt lat="43.01355" lon="1.43535">
        <ele>422.98</ele>
        <time>2024-09-18T14:54:48.999Z</time>
      </trkpt>
      <trkpt lat="43.01353" lon="1.43562">
        <ele>423</ele>
        <time>2024-09-18T14:54:53.999Z</time>
      </trkpt>
      <trkpt lat="43.01353" lon="1.43588">
        <ele>423.02</ele>
        <time>2024-09-18T14:54:58.999Z</time>
      </trkpt>
      <trkpt lat="43.01352" lon="1.43614">
        <ele>423.04</ele>
        <time>2024-09-18T14:55:03.999Z</time>
      </trkpt>
      <trkpt lat="43.01351" lon="1.43639">
        <ele>423.03</ele>
        <time>2024-09-18T14:55:08.999Z</time>
      </trkpt>
      <trkpt lat="43.0135" lon="1.43662">
        <ele>423.01</ele>
        <time>2024-09-18T14:55:13.999Z</time>
      </trkpt>
      <trkpt lat="43.01348" lon="1.43684">
        <ele>422.98</ele>
        <time>2024-09-18T14:55:18.999Z</time>
      </trkpt>
      <trkpt lat="43.01346" lon="1.43712">
        <ele>422.95</ele>
        <time>2024-09-18T14:55:23.999Z</time>
      </trkpt>
      <trkpt lat="43.01344" lon="1.43736">
        <ele>422.91</ele>
        <time>2024-09-18T14:55:28.999Z</time>
      </trkpt>
      <trkpt lat="43.01342" lon="1.4376">
        <ele>422.88</ele>
        <time>2024-09-18T14:55:33.999Z</time>
      </trkpt>
      <trkpt lat="43.0134" lon="1.43785">
        <ele>422.79</ele>
        <time>2024-09-18T14:55:38.999Z</time>
      </trkpt>
      <trkpt lat="43.01339" lon="1.43809">
        <ele>422.76</ele>
        <time>2024-09-18T14:55:43.999Z</time>
      </trkpt>
      <trkpt lat="43.01338" lon="1.43833">
        <ele>422.75</ele>
        <time>2024-09-18T14:55:48.999Z</time>
      </trkpt>
      <trkpt lat="43.01336" lon="1.43859">
        <ele>422.62</ele>
        <time>2024-09-18T14:55:53.999Z</time>
      </trkpt>
      <trkpt lat="43.01332" lon="1.43884">
        <ele>422.58</ele>
        <time>2024-09-18T14:55:58.999Z</time>
      </trkpt>
      <trkpt lat="43.01327" lon="1.43899">
        <ele>422.57</ele>
        <time>2024-09-18T14:56:03.999Z</time>
      </trkpt>
      <trkpt lat="43.01332" lon="1.43913">
        <ele>422.56</ele>
        <time>2024-09-18T14:56:08.999Z</time>
      </trkpt>
      <trkpt lat="43.01334" lon="1.43931">
        <ele>422.56</ele>
        <time>2024-09-18T14:56:13.999Z</time>
      </trkpt>
      <trkpt lat="43.01331" lon="1.43949">
        <ele>422.56</ele>
        <time>2024-09-18T14:56:18.999Z</time>
      </trkpt>
      <trkpt lat="43.0133" lon="1.43965">
        <ele>422.58</ele>
        <time>2024-09-18T14:56:23.999Z</time>
      </trkpt>
      <trkpt lat="43.01328" lon="1.43988">
        <ele>422.62</ele>
        <time>2024-09-18T14:56:28.999Z</time>
      </trkpt>
      <trkpt lat="43.01325" lon="1.44013">
        <ele>422.68</ele>
        <time>2024-09-18T14:56:33.999Z</time>
      </trkpt>
      <trkpt lat="43.01322" lon="1.44037">
        <ele>422.74</ele>
        <time>2024-09-18T14:56:38.999Z</time>
      </trkpt>
      <trkpt lat="43.01317" lon="1.44061">
        <ele>422.81</ele>
        <time>2024-09-18T14:56:43.999Z</time>
      </trkpt>
      <trkpt lat="43.01313" lon="1.44086">
        <ele>422.88</ele>
        <time>2024-09-18T14:56:48.999Z</time>
      </trkpt>
      <trkpt lat="43.01309" lon="1.44112">
        <ele>423.06</ele>
        <time>2024-09-18T14:56:53.999Z</time>
      </trkpt>
      <trkpt lat="43.01305" lon="1.44138">
        <ele>423.15</ele>
        <time>2024-09-18T14:56:58.999Z</time>
      </trkpt>
      <trkpt lat="43.013" lon="1.44164">
        <ele>423.2</ele>
        <time>2024-09-18T14:57:03.999Z</time>
      </trkpt>
      <trkpt lat="43.01297" lon="1.4419">
        <ele>423.25</ele>
        <time>2024-09-18T14:57:08.999Z</time>
      </trkpt>
      <trkpt lat="43.01294" lon="1.44215">
        <ele>423.45</ele>
        <time>2024-09-18T14:57:13.999Z</time>
      </trkpt>
      <trkpt lat="43.01291" lon="1.44241">
        <ele>423.68</ele>
        <time>2024-09-18T14:57:18.999Z</time>
      </trkpt>
      <trkpt lat="43.01288" lon="1.44263">
        <ele>423.7</ele>
        <time>2024-09-18T14:57:23.999Z</time>
      </trkpt>
      <trkpt lat="43.01288" lon="1.44287">
        <ele>423.84</ele>
        <time>2024-09-18T14:57:28.999Z</time>
      </trkpt>
      <trkpt lat="43.01287" lon="1.44315">
        <ele>424.12</ele>
        <time>2024-09-18T14:57:33.999Z</time>
      </trkpt>
      <trkpt lat="43.01287" lon="1.44339">
        <ele>424.15</ele>
        <time>2024-09-18T14:57:38.999Z</time>
      </trkpt>
      <trkpt lat="43.01288" lon="1.44366">
        <ele>424.2</ele>
        <time>2024-09-18T14:57:43.999Z</time>
      </trkpt>
      <trkpt lat="43.0129" lon="1.44394">
        <ele>424.25</ele>
        <time>2024-09-18T14:57:48.999Z</time>
      </trkpt>
      <trkpt lat="43.01293" lon="1.44421">
        <ele>424.35</ele>
        <time>2024-09-18T14:57:53.999Z</time>
      </trkpt>
      <trkpt lat="43.01295" lon="1.44447">
        <ele>424.38</ele>
        <time>2024-09-18T14:57:58.999Z</time>
      </trkpt>
      <trkpt lat="43.01299" lon="1.44471">
        <ele>424.41</ele>
        <time>2024-09-18T14:58:03.999Z</time>
      </trkpt>
      <trkpt lat="43.01301" lon="1.44493">
        <ele>424.45</ele>
        <time>2024-09-18T14:58:08.999Z</time>
      </trkpt>
      <trkpt lat="43.01302" lon="1.44515">
        <ele>424.49</ele>
        <time>2024-09-18T14:58:13.999Z</time>
      </trkpt>
      <trkpt lat="43.01305" lon="1.44542">
        <ele>424.54</ele>
        <time>2024-09-18T14:58:18.999Z</time>
      </trkpt>
      <trkpt lat="43.01308" lon="1.44568">
        <ele>424.59</ele>
        <time>2024-09-18T14:58:23.999Z</time>
      </trkpt>
      <trkpt lat="43.0131" lon="1.44594">
        <ele>424.67</ele>
        <time>2024-09-18T14:58:28.999Z</time>
      </trkpt>
      <trkpt lat="43.01312" lon="1.44623">
        <ele>425.13</ele>
        <time>2024-09-18T14:58:33.999Z</time>
      </trkpt>
      <trkpt lat="43.01315" lon="1.4465">
        <ele>425.32</ele>
        <time>2024-09-18T14:58:38.999Z</time>
      </trkpt>
      <trkpt lat="43.01316" lon="1.44674">
        <ele>425.39</ele>
        <time>2024-09-18T14:58:43.999Z</time>
      </trkpt>
      <trkpt lat="43.01317" lon="1.4469">
        <ele>425.49</ele>
        <time>2024-09-18T14:58:48.999Z</time>
      </trkpt>
      <trkpt lat="43.0132" lon="1.44713">
        <ele>425.61</ele>
        <time>2024-09-18T14:58:53.999Z</time>
      </trkpt>
      <trkpt lat="43.01323" lon="1.44738">
        <ele>425.76</ele>
        <time>2024-09-18T14:58:58.999Z</time>
      </trkpt>
      <trkpt lat="43.01325" lon="1.44765">
        <ele>425.92</ele>
        <time>2024-09-18T14:59:03.999Z</time>
      </trkpt>
      <trkpt lat="43.01327" lon="1.44791">
        <ele>426.09</ele>
        <time>2024-09-18T14:59:08.999Z</time>
      </trkpt>
      <trkpt lat="43.01329" lon="1.44813">
        <ele>426.28</ele>
        <time>2024-09-18T14:59:13.999Z</time>
      </trkpt>
      <trkpt lat="43.01332" lon="1.44836">
        <ele>426.49</ele>
        <time>2024-09-18T14:59:18.999Z</time>
      </trkpt>
      <trkpt lat="43.01334" lon="1.44863">
        <ele>426.7</ele>
        <time>2024-09-18T14:59:23.999Z</time>
      </trkpt>
      <trkpt lat="43.01336" lon="1.44887">
        <ele>426.94</ele>
        <time>2024-09-18T14:59:28.999Z</time>
      </trkpt>
      <trkpt lat="43.01338" lon="1.44912">
        <ele>427.2</ele>
        <time>2024-09-18T14:59:33.999Z</time>
      </trkpt>
      <trkpt lat="43.01341" lon="1.44935">
        <ele>427.46</ele>
        <time>2024-09-18T14:59:38.999Z</time>
      </trkpt>
      <trkpt lat="43.01343" lon="1.44959">
        <ele>427.73</ele>
        <time>2024-09-18T14:59:43.999Z</time>
      </trkpt>
      <trkpt lat="43.01346" lon="1.44983">
        <ele>427.98</ele>
        <time>2024-09-18T14:59:48.999Z</time>
      </trkpt>
      <trkpt lat="43.0135" lon="1.45009">
        <ele>428.22</ele>
        <time>2024-09-18T14:59:53.999Z</time>
      </trkpt>
      <trkpt lat="43.01353" lon="1.45034">
        <ele>428.44</ele>
        <time>2024-09-18T14:59:58.999Z</time>
      </trkpt>
      <trkpt lat="43.01356" lon="1.45059">
        <ele>428.64</ele>
        <time>2024-09-18T15:00:03.999Z</time>
      </trkpt>
      <trkpt lat="43.01358" lon="1.45082">
        <ele>428.82</ele>
        <time>2024-09-18T15:00:08.999Z</time>
      </trkpt>
      <trkpt lat="43.0136" lon="1.45107">
        <ele>429.27</ele>
        <time>2024-09-18T15:00:13.999Z</time>
      </trkpt>
      <trkpt lat="43.01363" lon="1.45134">
        <ele>429.78</ele>
        <time>2024-09-18T15:00:18.999Z</time>
      </trkpt>
      <trkpt lat="43.01365" lon="1.45161">
        <ele>430.12</ele>
        <time>2024-09-18T15:00:23.999Z</time>
      </trkpt>
      <trkpt lat="43.01366" lon="1.45188">
        <ele>430.29</ele>
        <time>2024-09-18T15:00:28.999Z</time>
      </trkpt>
      <trkpt lat="43.01366" lon="1.45212">
        <ele>430.36</ele>
        <time>2024-09-18T15:00:33.999Z</time>
      </trkpt>
      <trkpt lat="43.01364" lon="1.45237">
        <ele>430.57</ele>
        <time>2024-09-18T15:00:38.999Z</time>
      </trkpt>
      <trkpt lat="43.01362" lon="1.45263">
        <ele>430.63</ele>
        <time>2024-09-18T15:00:44.000Z</time>
      </trkpt>
      <trkpt lat="43.01359" lon="1.4529">
        <ele>430.7</ele>
        <time>2024-09-18T15:00:49.000Z</time>
      </trkpt>
      <trkpt lat="43.01354" lon="1.45314">
        <ele>430.77</ele>
        <time>2024-09-18T15:00:54.000Z</time>
      </trkpt>
      <trkpt lat="43.01347" lon="1.45337">
        <ele>430.86</ele>
        <time>2024-09-18T15:00:59.000Z</time>
      </trkpt>
      <trkpt lat="43.01339" lon="1.45361">
        <ele>430.95</ele>
        <time>2024-09-18T15:01:04.000Z</time>
      </trkpt>
      <trkpt lat="43.01331" lon="1.45384">
        <ele>431.05</ele>
        <time>2024-09-18T15:01:09.000Z</time>
      </trkpt>
      <trkpt lat="43.01322" lon="1.4541">
        <ele>431.15</ele>
        <time>2024-09-18T15:01:14.000Z</time>
      </trkpt>
      <trkpt lat="43.0131" lon="1.45431">
        <ele>431.26</ele>
        <time>2024-09-18T15:01:19.000Z</time>
      </trkpt>
      <trkpt lat="43.01298" lon="1.45454">
        <ele>431.37</ele>
        <time>2024-09-18T15:01:24.000Z</time>
      </trkpt>
      <trkpt lat="43.01281" lon="1.45478">
        <ele>431.49</ele>
        <time>2024-09-18T15:01:29.000Z</time>
      </trkpt>
      <trkpt lat="43.01267" lon="1.45498">
        <ele>431.62</ele>
        <time>2024-09-18T15:01:34.000Z</time>
      </trkpt>
      <trkpt lat="43.01252" lon="1.4552">
        <ele>432.3</ele>
        <time>2024-09-18T15:01:39.000Z</time>
      </trkpt>
      <trkpt lat="43.01237" lon="1.45539">
        <ele>432.89</ele>
        <time>2024-09-18T15:01:44.000Z</time>
      </trkpt>
      <trkpt lat="43.01222" lon="1.4556">
        <ele>433.35</ele>
        <time>2024-09-18T15:01:49.000Z</time>
      </trkpt>
      <trkpt lat="43.01207" lon="1.45579">
        <ele>433.45</ele>
        <time>2024-09-18T15:01:54.000Z</time>
      </trkpt>
      <trkpt lat="43.01194" lon="1.456">
        <ele>433.49</ele>
        <time>2024-09-18T15:01:59.000Z</time>
      </trkpt>
      <trkpt lat="43.01181" lon="1.45622">
        <ele>433.55</ele>
        <time>2024-09-18T15:02:04.000Z</time>
      </trkpt>
      <trkpt lat="43.01171" lon="1.45645">
        <ele>433.63</ele>
        <time>2024-09-18T15:02:09.000Z</time>
      </trkpt>
      <trkpt lat="43.01162" lon="1.45664">
        <ele>433.72</ele>
        <time>2024-09-18T15:02:14.000Z</time>
      </trkpt>
      <trkpt lat="43.01157" lon="1.4576">
        <ele>434.44</ele>
        <time>2024-09-18T15:02:29.000Z</time>
      </trkpt>
      <trkpt lat="43.01135" lon="1.45773">
        <ele>434.59</ele>
        <time>2024-09-18T15:02:34.000Z</time>
      </trkpt>
      <trkpt lat="43.01132" lon="1.45796">
        <ele>434.6</ele>
        <time>2024-09-18T15:02:39.000Z</time>
      </trkpt>
      <trkpt lat="43.01131" lon="1.4582">
        <ele>434.64</ele>
        <time>2024-09-18T15:02:44.000Z</time>
      </trkpt>
      <trkpt lat="43.0113" lon="1.45846">
        <ele>434.82</ele>
        <time>2024-09-18T15:02:49.000Z</time>
      </trkpt>
      <trkpt lat="43.01129" lon="1.45873">
        <ele>435.27</ele>
        <time>2024-09-18T15:02:54.000Z</time>
      </trkpt>
      <trkpt lat="43.0113" lon="1.45907">
        <ele>435.78</ele>
        <time>2024-09-18T15:02:59.000Z</time>
      </trkpt>
      <trkpt lat="43.0113" lon="1.45939">
        <ele>436.43</ele>
        <time>2024-09-18T15:03:04.000Z</time>
      </trkpt>
      <trkpt lat="43.01129" lon="1.45965">
        <ele>436.87</ele>
        <time>2024-09-18T15:03:09.000Z</time>
      </trkpt>
      <trkpt lat="43.01129" lon="1.45992">
        <ele>437.08</ele>
        <time>2024-09-18T15:03:14.000Z</time>
      </trkpt>
      <trkpt lat="43.01129" lon="1.4602">
        <ele>438.12</ele>
        <time>2024-09-18T15:03:19.000Z</time>
      </trkpt>
      <trkpt lat="43.0113" lon="1.46049">
        <ele>439.7</ele>
        <time>2024-09-18T15:03:24.000Z</time>
      </trkpt>
      <trkpt lat="43.0113" lon="1.46077">
        <ele>440.61</ele>
        <time>2024-09-18T15:03:29.000Z</time>
      </trkpt>
      <trkpt lat="43.0113" lon="1.46105">
        <ele>441.28</ele>
        <time>2024-09-18T15:03:34.000Z</time>
      </trkpt>
      <trkpt lat="43.01131" lon="1.46133">
        <ele>441.82</ele>
        <time>2024-09-18T15:03:39.000Z</time>
      </trkpt>
      <trkpt lat="43.01131" lon="1.4616">
        <ele>442.16</ele>
        <time>2024-09-18T15:03:44.000Z</time>
      </trkpt>
      <trkpt lat="43.01129" lon="1.46186">
        <ele>442.26</ele>
        <time>2024-09-18T15:03:49.000Z</time>
      </trkpt>
      <trkpt lat="43.01127" lon="1.46207">
        <ele>442.37</ele>
        <time>2024-09-18T15:03:54.000Z</time>
      </trkpt>
      <trkpt lat="43.01127" lon="1.46227">
        <ele>442.48</ele>
        <time>2024-09-18T15:03:59.000Z</time>
      </trkpt>
      <trkpt lat="43.0113" lon="1.46256">
        <ele>442.6</ele>
        <time>2024-09-18T15:04:04.000Z</time>
      </trkpt>
      <trkpt lat="43.0113" lon="1.46285">
        <ele>442.72</ele>
        <time>2024-09-18T15:04:09.000Z</time>
      </trkpt>
      <trkpt lat="43.01131" lon="1.46312">
        <ele>442.89</ele>
        <time>2024-09-18T15:04:14.000Z</time>
      </trkpt>
      <trkpt lat="43.01126" lon="1.46342">
        <ele>443.58</ele>
        <time>2024-09-18T15:04:19.000Z</time>
      </trkpt>
      <trkpt lat="43.01126" lon="1.46369">
        <ele>444.02</ele>
        <time>2024-09-18T15:04:24.000Z</time>
      </trkpt>
      <trkpt lat="43.01124" lon="1.464">
        <ele>444.29</ele>
        <time>2024-09-18T15:04:29.000Z</time>
      </trkpt>
      <trkpt lat="43.0112" lon="1.46432">
        <ele>444.6</ele>
        <time>2024-09-18T15:04:34.000Z</time>
      </trkpt>
      <trkpt lat="43.01115" lon="1.4646">
        <ele>444.92</ele>
        <time>2024-09-18T15:04:39.000Z</time>
      </trkpt>
      <trkpt lat="43.0111" lon="1.46488">
        <ele>445.3</ele>
        <time>2024-09-18T15:04:44.000Z</time>
      </trkpt>
      <trkpt lat="43.01103" lon="1.46512">
        <ele>445.7</ele>
        <time>2024-09-18T15:04:49.000Z</time>
      </trkpt>
      <trkpt lat="43.01094" lon="1.46539">
        <ele>446.13</ele>
        <time>2024-09-18T15:04:54.000Z</time>
      </trkpt>
      <trkpt lat="43.01085" lon="1.46564">
        <ele>446.6</ele>
        <time>2024-09-18T15:04:59.000Z</time>
      </trkpt>
      <trkpt lat="43.01078" lon="1.46584">
        <ele>447.11</ele>
        <time>2024-09-18T15:05:04.000Z</time>
      </trkpt>
      <trkpt lat="43.01072" lon="1.46602">
        <ele>447.64</ele>
        <time>2024-09-18T15:05:09.000Z</time>
      </trkpt>
      <trkpt lat="43.01064" lon="1.46627">
        <ele>448.17</ele>
        <time>2024-09-18T15:05:14.000Z</time>
      </trkpt>
      <trkpt lat="43.01057" lon="1.4665">
        <ele>448.69</ele>
        <time>2024-09-18T15:05:19.000Z</time>
      </trkpt>
      <trkpt lat="43.01049" lon="1.46676">
        <ele>449.14</ele>
        <time>2024-09-18T15:05:24.000Z</time>
      </trkpt>
      <trkpt lat="43.01044" lon="1.46702">
        <ele>449.53</ele>
        <time>2024-09-18T15:05:29.000Z</time>
      </trkpt>
      <trkpt lat="43.01036" lon="1.46727">
        <ele>449.87</ele>
        <time>2024-09-18T15:05:34.000Z</time>
      </trkpt>
      <trkpt lat="43.0103" lon="1.46757">
        <ele>451.69</ele>
        <time>2024-09-18T15:05:39.000Z</time>
      </trkpt>
      <trkpt lat="43.01025" lon="1.46782">
        <ele>451.93</ele>
        <time>2024-09-18T15:05:44.000Z</time>
      </trkpt>
      <trkpt lat="43.01021" lon="1.46808">
        <ele>452.28</ele>
        <time>2024-09-18T15:05:49.000Z</time>
      </trkpt>
      <trkpt lat="43.01016" lon="1.46834">
        <ele>452.36</ele>
        <time>2024-09-18T15:05:54.000Z</time>
      </trkpt>
      <trkpt lat="43.01012" lon="1.46857">
        <ele>452.47</ele>
        <time>2024-09-18T15:05:59.000Z</time>
      </trkpt>
      <trkpt lat="43.01009" lon="1.46883">
        <ele>452.6</ele>
        <time>2024-09-18T15:06:04.000Z</time>
      </trkpt>
      <trkpt lat="43.01004" lon="1.46912">
        <ele>452.7</ele>
        <time>2024-09-18T15:06:09.000Z</time>
      </trkpt>
      <trkpt lat="43.01" lon="1.46939">
        <ele>452.82</ele>
        <time>2024-09-18T15:06:14.000Z</time>
      </trkpt>
      <trkpt lat="43.00996" lon="1.46961">
        <ele>452.94</ele>
        <time>2024-09-18T15:06:19.000Z</time>
      </trkpt>
      <trkpt lat="43.00991" lon="1.4699">
        <ele>453.07</ele>
        <time>2024-09-18T15:06:24.000Z</time>
      </trkpt>
      <trkpt lat="43.00987" lon="1.47021">
        <ele>453.52</ele>
        <time>2024-09-18T15:06:29.000Z</time>
      </trkpt>
      <trkpt lat="43.00983" lon="1.47045">
        <ele>453.67</ele>
        <time>2024-09-18T15:06:34.000Z</time>
      </trkpt>
      <trkpt lat="43.00979" lon="1.47069">
        <ele>453.8</ele>
        <time>2024-09-18T15:06:39.000Z</time>
      </trkpt>
      <trkpt lat="43.00975" lon="1.47098">
        <ele>453.94</ele>
        <time>2024-09-18T15:06:44.000Z</time>
      </trkpt>
      <trkpt lat="43.00971" lon="1.47129">
        <ele>454.77</ele>
        <time>2024-09-18T15:06:49.000Z</time>
      </trkpt>
      <trkpt lat="43.00972" lon="1.47158">
        <ele>455.09</ele>
        <time>2024-09-18T15:06:54.000Z</time>
      </trkpt>
      <trkpt lat="43.00975" lon="1.47187">
        <ele>455.85</ele>
        <time>2024-09-18T15:06:59.000Z</time>
      </trkpt>
      <trkpt lat="43.0098" lon="1.47214">
        <ele>457.09</ele>
        <time>2024-09-18T15:07:04.000Z</time>
      </trkpt>
      <trkpt lat="43.00986" lon="1.47243">
        <ele>458.18</ele>
        <time>2024-09-18T15:07:09.000Z</time>
      </trkpt>
      <trkpt lat="43.00993" lon="1.47271">
        <ele>458.65</ele>
        <time>2024-09-18T15:07:14.000Z</time>
      </trkpt>
      <trkpt lat="43.01" lon="1.47296">
        <ele>458.98</ele>
        <time>2024-09-18T15:07:19.000Z</time>
      </trkpt>
      <trkpt lat="43.0101" lon="1.47322">
        <ele>459.12</ele>
        <time>2024-09-18T15:07:24.000Z</time>
      </trkpt>
      <trkpt lat="43.01021" lon="1.47346">
        <ele>459.09</ele>
        <time>2024-09-18T15:07:29.000Z</time>
      </trkpt>
      <trkpt lat="43.01034" lon="1.47367">
        <ele>459.05</ele>
        <time>2024-09-18T15:07:34.000Z</time>
      </trkpt>
      <trkpt lat="43.01047" lon="1.47387">
        <ele>459.02</ele>
        <time>2024-09-18T15:07:39.000Z</time>
      </trkpt>
      <trkpt lat="43.01062" lon="1.47406">
        <ele>459.06</ele>
        <time>2024-09-18T15:07:44.000Z</time>
      </trkpt>
      <trkpt lat="43.01077" lon="1.47424">
        <ele>459.14</ele>
        <time>2024-09-18T15:07:49.000Z</time>
      </trkpt>
      <trkpt lat="43.01092" lon="1.47441">
        <ele>459.52</ele>
        <time>2024-09-18T15:07:54.000Z</time>
      </trkpt>
      <trkpt lat="43.01106" lon="1.47459">
        <ele>459.72</ele>
        <time>2024-09-18T15:07:59.000Z</time>
      </trkpt>
      <trkpt lat="43.01119" lon="1.47476">
        <ele>459.85</ele>
        <time>2024-09-18T15:08:04.000Z</time>
      </trkpt>
      <trkpt lat="43.01132" lon="1.47491">
        <ele>459.91</ele>
        <time>2024-09-18T15:08:09.000Z</time>
      </trkpt>
      <trkpt lat="43.01144" lon="1.47505">
        <ele>459.96</ele>
        <time>2024-09-18T15:08:14.000Z</time>
      </trkpt>
      <trkpt lat="43.01158" lon="1.47521">
        <ele>460</ele>
        <time>2024-09-18T15:08:19.000Z</time>
      </trkpt>
      <trkpt lat="43.01173" lon="1.47539">
        <ele>460.25</ele>
        <time>2024-09-18T15:08:24.000Z</time>
      </trkpt>
      <trkpt lat="43.01187" lon="1.47558">
        <ele>460.28</ele>
        <time>2024-09-18T15:08:29.000Z</time>
      </trkpt>
      <trkpt lat="43.012" lon="1.47577">
        <ele>460.53</ele>
        <time>2024-09-18T15:08:34.000Z</time>
      </trkpt>
      <trkpt lat="43.01215" lon="1.47602">
        <ele>460.83</ele>
        <time>2024-09-18T15:08:39.000Z</time>
      </trkpt>
      <trkpt lat="43.01226" lon="1.47627">
        <ele>461.09</ele>
        <time>2024-09-18T15:08:44.000Z</time>
      </trkpt>
      <trkpt lat="43.01237" lon="1.47653">
        <ele>461.37</ele>
        <time>2024-09-18T15:08:49.000Z</time>
      </trkpt>
      <trkpt lat="43.01245" lon="1.47683">
        <ele>461.69</ele>
        <time>2024-09-18T15:08:54.000Z</time>
      </trkpt>
      <trkpt lat="43.01251" lon="1.47709">
        <ele>461.93</ele>
        <time>2024-09-18T15:08:59.000Z</time>
      </trkpt>
      <trkpt lat="43.01256" lon="1.47735">
        <ele>462.18</ele>
        <time>2024-09-18T15:09:04.000Z</time>
      </trkpt>
      <trkpt lat="43.01259" lon="1.47762">
        <ele>462.29</ele>
        <time>2024-09-18T15:09:09.000Z</time>
      </trkpt>
      <trkpt lat="43.01262" lon="1.4779">
        <ele>462.39</ele>
        <time>2024-09-18T15:09:14.000Z</time>
      </trkpt>
      <trkpt lat="43.01265" lon="1.47817">
        <ele>462.57</ele>
        <time>2024-09-18T15:09:19.000Z</time>
      </trkpt>
      <trkpt lat="43.01267" lon="1.47842">
        <ele>462.62</ele>
        <time>2024-09-18T15:09:24.000Z</time>
      </trkpt>
      <trkpt lat="43.01269" lon="1.47868">
        <ele>462.88</ele>
        <time>2024-09-18T15:09:29.000Z</time>
      </trkpt>
      <trkpt lat="43.01271" lon="1.47896">
        <ele>463.1</ele>
        <time>2024-09-18T15:09:34.000Z</time>
      </trkpt>
      <trkpt lat="43.01274" lon="1.47922">
        <ele>463.27</ele>
        <time>2024-09-18T15:09:39.000Z</time>
      </trkpt>
      <trkpt lat="43.01274" lon="1.47946">
        <ele>463.48</ele>
        <time>2024-09-18T15:09:44.000Z</time>
      </trkpt>
      <trkpt lat="43.01276" lon="1.47973">
        <ele>463.76</ele>
        <time>2024-09-18T15:09:49.000Z</time>
      </trkpt>
      <trkpt lat="43.01276" lon="1.48001">
        <ele>464.04</ele>
        <time>2024-09-18T15:09:54.000Z</time>
      </trkpt>
      <trkpt lat="43.01275" lon="1.4803">
        <ele>464.88</ele>
        <time>2024-09-18T15:09:59.000Z</time>
      </trkpt>
      <trkpt lat="43.01272" lon="1.48059">
        <ele>466.21</ele>
        <time>2024-09-18T15:10:04.000Z</time>
      </trkpt>
      <trkpt lat="43.01267" lon="1.48084">
        <ele>468.54</ele>
        <time>2024-09-18T15:10:09.000Z</time>
      </trkpt>
      <trkpt lat="43.01262" lon="1.48114">
        <ele>469.32</ele>
        <time>2024-09-18T15:10:14.000Z</time>
      </trkpt>
      <trkpt lat="43.01255" lon="1.48136">
        <ele>469.83</ele>
        <time>2024-09-18T15:10:19.000Z</time>
      </trkpt>
      <trkpt lat="43.01248" lon="1.48157">
        <ele>470.34</ele>
        <time>2024-09-18T15:10:24.000Z</time>
      </trkpt>
      <trkpt lat="43.0124" lon="1.48174">
        <ele>470.82</ele>
        <time>2024-09-18T15:10:29.000Z</time>
      </trkpt>
      <trkpt lat="43.01232" lon="1.48191">
        <ele>471.27</ele>
        <time>2024-09-18T15:10:34.000Z</time>
      </trkpt>
      <trkpt lat="43.01221" lon="1.48209">
        <ele>471.69</ele>
        <time>2024-09-18T15:10:39.000Z</time>
      </trkpt>
      <trkpt lat="43.01209" lon="1.4823">
        <ele>472.72</ele>
        <time>2024-09-18T15:10:44.000Z</time>
      </trkpt>
      <trkpt lat="43.01198" lon="1.48248">
        <ele>473.03</ele>
        <time>2024-09-18T15:10:49.000Z</time>
      </trkpt>
      <trkpt lat="43.01185" lon="1.48264">
        <ele>473.25</ele>
        <time>2024-09-18T15:10:54.000Z</time>
      </trkpt>
      <trkpt lat="43.01171" lon="1.4828">
        <ele>473.43</ele>
        <time>2024-09-18T15:10:59.000Z</time>
      </trkpt>
      <trkpt lat="43.01158" lon="1.48298">
        <ele>473.59</ele>
        <time>2024-09-18T15:11:04.000Z</time>
      </trkpt>
      <trkpt lat="43.01145" lon="1.48315">
        <ele>473.74</ele>
        <time>2024-09-18T15:11:09.000Z</time>
      </trkpt>
      <trkpt lat="43.01132" lon="1.48332">
        <ele>473.87</ele>
        <time>2024-09-18T15:11:14.000Z</time>
      </trkpt>
      <trkpt lat="43.01119" lon="1.48348">
        <ele>474</ele>
        <time>2024-09-18T15:11:19.000Z</time>
      </trkpt>
      <trkpt lat="43.01107" lon="1.48365">
        <ele>474.12</ele>
        <time>2024-09-18T15:11:24.000Z</time>
      </trkpt>
      <trkpt lat="43.01095" lon="1.48382">
        <ele>474.24</ele>
        <time>2024-09-18T15:11:29.000Z</time>
      </trkpt>
      <trkpt lat="43.01085" lon="1.48402">
        <ele>474.37</ele>
        <time>2024-09-18T15:11:34.000Z</time>
      </trkpt>
      <trkpt lat="43.01075" lon="1.48422">
        <ele>474.5</ele>
        <time>2024-09-18T15:11:39.000Z</time>
      </trkpt>
      <trkpt lat="43.01067" lon="1.48443">
        <ele>474.64</ele>
        <time>2024-09-18T15:11:44.000Z</time>
      </trkpt>
      <trkpt lat="43.01059" lon="1.48464">
        <ele>474.76</ele>
        <time>2024-09-18T15:11:49.000Z</time>
      </trkpt>
      <trkpt lat="43.01052" lon="1.48482">
        <ele>474.89</ele>
        <time>2024-09-18T15:11:54.000Z</time>
      </trkpt>
      <trkpt lat="43.01046" lon="1.48504">
        <ele>475.02</ele>
        <time>2024-09-18T15:11:59.000Z</time>
      </trkpt>
      <trkpt lat="43.01041" lon="1.48526">
        <ele>475.15</ele>
        <time>2024-09-18T15:12:04.000Z</time>
      </trkpt>
      <trkpt lat="43.01036" lon="1.48551">
        <ele>475.3</ele>
        <time>2024-09-18T15:12:09.000Z</time>
      </trkpt>
      <trkpt lat="43.01031" lon="1.48574">
        <ele>475.49</ele>
        <time>2024-09-18T15:12:14.000Z</time>
      </trkpt>
      <trkpt lat="43.01027" lon="1.48597">
        <ele>475.72</ele>
        <time>2024-09-18T15:12:19.000Z</time>
      </trkpt>
      <trkpt lat="43.01023" lon="1.4862">
        <ele>475.96</ele>
        <time>2024-09-18T15:12:24.000Z</time>
      </trkpt>
      <trkpt lat="43.01018" lon="1.48647">
        <ele>476.2</ele>
        <time>2024-09-18T15:12:29.000Z</time>
      </trkpt>
      <trkpt lat="43.01014" lon="1.48669">
        <ele>476.43</ele>
        <time>2024-09-18T15:12:34.000Z</time>
      </trkpt>
      <trkpt lat="43.0101" lon="1.48691">
        <ele>476.65</ele>
        <time>2024-09-18T15:12:39.000Z</time>
      </trkpt>
      <trkpt lat="43.01005" lon="1.48715">
        <ele>476.86</ele>
        <time>2024-09-18T15:12:44.000Z</time>
      </trkpt>
      <trkpt lat="43.01" lon="1.48741">
        <ele>477.1</ele>
        <time>2024-09-18T15:12:49.999Z</time>
      </trkpt>
      <trkpt lat="43.00996" lon="1.48762">
        <ele>477.28</ele>
        <time>2024-09-18T15:12:54.999Z</time>
      </trkpt>
      <trkpt lat="43.00991" lon="1.48787">
        <ele>477.44</ele>
        <time>2024-09-18T15:12:59.999Z</time>
      </trkpt>
      <trkpt lat="43.00987" lon="1.48812">
        <ele>477.59</ele>
        <time>2024-09-18T15:13:04.999Z</time>
      </trkpt>
      <trkpt lat="43.00982" lon="1.48836">
        <ele>477.72</ele>
        <time>2024-09-18T15:13:09.999Z</time>
      </trkpt>
      <trkpt lat="43.00977" lon="1.4886">
        <ele>477.84</ele>
        <time>2024-09-18T15:13:14.999Z</time>
      </trkpt>
      <trkpt lat="43.00974" lon="1.48884">
        <ele>477.95</ele>
        <time>2024-09-18T15:13:19.999Z</time>
      </trkpt>
      <trkpt lat="43.00971" lon="1.48907">
        <ele>478.07</ele>
        <time>2024-09-18T15:13:24.999Z</time>
      </trkpt>
      <trkpt lat="43.0097" lon="1.48923">
        <ele>478.18</ele>
        <time>2024-09-18T15:13:29.999Z</time>
      </trkpt>
      <trkpt lat="43.00968" lon="1.4894">
        <ele>478.29</ele>
        <time>2024-09-18T15:13:34.999Z</time>
      </trkpt>
      <trkpt lat="43.00966" lon="1.48955">
        <ele>478.4</ele>
        <time>2024-09-18T15:13:39.999Z</time>
      </trkpt>
      <trkpt lat="43.00965" lon="1.48968">
        <ele>480.16</ele>
        <time>2024-09-18T15:16:49.999Z</time>
      </trkpt>
      <trkpt lat="43.00964" lon="1.48992">
        <ele>480.38</ele>
        <time>2024-09-18T15:16:54.999Z</time>
      </trkpt>
      <trkpt lat="43.00963" lon="1.49015">
        <ele>480.58</ele>
        <time>2024-09-18T15:16:59.999Z</time>
      </trkpt>
      <trkpt lat="43.00961" lon="1.4904">
        <ele>481.37</ele>
        <time>2024-09-18T15:17:04.999Z</time>
      </trkpt>
      <trkpt lat="43.0096" lon="1.49068">
        <ele>482.18</ele>
        <time>2024-09-18T15:17:09.999Z</time>
      </trkpt>
      <trkpt lat="43.00958" lon="1.49094">
        <ele>482.36</ele>
        <time>2024-09-18T15:17:14.999Z</time>
      </trkpt>
      <trkpt lat="43.00957" lon="1.4912">
        <ele>482.48</ele>
        <time>2024-09-18T15:17:19.999Z</time>
      </trkpt>
      <trkpt lat="43.00956" lon="1.49145">
        <ele>482.51</ele>
        <time>2024-09-18T15:17:24.999Z</time>
      </trkpt>
      <trkpt lat="43.00955" lon="1.49171">
        <ele>482.53</ele>
        <time>2024-09-18T15:17:29.999Z</time>
      </trkpt>
      <trkpt lat="43.00953" lon="1.49195">
        <ele>482.58</ele>
        <time>2024-09-18T15:17:34.999Z</time>
      </trkpt>
      <trkpt lat="43.00952" lon="1.49219">
        <ele>482.66</ele>
        <time>2024-09-18T15:17:39.999Z</time>
      </trkpt>
      <trkpt lat="43.0095" lon="1.49245">
        <ele>482.87</ele>
        <time>2024-09-18T15:17:44.999Z</time>
      </trkpt>
      <trkpt lat="43.00949" lon="1.4927">
        <ele>482.97</ele>
        <time>2024-09-18T15:17:49.999Z</time>
      </trkpt>
      <trkpt lat="43.00947" lon="1.49295">
        <ele>483.18</ele>
        <time>2024-09-18T15:17:54.999Z</time>
      </trkpt>
      <trkpt lat="43.00946" lon="1.49318">
        <ele>483.25</ele>
        <time>2024-09-18T15:17:59.999Z</time>
      </trkpt>
      <trkpt lat="43.00945" lon="1.49342">
        <ele>483.35</ele>
        <time>2024-09-18T15:18:04.999Z</time>
      </trkpt>
      <trkpt lat="43.00944" lon="1.49366">
        <ele>483.47</ele>
        <time>2024-09-18T15:18:09.999Z</time>
      </trkpt>
      <trkpt lat="43.00942" lon="1.49387">
        <ele>483.62</ele>
        <time>2024-09-18T15:18:14.999Z</time>
      </trkpt>
      <trkpt lat="43.00941" lon="1.4941">
        <ele>483.79</ele>
        <time>2024-09-18T15:18:19.999Z</time>
      </trkpt>
      <trkpt lat="43.00939" lon="1.49434">
        <ele>483.97</ele>
        <time>2024-09-18T15:18:24.999Z</time>
      </trkpt>
      <trkpt lat="43.00938" lon="1.49458">
        <ele>484.17</ele>
        <time>2024-09-18T15:18:29.999Z</time>
      </trkpt>
      <trkpt lat="43.00937" lon="1.49481">
        <ele>484.38</ele>
        <time>2024-09-18T15:18:34.999Z</time>
      </trkpt>
      <trkpt lat="43.00935" lon="1.49507">
        <ele>484.59</ele>
        <time>2024-09-18T15:18:39.999Z</time>
      </trkpt>
      <trkpt lat="43.00933" lon="1.49535">
        <ele>484.81</ele>
        <time>2024-09-18T15:18:44.999Z</time>
      </trkpt>
      <trkpt lat="43.00932" lon="1.4956">
        <ele>485.03</ele>
        <time>2024-09-18T15:18:49.999Z</time>
      </trkpt>
      <trkpt lat="43.00932" lon="1.4958">
        <ele>485.24</ele>
        <time>2024-09-18T15:18:54.999Z</time>
      </trkpt>
      <trkpt lat="43.00934" lon="1.496">
        <ele>485.44</ele>
        <time>2024-09-18T15:18:59.999Z</time>
      </trkpt>
      <trkpt lat="43.00936" lon="1.49624">
        <ele>485.64</ele>
        <time>2024-09-18T15:19:04.999Z</time>
      </trkpt>
      <trkpt lat="43.00939" lon="1.49649">
        <ele>485.84</ele>
        <time>2024-09-18T15:19:09.999Z</time>
      </trkpt>
      <trkpt lat="43.00941" lon="1.49675">
        <ele>486.03</ele>
        <time>2024-09-18T15:19:14.999Z</time>
      </trkpt>
      <trkpt lat="43.00943" lon="1.49699">
        <ele>486.22</ele>
        <time>2024-09-18T15:19:19.999Z</time>
      </trkpt>
      <trkpt lat="43.00947" lon="1.49721">
        <ele>486.38</ele>
        <time>2024-09-18T15:19:24.999Z</time>
      </trkpt>
      <trkpt lat="43.00952" lon="1.49742">
        <ele>486.54</ele>
        <time>2024-09-18T15:19:29.999Z</time>
      </trkpt>
      <trkpt lat="43.00957" lon="1.49764">
        <ele>486.69</ele>
        <time>2024-09-18T15:19:34.999Z</time>
      </trkpt>
      <trkpt lat="43.00961" lon="1.49781">
        <ele>486.84</ele>
        <time>2024-09-18T15:19:39.999Z</time>
      </trkpt>
      <trkpt lat="43.00966" lon="1.49801">
        <ele>486.99</ele>
        <time>2024-09-18T15:19:44.999Z</time>
      </trkpt>
      <trkpt lat="43.00971" lon="1.49822">
        <ele>487.15</ele>
        <time>2024-09-18T15:19:49.999Z</time>
      </trkpt>
      <trkpt lat="43.00976" lon="1.49843">
        <ele>487.3</ele>
        <time>2024-09-18T15:19:54.999Z</time>
      </trkpt>
      <trkpt lat="43.00981" lon="1.49865">
        <ele>487.45</ele>
        <time>2024-09-18T15:19:59.999Z</time>
      </trkpt>
      <trkpt lat="43.00987" lon="1.49889">
        <ele>487.61</ele>
        <time>2024-09-18T15:20:04.999Z</time>
      </trkpt>
      <trkpt lat="43.00992" lon="1.49911">
        <ele>487.77</ele>
        <time>2024-09-18T15:20:09.999Z</time>
      </trkpt>
      <trkpt lat="43.00999" lon="1.49931">
        <ele>487.93</ele>
        <time>2024-09-18T15:20:14.999Z</time>
      </trkpt>
      <trkpt lat="43.01004" lon="1.49954">
        <ele>488.08</ele>
        <time>2024-09-18T15:20:19.999Z</time>
      </trkpt>
      <trkpt lat="43.01009" lon="1.49978">
        <ele>488.23</ele>
        <time>2024-09-18T15:20:24.999Z</time>
      </trkpt>
      <trkpt lat="43.01013" lon="1.5">
        <ele>488.37</ele>
        <time>2024-09-18T15:20:29.999Z</time>
      </trkpt>
      <trkpt lat="43.01015" lon="1.50019">
        <ele>488.51</ele>
        <time>2024-09-18T15:20:34.999Z</time>
      </trkpt>
      <trkpt lat="43.01015" lon="1.5004">
        <ele>488.65</ele>
        <time>2024-09-18T15:20:39.999Z</time>
      </trkpt>
      <trkpt lat="43.01015" lon="1.50053">
        <ele>488.77</ele>
        <time>2024-09-18T15:20:44.999Z</time>
      </trkpt>
      <trkpt lat="43.01013" lon="1.50065">
        <ele>489</ele>
        <time>2024-09-18T15:21:12.999Z</time>
      </trkpt>
      <trkpt lat="43.01021" lon="1.50079">
        <ele>489.12</ele>
        <time>2024-09-18T15:21:17.999Z</time>
      </trkpt>
      <trkpt lat="43.01024" lon="1.50099">
        <ele>489.25</ele>
        <time>2024-09-18T15:21:22.999Z</time>
      </trkpt>
      <trkpt lat="43.01021" lon="1.50122">
        <ele>489.4</ele>
        <time>2024-09-18T15:21:27.999Z</time>
      </trkpt>
      <trkpt lat="43.01021" lon="1.50148">
        <ele>490.28</ele>
        <time>2024-09-18T15:21:32.999Z</time>
      </trkpt>
      <trkpt lat="43.01021" lon="1.50175">
        <ele>491.08</ele>
        <time>2024-09-18T15:21:37.999Z</time>
      </trkpt>
      <trkpt lat="43.01021" lon="1.50204">
        <ele>491.53</ele>
        <time>2024-09-18T15:21:42.999Z</time>
      </trkpt>
      <trkpt lat="43.01021" lon="1.50236">
        <ele>491.76</ele>
        <time>2024-09-18T15:21:47.999Z</time>
      </trkpt>
      <trkpt lat="43.01023" lon="1.50269">
        <ele>491.89</ele>
        <time>2024-09-18T15:21:52.999Z</time>
      </trkpt>
      <trkpt lat="43.01023" lon="1.50301">
        <ele>491.99</ele>
        <time>2024-09-18T15:21:57.999Z</time>
      </trkpt>
      <trkpt lat="43.01024" lon="1.50333">
        <ele>492.06</ele>
        <time>2024-09-18T15:22:02.999Z</time>
      </trkpt>
      <trkpt lat="43.01025" lon="1.50369">
        <ele>492.07</ele>
        <time>2024-09-18T15:22:07.999Z</time>
      </trkpt>
      <trkpt lat="43.01024" lon="1.50403">
        <ele>492.07</ele>
        <time>2024-09-18T15:22:12.999Z</time>
      </trkpt>
      <trkpt lat="43.01028" lon="1.50435">
        <ele>492.05</ele>
        <time>2024-09-18T15:22:17.999Z</time>
      </trkpt>
      <trkpt lat="43.0103" lon="1.50457">
        <ele>492.05</ele>
        <time>2024-09-18T15:22:22.999Z</time>
      </trkpt>
      <trkpt lat="43.01034" lon="1.50478">
        <ele>492.06</ele>
        <time>2024-09-18T15:22:27.999Z</time>
      </trkpt>
      <trkpt lat="43.01037" lon="1.50501">
        <ele>492.07</ele>
        <time>2024-09-18T15:22:32.999Z</time>
      </trkpt>
      <trkpt lat="43.01042" lon="1.50528">
        <ele>492.13</ele>
        <time>2024-09-18T15:22:37.999Z</time>
      </trkpt>
      <trkpt lat="43.01048" lon="1.50552">
        <ele>492.18</ele>
        <time>2024-09-18T15:22:42.999Z</time>
      </trkpt>
      <trkpt lat="43.01057" lon="1.5058">
        <ele>492.27</ele>
        <time>2024-09-18T15:22:47.999Z</time>
      </trkpt>
      <trkpt lat="43.01065" lon="1.50603">
        <ele>492.38</ele>
        <time>2024-09-18T15:22:52.999Z</time>
      </trkpt>
      <trkpt lat="43.01073" lon="1.50627">
        <ele>492.69</ele>
        <time>2024-09-18T15:22:57.999Z</time>
      </trkpt>
      <trkpt lat="43.01081" lon="1.50652">
        <ele>493.06</ele>
        <time>2024-09-18T15:23:02.999Z</time>
      </trkpt>
      <trkpt lat="43.01089" lon="1.50679">
        <ele>493.17</ele>
        <time>2024-09-18T15:23:07.999Z</time>
      </trkpt>
      <trkpt lat="43.01096" lon="1.50703">
        <ele>493.49</ele>
        <time>2024-09-18T15:23:12.999Z</time>
      </trkpt>
      <trkpt lat="43.01103" lon="1.50727">
        <ele>494.1</ele>
        <time>2024-09-18T15:23:17.999Z</time>
      </trkpt>
      <trkpt lat="43.01111" lon="1.50753">
        <ele>494.73</ele>
        <time>2024-09-18T15:23:22.999Z</time>
      </trkpt>
      <trkpt lat="43.01119" lon="1.50779">
        <ele>495.26</ele>
        <time>2024-09-18T15:23:27.999Z</time>
      </trkpt>
      <trkpt lat="43.01126" lon="1.50803">
        <ele>495.54</ele>
        <time>2024-09-18T15:23:32.999Z</time>
      </trkpt>
      <trkpt lat="43.01134" lon="1.50824">
        <ele>495.61</ele>
        <time>2024-09-18T15:23:37.999Z</time>
      </trkpt>
      <trkpt lat="43.0114" lon="1.50845">
        <ele>495.7</ele>
        <time>2024-09-18T15:23:42.999Z</time>
      </trkpt>
      <trkpt lat="43.01146" lon="1.50866">
        <ele>495.83</ele>
        <time>2024-09-18T15:23:47.999Z</time>
      </trkpt>
      <trkpt lat="43.01152" lon="1.50885">
        <ele>495.96</ele>
        <time>2024-09-18T15:23:52.999Z</time>
      </trkpt>
      <trkpt lat="43.01157" lon="1.50898">
        <ele>496.11</ele>
        <time>2024-09-18T15:23:57.999Z</time>
      </trkpt>
      <trkpt lat="43.01159" lon="1.50916">
        <ele>496.28</ele>
        <time>2024-09-18T15:24:02.999Z</time>
      </trkpt>
      <trkpt lat="43.01164" lon="1.50938">
        <ele>496.45</ele>
        <time>2024-09-18T15:24:07.999Z</time>
      </trkpt>
      <trkpt lat="43.01166" lon="1.50964">
        <ele>496.63</ele>
        <time>2024-09-18T15:24:12.999Z</time>
      </trkpt>
      <trkpt lat="43.01169" lon="1.50986">
        <ele>496.8</ele>
        <time>2024-09-18T15:24:17.999Z</time>
      </trkpt>
      <trkpt lat="43.01171" lon="1.51011">
        <ele>496.95</ele>
        <time>2024-09-18T15:24:22.999Z</time>
      </trkpt>
      <trkpt lat="43.01172" lon="1.51035">
        <ele>497.09</ele>
        <time>2024-09-18T15:24:27.999Z</time>
      </trkpt>
      <trkpt lat="43.01173" lon="1.51058">
        <ele>497.23</ele>
        <time>2024-09-18T15:24:32.999Z</time>
      </trkpt>
      <trkpt lat="43.01174" lon="1.51082">
        <ele>497.35</ele>
        <time>2024-09-18T15:24:37.999Z</time>
      </trkpt>
      <trkpt lat="43.01174" lon="1.51105">
        <ele>497.47</ele>
        <time>2024-09-18T15:24:42.999Z</time>
      </trkpt>
      <trkpt lat="43.01173" lon="1.51126">
        <ele>497.61</ele>
        <time>2024-09-18T15:24:47.999Z</time>
      </trkpt>
      <trkpt lat="43.01171" lon="1.51152">
        <ele>497.76</ele>
        <time>2024-09-18T15:24:52.999Z</time>
      </trkpt>
      <trkpt lat="43.0117" lon="1.51177">
        <ele>497.92</ele>
        <time>2024-09-18T15:24:57.999Z</time>
      </trkpt>
      <trkpt lat="43.01167" lon="1.512">
        <ele>498.08</ele>
        <time>2024-09-18T15:25:03.000Z</time>
      </trkpt>
      <trkpt lat="43.01162" lon="1.51223">
        <ele>498.26</ele>
        <time>2024-09-18T15:25:08.000Z</time>
      </trkpt>
      <trkpt lat="43.01159" lon="1.51246">
        <ele>498.45</ele>
        <time>2024-09-18T15:25:13.000Z</time>
      </trkpt>
      <trkpt lat="43.01155" lon="1.5127">
        <ele>498.65</ele>
        <time>2024-09-18T15:25:18.000Z</time>
      </trkpt>
      <trkpt lat="43.0115" lon="1.51294">
        <ele>498.87</ele>
        <time>2024-09-18T15:25:23.000Z</time>
      </trkpt>
      <trkpt lat="43.01146" lon="1.51317">
        <ele>499.11</ele>
        <time>2024-09-18T15:25:28.000Z</time>
      </trkpt>
      <trkpt lat="43.01143" lon="1.51338">
        <ele>499.36</ele>
        <time>2024-09-18T15:25:33.000Z</time>
      </trkpt>
      <trkpt lat="43.01139" lon="1.51355">
        <ele>499.61</ele>
        <time>2024-09-18T15:25:38.000Z</time>
      </trkpt>
      <trkpt lat="43.01139" lon="1.5137">
        <ele>501.09</ele>
        <time>2024-09-18T15:27:35.000Z</time>
      </trkpt>
      <trkpt lat="43.01142" lon="1.51387">
        <ele>501.44</ele>
        <time>2024-09-18T15:27:40.000Z</time>
      </trkpt>
      <trkpt lat="43.01151" lon="1.51399">
        <ele>501.75</ele>
        <time>2024-09-18T15:27:45.000Z</time>
      </trkpt>
      <trkpt lat="43.01157" lon="1.5141">
        <ele>502.05</ele>
        <time>2024-09-18T15:27:50.000Z</time>
      </trkpt>
      <trkpt lat="43.01161" lon="1.51421">
        <ele>502.33</ele>
        <time>2024-09-18T15:27:55.000Z</time>
      </trkpt>
      <trkpt lat="43.01165" lon="1.51434">
        <ele>502.65</ele>
        <time>2024-09-18T15:28:01.000Z</time>
      </trkpt>
      <trkpt lat="43.01168" lon="1.51447">
        <ele>502.94</ele>
        <time>2024-09-18T15:28:07.000Z</time>
      </trkpt>
      <trkpt lat="43.0117" lon="1.5146">
        <ele>503.17</ele>
        <time>2024-09-18T15:28:12.000Z</time>
      </trkpt>
      <trkpt lat="43.01171" lon="1.51472">
        <ele>503.4</ele>
        <time>2024-09-18T15:28:17.000Z</time>
      </trkpt>
      <trkpt lat="43.01173" lon="1.51485">
        <ele>503.62</ele>
        <time>2024-09-18T15:28:22.000Z</time>
      </trkpt>
      <trkpt lat="43.01174" lon="1.515">
        <ele>503.83</ele>
        <time>2024-09-18T15:28:27.000Z</time>
      </trkpt>
      <trkpt lat="43.01175" lon="1.51514">
        <ele>504.04</ele>
        <time>2024-09-18T15:28:32.000Z</time>
      </trkpt>
      <trkpt lat="43.01175" lon="1.51529">
        <ele>504.23</ele>
        <time>2024-09-18T15:28:37.000Z</time>
      </trkpt>
      <trkpt lat="43.01176" lon="1.51543">
        <ele>504.41</ele>
        <time>2024-09-18T15:28:42.000Z</time>
      </trkpt>
      <trkpt lat="43.01177" lon="1.51558">
        <ele>504.58</ele>
        <time>2024-09-18T15:28:47.000Z</time>
      </trkpt>
      <trkpt lat="43.01178" lon="1.51573">
        <ele>504.75</ele>
        <time>2024-09-18T15:28:52.000Z</time>
      </trkpt>
      <trkpt lat="43.01179" lon="1.51588">
        <ele>504.91</ele>
        <time>2024-09-18T15:28:57.000Z</time>
      </trkpt>
      <trkpt lat="43.0118" lon="1.51603">
        <ele>505.06</ele>
        <time>2024-09-18T15:29:02.000Z</time>
      </trkpt>
      <trkpt lat="43.01182" lon="1.51619">
        <ele>505.21</ele>
        <time>2024-09-18T15:29:07.000Z</time>
      </trkpt>
      <trkpt lat="43.01183" lon="1.51636">
        <ele>505.36</ele>
        <time>2024-09-18T15:29:12.000Z</time>
      </trkpt>
      <trkpt lat="43.01184" lon="1.51653">
        <ele>505.51</ele>
        <time>2024-09-18T15:29:17.000Z</time>
      </trkpt>
      <trkpt lat="43.01184" lon="1.5167">
        <ele>505.65</ele>
        <time>2024-09-18T15:29:22.000Z</time>
      </trkpt>
      <trkpt lat="43.01184" lon="1.51685">
        <ele>505.8</ele>
        <time>2024-09-18T15:29:27.000Z</time>
      </trkpt>
      <trkpt lat="43.01189" lon="1.517">
        <ele>505.95</ele>
        <time>2024-09-18T15:29:32.000Z</time>
      </trkpt>
      <trkpt lat="43.01198" lon="1.51718">
        <ele>506.11</ele>
        <time>2024-09-18T15:29:37.000Z</time>
      </trkpt>
      <trkpt lat="43.01207" lon="1.51731">
        <ele>506.28</ele>
        <time>2024-09-18T15:29:42.000Z</time>
      </trkpt>
      <trkpt lat="43.01215" lon="1.51742">
        <ele>506.44</ele>
        <time>2024-09-18T15:29:47.000Z</time>
      </trkpt>
      <trkpt lat="43.01227" lon="1.51756">
        <ele>506.6</ele>
        <time>2024-09-18T15:29:52.000Z</time>
      </trkpt>
      <trkpt lat="43.01242" lon="1.51775">
        <ele>507.19</ele>
        <time>2024-09-18T15:29:57.000Z</time>
      </trkpt>
      <trkpt lat="43.01258" lon="1.51795">
        <ele>507.91</ele>
        <time>2024-09-18T15:30:02.000Z</time>
      </trkpt>
      <trkpt lat="43.01275" lon="1.51818">
        <ele>508.33</ele>
        <time>2024-09-18T15:30:07.000Z</time>
      </trkpt>
      <trkpt lat="43.0129" lon="1.51847">
        <ele>508.56</ele>
        <time>2024-09-18T15:30:12.000Z</time>
      </trkpt>
      <trkpt lat="43.01305" lon="1.51878">
        <ele>508.71</ele>
        <time>2024-09-18T15:30:17.000Z</time>
      </trkpt>
      <trkpt lat="43.01321" lon="1.51913">
        <ele>508.82</ele>
        <time>2024-09-18T15:30:22.000Z</time>
      </trkpt>
      <trkpt lat="43.01338" lon="1.5195">
        <ele>508.9</ele>
        <time>2024-09-18T15:30:27.000Z</time>
      </trkpt>
      <trkpt lat="43.01355" lon="1.51987">
        <ele>508.97</ele>
        <time>2024-09-18T15:30:32.000Z</time>
      </trkpt>
      <trkpt lat="43.01374" lon="1.52027">
        <ele>509</ele>
        <time>2024-09-18T15:30:37.000Z</time>
      </trkpt>
      <trkpt lat="43.01392" lon="1.52066">
        <ele>509.03</ele>
        <time>2024-09-18T15:30:42.000Z</time>
      </trkpt>
      <trkpt lat="43.01409" lon="1.52104">
        <ele>509.21</ele>
        <time>2024-09-18T15:30:47.000Z</time>
      </trkpt>
      <trkpt lat="43.01426" lon="1.52138">
        <ele>509.4</ele>
        <time>2024-09-18T15:30:52.000Z</time>
      </trkpt>
      <trkpt lat="43.01442" lon="1.52174">
        <ele>509.5</ele>
        <time>2024-09-18T15:30:57.000Z</time>
      </trkpt>
      <trkpt lat="43.01459" lon="1.5221">
        <ele>509.81</ele>
        <time>2024-09-18T15:31:02.000Z</time>
      </trkpt>
      <trkpt lat="43.01483" lon="1.5224">
        <ele>510.85</ele>
        <time>2024-09-18T15:31:07.000Z</time>
      </trkpt>
      <trkpt lat="43.01508" lon="1.52265">
        <ele>511.88</ele>
        <time>2024-09-18T15:31:12.000Z</time>
      </trkpt>
      <trkpt lat="43.0153" lon="1.52291">
        <ele>512.19</ele>
        <time>2024-09-18T15:31:17.000Z</time>
      </trkpt>
      <trkpt lat="43.01545" lon="1.52333">
        <ele>511.99</ele>
        <time>2024-09-18T15:31:22.000Z</time>
      </trkpt>
      <trkpt lat="43.01551" lon="1.52383">
        <ele>509.53</ele>
        <time>2024-09-18T15:31:27.000Z</time>
      </trkpt>
      <trkpt lat="43.01564" lon="1.52429">
        <ele>507.34</ele>
        <time>2024-09-18T15:31:32.000Z</time>
      </trkpt>
      <trkpt lat="43.01581" lon="1.5247">
        <ele>506.66</ele>
        <time>2024-09-18T15:31:37.000Z</time>
      </trkpt>
      <trkpt lat="43.01591" lon="1.52515">
        <ele>507.02</ele>
        <time>2024-09-18T15:31:42.000Z</time>
      </trkpt>
      <trkpt lat="43.01597" lon="1.52562">
        <ele>506.98</ele>
        <time>2024-09-18T15:31:47.000Z</time>
      </trkpt>
      <trkpt lat="43.01607" lon="1.52609">
        <ele>506.86</ele>
        <time>2024-09-18T15:31:52.000Z</time>
      </trkpt>
      <trkpt lat="43.0162" lon="1.52651">
        <ele>506.7</ele>
        <time>2024-09-18T15:31:57.000Z</time>
      </trkpt>
      <trkpt lat="43.01647" lon="1.52677">
        <ele>506.85</ele>
        <time>2024-09-18T15:32:02.000Z</time>
      </trkpt>
      <trkpt lat="43.01678" lon="1.52669">
        <ele>507.37</ele>
        <time>2024-09-18T15:32:07.000Z</time>
      </trkpt>
      <trkpt lat="43.01709" lon="1.52673">
        <ele>507.59</ele>
        <time>2024-09-18T15:32:12.000Z</time>
      </trkpt>
      <trkpt lat="43.01735" lon="1.52687">
        <ele>507.85</ele>
        <time>2024-09-18T15:32:17.000Z</time>
      </trkpt>
      <trkpt lat="43.01763" lon="1.52703">
        <ele>508.02</ele>
        <time>2024-09-18T15:32:22.000Z</time>
      </trkpt>
      <trkpt lat="43.01792" lon="1.52732">
        <ele>507.8</ele>
        <time>2024-09-18T15:32:27.000Z</time>
      </trkpt>
      <trkpt lat="43.01797" lon="1.52778">
        <ele>506.55</ele>
        <time>2024-09-18T15:32:32.000Z</time>
      </trkpt>
      <trkpt lat="43.01788" lon="1.52824">
        <ele>504.99</ele>
        <time>2024-09-18T15:32:37.000Z</time>
      </trkpt>
      <trkpt lat="43.0178" lon="1.52871">
        <ele>503.98</ele>
        <time>2024-09-18T15:32:42.000Z</time>
      </trkpt>
      <trkpt lat="43.01781" lon="1.52916">
        <ele>502.39</ele>
        <time>2024-09-18T15:32:47.000Z</time>
      </trkpt>
      <trkpt lat="43.01817" lon="1.52941">
        <ele>500.79</ele>
        <time>2024-09-18T15:32:52.000Z</time>
      </trkpt>
      <trkpt lat="43.01862" lon="1.52962">
        <ele>500.08</ele>
        <time>2024-09-18T15:32:57.000Z</time>
      </trkpt>
      <trkpt lat="43.01903" lon="1.52994">
        <ele>500.16</ele>
        <time>2024-09-18T15:33:02.000Z</time>
      </trkpt>
      <trkpt lat="43.01937" lon="1.53035">
        <ele>500.3</ele>
        <time>2024-09-18T15:33:07.000Z</time>
      </trkpt>
      <trkpt lat="43.01968" lon="1.53074">
        <ele>500.77</ele>
        <time>2024-09-18T15:33:12.000Z</time>
      </trkpt>
      <trkpt lat="43.01997" lon="1.53107">
        <ele>501.13</ele>
        <time>2024-09-18T15:33:17.000Z</time>
      </trkpt>
      <trkpt lat="43.0202" lon="1.53135">
        <ele>500.89</ele>
        <time>2024-09-18T15:33:22.000Z</time>
      </trkpt>
      <trkpt lat="43.02044" lon="1.53162">
        <ele>499.89</ele>
        <time>2024-09-18T15:33:27.000Z</time>
      </trkpt>
      <trkpt lat="43.02075" lon="1.5318">
        <ele>498.98</ele>
        <time>2024-09-18T15:33:32.000Z</time>
      </trkpt>
      <trkpt lat="43.0211" lon="1.53194">
        <ele>498.27</ele>
        <time>2024-09-18T15:33:37.000Z</time>
      </trkpt>
      <trkpt lat="43.02139" lon="1.53206">
        <ele>498.01</ele>
        <time>2024-09-18T15:33:42.000Z</time>
      </trkpt>
      <trkpt lat="43.02165" lon="1.53215">
        <ele>497.48</ele>
        <time>2024-09-18T15:33:47.000Z</time>
      </trkpt>
      <trkpt lat="43.02189" lon="1.53232">
        <ele>497.3</ele>
        <time>2024-09-18T15:33:52.000Z</time>
      </trkpt>
      <trkpt lat="43.02211" lon="1.53252">
        <ele>497.48</ele>
        <time>2024-09-18T15:33:57.000Z</time>
      </trkpt>
      <trkpt lat="43.02233" lon="1.53274">
        <ele>497.73</ele>
        <time>2024-09-18T15:34:02.000Z</time>
      </trkpt>
      <trkpt lat="43.02253" lon="1.53296">
        <ele>497.81</ele>
        <time>2024-09-18T15:34:07.000Z</time>
      </trkpt>
      <trkpt lat="43.02277" lon="1.53321">
        <ele>497.86</ele>
        <time>2024-09-18T15:34:12.000Z</time>
      </trkpt>
      <trkpt lat="43.02302" lon="1.53348">
        <ele>497.7</ele>
        <time>2024-09-18T15:34:17.000Z</time>
      </trkpt>
      <trkpt lat="43.02322" lon="1.53369">
        <ele>497.25</ele>
        <time>2024-09-18T15:34:22.000Z</time>
      </trkpt>
      <trkpt lat="43.02344" lon="1.53391">
        <ele>496.64</ele>
        <time>2024-09-18T15:34:27.000Z</time>
      </trkpt>
      <trkpt lat="43.02368" lon="1.53415">
        <ele>495.99</ele>
        <time>2024-09-18T15:34:32.000Z</time>
      </trkpt>
      <trkpt lat="43.02391" lon="1.53439">
        <ele>495.44</ele>
        <time>2024-09-18T15:34:37.000Z</time>
      </trkpt>
      <trkpt lat="43.02416" lon="1.53464">
        <ele>494.85</ele>
        <time>2024-09-18T15:34:42.000Z</time>
      </trkpt>
      <trkpt lat="43.02439" lon="1.5349">
        <ele>494.2</ele>
        <time>2024-09-18T15:34:47.000Z</time>
      </trkpt>
      <trkpt lat="43.02459" lon="1.5352">
        <ele>493.72</ele>
        <time>2024-09-18T15:34:52.000Z</time>
      </trkpt>
      <trkpt lat="43.02476" lon="1.53556">
        <ele>493.29</ele>
        <time>2024-09-18T15:34:57.000Z</time>
      </trkpt>
      <trkpt lat="43.02493" lon="1.53591">
        <ele>492.76</ele>
        <time>2024-09-18T15:35:02.000Z</time>
      </trkpt>
      <trkpt lat="43.0251" lon="1.53625">
        <ele>492.19</ele>
        <time>2024-09-18T15:35:07.000Z</time>
      </trkpt>
      <trkpt lat="43.02526" lon="1.53661">
        <ele>491.63</ele>
        <time>2024-09-18T15:35:12.000Z</time>
      </trkpt>
      <trkpt lat="43.0254" lon="1.53693">
        <ele>491.04</ele>
        <time>2024-09-18T15:35:17.000Z</time>
      </trkpt>
      <trkpt lat="43.02552" lon="1.53715">
        <ele>490.72</ele>
        <time>2024-09-18T15:35:22.000Z</time>
      </trkpt>
      <trkpt lat="43.02569" lon="1.53724">
        <ele>490.69</ele>
        <time>2024-09-18T15:35:27.000Z</time>
      </trkpt>
      <trkpt lat="43.02579" lon="1.53723">
        <ele>490.85</ele>
        <time>2024-09-18T15:35:57.000Z</time>
      </trkpt>
      <trkpt lat="43.02587" lon="1.53715">
        <ele>491.68</ele>
        <time>2024-09-18T15:36:03.000Z</time>
      </trkpt>
      <trkpt lat="43.02598" lon="1.53692">
        <ele>493.26</ele>
        <time>2024-09-18T15:36:08.000Z</time>
      </trkpt>
      <trkpt lat="43.02609" lon="1.53657">
        <ele>495.99</ele>
        <time>2024-09-18T15:36:13.000Z</time>
      </trkpt>
      <trkpt lat="43.02619" lon="1.53618">
        <ele>497.7</ele>
        <time>2024-09-18T15:36:18.000Z</time>
      </trkpt>
      <trkpt lat="43.02632" lon="1.53567">
        <ele>498.07</ele>
        <time>2024-09-18T15:36:23.000Z</time>
      </trkpt>
      <trkpt lat="43.02647" lon="1.53518">
        <ele>498.05</ele>
        <time>2024-09-18T15:36:28.000Z</time>
      </trkpt>
      <trkpt lat="43.02686" lon="1.53502">
        <ele>497.49</ele>
        <time>2024-09-18T15:36:33.000Z</time>
      </trkpt>
      <trkpt lat="43.02711" lon="1.5354">
        <ele>496.68</ele>
        <time>2024-09-18T15:36:38.000Z</time>
      </trkpt>
      <trkpt lat="43.02714" lon="1.53587">
        <ele>495.66</ele>
        <time>2024-09-18T15:36:43.000Z</time>
      </trkpt>
      <trkpt lat="43.02716" lon="1.53627">
        <ele>494.35</ele>
        <time>2024-09-18T15:36:48.000Z</time>
      </trkpt>
      <trkpt lat="43.02729" lon="1.53652">
        <ele>493.3</ele>
        <time>2024-09-18T15:36:53.000Z</time>
      </trkpt>
      <trkpt lat="43.02758" lon="1.53662">
        <ele>492.99</ele>
        <time>2024-09-18T15:36:58.000Z</time>
      </trkpt>
      <trkpt lat="43.02796" lon="1.53675">
        <ele>491.47</ele>
        <time>2024-09-18T15:37:03.000Z</time>
      </trkpt>
      <trkpt lat="43.02838" lon="1.53691">
        <ele>488.99</ele>
        <time>2024-09-18T15:37:08.999Z</time>
      </trkpt>
      <trkpt lat="43.02868" lon="1.53701">
        <ele>487.84</ele>
        <time>2024-09-18T15:37:13.999Z</time>
      </trkpt>
      <trkpt lat="43.02895" lon="1.5371">
        <ele>487.93</ele>
        <time>2024-09-18T15:37:18.999Z</time>
      </trkpt>
      <trkpt lat="43.02915" lon="1.53716">
        <ele>488.23</ele>
        <time>2024-09-18T15:37:23.999Z</time>
      </trkpt>
      <trkpt lat="43.02931" lon="1.5372">
        <ele>488.26</ele>
        <time>2024-09-18T15:37:28.999Z</time>
      </trkpt>
      <trkpt lat="43.02946" lon="1.53726">
        <ele>488.26</ele>
        <time>2024-09-18T15:37:33.999Z</time>
      </trkpt>
      <trkpt lat="43.02958" lon="1.53733">
        <ele>488.27</ele>
        <time>2024-09-18T15:37:38.999Z</time>
      </trkpt>
      <trkpt lat="43.02966" lon="1.53742">
        <ele>488.28</ele>
        <time>2024-09-18T15:37:44.999Z</time>
      </trkpt>
      <trkpt lat="43.02971" lon="1.53755">
        <ele>488.36</ele>
        <time>2024-09-18T15:37:49.999Z</time>
      </trkpt>
      <trkpt lat="43.02973" lon="1.5377">
        <ele>488.52</ele>
        <time>2024-09-18T15:37:54.999Z</time>
      </trkpt>
      <trkpt lat="43.02972" lon="1.53783">
        <ele>488.73</ele>
        <time>2024-09-18T15:38:00.999Z</time>
      </trkpt>
      <trkpt lat="43.02973" lon="1.53797">
        <ele>488.97</ele>
        <time>2024-09-18T15:38:06.999Z</time>
      </trkpt>
      <trkpt lat="43.02976" lon="1.5381">
        <ele>489.19</ele>
        <time>2024-09-18T15:38:12.999Z</time>
      </trkpt>
      <trkpt lat="43.02982" lon="1.53822">
        <ele>489.4</ele>
        <time>2024-09-18T15:38:18.999Z</time>
      </trkpt>
      <trkpt lat="43.02988" lon="1.53833">
        <ele>489.58</ele>
        <time>2024-09-18T15:38:23.999Z</time>
      </trkpt>
      <trkpt lat="43.02994" lon="1.53843">
        <ele>489.8</ele>
        <time>2024-09-18T15:38:29.999Z</time>
      </trkpt>
      <trkpt lat="43.03" lon="1.53855">
        <ele>490.02</ele>
        <time>2024-09-18T15:38:35.999Z</time>
      </trkpt>
      <trkpt lat="43.03009" lon="1.53856">
        <ele>490.22</ele>
        <time>2024-09-18T15:38:40.999Z</time>
      </trkpt>
      <trkpt lat="43.03015" lon="1.53846">
        <ele>490.43</ele>
        <time>2024-09-18T15:38:45.999Z</time>
      </trkpt>
      <trkpt lat="43.0302" lon="1.53835">
        <ele>490.66</ele>
        <time>2024-09-18T15:38:50.999Z</time>
      </trkpt>
      <trkpt lat="43.03025" lon="1.53822">
        <ele>490.95</ele>
        <time>2024-09-18T15:38:55.999Z</time>
      </trkpt>
      <trkpt lat="43.0303" lon="1.53809">
        <ele>491.26</ele>
        <time>2024-09-18T15:39:00.999Z</time>
      </trkpt>
      <trkpt lat="43.03034" lon="1.53797">
        <ele>491.57</ele>
        <time>2024-09-18T15:39:05.999Z</time>
      </trkpt>
      <trkpt lat="43.0304" lon="1.53784">
        <ele>491.93</ele>
        <time>2024-09-18T15:39:11.999Z</time>
      </trkpt>
      <trkpt lat="43.03045" lon="1.53774">
        <ele>492.22</ele>
        <time>2024-09-18T15:39:16.999Z</time>
      </trkpt>
      <trkpt lat="43.03049" lon="1.53763">
        <ele>492.51</ele>
        <time>2024-09-18T15:39:21.999Z</time>
      </trkpt>
      <trkpt lat="43.03055" lon="1.5375">
        <ele>492.81</ele>
        <time>2024-09-18T15:39:26.999Z</time>
      </trkpt>
      <trkpt lat="43.03059" lon="1.53739">
        <ele>493.12</ele>
        <time>2024-09-18T15:39:31.999Z</time>
      </trkpt>
      <trkpt lat="43.03064" lon="1.53728">
        <ele>493.45</ele>
        <time>2024-09-18T15:39:36.999Z</time>
      </trkpt>
      <trkpt lat="43.0307" lon="1.53716">
        <ele>493.91</ele>
        <time>2024-09-18T15:39:42.999Z</time>
      </trkpt>
      <trkpt lat="43.03076" lon="1.53705">
        <ele>494.34</ele>
        <time>2024-09-18T15:39:47.999Z</time>
      </trkpt>
      <trkpt lat="43.03085" lon="1.53698">
        <ele>494.78</ele>
        <time>2024-09-18T15:39:52.999Z</time>
      </trkpt>
      <trkpt lat="43.03096" lon="1.53699">
        <ele>495.2</ele>
        <time>2024-09-18T15:39:57.999Z</time>
      </trkpt>
      <trkpt lat="43.03103" lon="1.53708">
        <ele>495.63</ele>
        <time>2024-09-18T15:40:02.999Z</time>
      </trkpt>
      <trkpt lat="43.03108" lon="1.5372">
        <ele>496.07</ele>
        <time>2024-09-18T15:40:07.999Z</time>
      </trkpt>
      <trkpt lat="43.03108" lon="1.53735">
        <ele>496.63</ele>
        <time>2024-09-18T15:40:13.999Z</time>
      </trkpt>
      <trkpt lat="43.03107" lon="1.53749">
        <ele>497.21</ele>
        <time>2024-09-18T15:40:19.999Z</time>
      </trkpt>
      <trkpt lat="43.03105" lon="1.53763">
        <ele>497.77</ele>
        <time>2024-09-18T15:40:25.999Z</time>
      </trkpt>
      <trkpt lat="43.03105" lon="1.53778">
        <ele>498.3</ele>
        <time>2024-09-18T15:40:31.999Z</time>
      </trkpt>
      <trkpt lat="43.03106" lon="1.53791">
        <ele>498.71</ele>
        <time>2024-09-18T15:40:36.999Z</time>
      </trkpt>
      <trkpt lat="43.0311" lon="1.53803">
        <ele>499.13</ele>
        <time>2024-09-18T15:40:41.999Z</time>
      </trkpt>
      <trkpt lat="43.03116" lon="1.53813">
        <ele>499.57</ele>
        <time>2024-09-18T15:40:46.999Z</time>
      </trkpt>
      <trkpt lat="43.03124" lon="1.53821">
        <ele>500.06</ele>
        <time>2024-09-18T15:40:51.999Z</time>
      </trkpt>
      <trkpt lat="43.03133" lon="1.53829">
        <ele>501.01</ele>
        <time>2024-09-18T15:40:59.999Z</time>
      </trkpt>
      <trkpt lat="43.03142" lon="1.53835">
        <ele>502</ele>
        <time>2024-09-18T15:41:06.999Z</time>
      </trkpt>
      <trkpt lat="43.0315" lon="1.53843">
        <ele>502.82</ele>
        <time>2024-09-18T15:41:11.999Z</time>
      </trkpt>
      <trkpt lat="43.03158" lon="1.53851">
        <ele>503.66</ele>
        <time>2024-09-18T15:41:16.999Z</time>
      </trkpt>
      <trkpt lat="43.03166" lon="1.53857">
        <ele>504.57</ele>
        <time>2024-09-18T15:41:21.999Z</time>
      </trkpt>
      <trkpt lat="43.03179" lon="1.53857">
        <ele>505.45</ele>
        <time>2024-09-18T15:41:26.999Z</time>
      </trkpt>
      <trkpt lat="43.03199" lon="1.53853">
        <ele>509.19</ele>
        <time>2024-09-18T15:41:31.999Z</time>
      </trkpt>
      <trkpt lat="43.03197" lon="1.53899">
        <ele>511.68</ele>
        <time>2024-09-18T15:41:36.999Z</time>
      </trkpt>
      <trkpt lat="43.03201" lon="1.5395">
        <ele>511.93</ele>
        <time>2024-09-18T15:41:41.999Z</time>
      </trkpt>
      <trkpt lat="43.03239" lon="1.5399">
        <ele>510.88</ele>
        <time>2024-09-18T15:41:46.999Z</time>
      </trkpt>
      <trkpt lat="43.03251" lon="1.54047">
        <ele>509.02</ele>
        <time>2024-09-18T15:41:51.999Z</time>
      </trkpt>
      <trkpt lat="43.03248" lon="1.54117">
        <ele>505.91</ele>
        <time>2024-09-18T15:41:56.999Z</time>
      </trkpt>
      <trkpt lat="43.03233" lon="1.54169">
        <ele>503.8</ele>
        <time>2024-09-18T15:42:01.999Z</time>
      </trkpt>
      <trkpt lat="43.0326" lon="1.54159">
        <ele>501.71</ele>
        <time>2024-09-18T15:42:06.999Z</time>
      </trkpt>
      <trkpt lat="43.03283" lon="1.54112">
        <ele>500.49</ele>
        <time>2024-09-18T15:42:11.999Z</time>
      </trkpt>
      <trkpt lat="43.03307" lon="1.54053">
        <ele>499.33</ele>
        <time>2024-09-18T15:42:16.999Z</time>
      </trkpt>
      <trkpt lat="43.03337" lon="1.53997">
        <ele>497.29</ele>
        <time>2024-09-18T15:42:21.999Z</time>
      </trkpt>
      <trkpt lat="43.03372" lon="1.53938">
        <ele>494.61</ele>
        <time>2024-09-18T15:42:26.999Z</time>
      </trkpt>
      <trkpt lat="43.03403" lon="1.53872">
        <ele>492.17</ele>
        <time>2024-09-18T15:42:31.999Z</time>
      </trkpt>
      <trkpt lat="43.03448" lon="1.53832">
        <ele>490.06</ele>
        <time>2024-09-18T15:42:36.999Z</time>
      </trkpt>
      <trkpt lat="43.03496" lon="1.53793">
        <ele>488.43</ele>
        <time>2024-09-18T15:42:41.999Z</time>
      </trkpt>
      <trkpt lat="43.03528" lon="1.53727">
        <ele>482.73</ele>
        <time>2024-09-18T15:42:46.999Z</time>
      </trkpt>
      <trkpt lat="43.03563" lon="1.5366">
        <ele>476.36</ele>
        <time>2024-09-18T15:42:51.999Z</time>
      </trkpt>
      <trkpt lat="43.03619" lon="1.53637">
        <ele>471.36</ele>
        <time>2024-09-18T15:42:56.999Z</time>
      </trkpt>
      <trkpt lat="43.03658" lon="1.53595">
        <ele>466.82</ele>
        <time>2024-09-18T15:43:01.999Z</time>
      </trkpt>
      <trkpt lat="43.03682" lon="1.53624">
        <ele>462.92</ele>
        <time>2024-09-18T15:43:06.999Z</time>
      </trkpt>
      <trkpt lat="43.03713" lon="1.53666">
        <ele>460.16</ele>
        <time>2024-09-18T15:43:11.999Z</time>
      </trkpt>
      <trkpt lat="43.03757" lon="1.53684">
        <ele>456.84</ele>
        <time>2024-09-18T15:43:16.999Z</time>
      </trkpt>
      <trkpt lat="43.03792" lon="1.53698">
        <ele>454.22</ele>
        <time>2024-09-18T15:43:21.999Z</time>
      </trkpt>
      <trkpt lat="43.03816" lon="1.53707">
        <ele>452.01</ele>
        <time>2024-09-18T15:43:26.999Z</time>
      </trkpt>
      <trkpt lat="43.03833" lon="1.53714">
        <ele>451.29</ele>
        <time>2024-09-18T15:43:31.999Z</time>
      </trkpt>
      <trkpt lat="43.03846" lon="1.53718">
        <ele>450.96</ele>
        <time>2024-09-18T15:43:36.999Z</time>
      </trkpt>
      <trkpt lat="43.03854" lon="1.53727">
        <ele>450.57</ele>
        <time>2024-09-18T15:43:41.999Z</time>
      </trkpt>
      <trkpt lat="43.03865" lon="1.53737">
        <ele>450.12</ele>
        <time>2024-09-18T15:43:46.999Z</time>
      </trkpt>
      <trkpt lat="43.03871" lon="1.53749">
        <ele>449.13</ele>
        <time>2024-09-18T15:43:56.999Z</time>
      </trkpt>
      <trkpt lat="43.0388" lon="1.53755">
        <ele>445.27</ele>
        <time>2024-09-18T15:45:05.999Z</time>
      </trkpt>
      <trkpt lat="43.03889" lon="1.53764">
        <ele>444.45</ele>
        <time>2024-09-18T15:45:10.999Z</time>
      </trkpt>
      <trkpt lat="43.03898" lon="1.53774">
        <ele>443.72</ele>
        <time>2024-09-18T15:45:15.999Z</time>
      </trkpt>
      <trkpt lat="43.03909" lon="1.53787">
        <ele>443.05</ele>
        <time>2024-09-18T15:45:20.999Z</time>
      </trkpt>
      <trkpt lat="43.03918" lon="1.53797">
        <ele>442.44</ele>
        <time>2024-09-18T15:45:25.999Z</time>
      </trkpt>
      <trkpt lat="43.03927" lon="1.53807">
        <ele>441.9</ele>
        <time>2024-09-18T15:45:30.999Z</time>
      </trkpt>
      <trkpt lat="43.03937" lon="1.53818">
        <ele>441.42</ele>
        <time>2024-09-18T15:45:35.999Z</time>
      </trkpt>
      <trkpt lat="43.03945" lon="1.53829">
        <ele>440.98</ele>
        <time>2024-09-18T15:45:40.999Z</time>
      </trkpt>
      <trkpt lat="43.0395" lon="1.53841">
        <ele>440.6</ele>
        <time>2024-09-18T15:45:45.999Z</time>
      </trkpt>
      <trkpt lat="43.03954" lon="1.53854">
        <ele>440.27</ele>
        <time>2024-09-18T15:45:50.999Z</time>
      </trkpt>
      <trkpt lat="43.03956" lon="1.53867">
        <ele>439.93</ele>
        <time>2024-09-18T15:45:56.999Z</time>
      </trkpt>
      <trkpt lat="43.03957" lon="1.5388">
        <ele>439.7</ele>
        <time>2024-09-18T15:46:01.999Z</time>
      </trkpt>
      <trkpt lat="43.03961" lon="1.53892">
        <ele>439.5</ele>
        <time>2024-09-18T15:46:06.999Z</time>
      </trkpt>
      <trkpt lat="43.03965" lon="1.53904">
        <ele>439.33</ele>
        <time>2024-09-18T15:46:11.999Z</time>
      </trkpt>
      <trkpt lat="43.0397" lon="1.53917">
        <ele>439.2</ele>
        <time>2024-09-18T15:46:16.999Z</time>
      </trkpt>
      <trkpt lat="43.03974" lon="1.53929">
        <ele>439.11</ele>
        <time>2024-09-18T15:46:21.999Z</time>
      </trkpt>
      <trkpt lat="43.03977" lon="1.53943">
        <ele>439.04</ele>
        <time>2024-09-18T15:46:26.999Z</time>
      </trkpt>
      <trkpt lat="43.03979" lon="1.53957">
        <ele>439</ele>
        <time>2024-09-18T15:46:31.999Z</time>
      </trkpt>
      <trkpt lat="43.03979" lon="1.53971">
        <ele>438.98</ele>
        <time>2024-09-18T15:46:36.999Z</time>
      </trkpt>
      <trkpt lat="43.0398" lon="1.53985">
        <ele>438.98</ele>
        <time>2024-09-18T15:46:41.999Z</time>
      </trkpt>
      <trkpt lat="43.03981" lon="1.53999">
        <ele>438.99</ele>
        <time>2024-09-18T15:46:46.999Z</time>
      </trkpt>
      <trkpt lat="43.03983" lon="1.54013">
        <ele>439.03</ele>
        <time>2024-09-18T15:46:51.999Z</time>
      </trkpt>
      <trkpt lat="43.03985" lon="1.54028">
        <ele>439.07</ele>
        <time>2024-09-18T15:46:56.999Z</time>
      </trkpt>
      <trkpt lat="43.03988" lon="1.54043">
        <ele>439.13</ele>
        <time>2024-09-18T15:47:01.999Z</time>
      </trkpt>
      <trkpt lat="43.03994" lon="1.54062">
        <ele>439.2</ele>
        <time>2024-09-18T15:47:06.999Z</time>
      </trkpt>
      <trkpt lat="43.04003" lon="1.5408">
        <ele>439.32</ele>
        <time>2024-09-18T15:47:11.999Z</time>
      </trkpt>
      <trkpt lat="43.04013" lon="1.54095">
        <ele>439.48</ele>
        <time>2024-09-18T15:47:16.999Z</time>
      </trkpt>
      <trkpt lat="43.04026" lon="1.54108">
        <ele>439.66</ele>
        <time>2024-09-18T15:47:21.999Z</time>
      </trkpt>
      <trkpt lat="43.0404" lon="1.54115">
        <ele>439.84</ele>
        <time>2024-09-18T15:47:26.999Z</time>
      </trkpt>
      <trkpt lat="43.04055" lon="1.54125">
        <ele>440.34</ele>
        <time>2024-09-18T15:47:31.999Z</time>
      </trkpt>
      <trkpt lat="43.04066" lon="1.54142">
        <ele>440.76</ele>
        <time>2024-09-18T15:47:36.999Z</time>
      </trkpt>
      <trkpt lat="43.0408" lon="1.54162">
        <ele>441.82</ele>
        <time>2024-09-18T15:47:41.999Z</time>
      </trkpt>
      <trkpt lat="43.04098" lon="1.54179">
        <ele>442.6</ele>
        <time>2024-09-18T15:47:46.999Z</time>
      </trkpt>
      <trkpt lat="43.04121" lon="1.54192">
        <ele>442.97</ele>
        <time>2024-09-18T15:47:51.999Z</time>
      </trkpt>
      <trkpt lat="43.04143" lon="1.54206">
        <ele>443.2</ele>
        <time>2024-09-18T15:47:56.999Z</time>
      </trkpt>
      <trkpt lat="43.04159" lon="1.54226">
        <ele>443.45</ele>
        <time>2024-09-18T15:48:01.999Z</time>
      </trkpt>
      <trkpt lat="43.04177" lon="1.54244">
        <ele>443.75</ele>
        <time>2024-09-18T15:48:06.999Z</time>
      </trkpt>
      <trkpt lat="43.04198" lon="1.54255">
        <ele>443.97</ele>
        <time>2024-09-18T15:48:11.999Z</time>
      </trkpt>
      <trkpt lat="43.04218" lon="1.54261">
        <ele>444.1</ele>
        <time>2024-09-18T15:48:16.999Z</time>
      </trkpt>
      <trkpt lat="43.04236" lon="1.54267">
        <ele>444.17</ele>
        <time>2024-09-18T15:48:21.999Z</time>
      </trkpt>
      <trkpt lat="43.04251" lon="1.54272">
        <ele>444.25</ele>
        <time>2024-09-18T15:48:26.999Z</time>
      </trkpt>
      <trkpt lat="43.04268" lon="1.54274">
        <ele>444.37</ele>
        <time>2024-09-18T15:48:31.999Z</time>
      </trkpt>
      <trkpt lat="43.04284" lon="1.54277">
        <ele>444.52</ele>
        <time>2024-09-18T15:48:36.999Z</time>
      </trkpt>
      <trkpt lat="43.04298" lon="1.54282">
        <ele>444.67</ele>
        <time>2024-09-18T15:48:41.999Z</time>
      </trkpt>
      <trkpt lat="43.04312" lon="1.54284">
        <ele>444.82</ele>
        <time>2024-09-18T15:48:46.999Z</time>
      </trkpt>
      <trkpt lat="43.04328" lon="1.54288">
        <ele>444.96</ele>
        <time>2024-09-18T15:48:51.999Z</time>
      </trkpt>
      <trkpt lat="43.04341" lon="1.54291">
        <ele>445.1</ele>
        <time>2024-09-18T15:48:56.999Z</time>
      </trkpt>
      <trkpt lat="43.04354" lon="1.54294">
        <ele>445.24</ele>
        <time>2024-09-18T15:49:01.999Z</time>
      </trkpt>
      <trkpt lat="43.04367" lon="1.54297">
        <ele>445.39</ele>
        <time>2024-09-18T15:49:06.999Z</time>
      </trkpt>
      <trkpt lat="43.04376" lon="1.543">
        <ele>445.55</ele>
        <time>2024-09-18T15:49:11.999Z</time>
      </trkpt>
      <trkpt lat="43.04385" lon="1.54304">
        <ele>445.72</ele>
        <time>2024-09-18T15:49:17.000Z</time>
      </trkpt>
      <trkpt lat="43.04396" lon="1.54308">
        <ele>445.9</ele>
        <time>2024-09-18T15:49:22.000Z</time>
      </trkpt>
      <trkpt lat="43.04406" lon="1.54312">
        <ele>446.1</ele>
        <time>2024-09-18T15:49:27.000Z</time>
      </trkpt>
      <trkpt lat="43.04414" lon="1.54317">
        <ele>446.3</ele>
        <time>2024-09-18T15:49:32.000Z</time>
      </trkpt>
      <trkpt lat="43.04424" lon="1.54321">
        <ele>446.49</ele>
        <time>2024-09-18T15:49:37.000Z</time>
      </trkpt>
      <trkpt lat="43.04433" lon="1.54325">
        <ele>446.69</ele>
        <time>2024-09-18T15:49:42.000Z</time>
      </trkpt>
      <trkpt lat="43.04443" lon="1.54331">
        <ele>446.89</ele>
        <time>2024-09-18T15:49:47.000Z</time>
      </trkpt>
      <trkpt lat="43.04452" lon="1.54337">
        <ele>447.1</ele>
        <time>2024-09-18T15:49:52.000Z</time>
      </trkpt>
      <trkpt lat="43.04461" lon="1.54344">
        <ele>447.32</ele>
        <time>2024-09-18T15:49:57.000Z</time>
      </trkpt>
      <trkpt lat="43.0447" lon="1.54348">
        <ele>447.54</ele>
        <time>2024-09-18T15:50:02.000Z</time>
      </trkpt>
      <trkpt lat="43.0448" lon="1.54354">
        <ele>447.77</ele>
        <time>2024-09-18T15:50:07.000Z</time>
      </trkpt>
      <trkpt lat="43.0449" lon="1.54361">
        <ele>447.99</ele>
        <time>2024-09-18T15:50:12.000Z</time>
      </trkpt>
      <trkpt lat="43.04499" lon="1.5437">
        <ele>448.2</ele>
        <time>2024-09-18T15:50:17.000Z</time>
      </trkpt>
      <trkpt lat="43.04506" lon="1.54386">
        <ele>448.41</ele>
        <time>2024-09-18T15:50:22.000Z</time>
      </trkpt>
      <trkpt lat="43.04511" lon="1.54404">
        <ele>448.62</ele>
        <time>2024-09-18T15:50:27.000Z</time>
      </trkpt>
      <trkpt lat="43.04513" lon="1.54424">
        <ele>448.82</ele>
        <time>2024-09-18T15:50:32.000Z</time>
      </trkpt>
      <trkpt lat="43.0451" lon="1.54444">
        <ele>449.03</ele>
        <time>2024-09-18T15:50:37.000Z</time>
      </trkpt>
      <trkpt lat="43.04509" lon="1.54464">
        <ele>449.24</ele>
        <time>2024-09-18T15:50:42.000Z</time>
      </trkpt>
      <trkpt lat="43.04509" lon="1.54485">
        <ele>449.44</ele>
        <time>2024-09-18T15:50:47.000Z</time>
      </trkpt>
      <trkpt lat="43.0451" lon="1.54506">
        <ele>449.65</ele>
        <time>2024-09-18T15:50:52.000Z</time>
      </trkpt>
      <trkpt lat="43.04511" lon="1.54525">
        <ele>449.84</ele>
        <time>2024-09-18T15:50:57.000Z</time>
      </trkpt>
      <trkpt lat="43.04513" lon="1.54553">
        <ele>450.98</ele>
        <time>2024-09-18T15:51:02.000Z</time>
      </trkpt>
      <trkpt lat="43.04517" lon="1.54589">
        <ele>451.61</ele>
        <time>2024-09-18T15:51:07.000Z</time>
      </trkpt>
      <trkpt lat="43.04541" lon="1.54631">
        <ele>452.16</ele>
        <time>2024-09-18T15:51:12.000Z</time>
      </trkpt>
      <trkpt lat="43.04549" lon="1.54675">
        <ele>452.68</ele>
        <time>2024-09-18T15:51:17.000Z</time>
      </trkpt>
      <trkpt lat="43.04551" lon="1.54711">
        <ele>453.17</ele>
        <time>2024-09-18T15:51:22.000Z</time>
      </trkpt>
      <trkpt lat="43.04551" lon="1.54736">
        <ele>453.39</ele>
        <time>2024-09-18T15:51:27.000Z</time>
      </trkpt>
      <trkpt lat="43.04551" lon="1.54749">
        <ele>453.89</ele>
        <time>2024-09-18T15:51:58.000Z</time>
      </trkpt>
      <trkpt lat="43.04551" lon="1.54764">
        <ele>454.36</ele>
        <time>2024-09-18T15:52:03.000Z</time>
      </trkpt>
      <trkpt lat="43.0455" lon="1.54784">
        <ele>454.91</ele>
        <time>2024-09-18T15:52:08.000Z</time>
      </trkpt>
      <trkpt lat="43.04549" lon="1.54805">
        <ele>455.51</ele>
        <time>2024-09-18T15:52:13.000Z</time>
      </trkpt>
      <trkpt lat="43.04547" lon="1.54829">
        <ele>456.19</ele>
        <time>2024-09-18T15:52:18.000Z</time>
      </trkpt>
      <trkpt lat="43.04545" lon="1.54848">
        <ele>456.92</ele>
        <time>2024-09-18T15:52:23.000Z</time>
      </trkpt>
      <trkpt lat="43.04545" lon="1.54867">
        <ele>457.68</ele>
        <time>2024-09-18T15:52:28.000Z</time>
      </trkpt>
      <trkpt lat="43.04544" lon="1.54885">
        <ele>458.43</ele>
        <time>2024-09-18T15:52:33.000Z</time>
      </trkpt>
      <trkpt lat="43.04543" lon="1.54904">
        <ele>459.14</ele>
        <time>2024-09-18T15:52:38.000Z</time>
      </trkpt>
      <trkpt lat="43.04541" lon="1.54922">
        <ele>459.85</ele>
        <time>2024-09-18T15:52:43.000Z</time>
      </trkpt>
      <trkpt lat="43.04539" lon="1.54941">
        <ele>460.57</ele>
        <time>2024-09-18T15:52:48.000Z</time>
      </trkpt>
      <trkpt lat="43.04537" lon="1.5496">
        <ele>461.28</ele>
        <time>2024-09-18T15:52:53.000Z</time>
      </trkpt>
      <trkpt lat="43.04535" lon="1.54978">
        <ele>461.98</ele>
        <time>2024-09-18T15:52:58.000Z</time>
      </trkpt>
      <trkpt lat="43.04535" lon="1.54993">
        <ele>462.68</ele>
        <time>2024-09-18T15:53:03.000Z</time>
      </trkpt>
      <trkpt lat="43.04536" lon="1.55008">
        <ele>463.39</ele>
        <time>2024-09-18T15:53:08.000Z</time>
      </trkpt>
      <trkpt lat="43.04537" lon="1.55026">
        <ele>464.07</ele>
        <time>2024-09-18T15:53:13.000Z</time>
      </trkpt>
      <trkpt lat="43.0454" lon="1.55042">
        <ele>464.71</ele>
        <time>2024-09-18T15:53:18.000Z</time>
      </trkpt>
      <trkpt lat="43.04544" lon="1.55057">
        <ele>465.32</ele>
        <time>2024-09-18T15:53:23.000Z</time>
      </trkpt>
      <trkpt lat="43.04549" lon="1.55072">
        <ele>465.91</ele>
        <time>2024-09-18T15:53:28.000Z</time>
      </trkpt>
      <trkpt lat="43.04555" lon="1.55083">
        <ele>466.6</ele>
        <time>2024-09-18T15:53:34.000Z</time>
      </trkpt>
      <trkpt lat="43.0456" lon="1.55096">
        <ele>467.26</ele>
        <time>2024-09-18T15:53:40.000Z</time>
      </trkpt>
      <trkpt lat="43.04565" lon="1.55106">
        <ele>467.79</ele>
        <time>2024-09-18T15:53:45.000Z</time>
      </trkpt>
      <trkpt lat="43.04571" lon="1.55117">
        <ele>468.42</ele>
        <time>2024-09-18T15:53:51.000Z</time>
      </trkpt>
      <trkpt lat="43.04577" lon="1.55127">
        <ele>469.06</ele>
        <time>2024-09-18T15:53:57.000Z</time>
      </trkpt>
      <trkpt lat="43.04585" lon="1.55135">
        <ele>469.64</ele>
        <time>2024-09-18T15:54:02.000Z</time>
      </trkpt>
      <trkpt lat="43.04593" lon="1.55146">
        <ele>470.25</ele>
        <time>2024-09-18T15:54:07.000Z</time>
      </trkpt>
      <trkpt lat="43.04601" lon="1.55155">
        <ele>471.02</ele>
        <time>2024-09-18T15:54:13.000Z</time>
      </trkpt>
      <trkpt lat="43.04609" lon="1.55166">
        <ele>471.74</ele>
        <time>2024-09-18T15:54:18.000Z</time>
      </trkpt>
      <trkpt lat="43.04614" lon="1.55177">
        <ele>472.51</ele>
        <time>2024-09-18T15:54:23.000Z</time>
      </trkpt>
      <trkpt lat="43.04621" lon="1.55188">
        <ele>473.32</ele>
        <time>2024-09-18T15:54:28.000Z</time>
      </trkpt>
      <trkpt lat="43.04626" lon="1.552">
        <ele>474.15</ele>
        <time>2024-09-18T15:54:33.000Z</time>
      </trkpt>
      <trkpt lat="43.04632" lon="1.55213">
        <ele>474.94</ele>
        <time>2024-09-18T15:54:38.000Z</time>
      </trkpt>
      <trkpt lat="43.04636" lon="1.55226">
        <ele>475.7</ele>
        <time>2024-09-18T15:54:43.000Z</time>
      </trkpt>
      <trkpt lat="43.0464" lon="1.5524">
        <ele>476.44</ele>
        <time>2024-09-18T15:54:48.000Z</time>
      </trkpt>
      <trkpt lat="43.04645" lon="1.55254">
        <ele>477.15</ele>
        <time>2024-09-18T15:54:53.000Z</time>
      </trkpt>
      <trkpt lat="43.04648" lon="1.55266">
        <ele>477.95</ele>
        <time>2024-09-18T15:54:59.000Z</time>
      </trkpt>
      <trkpt lat="43.0465" lon="1.5528">
        <ele>478.55</ele>
        <time>2024-09-18T15:55:04.000Z</time>
      </trkpt>
      <trkpt lat="43.04653" lon="1.55294">
        <ele>479.08</ele>
        <time>2024-09-18T15:55:09.000Z</time>
      </trkpt>
      <trkpt lat="43.04655" lon="1.55307">
        <ele>479.59</ele>
        <time>2024-09-18T15:55:14.000Z</time>
      </trkpt>
      <trkpt lat="43.04656" lon="1.5532">
        <ele>480.13</ele>
        <time>2024-09-18T15:55:19.000Z</time>
      </trkpt>
      <trkpt lat="43.04656" lon="1.55334">
        <ele>480.67</ele>
        <time>2024-09-18T15:55:24.000Z</time>
      </trkpt>
      <trkpt lat="43.04654" lon="1.55347">
        <ele>481.21</ele>
        <time>2024-09-18T15:55:29.000Z</time>
      </trkpt>
      <trkpt lat="43.04654" lon="1.55362">
        <ele>481.74</ele>
        <time>2024-09-18T15:55:34.000Z</time>
      </trkpt>
      <trkpt lat="43.04652" lon="1.55376">
        <ele>482.27</ele>
        <time>2024-09-18T15:55:39.000Z</time>
      </trkpt>
      <trkpt lat="43.04651" lon="1.55389">
        <ele>482.79</ele>
        <time>2024-09-18T15:55:44.000Z</time>
      </trkpt>
      <trkpt lat="43.0465" lon="1.55402">
        <ele>483.43</ele>
        <time>2024-09-18T15:55:50.000Z</time>
      </trkpt>
      <trkpt lat="43.04648" lon="1.55414">
        <ele>483.98</ele>
        <time>2024-09-18T15:55:55.000Z</time>
      </trkpt>
      <trkpt lat="43.04645" lon="1.55427">
        <ele>484.68</ele>
        <time>2024-09-18T15:56:01.000Z</time>
      </trkpt>
      <trkpt lat="43.04643" lon="1.5544">
        <ele>485.44</ele>
        <time>2024-09-18T15:56:07.000Z</time>
      </trkpt>
      <trkpt lat="43.04642" lon="1.55454">
        <ele>486.24</ele>
        <time>2024-09-18T15:56:13.000Z</time>
      </trkpt>
      <trkpt lat="43.0464" lon="1.55468">
        <ele>487.09</ele>
        <time>2024-09-18T15:56:19.000Z</time>
      </trkpt>
      <trkpt lat="43.04638" lon="1.55482">
        <ele>487.78</ele>
        <time>2024-09-18T15:56:24.000Z</time>
      </trkpt>
      <trkpt lat="43.04638" lon="1.55494">
        <ele>488.42</ele>
        <time>2024-09-18T15:56:29.000Z</time>
      </trkpt>
      <trkpt lat="43.04637" lon="1.55509">
        <ele>489.11</ele>
        <time>2024-09-18T15:56:35.000Z</time>
      </trkpt>
      <trkpt lat="43.04636" lon="1.55522">
        <ele>489.63</ele>
        <time>2024-09-18T15:56:40.000Z</time>
      </trkpt>
      <trkpt lat="43.04637" lon="1.55535">
        <ele>490.11</ele>
        <time>2024-09-18T15:56:45.000Z</time>
      </trkpt>
      <trkpt lat="43.04637" lon="1.55548">
        <ele>490.53</ele>
        <time>2024-09-18T15:56:50.000Z</time>
      </trkpt>
      <trkpt lat="43.04638" lon="1.55562">
        <ele>490.99</ele>
        <time>2024-09-18T15:56:56.000Z</time>
      </trkpt>
      <trkpt lat="43.0464" lon="1.55576">
        <ele>491.39</ele>
        <time>2024-09-18T15:57:02.000Z</time>
      </trkpt>
      <trkpt lat="43.04642" lon="1.55589">
        <ele>491.69</ele>
        <time>2024-09-18T15:57:07.000Z</time>
      </trkpt>
      <trkpt lat="43.04644" lon="1.55603">
        <ele>492.01</ele>
        <time>2024-09-18T15:57:13.000Z</time>
      </trkpt>
      <trkpt lat="43.04646" lon="1.55616">
        <ele>492.25</ele>
        <time>2024-09-18T15:57:18.000Z</time>
      </trkpt>
      <trkpt lat="43.04647" lon="1.55629">
        <ele>492.47</ele>
        <time>2024-09-18T15:57:23.000Z</time>
      </trkpt>
      <trkpt lat="43.04647" lon="1.55642">
        <ele>492.68</ele>
        <time>2024-09-18T15:57:28.000Z</time>
      </trkpt>
      <trkpt lat="43.04645" lon="1.55655">
        <ele>492.87</ele>
        <time>2024-09-18T15:57:33.000Z</time>
      </trkpt>
      <trkpt lat="43.04643" lon="1.55669">
        <ele>493.09</ele>
        <time>2024-09-18T15:57:39.000Z</time>
      </trkpt>
      <trkpt lat="43.04639" lon="1.55682">
        <ele>493.3</ele>
        <time>2024-09-18T15:57:45.000Z</time>
      </trkpt>
      <trkpt lat="43.04635" lon="1.55696">
        <ele>493.48</ele>
        <time>2024-09-18T15:57:51.000Z</time>
      </trkpt>
      <trkpt lat="43.0463" lon="1.55707">
        <ele>493.64</ele>
        <time>2024-09-18T15:57:56.000Z</time>
      </trkpt>
      <trkpt lat="43.04624" lon="1.55719">
        <ele>493.84</ele>
        <time>2024-09-18T15:58:02.000Z</time>
      </trkpt>
      <trkpt lat="43.04616" lon="1.55726">
        <ele>494.02</ele>
        <time>2024-09-18T15:58:07.000Z</time>
      </trkpt>
      <trkpt lat="43.04607" lon="1.55727">
        <ele>494.22</ele>
        <time>2024-09-18T15:58:12.000Z</time>
      </trkpt>
      <trkpt lat="43.04598" lon="1.55723">
        <ele>494.42</ele>
        <time>2024-09-18T15:58:17.000Z</time>
      </trkpt>
      <trkpt lat="43.04589" lon="1.55716">
        <ele>494.63</ele>
        <time>2024-09-18T15:58:22.000Z</time>
      </trkpt>
      <trkpt lat="43.0458" lon="1.55709">
        <ele>494.89</ele>
        <time>2024-09-18T15:58:28.000Z</time>
      </trkpt>
      <trkpt lat="43.0457" lon="1.55709">
        <ele>495.21</ele>
        <time>2024-09-18T15:58:35.000Z</time>
      </trkpt>
      <trkpt lat="43.04562" lon="1.55717">
        <ele>495.5</ele>
        <time>2024-09-18T15:58:41.000Z</time>
      </trkpt>
      <trkpt lat="43.04556" lon="1.55728">
        <ele>495.75</ele>
        <time>2024-09-18T15:58:46.000Z</time>
      </trkpt>
      <trkpt lat="43.0455" lon="1.5574">
        <ele>496.07</ele>
        <time>2024-09-18T15:58:52.000Z</time>
      </trkpt>
      <trkpt lat="43.04546" lon="1.55752">
        <ele>496.38</ele>
        <time>2024-09-18T15:58:58.000Z</time>
      </trkpt>
      <trkpt lat="43.04541" lon="1.55763">
        <ele>496.69</ele>
        <time>2024-09-18T15:59:04.000Z</time>
      </trkpt>
      <trkpt lat="43.04536" lon="1.55774">
        <ele>497</ele>
        <time>2024-09-18T15:59:10.000Z</time>
      </trkpt>
      <trkpt lat="43.04532" lon="1.55786">
        <ele>497.3</ele>
        <time>2024-09-18T15:59:16.000Z</time>
      </trkpt>
      <trkpt lat="43.04527" lon="1.55797">
        <ele>497.58</ele>
        <time>2024-09-18T15:59:22.000Z</time>
      </trkpt>
      <trkpt lat="43.04521" lon="1.55807">
        <ele>497.82</ele>
        <time>2024-09-18T15:59:27.000Z</time>
      </trkpt>
      <trkpt lat="43.04513" lon="1.55817">
        <ele>498.11</ele>
        <time>2024-09-18T15:59:33.000Z</time>
      </trkpt>
      <trkpt lat="43.04505" lon="1.55826">
        <ele>498.41</ele>
        <time>2024-09-18T15:59:39.000Z</time>
      </trkpt>
      <trkpt lat="43.04498" lon="1.55835">
        <ele>498.68</ele>
        <time>2024-09-18T15:59:44.000Z</time>
      </trkpt>
      <trkpt lat="43.04491" lon="1.55843">
        <ele>498.94</ele>
        <time>2024-09-18T15:59:49.000Z</time>
      </trkpt>
      <trkpt lat="43.04484" lon="1.55853">
        <ele>499.26</ele>
        <time>2024-09-18T15:59:55.000Z</time>
      </trkpt>
      <trkpt lat="43.04477" lon="1.55861">
        <ele>499.58</ele>
        <time>2024-09-18T16:00:01.000Z</time>
      </trkpt>
      <trkpt lat="43.04469" lon="1.5587">
        <ele>499.89</ele>
        <time>2024-09-18T16:00:07.000Z</time>
      </trkpt>
      <trkpt lat="43.04462" lon="1.5588">
        <ele>500.21</ele>
        <time>2024-09-18T16:00:13.000Z</time>
      </trkpt>
      <trkpt lat="43.04457" lon="1.5589">
        <ele>500.49</ele>
        <time>2024-09-18T16:00:18.000Z</time>
      </trkpt>
      <trkpt lat="43.04452" lon="1.55902">
        <ele>500.76</ele>
        <time>2024-09-18T16:00:23.000Z</time>
      </trkpt>
      <trkpt lat="43.04448" lon="1.55917">
        <ele>501.03</ele>
        <time>2024-09-18T16:00:28.000Z</time>
      </trkpt>
      <trkpt lat="43.04446" lon="1.55931">
        <ele>501.49</ele>
        <time>2024-09-18T16:00:49.000Z</time>
      </trkpt>
      <trkpt lat="43.04444" lon="1.5595">
        <ele>501.76</ele>
        <time>2024-09-18T16:00:54.000Z</time>
      </trkpt>
      <trkpt lat="43.04442" lon="1.55978">
        <ele>503.5</ele>
        <time>2024-09-18T16:00:59.000Z</time>
      </trkpt>
      <trkpt lat="43.04448" lon="1.56017">
        <ele>504.21</ele>
        <time>2024-09-18T16:01:04.000Z</time>
      </trkpt>
      <trkpt lat="43.0447" lon="1.56056">
        <ele>504.55</ele>
        <time>2024-09-18T16:01:09.000Z</time>
      </trkpt>
      <trkpt lat="43.04497" lon="1.56097">
        <ele>504.64</ele>
        <time>2024-09-18T16:01:14.000Z</time>
      </trkpt>
      <trkpt lat="43.04525" lon="1.5614">
        <ele>504.83</ele>
        <time>2024-09-18T16:01:19.000Z</time>
      </trkpt>
      <trkpt lat="43.04566" lon="1.56185">
        <ele>504.9</ele>
        <time>2024-09-18T16:01:24.999Z</time>
      </trkpt>
      <trkpt lat="43.04604" lon="1.56218">
        <ele>504.99</ele>
        <time>2024-09-18T16:01:29.999Z</time>
      </trkpt>
      <trkpt lat="43.04642" lon="1.56243">
        <ele>505.04</ele>
        <time>2024-09-18T16:01:34.999Z</time>
      </trkpt>
      <trkpt lat="43.04679" lon="1.56257">
        <ele>505.16</ele>
        <time>2024-09-18T16:01:39.999Z</time>
      </trkpt>
      <trkpt lat="43.04717" lon="1.5627">
        <ele>505.02</ele>
        <time>2024-09-18T16:01:44.999Z</time>
      </trkpt>
      <trkpt lat="43.04754" lon="1.56288">
        <ele>504.92</ele>
        <time>2024-09-18T16:01:49.999Z</time>
      </trkpt>
      <trkpt lat="43.04785" lon="1.56316">
        <ele>504.89</ele>
        <time>2024-09-18T16:01:54.999Z</time>
      </trkpt>
      <trkpt lat="43.04812" lon="1.56346">
        <ele>504.51</ele>
        <time>2024-09-18T16:01:59.999Z</time>
      </trkpt>
      <trkpt lat="43.04835" lon="1.56379">
        <ele>503.79</ele>
        <time>2024-09-18T16:02:04.999Z</time>
      </trkpt>
      <trkpt lat="43.04857" lon="1.56418">
        <ele>502.89</ele>
        <time>2024-09-18T16:02:09.999Z</time>
      </trkpt>
      <trkpt lat="43.04879" lon="1.56463">
        <ele>502.05</ele>
        <time>2024-09-18T16:02:14.999Z</time>
      </trkpt>
      <trkpt lat="43.04905" lon="1.56509">
        <ele>501.36</ele>
        <time>2024-09-18T16:02:19.999Z</time>
      </trkpt>
      <trkpt lat="43.04941" lon="1.56546">
        <ele>500.47</ele>
        <time>2024-09-18T16:02:24.999Z</time>
      </trkpt>
      <trkpt lat="43.04973" lon="1.5659">
        <ele>499.98</ele>
        <time>2024-09-18T16:02:29.999Z</time>
      </trkpt>
      <trkpt lat="43.04996" lon="1.5664">
        <ele>499.11</ele>
        <time>2024-09-18T16:02:34.999Z</time>
      </trkpt>
      <trkpt lat="43.0502" lon="1.56687">
        <ele>497.51</ele>
        <time>2024-09-18T16:02:39.999Z</time>
      </trkpt>
      <trkpt lat="43.05039" lon="1.56738">
        <ele>495.44</ele>
        <time>2024-09-18T16:02:44.999Z</time>
      </trkpt>
      <trkpt lat="43.05056" lon="1.56794">
        <ele>493.03</ele>
        <time>2024-09-18T16:02:49.999Z</time>
      </trkpt>
      <trkpt lat="43.05074" lon="1.56856">
        <ele>490.32</ele>
        <time>2024-09-18T16:02:54.999Z</time>
      </trkpt>
      <trkpt lat="43.05097" lon="1.56918">
        <ele>487.84</ele>
        <time>2024-09-18T16:02:59.999Z</time>
      </trkpt>
      <trkpt lat="43.05119" lon="1.56984">
        <ele>486.51</ele>
        <time>2024-09-18T16:03:04.999Z</time>
      </trkpt>
      <trkpt lat="43.0513" lon="1.57052">
        <ele>484.68</ele>
        <time>2024-09-18T16:03:09.999Z</time>
      </trkpt>
      <trkpt lat="43.0514" lon="1.57119">
        <ele>482.55</ele>
        <time>2024-09-18T16:03:14.999Z</time>
      </trkpt>
      <trkpt lat="43.05152" lon="1.57182">
        <ele>480.33</ele>
        <time>2024-09-18T16:03:19.999Z</time>
      </trkpt>
      <trkpt lat="43.05168" lon="1.57235">
        <ele>477.96</ele>
        <time>2024-09-18T16:03:24.999Z</time>
      </trkpt>
      <trkpt lat="43.05179" lon="1.57287">
        <ele>475.66</ele>
        <time>2024-09-18T16:03:29.999Z</time>
      </trkpt>
      <trkpt lat="43.0519" lon="1.57339">
        <ele>474.11</ele>
        <time>2024-09-18T16:03:34.999Z</time>
      </trkpt>
      <trkpt lat="43.052" lon="1.57387">
        <ele>472.12</ele>
        <time>2024-09-18T16:03:39.999Z</time>
      </trkpt>
      <trkpt lat="43.05212" lon="1.57437">
        <ele>469.58</ele>
        <time>2024-09-18T16:03:44.999Z</time>
      </trkpt>
      <trkpt lat="43.05223" lon="1.57488">
        <ele>467.38</ele>
        <time>2024-09-18T16:03:49.999Z</time>
      </trkpt>
      <trkpt lat="43.05236" lon="1.57541">
        <ele>465.18</ele>
        <time>2024-09-18T16:03:54.999Z</time>
      </trkpt>
      <trkpt lat="43.05252" lon="1.57595">
        <ele>463.68</ele>
        <time>2024-09-18T16:03:59.999Z</time>
      </trkpt>
      <trkpt lat="43.05269" lon="1.57652">
        <ele>462.58</ele>
        <time>2024-09-18T16:04:04.999Z</time>
      </trkpt>
      <trkpt lat="43.05281" lon="1.57715">
        <ele>461.32</ele>
        <time>2024-09-18T16:04:09.999Z</time>
      </trkpt>
      <trkpt lat="43.05288" lon="1.57781">
        <ele>459.92</ele>
        <time>2024-09-18T16:04:14.999Z</time>
      </trkpt>
      <trkpt lat="43.05293" lon="1.57848">
        <ele>458.57</ele>
        <time>2024-09-18T16:04:19.999Z</time>
      </trkpt>
      <trkpt lat="43.053" lon="1.57913">
        <ele>457.76</ele>
        <time>2024-09-18T16:04:24.999Z</time>
      </trkpt>
      <trkpt lat="43.05311" lon="1.57976">
        <ele>457.56</ele>
        <time>2024-09-18T16:04:29.999Z</time>
      </trkpt>
      <trkpt lat="43.05323" lon="1.58042">
        <ele>454.13</ele>
        <time>2024-09-18T16:04:34.999Z</time>
      </trkpt>
      <trkpt lat="43.05331" lon="1.5811">
        <ele>450.36</ele>
        <time>2024-09-18T16:04:39.999Z</time>
      </trkpt>
      <trkpt lat="43.05339" lon="1.58179">
        <ele>447.97</ele>
        <time>2024-09-18T16:04:44.999Z</time>
      </trkpt>
      <trkpt lat="43.05352" lon="1.58247">
        <ele>445.39</ele>
        <time>2024-09-18T16:04:49.999Z</time>
      </trkpt>
      <trkpt lat="43.05367" lon="1.58314">
        <ele>442.63</ele>
        <time>2024-09-18T16:04:54.999Z</time>
      </trkpt>
      <trkpt lat="43.05382" lon="1.58379">
        <ele>439.72</ele>
        <time>2024-09-18T16:04:59.999Z</time>
      </trkpt>
      <trkpt lat="43.05396" lon="1.58445">
        <ele>436.62</ele>
        <time>2024-09-18T16:05:04.999Z</time>
      </trkpt>
      <trkpt lat="43.0541" lon="1.5851">
        <ele>433.4</ele>
        <time>2024-09-18T16:05:09.999Z</time>
      </trkpt>
      <trkpt lat="43.05427" lon="1.5857">
        <ele>430.78</ele>
        <time>2024-09-18T16:05:14.999Z</time>
      </trkpt>
      <trkpt lat="43.05465" lon="1.5857">
        <ele>428.88</ele>
        <time>2024-09-18T16:05:19.999Z</time>
      </trkpt>
      <trkpt lat="43.05475" lon="1.58612">
        <ele>427.76</ele>
        <time>2024-09-18T16:05:24.999Z</time>
      </trkpt>
      <trkpt lat="43.05459" lon="1.58652">
        <ele>427.65</ele>
        <time>2024-09-18T16:05:29.999Z</time>
      </trkpt>
      <trkpt lat="43.05449" lon="1.58697">
        <ele>426.75</ele>
        <time>2024-09-18T16:05:34.999Z</time>
      </trkpt>
      <trkpt lat="43.05452" lon="1.58744">
        <ele>424.91</ele>
        <time>2024-09-18T16:05:39.999Z</time>
      </trkpt>
      <trkpt lat="43.0546" lon="1.58788">
        <ele>424.22</ele>
        <time>2024-09-18T16:05:44.999Z</time>
      </trkpt>
      <trkpt lat="43.05466" lon="1.58835">
        <ele>424.45</ele>
        <time>2024-09-18T16:05:49.999Z</time>
      </trkpt>
      <trkpt lat="43.0547" lon="1.58883">
        <ele>422.79</ele>
        <time>2024-09-18T16:05:54.999Z</time>
      </trkpt>
      <trkpt lat="43.05471" lon="1.58934">
        <ele>420.89</ele>
        <time>2024-09-18T16:05:59.999Z</time>
      </trkpt>
      <trkpt lat="43.05469" lon="1.58988">
        <ele>419.8</ele>
        <time>2024-09-18T16:06:04.999Z</time>
      </trkpt>
      <trkpt lat="43.05463" lon="1.59034">
        <ele>418.23</ele>
        <time>2024-09-18T16:06:09.999Z</time>
      </trkpt>
      <trkpt lat="43.05458" lon="1.59089">
        <ele>416.86</ele>
        <time>2024-09-18T16:06:14.999Z</time>
      </trkpt>
      <trkpt lat="43.05453" lon="1.59144">
        <ele>416.05</ele>
        <time>2024-09-18T16:06:19.999Z</time>
      </trkpt>
      <trkpt lat="43.05449" lon="1.59194">
        <ele>414.7</ele>
        <time>2024-09-18T16:06:24.999Z</time>
      </trkpt>
      <trkpt lat="43.05449" lon="1.59246">
        <ele>412.83</ele>
        <time>2024-09-18T16:06:29.999Z</time>
      </trkpt>
      <trkpt lat="43.05445" lon="1.59299">
        <ele>410.11</ele>
        <time>2024-09-18T16:06:34.999Z</time>
      </trkpt>
      <trkpt lat="43.05435" lon="1.59351">
        <ele>407.97</ele>
        <time>2024-09-18T16:06:39.999Z</time>
      </trkpt>
      <trkpt lat="43.0543" lon="1.59401">
        <ele>406.85</ele>
        <time>2024-09-18T16:06:44.999Z</time>
      </trkpt>
      <trkpt lat="43.05426" lon="1.59453">
        <ele>406.5</ele>
        <time>2024-09-18T16:06:49.999Z</time>
      </trkpt>
      <trkpt lat="43.05428" lon="1.59508">
        <ele>404.71</ele>
        <time>2024-09-18T16:06:54.999Z</time>
      </trkpt>
      <trkpt lat="43.05427" lon="1.59567">
        <ele>403.75</ele>
        <time>2024-09-18T16:06:59.999Z</time>
      </trkpt>
      <trkpt lat="43.05432" lon="1.59621">
        <ele>403.39</ele>
        <time>2024-09-18T16:07:04.999Z</time>
      </trkpt>
      <trkpt lat="43.05443" lon="1.59673">
        <ele>395.8</ele>
        <time>2024-09-18T16:07:09.999Z</time>
      </trkpt>
      <trkpt lat="43.05453" lon="1.5973">
        <ele>390.24</ele>
        <time>2024-09-18T16:07:14.999Z</time>
      </trkpt>
      <trkpt lat="43.05462" lon="1.59786">
        <ele>388.33</ele>
        <time>2024-09-18T16:07:19.999Z</time>
      </trkpt>
      <trkpt lat="43.05471" lon="1.5984">
        <ele>386.95</ele>
        <time>2024-09-18T16:07:24.999Z</time>
      </trkpt>
      <trkpt lat="43.05483" lon="1.59892">
        <ele>386.09</ele>
        <time>2024-09-18T16:07:29.999Z</time>
      </trkpt>
      <trkpt lat="43.05493" lon="1.59944">
        <ele>385.16</ele>
        <time>2024-09-18T16:07:34.999Z</time>
      </trkpt>
      <trkpt lat="43.05504" lon="1.59995">
        <ele>384.19</ele>
        <time>2024-09-18T16:07:39.999Z</time>
      </trkpt>
      <trkpt lat="43.05515" lon="1.60047">
        <ele>383.08</ele>
        <time>2024-09-18T16:07:44.999Z</time>
      </trkpt>
      <trkpt lat="43.05526" lon="1.60099">
        <ele>382.12</ele>
        <time>2024-09-18T16:07:49.999Z</time>
      </trkpt>
      <trkpt lat="43.05536" lon="1.6015">
        <ele>381.34</ele>
        <time>2024-09-18T16:07:54.999Z</time>
      </trkpt>
      <trkpt lat="43.05545" lon="1.60201">
        <ele>380.62</ele>
        <time>2024-09-18T16:07:59.999Z</time>
      </trkpt>
      <trkpt lat="43.05553" lon="1.60252">
        <ele>379.74</ele>
        <time>2024-09-18T16:08:04.999Z</time>
      </trkpt>
      <trkpt lat="43.0556" lon="1.60301">
        <ele>378.86</ele>
        <time>2024-09-18T16:08:09.999Z</time>
      </trkpt>
      <trkpt lat="43.05568" lon="1.60354">
        <ele>377.95</ele>
        <time>2024-09-18T16:08:14.999Z</time>
      </trkpt>
      <trkpt lat="43.05577" lon="1.60409">
        <ele>377.18</ele>
        <time>2024-09-18T16:08:19.999Z</time>
      </trkpt>
      <trkpt lat="43.05593" lon="1.6046">
        <ele>376.28</ele>
        <time>2024-09-18T16:08:24.999Z</time>
      </trkpt>
      <trkpt lat="43.05618" lon="1.60495">
        <ele>375.2</ele>
        <time>2024-09-18T16:08:29.999Z</time>
      </trkpt>
      <trkpt lat="43.05639" lon="1.60521">
        <ele>374.28</ele>
        <time>2024-09-18T16:08:34.999Z</time>
      </trkpt>
      <trkpt lat="43.05646" lon="1.60532">
        <ele>374.16</ele>
        <time>2024-09-18T16:08:39.999Z</time>
      </trkpt>
      <trkpt lat="43.05655" lon="1.60543">
        <ele>374.09</ele>
        <time>2024-09-18T16:08:47.999Z</time>
      </trkpt>
      <trkpt lat="43.0567" lon="1.60561">
        <ele>372.9</ele>
        <time>2024-09-18T16:08:52.999Z</time>
      </trkpt>
      <trkpt lat="43.05687" lon="1.60584">
        <ele>371.31</ele>
        <time>2024-09-18T16:08:57.999Z</time>
      </trkpt>
      <trkpt lat="43.057" lon="1.60605">
        <ele>370.5</ele>
        <time>2024-09-18T16:09:02.999Z</time>
      </trkpt>
      <trkpt lat="43.05702" lon="1.60621">
        <ele>370.23</ele>
        <time>2024-09-18T16:09:11.999Z</time>
      </trkpt>
      <trkpt lat="43.05698" lon="1.60652">
        <ele>368.79</ele>
        <time>2024-09-18T16:09:16.999Z</time>
      </trkpt>
      <trkpt lat="43.0569" lon="1.60686">
        <ele>368.05</ele>
        <time>2024-09-18T16:09:21.999Z</time>
      </trkpt>
      <trkpt lat="43.05684" lon="1.60711">
        <ele>367.81</ele>
        <time>2024-09-18T16:09:26.999Z</time>
      </trkpt>
      <trkpt lat="43.05678" lon="1.60733">
        <ele>367.63</ele>
        <time>2024-09-18T16:09:31.999Z</time>
      </trkpt>
      <trkpt lat="43.05674" lon="1.60754">
        <ele>367.54</ele>
        <time>2024-09-18T16:09:36.999Z</time>
      </trkpt>
      <trkpt lat="43.05672" lon="1.60773">
        <ele>367.43</ele>
        <time>2024-09-18T16:09:41.999Z</time>
      </trkpt>
      <trkpt lat="43.05671" lon="1.60787">
        <ele>362.25</ele>
        <time>2024-09-18T16:16:46.000Z</time>
      </trkpt>
      <trkpt lat="43.05671" lon="1.60802">
        <ele>361.76</ele>
        <time>2024-09-18T16:16:54.000Z</time>
      </trkpt>
      <trkpt lat="43.05674" lon="1.60814">
        <ele>361.27</ele>
        <time>2024-09-18T16:17:03.000Z</time>
      </trkpt>
      <trkpt lat="43.05681" lon="1.60823">
        <ele>360.93</ele>
        <time>2024-09-18T16:17:10.000Z</time>
      </trkpt>
      <trkpt lat="43.05686" lon="1.60834">
        <ele>360.52</ele>
        <time>2024-09-18T16:17:19.000Z</time>
      </trkpt>
      <trkpt lat="43.05681" lon="1.60845">
        <ele>360.03</ele>
        <time>2024-09-18T16:17:31.000Z</time>
      </trkpt>
      <trkpt lat="43.05677" lon="1.60857">
        <ele>359.51</ele>
        <time>2024-09-18T16:18:02.000Z</time>
      </trkpt>
      <trkpt lat="43.05685" lon="1.60862">
        <ele>359.23</ele>
        <time>2024-09-18T16:18:11.000Z</time>
      </trkpt>
      <trkpt lat="43.05683" lon="1.6085">
        <ele>358.76</ele>
        <time>2024-09-18T16:18:37.000Z</time>
      </trkpt>
      <trkpt lat="43.05687" lon="1.60861">
        <ele>357.67</ele>
        <time>2024-09-18T16:19:55.000Z</time>
      </trkpt>
      <trkpt lat="43.05676" lon="1.60854">
        <ele>357.61</ele>
        <time>2024-09-18T16:20:02.000Z</time>
      </trkpt>
      <trkpt lat="43.05682" lon="1.60843">
        <ele>357.5</ele>
        <time>2024-09-18T16:20:39.000Z</time>
      </trkpt>
      <trkpt lat="43.05679" lon="1.60859">
        <ele>357.5</ele>
        <time>2024-09-18T16:22:29.000Z</time>
      </trkpt>
      <trkpt lat="43.05676" lon="1.60848">
        <ele>357.56</ele>
        <time>2024-09-18T16:24:21.000Z</time>
      </trkpt>
      <trkpt lat="43.05666" lon="1.6085">
        <ele>357.63</ele>
        <time>2024-09-18T16:25:55.999Z</time>
      </trkpt>
      <trkpt lat="43.0567" lon="1.60861">
        <ele>357.66</ele>
        <time>2024-09-18T16:26:38.999Z</time>
      </trkpt>
      <trkpt lat="43.05669" lon="1.60849">
        <ele>357.71</ele>
        <time>2024-09-18T16:27:09.999Z</time>
      </trkpt>
      <trkpt lat="43.05675" lon="1.60859">
        <ele>357.8</ele>
        <time>2024-09-18T16:29:08.999Z</time>
      </trkpt>
      <trkpt lat="43.05679" lon="1.60847">
        <ele>358.16</ele>
        <time>2024-09-18T16:33:12.999Z</time>
      </trkpt>
      <trkpt lat="43.05687" lon="1.60854">
        <ele>358.25</ele>
        <time>2024-09-18T16:34:31.999Z</time>
      </trkpt>
      <trkpt lat="43.05689" lon="1.60841">
        <ele>358.57</ele>
        <time>2024-09-18T16:40:52.000Z</time>
      </trkpt>
      <trkpt lat="43.05689" lon="1.60854">
        <ele>358.89</ele>
        <time>2024-09-18T16:42:19.000Z</time>
      </trkpt>
      <trkpt lat="43.05681" lon="1.60858">
        <ele>357.75</ele>
        <time>2024-09-18T16:46:26.000Z</time>
      </trkpt>
      <trkpt lat="43.05671" lon="1.60861">
        <ele>357.46</ele>
        <time>2024-09-18T16:47:24.000Z</time>
      </trkpt>
    </trkseg>
  </trk>
</gpx>